<?xml version="1.0" encoding="UTF-8"?>
<gpx version="1.1" creator="https://www.youtrack.es" xsi:schemaLocation="http://www.topografix.com/GPX/1/1 http://www.topografix.com/GPX/1/1/gpx.xsd http://www.garmin.com/xmlschemas/GpxExtensions/v3 http://www.garmin.com/xmlschemas/GpxExtensionsv3.xsd http://www.garmin.com/xmlschemas/TrackPointExtension/v1 http://www.garmin.com/xmlschemas/TrackPointExtensionv1.xsd" xmlns:gpxtpx="http://www.garmin.com/xmlschemas/TrackPointExtension/v1" xmlns:gpxx="http://www.garmin.com/xmlschemas/GpxExtensions/v3" xmlns:xsi="http://www.w3.org/2001/XMLSchema-instance">
  <metadata>
    <link href="https://www.youtrack.es">
      <text>YouTrack.es</text>
    </link>
    <time>2026-05-08T14:24:57Z</time>
  </metadata>
  <trk>
    <src>https://www.youtrack.es</src>
    <link href="https://www.youtrack.es/ruta/1413-montmaneu-14">
      <text>YouTrack.es</text>
    </link>
    <trkseg>
      <trkpt lat="41.387102" lon="0.425596">
        <ele>319.60</ele>
        <time>2018-06-10T09:45:20Z</time>
      </trkpt>
      <trkpt lat="41.387097" lon="0.425611">
        <ele>321.00</ele>
        <time>2018-06-10T09:45:38Z</time>
      </trkpt>
      <trkpt lat="41.387139" lon="0.425637">
        <ele>321.00</ele>
        <time>2018-06-10T09:45:42Z</time>
      </trkpt>
      <trkpt lat="41.387176" lon="0.425583">
        <ele>321.00</ele>
        <time>2018-06-10T09:45:44Z</time>
      </trkpt>
      <trkpt lat="41.387201" lon="0.425505">
        <ele>321.00</ele>
        <time>2018-06-10T09:45:46Z</time>
      </trkpt>
      <trkpt lat="41.387233" lon="0.425428">
        <ele>321.00</ele>
        <time>2018-06-10T09:45:48Z</time>
      </trkpt>
      <trkpt lat="41.387258" lon="0.425352">
        <ele>320.93</ele>
        <time>2018-06-10T09:45:50Z</time>
      </trkpt>
      <trkpt lat="41.387273" lon="0.425274">
        <ele>320.72</ele>
        <time>2018-06-10T09:45:52Z</time>
      </trkpt>
      <trkpt lat="41.387287" lon="0.425197">
        <ele>320.52</ele>
        <time>2018-06-10T09:45:54Z</time>
      </trkpt>
      <trkpt lat="41.387277" lon="0.425132">
        <ele>320.32</ele>
        <time>2018-06-10T09:45:56Z</time>
      </trkpt>
      <trkpt lat="41.387255" lon="0.425092">
        <ele>320.12</ele>
        <time>2018-06-10T09:45:58Z</time>
      </trkpt>
      <trkpt lat="41.387221" lon="0.425042">
        <ele>320.36</ele>
        <time>2018-06-10T09:46:01Z</time>
      </trkpt>
      <trkpt lat="41.387208" lon="0.424999">
        <ele>320.75</ele>
        <time>2018-06-10T09:46:03Z</time>
      </trkpt>
      <trkpt lat="41.387185" lon="0.424940">
        <ele>321.34</ele>
        <time>2018-06-10T09:46:06Z</time>
      </trkpt>
      <trkpt lat="41.387156" lon="0.424906">
        <ele>322.27</ele>
        <time>2018-06-10T09:46:12Z</time>
      </trkpt>
      <trkpt lat="41.387122" lon="0.424872">
        <ele>322.68</ele>
        <time>2018-06-10T09:46:16Z</time>
      </trkpt>
      <trkpt lat="41.387090" lon="0.424849">
        <ele>323.33</ele>
        <time>2018-06-10T09:46:20Z</time>
      </trkpt>
      <trkpt lat="41.387070" lon="0.424828">
        <ele>324.53</ele>
        <time>2018-06-10T09:46:23Z</time>
      </trkpt>
      <trkpt lat="41.387043" lon="0.424793">
        <ele>326.13</ele>
        <time>2018-06-10T09:46:27Z</time>
      </trkpt>
      <trkpt lat="41.387032" lon="0.424734">
        <ele>327.36</ele>
        <time>2018-06-10T09:46:31Z</time>
      </trkpt>
      <trkpt lat="41.387013" lon="0.424705">
        <ele>327.76</ele>
        <time>2018-06-10T09:46:33Z</time>
      </trkpt>
      <trkpt lat="41.386975" lon="0.424674">
        <ele>328.55</ele>
        <time>2018-06-10T09:46:37Z</time>
      </trkpt>
      <trkpt lat="41.386937" lon="0.424653">
        <ele>329.53</ele>
        <time>2018-06-10T09:46:41Z</time>
      </trkpt>
      <trkpt lat="41.386909" lon="0.424646">
        <ele>330.43</ele>
        <time>2018-06-10T09:46:44Z</time>
      </trkpt>
      <trkpt lat="41.386874" lon="0.424642">
        <ele>333.38</ele>
        <time>2018-06-10T09:47:03Z</time>
      </trkpt>
      <trkpt lat="41.386859" lon="0.424581">
        <ele>333.78</ele>
        <time>2018-06-10T09:47:07Z</time>
      </trkpt>
      <trkpt lat="41.386868" lon="0.424534">
        <ele>334.00</ele>
        <time>2018-06-10T09:47:10Z</time>
      </trkpt>
      <trkpt lat="41.386875" lon="0.424485">
        <ele>334.00</ele>
        <time>2018-06-10T09:47:13Z</time>
      </trkpt>
      <trkpt lat="41.386882" lon="0.424435">
        <ele>334.00</ele>
        <time>2018-06-10T09:47:15Z</time>
      </trkpt>
      <trkpt lat="41.386891" lon="0.424376">
        <ele>334.00</ele>
        <time>2018-06-10T09:47:17Z</time>
      </trkpt>
      <trkpt lat="41.386900" lon="0.424299">
        <ele>334.00</ele>
        <time>2018-06-10T09:47:19Z</time>
      </trkpt>
      <trkpt lat="41.386908" lon="0.424213">
        <ele>333.82</ele>
        <time>2018-06-10T09:47:21Z</time>
      </trkpt>
      <trkpt lat="41.386911" lon="0.424124">
        <ele>333.62</ele>
        <time>2018-06-10T09:47:23Z</time>
      </trkpt>
      <trkpt lat="41.386931" lon="0.424043">
        <ele>333.42</ele>
        <time>2018-06-10T09:47:25Z</time>
      </trkpt>
      <trkpt lat="41.386964" lon="0.423971">
        <ele>333.22</ele>
        <time>2018-06-10T09:47:27Z</time>
      </trkpt>
      <trkpt lat="41.386970" lon="0.423886">
        <ele>333.01</ele>
        <time>2018-06-10T09:47:29Z</time>
      </trkpt>
      <trkpt lat="41.386970" lon="0.423798">
        <ele>332.82</ele>
        <time>2018-06-10T09:47:31Z</time>
      </trkpt>
      <trkpt lat="41.386976" lon="0.423711">
        <ele>332.63</ele>
        <time>2018-06-10T09:47:33Z</time>
      </trkpt>
      <trkpt lat="41.386970" lon="0.423627">
        <ele>332.45</ele>
        <time>2018-06-10T09:47:35Z</time>
      </trkpt>
      <trkpt lat="41.386967" lon="0.423541">
        <ele>332.26</ele>
        <time>2018-06-10T09:47:37Z</time>
      </trkpt>
      <trkpt lat="41.386982" lon="0.423456">
        <ele>332.07</ele>
        <time>2018-06-10T09:47:39Z</time>
      </trkpt>
      <trkpt lat="41.386990" lon="0.423371">
        <ele>331.87</ele>
        <time>2018-06-10T09:47:41Z</time>
      </trkpt>
      <trkpt lat="41.386972" lon="0.423300">
        <ele>331.66</ele>
        <time>2018-06-10T09:47:43Z</time>
      </trkpt>
      <trkpt lat="41.386932" lon="0.423242">
        <ele>331.45</ele>
        <time>2018-06-10T09:47:45Z</time>
      </trkpt>
      <trkpt lat="41.386894" lon="0.423174">
        <ele>331.24</ele>
        <time>2018-06-10T09:47:47Z</time>
      </trkpt>
      <trkpt lat="41.386848" lon="0.423118">
        <ele>331.04</ele>
        <time>2018-06-10T09:47:49Z</time>
      </trkpt>
      <trkpt lat="41.386823" lon="0.423058">
        <ele>331.00</ele>
        <time>2018-06-10T09:47:51Z</time>
      </trkpt>
      <trkpt lat="41.386782" lon="0.423011">
        <ele>331.00</ele>
        <time>2018-06-10T09:47:53Z</time>
      </trkpt>
      <trkpt lat="41.386740" lon="0.422946">
        <ele>331.00</ele>
        <time>2018-06-10T09:47:55Z</time>
      </trkpt>
      <trkpt lat="41.386716" lon="0.422875">
        <ele>331.00</ele>
        <time>2018-06-10T09:47:57Z</time>
      </trkpt>
      <trkpt lat="41.386678" lon="0.422840">
        <ele>331.00</ele>
        <time>2018-06-10T09:47:59Z</time>
      </trkpt>
      <trkpt lat="41.386663" lon="0.422766">
        <ele>330.82</ele>
        <time>2018-06-10T09:48:01Z</time>
      </trkpt>
      <trkpt lat="41.386648" lon="0.422681">
        <ele>330.62</ele>
        <time>2018-06-10T09:48:03Z</time>
      </trkpt>
      <trkpt lat="41.386638" lon="0.422586">
        <ele>330.42</ele>
        <time>2018-06-10T09:48:05Z</time>
      </trkpt>
      <trkpt lat="41.386632" lon="0.422537">
        <ele>330.32</ele>
        <time>2018-06-10T09:48:06Z</time>
      </trkpt>
      <trkpt lat="41.386627" lon="0.422485">
        <ele>330.22</ele>
        <time>2018-06-10T09:48:07Z</time>
      </trkpt>
      <trkpt lat="41.386623" lon="0.422432">
        <ele>330.12</ele>
        <time>2018-06-10T09:48:08Z</time>
      </trkpt>
      <trkpt lat="41.386616" lon="0.422381">
        <ele>330.02</ele>
        <time>2018-06-10T09:48:09Z</time>
      </trkpt>
      <trkpt lat="41.386604" lon="0.422334">
        <ele>329.85</ele>
        <time>2018-06-10T09:48:10Z</time>
      </trkpt>
      <trkpt lat="41.386583" lon="0.422292">
        <ele>329.65</ele>
        <time>2018-06-10T09:48:11Z</time>
      </trkpt>
      <trkpt lat="41.386564" lon="0.422251">
        <ele>329.45</ele>
        <time>2018-06-10T09:48:12Z</time>
      </trkpt>
      <trkpt lat="41.386517" lon="0.422181">
        <ele>329.05</ele>
        <time>2018-06-10T09:48:14Z</time>
      </trkpt>
      <trkpt lat="41.386496" lon="0.422148">
        <ele>328.85</ele>
        <time>2018-06-10T09:48:15Z</time>
      </trkpt>
      <trkpt lat="41.386456" lon="0.422076">
        <ele>328.45</ele>
        <time>2018-06-10T09:48:17Z</time>
      </trkpt>
      <trkpt lat="41.386413" lon="0.422010">
        <ele>328.05</ele>
        <time>2018-06-10T09:48:19Z</time>
      </trkpt>
      <trkpt lat="41.386362" lon="0.421961">
        <ele>327.82</ele>
        <time>2018-06-10T09:48:21Z</time>
      </trkpt>
      <trkpt lat="41.386318" lon="0.421908">
        <ele>327.63</ele>
        <time>2018-06-10T09:48:23Z</time>
      </trkpt>
      <trkpt lat="41.386305" lon="0.421825">
        <ele>327.43</ele>
        <time>2018-06-10T09:48:25Z</time>
      </trkpt>
      <trkpt lat="41.386299" lon="0.421729">
        <ele>327.23</ele>
        <time>2018-06-10T09:48:27Z</time>
      </trkpt>
      <trkpt lat="41.386294" lon="0.421681">
        <ele>327.13</ele>
        <time>2018-06-10T09:48:28Z</time>
      </trkpt>
      <trkpt lat="41.386270" lon="0.421589">
        <ele>327.00</ele>
        <time>2018-06-10T09:48:30Z</time>
      </trkpt>
      <trkpt lat="41.386255" lon="0.421542">
        <ele>327.00</ele>
        <time>2018-06-10T09:48:31Z</time>
      </trkpt>
      <trkpt lat="41.386237" lon="0.421498">
        <ele>327.00</ele>
        <time>2018-06-10T09:48:32Z</time>
      </trkpt>
      <trkpt lat="41.386216" lon="0.421456">
        <ele>327.00</ele>
        <time>2018-06-10T09:48:33Z</time>
      </trkpt>
      <trkpt lat="41.386196" lon="0.421416">
        <ele>327.00</ele>
        <time>2018-06-10T09:48:34Z</time>
      </trkpt>
      <trkpt lat="41.386173" lon="0.421327">
        <ele>327.00</ele>
        <time>2018-06-10T09:48:36Z</time>
      </trkpt>
      <trkpt lat="41.386171" lon="0.421277">
        <ele>327.00</ele>
        <time>2018-06-10T09:48:37Z</time>
      </trkpt>
      <trkpt lat="41.386168" lon="0.421226">
        <ele>327.00</ele>
        <time>2018-06-10T09:48:38Z</time>
      </trkpt>
      <trkpt lat="41.386166" lon="0.421176">
        <ele>327.00</ele>
        <time>2018-06-10T09:48:39Z</time>
      </trkpt>
      <trkpt lat="41.386162" lon="0.421124">
        <ele>327.00</ele>
        <time>2018-06-10T09:48:40Z</time>
      </trkpt>
      <trkpt lat="41.386157" lon="0.421072">
        <ele>327.00</ele>
        <time>2018-06-10T09:48:41Z</time>
      </trkpt>
      <trkpt lat="41.386153" lon="0.421020">
        <ele>327.00</ele>
        <time>2018-06-10T09:48:42Z</time>
      </trkpt>
      <trkpt lat="41.386148" lon="0.420967">
        <ele>327.00</ele>
        <time>2018-06-10T09:48:43Z</time>
      </trkpt>
      <trkpt lat="41.386145" lon="0.420913">
        <ele>327.00</ele>
        <time>2018-06-10T09:48:44Z</time>
      </trkpt>
      <trkpt lat="41.386141" lon="0.420859">
        <ele>327.00</ele>
        <time>2018-06-10T09:48:45Z</time>
      </trkpt>
      <trkpt lat="41.386133" lon="0.420807">
        <ele>327.00</ele>
        <time>2018-06-10T09:48:46Z</time>
      </trkpt>
      <trkpt lat="41.386125" lon="0.420754">
        <ele>327.00</ele>
        <time>2018-06-10T09:48:47Z</time>
      </trkpt>
      <trkpt lat="41.386120" lon="0.420699">
        <ele>327.00</ele>
        <time>2018-06-10T09:48:48Z</time>
      </trkpt>
      <trkpt lat="41.386114" lon="0.420648">
        <ele>327.00</ele>
        <time>2018-06-10T09:48:49Z</time>
      </trkpt>
      <trkpt lat="41.386073" lon="0.420587">
        <ele>326.85</ele>
        <time>2018-06-10T09:48:51Z</time>
      </trkpt>
      <trkpt lat="41.386048" lon="0.420515">
        <ele>326.64</ele>
        <time>2018-06-10T09:48:53Z</time>
      </trkpt>
      <trkpt lat="41.386030" lon="0.420437">
        <ele>326.44</ele>
        <time>2018-06-10T09:48:55Z</time>
      </trkpt>
      <trkpt lat="41.386009" lon="0.420387">
        <ele>326.23</ele>
        <time>2018-06-10T09:48:57Z</time>
      </trkpt>
      <trkpt lat="41.386013" lon="0.420325">
        <ele>326.03</ele>
        <time>2018-06-10T09:48:59Z</time>
      </trkpt>
      <trkpt lat="41.386037" lon="0.420254">
        <ele>325.66</ele>
        <time>2018-06-10T09:49:01Z</time>
      </trkpt>
      <trkpt lat="41.386070" lon="0.420169">
        <ele>325.26</ele>
        <time>2018-06-10T09:49:03Z</time>
      </trkpt>
      <trkpt lat="41.386089" lon="0.420124">
        <ele>325.05</ele>
        <time>2018-06-10T09:49:04Z</time>
      </trkpt>
      <trkpt lat="41.386112" lon="0.420080">
        <ele>324.85</ele>
        <time>2018-06-10T09:49:05Z</time>
      </trkpt>
      <trkpt lat="41.386138" lon="0.420038">
        <ele>324.65</ele>
        <time>2018-06-10T09:49:06Z</time>
      </trkpt>
      <trkpt lat="41.386162" lon="0.419994">
        <ele>324.45</ele>
        <time>2018-06-10T09:49:07Z</time>
      </trkpt>
      <trkpt lat="41.386189" lon="0.419950">
        <ele>324.25</ele>
        <time>2018-06-10T09:49:08Z</time>
      </trkpt>
      <trkpt lat="41.386218" lon="0.419909">
        <ele>324.05</ele>
        <time>2018-06-10T09:49:09Z</time>
      </trkpt>
      <trkpt lat="41.386248" lon="0.419868">
        <ele>323.92</ele>
        <time>2018-06-10T09:49:10Z</time>
      </trkpt>
      <trkpt lat="41.386280" lon="0.419829">
        <ele>323.82</ele>
        <time>2018-06-10T09:49:11Z</time>
      </trkpt>
      <trkpt lat="41.386314" lon="0.419798">
        <ele>323.72</ele>
        <time>2018-06-10T09:49:12Z</time>
      </trkpt>
      <trkpt lat="41.386350" lon="0.419772">
        <ele>323.62</ele>
        <time>2018-06-10T09:49:13Z</time>
      </trkpt>
      <trkpt lat="41.386387" lon="0.419748">
        <ele>323.52</ele>
        <time>2018-06-10T09:49:14Z</time>
      </trkpt>
      <trkpt lat="41.386419" lon="0.419717">
        <ele>323.42</ele>
        <time>2018-06-10T09:49:15Z</time>
      </trkpt>
      <trkpt lat="41.386443" lon="0.419677">
        <ele>323.32</ele>
        <time>2018-06-10T09:49:16Z</time>
      </trkpt>
      <trkpt lat="41.386459" lon="0.419630">
        <ele>323.22</ele>
        <time>2018-06-10T09:49:17Z</time>
      </trkpt>
      <trkpt lat="41.386473" lon="0.419582">
        <ele>323.12</ele>
        <time>2018-06-10T09:49:18Z</time>
      </trkpt>
      <trkpt lat="41.386490" lon="0.419536">
        <ele>323.02</ele>
        <time>2018-06-10T09:49:19Z</time>
      </trkpt>
      <trkpt lat="41.386499" lon="0.419487">
        <ele>323.00</ele>
        <time>2018-06-10T09:49:20Z</time>
      </trkpt>
      <trkpt lat="41.386503" lon="0.419437">
        <ele>323.00</ele>
        <time>2018-06-10T09:49:21Z</time>
      </trkpt>
      <trkpt lat="41.386502" lon="0.419384">
        <ele>323.00</ele>
        <time>2018-06-10T09:49:22Z</time>
      </trkpt>
      <trkpt lat="41.386500" lon="0.419328">
        <ele>323.00</ele>
        <time>2018-06-10T09:49:23Z</time>
      </trkpt>
      <trkpt lat="41.386495" lon="0.419269">
        <ele>323.00</ele>
        <time>2018-06-10T09:49:24Z</time>
      </trkpt>
      <trkpt lat="41.386490" lon="0.419210">
        <ele>323.00</ele>
        <time>2018-06-10T09:49:25Z</time>
      </trkpt>
      <trkpt lat="41.386486" lon="0.419154">
        <ele>323.00</ele>
        <time>2018-06-10T09:49:26Z</time>
      </trkpt>
      <trkpt lat="41.386484" lon="0.419082">
        <ele>323.00</ele>
        <time>2018-06-10T09:49:28Z</time>
      </trkpt>
      <trkpt lat="41.386475" lon="0.419005">
        <ele>323.00</ele>
        <time>2018-06-10T09:50:08Z</time>
      </trkpt>
      <trkpt lat="41.386468" lon="0.418921">
        <ele>322.93</ele>
        <time>2018-06-10T09:50:10Z</time>
      </trkpt>
      <trkpt lat="41.386461" lon="0.418873">
        <ele>322.83</ele>
        <time>2018-06-10T09:50:11Z</time>
      </trkpt>
      <trkpt lat="41.386450" lon="0.418823">
        <ele>322.73</ele>
        <time>2018-06-10T09:50:12Z</time>
      </trkpt>
      <trkpt lat="41.386441" lon="0.418771">
        <ele>322.63</ele>
        <time>2018-06-10T09:50:13Z</time>
      </trkpt>
      <trkpt lat="41.386437" lon="0.418717">
        <ele>322.53</ele>
        <time>2018-06-10T09:50:14Z</time>
      </trkpt>
      <trkpt lat="41.386442" lon="0.418662">
        <ele>322.43</ele>
        <time>2018-06-10T09:50:15Z</time>
      </trkpt>
      <trkpt lat="41.386458" lon="0.418613">
        <ele>322.33</ele>
        <time>2018-06-10T09:50:16Z</time>
      </trkpt>
      <trkpt lat="41.386487" lon="0.418577">
        <ele>322.23</ele>
        <time>2018-06-10T09:50:17Z</time>
      </trkpt>
      <trkpt lat="41.386522" lon="0.418554">
        <ele>322.13</ele>
        <time>2018-06-10T09:50:18Z</time>
      </trkpt>
      <trkpt lat="41.386558" lon="0.418537">
        <ele>322.03</ele>
        <time>2018-06-10T09:50:19Z</time>
      </trkpt>
      <trkpt lat="41.386595" lon="0.418521">
        <ele>322.00</ele>
        <time>2018-06-10T09:50:20Z</time>
      </trkpt>
      <trkpt lat="41.386631" lon="0.418502">
        <ele>322.00</ele>
        <time>2018-06-10T09:50:21Z</time>
      </trkpt>
      <trkpt lat="41.386668" lon="0.418480">
        <ele>322.00</ele>
        <time>2018-06-10T09:50:22Z</time>
      </trkpt>
      <trkpt lat="41.386704" lon="0.418455">
        <ele>322.00</ele>
        <time>2018-06-10T09:50:23Z</time>
      </trkpt>
      <trkpt lat="41.386741" lon="0.418429">
        <ele>322.00</ele>
        <time>2018-06-10T09:50:24Z</time>
      </trkpt>
      <trkpt lat="41.386779" lon="0.418400">
        <ele>322.00</ele>
        <time>2018-06-10T09:50:25Z</time>
      </trkpt>
      <trkpt lat="41.386817" lon="0.418370">
        <ele>322.00</ele>
        <time>2018-06-10T09:50:26Z</time>
      </trkpt>
      <trkpt lat="41.386855" lon="0.418339">
        <ele>322.00</ele>
        <time>2018-06-10T09:50:27Z</time>
      </trkpt>
      <trkpt lat="41.386894" lon="0.418307">
        <ele>322.00</ele>
        <time>2018-06-10T09:50:28Z</time>
      </trkpt>
      <trkpt lat="41.386933" lon="0.418275">
        <ele>322.00</ele>
        <time>2018-06-10T09:50:29Z</time>
      </trkpt>
      <trkpt lat="41.386972" lon="0.418242">
        <ele>321.92</ele>
        <time>2018-06-10T09:50:30Z</time>
      </trkpt>
      <trkpt lat="41.387012" lon="0.418212">
        <ele>321.82</ele>
        <time>2018-06-10T09:50:31Z</time>
      </trkpt>
      <trkpt lat="41.387052" lon="0.418183">
        <ele>321.72</ele>
        <time>2018-06-10T09:50:32Z</time>
      </trkpt>
      <trkpt lat="41.387089" lon="0.418150">
        <ele>321.62</ele>
        <time>2018-06-10T09:50:33Z</time>
      </trkpt>
      <trkpt lat="41.387124" lon="0.418112">
        <ele>321.52</ele>
        <time>2018-06-10T09:50:34Z</time>
      </trkpt>
      <trkpt lat="41.387158" lon="0.418073">
        <ele>321.42</ele>
        <time>2018-06-10T09:50:35Z</time>
      </trkpt>
      <trkpt lat="41.387188" lon="0.418031">
        <ele>321.32</ele>
        <time>2018-06-10T09:50:36Z</time>
      </trkpt>
      <trkpt lat="41.387208" lon="0.417983">
        <ele>321.22</ele>
        <time>2018-06-10T09:50:37Z</time>
      </trkpt>
      <trkpt lat="41.387216" lon="0.417931">
        <ele>321.12</ele>
        <time>2018-06-10T09:50:38Z</time>
      </trkpt>
      <trkpt lat="41.387215" lon="0.417880">
        <ele>321.02</ele>
        <time>2018-06-10T09:50:39Z</time>
      </trkpt>
      <trkpt lat="41.387208" lon="0.417829">
        <ele>321.08</ele>
        <time>2018-06-10T09:50:40Z</time>
      </trkpt>
      <trkpt lat="41.387199" lon="0.417780">
        <ele>321.18</ele>
        <time>2018-06-10T09:50:41Z</time>
      </trkpt>
      <trkpt lat="41.387189" lon="0.417733">
        <ele>321.28</ele>
        <time>2018-06-10T09:50:42Z</time>
      </trkpt>
      <trkpt lat="41.387170" lon="0.417646">
        <ele>321.48</ele>
        <time>2018-06-10T09:50:44Z</time>
      </trkpt>
      <trkpt lat="41.387148" lon="0.417559">
        <ele>321.67</ele>
        <time>2018-06-10T09:50:46Z</time>
      </trkpt>
      <trkpt lat="41.387125" lon="0.417472">
        <ele>321.87</ele>
        <time>2018-06-10T09:50:48Z</time>
      </trkpt>
      <trkpt lat="41.387099" lon="0.417383">
        <ele>322.07</ele>
        <time>2018-06-10T09:50:50Z</time>
      </trkpt>
      <trkpt lat="41.387086" lon="0.417338">
        <ele>322.17</ele>
        <time>2018-06-10T09:50:51Z</time>
      </trkpt>
      <trkpt lat="41.387073" lon="0.417294">
        <ele>322.27</ele>
        <time>2018-06-10T09:50:52Z</time>
      </trkpt>
      <trkpt lat="41.387046" lon="0.417206">
        <ele>322.48</ele>
        <time>2018-06-10T09:50:54Z</time>
      </trkpt>
      <trkpt lat="41.387033" lon="0.417162">
        <ele>322.58</ele>
        <time>2018-06-10T09:50:55Z</time>
      </trkpt>
      <trkpt lat="41.387010" lon="0.417077">
        <ele>322.78</ele>
        <time>2018-06-10T09:50:57Z</time>
      </trkpt>
      <trkpt lat="41.386986" lon="0.416995">
        <ele>322.98</ele>
        <time>2018-06-10T09:50:59Z</time>
      </trkpt>
      <trkpt lat="41.386962" lon="0.416917">
        <ele>323.00</ele>
        <time>2018-06-10T09:51:01Z</time>
      </trkpt>
      <trkpt lat="41.386940" lon="0.416838">
        <ele>323.00</ele>
        <time>2018-06-10T09:51:03Z</time>
      </trkpt>
      <trkpt lat="41.386928" lon="0.416760">
        <ele>323.00</ele>
        <time>2018-06-10T09:51:05Z</time>
      </trkpt>
      <trkpt lat="41.386926" lon="0.416685">
        <ele>323.00</ele>
        <time>2018-06-10T09:51:07Z</time>
      </trkpt>
      <trkpt lat="41.386932" lon="0.416603">
        <ele>323.00</ele>
        <time>2018-06-10T09:51:09Z</time>
      </trkpt>
      <trkpt lat="41.386938" lon="0.416518">
        <ele>323.36</ele>
        <time>2018-06-10T09:51:11Z</time>
      </trkpt>
      <trkpt lat="41.386934" lon="0.416429">
        <ele>323.76</ele>
        <time>2018-06-10T09:51:13Z</time>
      </trkpt>
      <trkpt lat="41.386930" lon="0.416384">
        <ele>323.96</ele>
        <time>2018-06-10T09:51:14Z</time>
      </trkpt>
      <trkpt lat="41.386922" lon="0.416296">
        <ele>324.36</ele>
        <time>2018-06-10T09:51:16Z</time>
      </trkpt>
      <trkpt lat="41.386912" lon="0.416218">
        <ele>324.76</ele>
        <time>2018-06-10T09:51:18Z</time>
      </trkpt>
      <trkpt lat="41.386902" lon="0.416147">
        <ele>325.16</ele>
        <time>2018-06-10T09:51:20Z</time>
      </trkpt>
      <trkpt lat="41.386886" lon="0.416077">
        <ele>325.56</ele>
        <time>2018-06-10T09:51:22Z</time>
      </trkpt>
      <trkpt lat="41.386874" lon="0.415994">
        <ele>325.97</ele>
        <time>2018-06-10T09:51:24Z</time>
      </trkpt>
      <trkpt lat="41.386862" lon="0.415901">
        <ele>326.37</ele>
        <time>2018-06-10T09:51:26Z</time>
      </trkpt>
      <trkpt lat="41.386860" lon="0.415849">
        <ele>326.57</ele>
        <time>2018-06-10T09:51:27Z</time>
      </trkpt>
      <trkpt lat="41.386852" lon="0.415793">
        <ele>326.77</ele>
        <time>2018-06-10T09:51:28Z</time>
      </trkpt>
      <trkpt lat="41.386844" lon="0.415737">
        <ele>326.98</ele>
        <time>2018-06-10T09:51:29Z</time>
      </trkpt>
      <trkpt lat="41.386830" lon="0.415680">
        <ele>326.61</ele>
        <time>2018-06-10T09:51:30Z</time>
      </trkpt>
      <trkpt lat="41.386810" lon="0.415617">
        <ele>326.16</ele>
        <time>2018-06-10T09:51:31Z</time>
      </trkpt>
      <trkpt lat="41.386788" lon="0.415548">
        <ele>325.71</ele>
        <time>2018-06-10T09:51:32Z</time>
      </trkpt>
      <trkpt lat="41.386759" lon="0.415475">
        <ele>325.26</ele>
        <time>2018-06-10T09:51:33Z</time>
      </trkpt>
      <trkpt lat="41.386582" lon="0.415194">
        <ele>325.00</ele>
        <time>2018-06-10T09:51:39Z</time>
      </trkpt>
      <trkpt lat="41.386468" lon="0.414926">
        <ele>325.05</ele>
        <time>2018-06-10T09:51:53Z</time>
      </trkpt>
      <trkpt lat="41.386450" lon="0.414894">
        <ele>325.64</ele>
        <time>2018-06-10T09:51:55Z</time>
      </trkpt>
      <trkpt lat="41.386430" lon="0.414849">
        <ele>326.52</ele>
        <time>2018-06-10T09:51:58Z</time>
      </trkpt>
      <trkpt lat="41.386404" lon="0.414806">
        <ele>328.12</ele>
        <time>2018-06-10T09:52:05Z</time>
      </trkpt>
      <trkpt lat="41.386413" lon="0.414758">
        <ele>328.96</ele>
        <time>2018-06-10T09:52:09Z</time>
      </trkpt>
      <trkpt lat="41.386435" lon="0.414715">
        <ele>332.00</ele>
        <time>2018-06-10T09:52:25Z</time>
      </trkpt>
      <trkpt lat="41.386460" lon="0.414678">
        <ele>332.16</ele>
        <time>2018-06-10T09:52:31Z</time>
      </trkpt>
      <trkpt lat="41.386512" lon="0.414650">
        <ele>332.57</ele>
        <time>2018-06-10T09:52:35Z</time>
      </trkpt>
      <trkpt lat="41.386568" lon="0.414614">
        <ele>332.77</ele>
        <time>2018-06-10T09:52:37Z</time>
      </trkpt>
      <trkpt lat="41.386619" lon="0.414579">
        <ele>332.97</ele>
        <time>2018-06-10T09:52:39Z</time>
      </trkpt>
      <trkpt lat="41.386653" lon="0.414540">
        <ele>332.83</ele>
        <time>2018-06-10T09:52:41Z</time>
      </trkpt>
      <trkpt lat="41.386684" lon="0.414500">
        <ele>332.63</ele>
        <time>2018-06-10T09:52:43Z</time>
      </trkpt>
      <trkpt lat="41.386719" lon="0.414468">
        <ele>332.43</ele>
        <time>2018-06-10T09:52:45Z</time>
      </trkpt>
      <trkpt lat="41.386747" lon="0.414422">
        <ele>332.23</ele>
        <time>2018-06-10T09:52:47Z</time>
      </trkpt>
      <trkpt lat="41.386768" lon="0.414358">
        <ele>332.03</ele>
        <time>2018-06-10T09:52:49Z</time>
      </trkpt>
      <trkpt lat="41.386783" lon="0.414287">
        <ele>332.00</ele>
        <time>2018-06-10T09:52:51Z</time>
      </trkpt>
      <trkpt lat="41.386794" lon="0.414215">
        <ele>332.00</ele>
        <time>2018-06-10T09:52:53Z</time>
      </trkpt>
      <trkpt lat="41.386809" lon="0.414137">
        <ele>332.00</ele>
        <time>2018-06-10T09:52:55Z</time>
      </trkpt>
      <trkpt lat="41.386835" lon="0.414051">
        <ele>332.00</ele>
        <time>2018-06-10T09:52:57Z</time>
      </trkpt>
      <trkpt lat="41.386852" lon="0.413970">
        <ele>332.00</ele>
        <time>2018-06-10T09:52:59Z</time>
      </trkpt>
      <trkpt lat="41.386875" lon="0.413915">
        <ele>331.55</ele>
        <time>2018-06-10T09:53:01Z</time>
      </trkpt>
      <trkpt lat="41.386939" lon="0.413849">
        <ele>330.92</ele>
        <time>2018-06-10T09:53:03Z</time>
      </trkpt>
      <trkpt lat="41.386956" lon="0.413786">
        <ele>330.61</ele>
        <time>2018-06-10T09:53:04Z</time>
      </trkpt>
      <trkpt lat="41.386975" lon="0.413734">
        <ele>330.29</ele>
        <time>2018-06-10T09:53:05Z</time>
      </trkpt>
      <trkpt lat="41.387002" lon="0.413692">
        <ele>329.98</ele>
        <time>2018-06-10T09:53:06Z</time>
      </trkpt>
      <trkpt lat="41.387028" lon="0.413646">
        <ele>329.67</ele>
        <time>2018-06-10T09:53:07Z</time>
      </trkpt>
      <trkpt lat="41.387062" lon="0.413607">
        <ele>329.35</ele>
        <time>2018-06-10T09:53:08Z</time>
      </trkpt>
      <trkpt lat="41.387099" lon="0.413575">
        <ele>329.04</ele>
        <time>2018-06-10T09:53:09Z</time>
      </trkpt>
      <trkpt lat="41.387135" lon="0.413540">
        <ele>328.74</ele>
        <time>2018-06-10T09:53:10Z</time>
      </trkpt>
      <trkpt lat="41.387162" lon="0.413495">
        <ele>328.44</ele>
        <time>2018-06-10T09:53:11Z</time>
      </trkpt>
      <trkpt lat="41.387174" lon="0.413447">
        <ele>328.15</ele>
        <time>2018-06-10T09:53:12Z</time>
      </trkpt>
      <trkpt lat="41.387195" lon="0.413363">
        <ele>327.56</ele>
        <time>2018-06-10T09:53:14Z</time>
      </trkpt>
      <trkpt lat="41.387217" lon="0.413278">
        <ele>326.97</ele>
        <time>2018-06-10T09:53:16Z</time>
      </trkpt>
      <trkpt lat="41.387244" lon="0.413197">
        <ele>326.38</ele>
        <time>2018-06-10T09:53:18Z</time>
      </trkpt>
      <trkpt lat="41.387258" lon="0.413131">
        <ele>325.93</ele>
        <time>2018-06-10T09:53:20Z</time>
      </trkpt>
      <trkpt lat="41.387254" lon="0.413059">
        <ele>325.73</ele>
        <time>2018-06-10T09:53:22Z</time>
      </trkpt>
      <trkpt lat="41.387248" lon="0.412986">
        <ele>325.53</ele>
        <time>2018-06-10T09:53:24Z</time>
      </trkpt>
      <trkpt lat="41.387241" lon="0.412910">
        <ele>325.32</ele>
        <time>2018-06-10T09:53:26Z</time>
      </trkpt>
      <trkpt lat="41.387245" lon="0.412839">
        <ele>325.12</ele>
        <time>2018-06-10T09:53:28Z</time>
      </trkpt>
      <trkpt lat="41.387215" lon="0.412806">
        <ele>325.96</ele>
        <time>2018-06-10T09:53:34Z</time>
      </trkpt>
      <trkpt lat="41.387175" lon="0.412798">
        <ele>326.76</ele>
        <time>2018-06-10T09:53:38Z</time>
      </trkpt>
      <trkpt lat="41.387154" lon="0.412755">
        <ele>327.28</ele>
        <time>2018-06-10T09:53:42Z</time>
      </trkpt>
      <trkpt lat="41.387158" lon="0.412698">
        <ele>327.58</ele>
        <time>2018-06-10T09:53:45Z</time>
      </trkpt>
      <trkpt lat="41.387160" lon="0.412634">
        <ele>327.78</ele>
        <time>2018-06-10T09:53:47Z</time>
      </trkpt>
      <trkpt lat="41.387163" lon="0.412568">
        <ele>327.98</ele>
        <time>2018-06-10T09:53:49Z</time>
      </trkpt>
      <trkpt lat="41.387171" lon="0.412513">
        <ele>328.35</ele>
        <time>2018-06-10T09:53:51Z</time>
      </trkpt>
      <trkpt lat="41.387180" lon="0.412456">
        <ele>328.75</ele>
        <time>2018-06-10T09:53:53Z</time>
      </trkpt>
      <trkpt lat="41.387186" lon="0.412405">
        <ele>329.15</ele>
        <time>2018-06-10T09:53:55Z</time>
      </trkpt>
      <trkpt lat="41.387193" lon="0.412353">
        <ele>329.54</ele>
        <time>2018-06-10T09:53:57Z</time>
      </trkpt>
      <trkpt lat="41.387203" lon="0.412299">
        <ele>329.94</ele>
        <time>2018-06-10T09:53:59Z</time>
      </trkpt>
      <trkpt lat="41.387215" lon="0.412234">
        <ele>330.00</ele>
        <time>2018-06-10T09:54:01Z</time>
      </trkpt>
      <trkpt lat="41.387221" lon="0.412167">
        <ele>330.00</ele>
        <time>2018-06-10T09:54:03Z</time>
      </trkpt>
      <trkpt lat="41.387212" lon="0.412101">
        <ele>330.00</ele>
        <time>2018-06-10T09:54:05Z</time>
      </trkpt>
      <trkpt lat="41.387193" lon="0.412046">
        <ele>330.00</ele>
        <time>2018-06-10T09:54:07Z</time>
      </trkpt>
      <trkpt lat="41.387171" lon="0.411988">
        <ele>330.00</ele>
        <time>2018-06-10T09:54:09Z</time>
      </trkpt>
      <trkpt lat="41.387150" lon="0.411924">
        <ele>330.17</ele>
        <time>2018-06-10T09:54:11Z</time>
      </trkpt>
      <trkpt lat="41.387129" lon="0.411844">
        <ele>330.37</ele>
        <time>2018-06-10T09:54:13Z</time>
      </trkpt>
      <trkpt lat="41.387112" lon="0.411760">
        <ele>330.57</ele>
        <time>2018-06-10T09:54:15Z</time>
      </trkpt>
      <trkpt lat="41.387108" lon="0.411672">
        <ele>330.76</ele>
        <time>2018-06-10T09:54:17Z</time>
      </trkpt>
      <trkpt lat="41.387111" lon="0.411587">
        <ele>330.96</ele>
        <time>2018-06-10T09:54:19Z</time>
      </trkpt>
      <trkpt lat="41.387108" lon="0.411498">
        <ele>331.00</ele>
        <time>2018-06-10T09:54:21Z</time>
      </trkpt>
      <trkpt lat="41.387113" lon="0.411413">
        <ele>331.00</ele>
        <time>2018-06-10T09:54:23Z</time>
      </trkpt>
      <trkpt lat="41.387137" lon="0.411333">
        <ele>331.00</ele>
        <time>2018-06-10T09:54:25Z</time>
      </trkpt>
      <trkpt lat="41.387154" lon="0.411290">
        <ele>331.00</ele>
        <time>2018-06-10T09:54:26Z</time>
      </trkpt>
      <trkpt lat="41.387168" lon="0.411244">
        <ele>331.00</ele>
        <time>2018-06-10T09:54:27Z</time>
      </trkpt>
      <trkpt lat="41.387185" lon="0.411193">
        <ele>331.00</ele>
        <time>2018-06-10T09:54:28Z</time>
      </trkpt>
      <trkpt lat="41.387202" lon="0.411141">
        <ele>331.00</ele>
        <time>2018-06-10T09:54:29Z</time>
      </trkpt>
      <trkpt lat="41.387220" lon="0.411090">
        <ele>330.86</ele>
        <time>2018-06-10T09:54:30Z</time>
      </trkpt>
      <trkpt lat="41.387241" lon="0.411034">
        <ele>330.66</ele>
        <time>2018-06-10T09:54:31Z</time>
      </trkpt>
      <trkpt lat="41.387262" lon="0.410977">
        <ele>330.45</ele>
        <time>2018-06-10T09:54:32Z</time>
      </trkpt>
      <trkpt lat="41.387277" lon="0.410917">
        <ele>330.25</ele>
        <time>2018-06-10T09:54:33Z</time>
      </trkpt>
      <trkpt lat="41.387285" lon="0.410859">
        <ele>330.05</ele>
        <time>2018-06-10T09:54:34Z</time>
      </trkpt>
      <trkpt lat="41.387285" lon="0.410807">
        <ele>329.85</ele>
        <time>2018-06-10T09:54:35Z</time>
      </trkpt>
      <trkpt lat="41.387277" lon="0.410754">
        <ele>329.65</ele>
        <time>2018-06-10T09:54:36Z</time>
      </trkpt>
      <trkpt lat="41.387265" lon="0.410701">
        <ele>329.44</ele>
        <time>2018-06-10T09:54:37Z</time>
      </trkpt>
      <trkpt lat="41.387251" lon="0.410655">
        <ele>329.24</ele>
        <time>2018-06-10T09:54:38Z</time>
      </trkpt>
      <trkpt lat="41.387225" lon="0.410582">
        <ele>329.00</ele>
        <time>2018-06-10T09:54:40Z</time>
      </trkpt>
      <trkpt lat="41.387190" lon="0.410540">
        <ele>329.00</ele>
        <time>2018-06-10T09:54:46Z</time>
      </trkpt>
      <trkpt lat="41.387146" lon="0.410526">
        <ele>329.32</ele>
        <time>2018-06-10T09:54:50Z</time>
      </trkpt>
      <trkpt lat="41.387104" lon="0.410512">
        <ele>330.93</ele>
        <time>2018-06-10T09:54:54Z</time>
      </trkpt>
      <trkpt lat="41.387070" lon="0.410465">
        <ele>332.53</ele>
        <time>2018-06-10T09:54:58Z</time>
      </trkpt>
      <trkpt lat="41.387047" lon="0.410418">
        <ele>333.08</ele>
        <time>2018-06-10T09:55:00Z</time>
      </trkpt>
      <trkpt lat="41.387019" lon="0.410355">
        <ele>333.27</ele>
        <time>2018-06-10T09:55:02Z</time>
      </trkpt>
      <trkpt lat="41.387008" lon="0.410274">
        <ele>333.47</ele>
        <time>2018-06-10T09:55:04Z</time>
      </trkpt>
      <trkpt lat="41.386999" lon="0.410197">
        <ele>333.66</ele>
        <time>2018-06-10T09:55:06Z</time>
      </trkpt>
      <trkpt lat="41.387023" lon="0.410142">
        <ele>333.86</ele>
        <time>2018-06-10T09:55:08Z</time>
      </trkpt>
      <trkpt lat="41.387055" lon="0.410093">
        <ele>334.00</ele>
        <time>2018-06-10T09:55:10Z</time>
      </trkpt>
      <trkpt lat="41.387078" lon="0.410047">
        <ele>334.00</ele>
        <time>2018-06-10T09:55:12Z</time>
      </trkpt>
      <trkpt lat="41.387102" lon="0.410001">
        <ele>334.00</ele>
        <time>2018-06-10T09:55:14Z</time>
      </trkpt>
      <trkpt lat="41.387135" lon="0.409961">
        <ele>334.00</ele>
        <time>2018-06-10T09:55:16Z</time>
      </trkpt>
      <trkpt lat="41.387168" lon="0.409907">
        <ele>334.00</ele>
        <time>2018-06-10T09:55:18Z</time>
      </trkpt>
      <trkpt lat="41.387205" lon="0.409845">
        <ele>334.07</ele>
        <time>2018-06-10T09:55:20Z</time>
      </trkpt>
      <trkpt lat="41.387239" lon="0.409779">
        <ele>334.28</ele>
        <time>2018-06-10T09:55:22Z</time>
      </trkpt>
      <trkpt lat="41.387260" lon="0.409706">
        <ele>334.48</ele>
        <time>2018-06-10T09:55:24Z</time>
      </trkpt>
      <trkpt lat="41.387267" lon="0.409629">
        <ele>334.68</ele>
        <time>2018-06-10T09:55:26Z</time>
      </trkpt>
      <trkpt lat="41.387272" lon="0.409552">
        <ele>334.88</ele>
        <time>2018-06-10T09:55:28Z</time>
      </trkpt>
      <trkpt lat="41.387270" lon="0.409469">
        <ele>335.00</ele>
        <time>2018-06-10T09:55:30Z</time>
      </trkpt>
      <trkpt lat="41.387273" lon="0.409396">
        <ele>335.00</ele>
        <time>2018-06-10T09:55:32Z</time>
      </trkpt>
      <trkpt lat="41.387297" lon="0.409323">
        <ele>335.00</ele>
        <time>2018-06-10T09:55:34Z</time>
      </trkpt>
      <trkpt lat="41.387325" lon="0.409270">
        <ele>335.00</ele>
        <time>2018-06-10T09:55:36Z</time>
      </trkpt>
      <trkpt lat="41.387377" lon="0.409220">
        <ele>335.00</ele>
        <time>2018-06-10T09:55:38Z</time>
      </trkpt>
      <trkpt lat="41.387433" lon="0.409172">
        <ele>335.00</ele>
        <time>2018-06-10T09:55:40Z</time>
      </trkpt>
      <trkpt lat="41.387485" lon="0.409122">
        <ele>335.00</ele>
        <time>2018-06-10T09:55:42Z</time>
      </trkpt>
      <trkpt lat="41.387536" lon="0.409071">
        <ele>335.00</ele>
        <time>2018-06-10T09:55:44Z</time>
      </trkpt>
      <trkpt lat="41.387593" lon="0.409024">
        <ele>335.00</ele>
        <time>2018-06-10T09:55:46Z</time>
      </trkpt>
      <trkpt lat="41.387637" lon="0.408980">
        <ele>335.00</ele>
        <time>2018-06-10T09:55:48Z</time>
      </trkpt>
      <trkpt lat="41.387659" lon="0.408921">
        <ele>335.18</ele>
        <time>2018-06-10T09:55:51Z</time>
      </trkpt>
      <trkpt lat="41.387675" lon="0.408865">
        <ele>335.48</ele>
        <time>2018-06-10T09:55:54Z</time>
      </trkpt>
      <trkpt lat="41.387682" lon="0.408805">
        <ele>335.78</ele>
        <time>2018-06-10T09:55:57Z</time>
      </trkpt>
      <trkpt lat="41.387704" lon="0.408768">
        <ele>338.06</ele>
        <time>2018-06-10T09:56:10Z</time>
      </trkpt>
      <trkpt lat="41.387729" lon="0.408715">
        <ele>338.37</ele>
        <time>2018-06-10T09:56:13Z</time>
      </trkpt>
      <trkpt lat="41.387739" lon="0.408658">
        <ele>338.57</ele>
        <time>2018-06-10T09:56:15Z</time>
      </trkpt>
      <trkpt lat="41.387751" lon="0.408596">
        <ele>338.78</ele>
        <time>2018-06-10T09:56:17Z</time>
      </trkpt>
      <trkpt lat="41.387764" lon="0.408528">
        <ele>338.98</ele>
        <time>2018-06-10T09:56:19Z</time>
      </trkpt>
      <trkpt lat="41.387761" lon="0.408468">
        <ele>339.00</ele>
        <time>2018-06-10T09:56:21Z</time>
      </trkpt>
      <trkpt lat="41.387754" lon="0.408408">
        <ele>339.00</ele>
        <time>2018-06-10T09:56:23Z</time>
      </trkpt>
      <trkpt lat="41.387741" lon="0.408355">
        <ele>339.00</ele>
        <time>2018-06-10T09:56:25Z</time>
      </trkpt>
      <trkpt lat="41.387750" lon="0.408301">
        <ele>339.00</ele>
        <time>2018-06-10T09:56:28Z</time>
      </trkpt>
      <trkpt lat="41.387764" lon="0.408244">
        <ele>339.00</ele>
        <time>2018-06-10T09:56:31Z</time>
      </trkpt>
      <trkpt lat="41.387785" lon="0.408178">
        <ele>339.00</ele>
        <time>2018-06-10T09:56:34Z</time>
      </trkpt>
      <trkpt lat="41.387798" lon="0.408119">
        <ele>339.00</ele>
        <time>2018-06-10T09:56:36Z</time>
      </trkpt>
      <trkpt lat="41.387812" lon="0.408069">
        <ele>339.00</ele>
        <time>2018-06-10T09:56:39Z</time>
      </trkpt>
      <trkpt lat="41.387834" lon="0.408071">
        <ele>336.00</ele>
        <time>2018-06-10T09:57:04Z</time>
      </trkpt>
      <trkpt lat="41.387879" lon="0.408062">
        <ele>334.28</ele>
        <time>2018-06-10T09:57:18Z</time>
      </trkpt>
      <trkpt lat="41.387922" lon="0.408055">
        <ele>333.94</ele>
        <time>2018-06-10T09:57:20Z</time>
      </trkpt>
      <trkpt lat="41.387965" lon="0.408046">
        <ele>333.74</ele>
        <time>2018-06-10T09:57:22Z</time>
      </trkpt>
      <trkpt lat="41.388002" lon="0.408045">
        <ele>333.53</ele>
        <time>2018-06-10T09:57:24Z</time>
      </trkpt>
      <trkpt lat="41.388041" lon="0.408052">
        <ele>333.33</ele>
        <time>2018-06-10T09:57:26Z</time>
      </trkpt>
      <trkpt lat="41.388087" lon="0.408059">
        <ele>333.12</ele>
        <time>2018-06-10T09:57:28Z</time>
      </trkpt>
      <trkpt lat="41.388133" lon="0.408062">
        <ele>333.00</ele>
        <time>2018-06-10T09:57:30Z</time>
      </trkpt>
      <trkpt lat="41.388175" lon="0.408026">
        <ele>333.00</ele>
        <time>2018-06-10T09:57:33Z</time>
      </trkpt>
      <trkpt lat="41.388178" lon="0.407959">
        <ele>333.00</ele>
        <time>2018-06-10T09:57:36Z</time>
      </trkpt>
      <trkpt lat="41.388165" lon="0.407889">
        <ele>333.00</ele>
        <time>2018-06-10T09:57:39Z</time>
      </trkpt>
      <trkpt lat="41.388155" lon="0.407842">
        <ele>333.35</ele>
        <time>2018-06-10T09:57:41Z</time>
      </trkpt>
      <trkpt lat="41.388145" lon="0.407794">
        <ele>333.75</ele>
        <time>2018-06-10T09:57:43Z</time>
      </trkpt>
      <trkpt lat="41.388134" lon="0.407746">
        <ele>334.16</ele>
        <time>2018-06-10T09:57:45Z</time>
      </trkpt>
      <trkpt lat="41.388125" lon="0.407697">
        <ele>334.57</ele>
        <time>2018-06-10T09:57:47Z</time>
      </trkpt>
      <trkpt lat="41.388122" lon="0.407647">
        <ele>334.98</ele>
        <time>2018-06-10T09:57:49Z</time>
      </trkpt>
      <trkpt lat="41.388130" lon="0.407578">
        <ele>335.86</ele>
        <time>2018-06-10T09:57:52Z</time>
      </trkpt>
      <trkpt lat="41.388136" lon="0.407534">
        <ele>336.45</ele>
        <time>2018-06-10T09:57:54Z</time>
      </trkpt>
      <trkpt lat="41.388141" lon="0.407468">
        <ele>337.35</ele>
        <time>2018-06-10T09:57:57Z</time>
      </trkpt>
      <trkpt lat="41.388145" lon="0.407402">
        <ele>338.16</ele>
        <time>2018-06-10T09:58:00Z</time>
      </trkpt>
      <trkpt lat="41.388152" lon="0.407340">
        <ele>338.76</ele>
        <time>2018-06-10T09:58:03Z</time>
      </trkpt>
      <trkpt lat="41.388158" lon="0.407280">
        <ele>339.35</ele>
        <time>2018-06-10T09:58:06Z</time>
      </trkpt>
      <trkpt lat="41.388163" lon="0.407218">
        <ele>339.95</ele>
        <time>2018-06-10T09:58:09Z</time>
      </trkpt>
      <trkpt lat="41.388159" lon="0.407158">
        <ele>341.07</ele>
        <time>2018-06-10T09:58:12Z</time>
      </trkpt>
      <trkpt lat="41.388156" lon="0.407116">
        <ele>341.86</ele>
        <time>2018-06-10T09:58:14Z</time>
      </trkpt>
      <trkpt lat="41.388152" lon="0.407053">
        <ele>343.04</ele>
        <time>2018-06-10T09:58:17Z</time>
      </trkpt>
      <trkpt lat="41.388143" lon="0.406989">
        <ele>344.17</ele>
        <time>2018-06-10T09:58:20Z</time>
      </trkpt>
      <trkpt lat="41.388134" lon="0.406920">
        <ele>345.08</ele>
        <time>2018-06-10T09:58:23Z</time>
      </trkpt>
      <trkpt lat="41.388128" lon="0.406878">
        <ele>345.69</ele>
        <time>2018-06-10T09:58:25Z</time>
      </trkpt>
      <trkpt lat="41.388115" lon="0.406813">
        <ele>346.61</ele>
        <time>2018-06-10T09:58:28Z</time>
      </trkpt>
      <trkpt lat="41.388097" lon="0.406752">
        <ele>347.34</ele>
        <time>2018-06-10T09:58:31Z</time>
      </trkpt>
      <trkpt lat="41.388085" lon="0.406707">
        <ele>347.74</ele>
        <time>2018-06-10T09:58:33Z</time>
      </trkpt>
      <trkpt lat="41.388073" lon="0.406663">
        <ele>348.14</ele>
        <time>2018-06-10T09:58:35Z</time>
      </trkpt>
      <trkpt lat="41.388057" lon="0.406606">
        <ele>348.74</ele>
        <time>2018-06-10T09:58:38Z</time>
      </trkpt>
      <trkpt lat="41.388041" lon="0.406547">
        <ele>349.35</ele>
        <time>2018-06-10T09:58:41Z</time>
      </trkpt>
      <trkpt lat="41.388029" lon="0.406485">
        <ele>349.96</ele>
        <time>2018-06-10T09:58:44Z</time>
      </trkpt>
      <trkpt lat="41.388019" lon="0.406423">
        <ele>350.57</ele>
        <time>2018-06-10T09:58:47Z</time>
      </trkpt>
      <trkpt lat="41.388010" lon="0.406364">
        <ele>351.34</ele>
        <time>2018-06-10T09:58:50Z</time>
      </trkpt>
      <trkpt lat="41.387990" lon="0.406316">
        <ele>352.51</ele>
        <time>2018-06-10T09:58:53Z</time>
      </trkpt>
      <trkpt lat="41.387979" lon="0.406284">
        <ele>353.29</ele>
        <time>2018-06-10T09:58:55Z</time>
      </trkpt>
      <trkpt lat="41.387968" lon="0.406236">
        <ele>354.46</ele>
        <time>2018-06-10T09:58:58Z</time>
      </trkpt>
      <trkpt lat="41.387945" lon="0.406195">
        <ele>355.33</ele>
        <time>2018-06-10T09:59:01Z</time>
      </trkpt>
      <trkpt lat="41.387907" lon="0.406162">
        <ele>355.94</ele>
        <time>2018-06-10T09:59:04Z</time>
      </trkpt>
      <trkpt lat="41.387867" lon="0.406123">
        <ele>356.55</ele>
        <time>2018-06-10T09:59:07Z</time>
      </trkpt>
      <trkpt lat="41.387819" lon="0.406105">
        <ele>357.08</ele>
        <time>2018-06-10T09:59:10Z</time>
      </trkpt>
      <trkpt lat="41.387776" lon="0.406104">
        <ele>357.38</ele>
        <time>2018-06-10T09:59:13Z</time>
      </trkpt>
      <trkpt lat="41.387748" lon="0.406156">
        <ele>357.69</ele>
        <time>2018-06-10T09:59:16Z</time>
      </trkpt>
      <trkpt lat="41.387732" lon="0.406202">
        <ele>357.89</ele>
        <time>2018-06-10T09:59:18Z</time>
      </trkpt>
      <trkpt lat="41.387721" lon="0.406256">
        <ele>358.00</ele>
        <time>2018-06-10T09:59:20Z</time>
      </trkpt>
      <trkpt lat="41.387709" lon="0.406306">
        <ele>358.00</ele>
        <time>2018-06-10T09:59:22Z</time>
      </trkpt>
      <trkpt lat="41.387690" lon="0.406371">
        <ele>358.00</ele>
        <time>2018-06-10T09:59:25Z</time>
      </trkpt>
      <trkpt lat="41.387665" lon="0.406434">
        <ele>358.00</ele>
        <time>2018-06-10T09:59:28Z</time>
      </trkpt>
      <trkpt lat="41.387617" lon="0.406580">
        <ele>358.94</ele>
        <time>2018-06-10T09:59:34Z</time>
      </trkpt>
      <trkpt lat="41.387485" lon="0.407067">
        <ele>360.00</ele>
        <time>2018-06-10T09:59:49Z</time>
      </trkpt>
      <trkpt lat="41.387464" lon="0.407136">
        <ele>360.11</ele>
        <time>2018-06-10T09:59:51Z</time>
      </trkpt>
      <trkpt lat="41.387438" lon="0.407216">
        <ele>360.33</ele>
        <time>2018-06-10T09:59:53Z</time>
      </trkpt>
      <trkpt lat="41.387413" lon="0.407296">
        <ele>360.54</ele>
        <time>2018-06-10T09:59:55Z</time>
      </trkpt>
      <trkpt lat="41.387390" lon="0.407370">
        <ele>360.75</ele>
        <time>2018-06-10T09:59:57Z</time>
      </trkpt>
      <trkpt lat="41.387368" lon="0.407430">
        <ele>360.97</ele>
        <time>2018-06-10T09:59:59Z</time>
      </trkpt>
      <trkpt lat="41.387348" lon="0.407495">
        <ele>361.00</ele>
        <time>2018-06-10T10:00:01Z</time>
      </trkpt>
      <trkpt lat="41.387326" lon="0.407555">
        <ele>361.00</ele>
        <time>2018-06-10T10:00:03Z</time>
      </trkpt>
      <trkpt lat="41.387307" lon="0.407613">
        <ele>361.00</ele>
        <time>2018-06-10T10:00:05Z</time>
      </trkpt>
      <trkpt lat="41.387288" lon="0.407663">
        <ele>361.00</ele>
        <time>2018-06-10T10:00:07Z</time>
      </trkpt>
      <trkpt lat="41.387271" lon="0.407727">
        <ele>361.07</ele>
        <time>2018-06-10T10:00:10Z</time>
      </trkpt>
      <trkpt lat="41.387259" lon="0.407788">
        <ele>361.37</ele>
        <time>2018-06-10T10:00:13Z</time>
      </trkpt>
      <trkpt lat="41.387249" lon="0.407842">
        <ele>362.00</ele>
        <time>2018-06-10T10:00:20Z</time>
      </trkpt>
      <trkpt lat="41.387265" lon="0.407893">
        <ele>362.00</ele>
        <time>2018-06-10T10:00:23Z</time>
      </trkpt>
      <trkpt lat="41.387283" lon="0.407982">
        <ele>362.00</ele>
        <time>2018-06-10T10:00:25Z</time>
      </trkpt>
      <trkpt lat="41.387285" lon="0.408034">
        <ele>362.00</ele>
        <time>2018-06-10T10:00:26Z</time>
      </trkpt>
      <trkpt lat="41.387307" lon="0.408106">
        <ele>362.00</ele>
        <time>2018-06-10T10:00:28Z</time>
      </trkpt>
      <trkpt lat="41.387331" lon="0.408152">
        <ele>361.83</ele>
        <time>2018-06-10T10:00:30Z</time>
      </trkpt>
      <trkpt lat="41.387344" lon="0.408194">
        <ele>360.67</ele>
        <time>2018-06-10T10:00:36Z</time>
      </trkpt>
      <trkpt lat="41.387343" lon="0.408267">
        <ele>360.09</ele>
        <time>2018-06-10T10:00:39Z</time>
      </trkpt>
      <trkpt lat="41.387345" lon="0.408324">
        <ele>359.84</ele>
        <time>2018-06-10T10:00:41Z</time>
      </trkpt>
      <trkpt lat="41.387342" lon="0.408372">
        <ele>359.64</ele>
        <time>2018-06-10T10:00:43Z</time>
      </trkpt>
      <trkpt lat="41.387340" lon="0.408426">
        <ele>359.43</ele>
        <time>2018-06-10T10:00:45Z</time>
      </trkpt>
      <trkpt lat="41.387326" lon="0.408472">
        <ele>359.22</ele>
        <time>2018-06-10T10:00:47Z</time>
      </trkpt>
      <trkpt lat="41.387291" lon="0.408522">
        <ele>359.00</ele>
        <time>2018-06-10T10:00:50Z</time>
      </trkpt>
      <trkpt lat="41.387258" lon="0.408571">
        <ele>359.00</ele>
        <time>2018-06-10T10:00:53Z</time>
      </trkpt>
      <trkpt lat="41.387219" lon="0.408612">
        <ele>359.00</ele>
        <time>2018-06-10T10:00:56Z</time>
      </trkpt>
      <trkpt lat="41.387180" lon="0.408657">
        <ele>359.00</ele>
        <time>2018-06-10T10:00:59Z</time>
      </trkpt>
      <trkpt lat="41.387159" lon="0.408698">
        <ele>359.18</ele>
        <time>2018-06-10T10:01:01Z</time>
      </trkpt>
      <trkpt lat="41.387120" lon="0.408740">
        <ele>359.48</ele>
        <time>2018-06-10T10:01:04Z</time>
      </trkpt>
      <trkpt lat="41.387093" lon="0.408776">
        <ele>359.68</ele>
        <time>2018-06-10T10:01:06Z</time>
      </trkpt>
      <trkpt lat="41.387066" lon="0.408820">
        <ele>359.88</ele>
        <time>2018-06-10T10:01:08Z</time>
      </trkpt>
      <trkpt lat="41.387034" lon="0.408848">
        <ele>360.00</ele>
        <time>2018-06-10T10:01:10Z</time>
      </trkpt>
      <trkpt lat="41.386993" lon="0.408896">
        <ele>360.00</ele>
        <time>2018-06-10T10:01:13Z</time>
      </trkpt>
      <trkpt lat="41.386952" lon="0.408940">
        <ele>360.00</ele>
        <time>2018-06-10T10:01:16Z</time>
      </trkpt>
      <trkpt lat="41.386908" lon="0.408966">
        <ele>360.00</ele>
        <time>2018-06-10T10:01:19Z</time>
      </trkpt>
      <trkpt lat="41.386866" lon="0.408982">
        <ele>360.27</ele>
        <time>2018-06-10T10:01:22Z</time>
      </trkpt>
      <trkpt lat="41.386845" lon="0.409046">
        <ele>360.56</ele>
        <time>2018-06-10T10:01:25Z</time>
      </trkpt>
      <trkpt lat="41.386832" lon="0.409096">
        <ele>360.76</ele>
        <time>2018-06-10T10:01:27Z</time>
      </trkpt>
      <trkpt lat="41.386838" lon="0.409160">
        <ele>361.00</ele>
        <time>2018-06-10T10:01:30Z</time>
      </trkpt>
      <trkpt lat="41.386852" lon="0.409224">
        <ele>361.00</ele>
        <time>2018-06-10T10:01:33Z</time>
      </trkpt>
      <trkpt lat="41.386842" lon="0.409272">
        <ele>361.00</ele>
        <time>2018-06-10T10:01:35Z</time>
      </trkpt>
      <trkpt lat="41.386828" lon="0.409322">
        <ele>361.93</ele>
        <time>2018-06-10T10:01:49Z</time>
      </trkpt>
      <trkpt lat="41.386789" lon="0.409372">
        <ele>362.00</ele>
        <time>2018-06-10T10:01:52Z</time>
      </trkpt>
      <trkpt lat="41.386752" lon="0.409406">
        <ele>362.00</ele>
        <time>2018-06-10T10:01:54Z</time>
      </trkpt>
      <trkpt lat="41.386720" lon="0.409448">
        <ele>362.00</ele>
        <time>2018-06-10T10:01:56Z</time>
      </trkpt>
      <trkpt lat="41.386705" lon="0.409502">
        <ele>362.00</ele>
        <time>2018-06-10T10:01:58Z</time>
      </trkpt>
      <trkpt lat="41.386672" lon="0.409544">
        <ele>362.00</ele>
        <time>2018-06-10T10:02:00Z</time>
      </trkpt>
      <trkpt lat="41.386627" lon="0.409591">
        <ele>362.00</ele>
        <time>2018-06-10T10:02:02Z</time>
      </trkpt>
      <trkpt lat="41.386578" lon="0.409631">
        <ele>362.00</ele>
        <time>2018-06-10T10:02:04Z</time>
      </trkpt>
      <trkpt lat="41.386539" lon="0.409678">
        <ele>362.00</ele>
        <time>2018-06-10T10:02:06Z</time>
      </trkpt>
      <trkpt lat="41.386512" lon="0.409739">
        <ele>362.00</ele>
        <time>2018-06-10T10:02:08Z</time>
      </trkpt>
      <trkpt lat="41.386494" lon="0.409800">
        <ele>362.00</ele>
        <time>2018-06-10T10:02:10Z</time>
      </trkpt>
      <trkpt lat="41.386466" lon="0.409865">
        <ele>362.00</ele>
        <time>2018-06-10T10:02:12Z</time>
      </trkpt>
      <trkpt lat="41.386440" lon="0.409931">
        <ele>362.00</ele>
        <time>2018-06-10T10:02:14Z</time>
      </trkpt>
      <trkpt lat="41.386420" lon="0.409997">
        <ele>362.00</ele>
        <time>2018-06-10T10:02:16Z</time>
      </trkpt>
      <trkpt lat="41.386408" lon="0.410059">
        <ele>362.00</ele>
        <time>2018-06-10T10:02:18Z</time>
      </trkpt>
      <trkpt lat="41.386378" lon="0.410102">
        <ele>362.14</ele>
        <time>2018-06-10T10:02:20Z</time>
      </trkpt>
      <trkpt lat="41.386340" lon="0.410135">
        <ele>362.54</ele>
        <time>2018-06-10T10:02:22Z</time>
      </trkpt>
      <trkpt lat="41.386318" lon="0.410189">
        <ele>362.93</ele>
        <time>2018-06-10T10:02:24Z</time>
      </trkpt>
      <trkpt lat="41.386286" lon="0.410233">
        <ele>364.53</ele>
        <time>2018-06-10T10:02:32Z</time>
      </trkpt>
      <trkpt lat="41.386266" lon="0.410288">
        <ele>365.15</ele>
        <time>2018-06-10T10:02:35Z</time>
      </trkpt>
      <trkpt lat="41.386252" lon="0.410361">
        <ele>365.76</ele>
        <time>2018-06-10T10:02:38Z</time>
      </trkpt>
      <trkpt lat="41.386244" lon="0.410421">
        <ele>366.00</ele>
        <time>2018-06-10T10:02:40Z</time>
      </trkpt>
      <trkpt lat="41.386222" lon="0.410466">
        <ele>366.00</ele>
        <time>2018-06-10T10:02:42Z</time>
      </trkpt>
      <trkpt lat="41.386188" lon="0.410501">
        <ele>366.00</ele>
        <time>2018-06-10T10:02:44Z</time>
      </trkpt>
      <trkpt lat="41.386146" lon="0.410513">
        <ele>366.00</ele>
        <time>2018-06-10T10:02:46Z</time>
      </trkpt>
      <trkpt lat="41.386102" lon="0.410521">
        <ele>366.00</ele>
        <time>2018-06-10T10:02:48Z</time>
      </trkpt>
      <trkpt lat="41.386068" lon="0.410554">
        <ele>366.16</ele>
        <time>2018-06-10T10:02:50Z</time>
      </trkpt>
      <trkpt lat="41.386036" lon="0.410593">
        <ele>366.75</ele>
        <time>2018-06-10T10:02:53Z</time>
      </trkpt>
      <trkpt lat="41.386008" lon="0.410630">
        <ele>367.14</ele>
        <time>2018-06-10T10:02:55Z</time>
      </trkpt>
      <trkpt lat="41.385962" lon="0.410688">
        <ele>367.53</ele>
        <time>2018-06-10T10:02:57Z</time>
      </trkpt>
      <trkpt lat="41.385938" lon="0.410736">
        <ele>367.73</ele>
        <time>2018-06-10T10:02:58Z</time>
      </trkpt>
      <trkpt lat="41.385920" lon="0.410785">
        <ele>367.92</ele>
        <time>2018-06-10T10:02:59Z</time>
      </trkpt>
      <trkpt lat="41.385904" lon="0.410835">
        <ele>367.94</ele>
        <time>2018-06-10T10:03:00Z</time>
      </trkpt>
      <trkpt lat="41.385895" lon="0.410884">
        <ele>367.84</ele>
        <time>2018-06-10T10:03:01Z</time>
      </trkpt>
      <trkpt lat="41.385888" lon="0.410933">
        <ele>367.73</ele>
        <time>2018-06-10T10:03:02Z</time>
      </trkpt>
      <trkpt lat="41.385876" lon="0.410979">
        <ele>367.63</ele>
        <time>2018-06-10T10:03:03Z</time>
      </trkpt>
      <trkpt lat="41.385862" lon="0.411024">
        <ele>367.53</ele>
        <time>2018-06-10T10:03:04Z</time>
      </trkpt>
      <trkpt lat="41.385836" lon="0.411111">
        <ele>367.32</ele>
        <time>2018-06-10T10:03:06Z</time>
      </trkpt>
      <trkpt lat="41.385790" lon="0.411178">
        <ele>367.12</ele>
        <time>2018-06-10T10:03:08Z</time>
      </trkpt>
      <trkpt lat="41.385753" lon="0.411254">
        <ele>366.92</ele>
        <time>2018-06-10T10:03:10Z</time>
      </trkpt>
      <trkpt lat="41.385711" lon="0.411329">
        <ele>366.72</ele>
        <time>2018-06-10T10:03:12Z</time>
      </trkpt>
      <trkpt lat="41.385692" lon="0.411369">
        <ele>366.62</ele>
        <time>2018-06-10T10:03:13Z</time>
      </trkpt>
      <trkpt lat="41.385674" lon="0.411412">
        <ele>366.52</ele>
        <time>2018-06-10T10:03:14Z</time>
      </trkpt>
      <trkpt lat="41.385655" lon="0.411452">
        <ele>366.42</ele>
        <time>2018-06-10T10:03:15Z</time>
      </trkpt>
      <trkpt lat="41.385610" lon="0.411525">
        <ele>366.21</ele>
        <time>2018-06-10T10:03:17Z</time>
      </trkpt>
      <trkpt lat="41.385567" lon="0.411599">
        <ele>366.01</ele>
        <time>2018-06-10T10:03:19Z</time>
      </trkpt>
      <trkpt lat="41.385521" lon="0.411667">
        <ele>366.19</ele>
        <time>2018-06-10T10:03:21Z</time>
      </trkpt>
      <trkpt lat="41.385488" lon="0.411749">
        <ele>366.39</ele>
        <time>2018-06-10T10:03:23Z</time>
      </trkpt>
      <trkpt lat="41.385460" lon="0.411825">
        <ele>366.58</ele>
        <time>2018-06-10T10:03:25Z</time>
      </trkpt>
      <trkpt lat="41.385416" lon="0.411890">
        <ele>366.78</ele>
        <time>2018-06-10T10:03:27Z</time>
      </trkpt>
      <trkpt lat="41.385376" lon="0.411958">
        <ele>366.98</ele>
        <time>2018-06-10T10:03:29Z</time>
      </trkpt>
      <trkpt lat="41.385347" lon="0.412009">
        <ele>367.18</ele>
        <time>2018-06-10T10:03:31Z</time>
      </trkpt>
      <trkpt lat="41.385313" lon="0.412054">
        <ele>368.00</ele>
        <time>2018-06-10T10:04:26Z</time>
      </trkpt>
      <trkpt lat="41.385269" lon="0.412100">
        <ele>368.00</ele>
        <time>2018-06-10T10:04:28Z</time>
      </trkpt>
      <trkpt lat="41.385224" lon="0.412140">
        <ele>367.83</ele>
        <time>2018-06-10T10:04:30Z</time>
      </trkpt>
      <trkpt lat="41.385169" lon="0.412175">
        <ele>367.44</ele>
        <time>2018-06-10T10:04:32Z</time>
      </trkpt>
      <trkpt lat="41.385118" lon="0.412198">
        <ele>367.04</ele>
        <time>2018-06-10T10:04:34Z</time>
      </trkpt>
      <trkpt lat="41.385072" lon="0.412230">
        <ele>366.65</ele>
        <time>2018-06-10T10:04:36Z</time>
      </trkpt>
      <trkpt lat="41.385012" lon="0.412261">
        <ele>366.26</ele>
        <time>2018-06-10T10:04:38Z</time>
      </trkpt>
      <trkpt lat="41.384952" lon="0.412283">
        <ele>365.79</ele>
        <time>2018-06-10T10:04:40Z</time>
      </trkpt>
      <trkpt lat="41.384907" lon="0.412309">
        <ele>365.19</ele>
        <time>2018-06-10T10:04:42Z</time>
      </trkpt>
      <trkpt lat="41.384860" lon="0.412346">
        <ele>364.59</ele>
        <time>2018-06-10T10:04:44Z</time>
      </trkpt>
      <trkpt lat="41.384809" lon="0.412385">
        <ele>363.98</ele>
        <time>2018-06-10T10:04:46Z</time>
      </trkpt>
      <trkpt lat="41.384771" lon="0.412427">
        <ele>363.38</ele>
        <time>2018-06-10T10:04:48Z</time>
      </trkpt>
      <trkpt lat="41.384748" lon="0.412480">
        <ele>362.63</ele>
        <time>2018-06-10T10:04:50Z</time>
      </trkpt>
      <trkpt lat="41.384715" lon="0.412529">
        <ele>361.62</ele>
        <time>2018-06-10T10:04:52Z</time>
      </trkpt>
      <trkpt lat="41.384656" lon="0.412568">
        <ele>360.61</ele>
        <time>2018-06-10T10:04:54Z</time>
      </trkpt>
      <trkpt lat="41.384625" lon="0.412601">
        <ele>360.11</ele>
        <time>2018-06-10T10:04:55Z</time>
      </trkpt>
      <trkpt lat="41.384591" lon="0.412635">
        <ele>359.60</ele>
        <time>2018-06-10T10:04:56Z</time>
      </trkpt>
      <trkpt lat="41.384552" lon="0.412664">
        <ele>359.10</ele>
        <time>2018-06-10T10:04:57Z</time>
      </trkpt>
      <trkpt lat="41.384507" lon="0.412685">
        <ele>358.59</ele>
        <time>2018-06-10T10:04:58Z</time>
      </trkpt>
      <trkpt lat="41.384461" lon="0.412698">
        <ele>358.09</ele>
        <time>2018-06-10T10:04:59Z</time>
      </trkpt>
      <trkpt lat="41.384413" lon="0.412714">
        <ele>357.59</ele>
        <time>2018-06-10T10:05:00Z</time>
      </trkpt>
      <trkpt lat="41.384365" lon="0.412738">
        <ele>357.09</ele>
        <time>2018-06-10T10:05:01Z</time>
      </trkpt>
      <trkpt lat="41.384317" lon="0.412768">
        <ele>356.59</ele>
        <time>2018-06-10T10:05:02Z</time>
      </trkpt>
      <trkpt lat="41.384274" lon="0.412800">
        <ele>356.09</ele>
        <time>2018-06-10T10:05:03Z</time>
      </trkpt>
      <trkpt lat="41.384225" lon="0.412850">
        <ele>355.10</ele>
        <time>2018-06-10T10:05:05Z</time>
      </trkpt>
      <trkpt lat="41.384167" lon="0.412892">
        <ele>354.10</ele>
        <time>2018-06-10T10:05:07Z</time>
      </trkpt>
      <trkpt lat="41.384135" lon="0.412918">
        <ele>353.60</ele>
        <time>2018-06-10T10:05:08Z</time>
      </trkpt>
      <trkpt lat="41.384091" lon="0.412962">
        <ele>352.76</ele>
        <time>2018-06-10T10:05:10Z</time>
      </trkpt>
      <trkpt lat="41.384044" lon="0.412996">
        <ele>351.86</ele>
        <time>2018-06-10T10:05:13Z</time>
      </trkpt>
      <trkpt lat="41.384028" lon="0.413024">
        <ele>351.27</ele>
        <time>2018-06-10T10:05:15Z</time>
      </trkpt>
      <trkpt lat="41.384006" lon="0.413078">
        <ele>350.37</ele>
        <time>2018-06-10T10:05:18Z</time>
      </trkpt>
      <trkpt lat="41.383979" lon="0.413108">
        <ele>347.52</ele>
        <time>2018-06-10T10:05:34Z</time>
      </trkpt>
      <trkpt lat="41.383955" lon="0.413144">
        <ele>347.32</ele>
        <time>2018-06-10T10:05:36Z</time>
      </trkpt>
      <trkpt lat="41.383920" lon="0.413190">
        <ele>347.12</ele>
        <time>2018-06-10T10:05:38Z</time>
      </trkpt>
      <trkpt lat="41.383882" lon="0.413244">
        <ele>346.75</ele>
        <time>2018-06-10T10:05:40Z</time>
      </trkpt>
      <trkpt lat="41.383845" lon="0.413286">
        <ele>346.15</ele>
        <time>2018-06-10T10:05:42Z</time>
      </trkpt>
      <trkpt lat="41.383803" lon="0.413324">
        <ele>345.55</ele>
        <time>2018-06-10T10:05:44Z</time>
      </trkpt>
      <trkpt lat="41.383765" lon="0.413352">
        <ele>344.95</ele>
        <time>2018-06-10T10:05:46Z</time>
      </trkpt>
      <trkpt lat="41.383726" lon="0.413358">
        <ele>344.35</ele>
        <time>2018-06-10T10:05:48Z</time>
      </trkpt>
      <trkpt lat="41.383680" lon="0.413368">
        <ele>343.75</ele>
        <time>2018-06-10T10:05:50Z</time>
      </trkpt>
      <trkpt lat="41.383639" lon="0.413394">
        <ele>343.15</ele>
        <time>2018-06-10T10:05:52Z</time>
      </trkpt>
      <trkpt lat="41.383620" lon="0.413410">
        <ele>342.85</ele>
        <time>2018-06-10T10:05:53Z</time>
      </trkpt>
      <trkpt lat="41.383587" lon="0.413446">
        <ele>342.25</ele>
        <time>2018-06-10T10:05:55Z</time>
      </trkpt>
      <trkpt lat="41.383549" lon="0.413480">
        <ele>341.65</ele>
        <time>2018-06-10T10:05:57Z</time>
      </trkpt>
      <trkpt lat="41.383526" lon="0.413531">
        <ele>341.05</ele>
        <time>2018-06-10T10:05:59Z</time>
      </trkpt>
      <trkpt lat="41.383503" lon="0.413595">
        <ele>340.09</ele>
        <time>2018-06-10T10:06:01Z</time>
      </trkpt>
      <trkpt lat="41.383458" lon="0.413628">
        <ele>339.11</ele>
        <time>2018-06-10T10:06:03Z</time>
      </trkpt>
      <trkpt lat="41.383409" lon="0.413672">
        <ele>338.12</ele>
        <time>2018-06-10T10:06:05Z</time>
      </trkpt>
      <trkpt lat="41.383355" lon="0.413727">
        <ele>337.13</ele>
        <time>2018-06-10T10:06:07Z</time>
      </trkpt>
      <trkpt lat="41.383294" lon="0.413764">
        <ele>336.15</ele>
        <time>2018-06-10T10:06:09Z</time>
      </trkpt>
      <trkpt lat="41.383262" lon="0.413788">
        <ele>335.65</ele>
        <time>2018-06-10T10:06:10Z</time>
      </trkpt>
      <trkpt lat="41.383238" lon="0.413824">
        <ele>335.14</ele>
        <time>2018-06-10T10:06:11Z</time>
      </trkpt>
      <trkpt lat="41.383212" lon="0.413879">
        <ele>334.12</ele>
        <time>2018-06-10T10:06:13Z</time>
      </trkpt>
      <trkpt lat="41.383214" lon="0.413877">
        <ele>333.62</ele>
        <time>2018-06-10T10:06:14Z</time>
      </trkpt>
      <trkpt lat="41.383168" lon="0.413907">
        <ele>330.15</ele>
        <time>2018-06-10T10:06:22Z</time>
      </trkpt>
      <trkpt lat="41.383123" lon="0.413899">
        <ele>329.55</ele>
        <time>2018-06-10T10:06:24Z</time>
      </trkpt>
      <trkpt lat="41.383070" lon="0.413888">
        <ele>328.95</ele>
        <time>2018-06-10T10:06:26Z</time>
      </trkpt>
      <trkpt lat="41.383032" lon="0.413891">
        <ele>328.65</ele>
        <time>2018-06-10T10:06:27Z</time>
      </trkpt>
      <trkpt lat="41.382985" lon="0.413896">
        <ele>328.35</ele>
        <time>2018-06-10T10:06:28Z</time>
      </trkpt>
      <trkpt lat="41.382938" lon="0.413901">
        <ele>328.05</ele>
        <time>2018-06-10T10:06:29Z</time>
      </trkpt>
      <trkpt lat="41.382889" lon="0.413904">
        <ele>327.83</ele>
        <time>2018-06-10T10:06:30Z</time>
      </trkpt>
      <trkpt lat="41.382842" lon="0.413906">
        <ele>327.63</ele>
        <time>2018-06-10T10:06:31Z</time>
      </trkpt>
      <trkpt lat="41.382797" lon="0.413904">
        <ele>327.43</ele>
        <time>2018-06-10T10:06:32Z</time>
      </trkpt>
      <trkpt lat="41.382754" lon="0.413903">
        <ele>327.23</ele>
        <time>2018-06-10T10:06:33Z</time>
      </trkpt>
      <trkpt lat="41.382712" lon="0.413909">
        <ele>327.03</ele>
        <time>2018-06-10T10:06:34Z</time>
      </trkpt>
      <trkpt lat="41.382671" lon="0.413923">
        <ele>326.83</ele>
        <time>2018-06-10T10:06:35Z</time>
      </trkpt>
      <trkpt lat="41.382629" lon="0.413953">
        <ele>326.63</ele>
        <time>2018-06-10T10:06:36Z</time>
      </trkpt>
      <trkpt lat="41.382589" lon="0.413998">
        <ele>326.43</ele>
        <time>2018-06-10T10:06:37Z</time>
      </trkpt>
      <trkpt lat="41.382553" lon="0.414053">
        <ele>326.22</ele>
        <time>2018-06-10T10:06:38Z</time>
      </trkpt>
      <trkpt lat="41.382524" lon="0.414113">
        <ele>326.02</ele>
        <time>2018-06-10T10:06:39Z</time>
      </trkpt>
      <trkpt lat="41.382497" lon="0.414171">
        <ele>325.84</ele>
        <time>2018-06-10T10:06:40Z</time>
      </trkpt>
      <trkpt lat="41.382476" lon="0.414222">
        <ele>325.65</ele>
        <time>2018-06-10T10:06:41Z</time>
      </trkpt>
      <trkpt lat="41.382462" lon="0.414289">
        <ele>325.28</ele>
        <time>2018-06-10T10:06:43Z</time>
      </trkpt>
      <trkpt lat="41.382411" lon="0.414281">
        <ele>324.72</ele>
        <time>2018-06-10T10:06:46Z</time>
      </trkpt>
      <trkpt lat="41.382336" lon="0.414301">
        <ele>324.34</ele>
        <time>2018-06-10T10:06:48Z</time>
      </trkpt>
      <trkpt lat="41.382288" lon="0.414321">
        <ele>324.16</ele>
        <time>2018-06-10T10:06:49Z</time>
      </trkpt>
      <trkpt lat="41.381911" lon="0.414445">
        <ele>321.83</ele>
        <time>2018-06-10T10:06:55Z</time>
      </trkpt>
      <trkpt lat="41.381794" lon="0.414472">
        <ele>320.96</ele>
        <time>2018-06-10T10:06:56.96Z</time>
      </trkpt>
      <trkpt lat="41.381473" lon="0.414430">
        <ele>319.04</ele>
        <time>2018-06-10T10:07:09Z</time>
      </trkpt>
      <trkpt lat="41.381346" lon="0.414369">
        <ele>319.16</ele>
        <time>2018-06-10T10:07:11Z</time>
      </trkpt>
      <trkpt lat="41.381218" lon="0.414335">
        <ele>319.37</ele>
        <time>2018-06-10T10:07:13Z</time>
      </trkpt>
      <trkpt lat="41.381097" lon="0.414343">
        <ele>319.67</ele>
        <time>2018-06-10T10:07:16Z</time>
      </trkpt>
      <trkpt lat="41.381006" lon="0.414439">
        <ele>319.87</ele>
        <time>2018-06-10T10:07:18Z</time>
      </trkpt>
      <trkpt lat="41.380645" lon="0.415429">
        <ele>320.78</ele>
        <time>2018-06-10T10:07:27.16Z</time>
      </trkpt>
      <trkpt lat="41.380578" lon="0.415485">
        <ele>320.96</ele>
        <time>2018-06-10T10:07:29Z</time>
      </trkpt>
      <trkpt lat="41.380551" lon="0.415519">
        <ele>320.94</ele>
        <time>2018-06-10T10:07:30Z</time>
      </trkpt>
      <trkpt lat="41.380529" lon="0.415566">
        <ele>320.84</ele>
        <time>2018-06-10T10:07:31Z</time>
      </trkpt>
      <trkpt lat="41.380509" lon="0.415614">
        <ele>320.74</ele>
        <time>2018-06-10T10:07:32Z</time>
      </trkpt>
      <trkpt lat="41.380484" lon="0.415669">
        <ele>320.63</ele>
        <time>2018-06-10T10:07:33Z</time>
      </trkpt>
      <trkpt lat="41.380453" lon="0.415732">
        <ele>320.53</ele>
        <time>2018-06-10T10:07:34Z</time>
      </trkpt>
      <trkpt lat="41.380414" lon="0.415796">
        <ele>320.43</ele>
        <time>2018-06-10T10:07:35Z</time>
      </trkpt>
      <trkpt lat="41.380369" lon="0.415863">
        <ele>320.33</ele>
        <time>2018-06-10T10:07:36Z</time>
      </trkpt>
      <trkpt lat="41.380320" lon="0.415936">
        <ele>320.23</ele>
        <time>2018-06-10T10:07:37Z</time>
      </trkpt>
      <trkpt lat="41.380269" lon="0.416019">
        <ele>320.13</ele>
        <time>2018-06-10T10:07:38Z</time>
      </trkpt>
      <trkpt lat="41.380220" lon="0.416111">
        <ele>320.03</ele>
        <time>2018-06-10T10:07:39Z</time>
      </trkpt>
      <trkpt lat="41.380168" lon="0.416207">
        <ele>319.73</ele>
        <time>2018-06-10T10:07:40Z</time>
      </trkpt>
      <trkpt lat="41.380105" lon="0.416294">
        <ele>319.33</ele>
        <time>2018-06-10T10:07:41Z</time>
      </trkpt>
      <trkpt lat="41.380029" lon="0.416363">
        <ele>318.94</ele>
        <time>2018-06-10T10:07:42Z</time>
      </trkpt>
      <trkpt lat="41.379945" lon="0.416411">
        <ele>318.55</ele>
        <time>2018-06-10T10:07:43Z</time>
      </trkpt>
      <trkpt lat="41.379862" lon="0.416453">
        <ele>318.15</ele>
        <time>2018-06-10T10:07:44Z</time>
      </trkpt>
      <trkpt lat="41.379788" lon="0.416498">
        <ele>317.76</ele>
        <time>2018-06-10T10:07:45Z</time>
      </trkpt>
      <trkpt lat="41.379728" lon="0.416546">
        <ele>317.36</ele>
        <time>2018-06-10T10:07:46Z</time>
      </trkpt>
      <trkpt lat="41.379680" lon="0.416598">
        <ele>316.97</ele>
        <time>2018-06-10T10:07:47Z</time>
      </trkpt>
      <trkpt lat="41.379639" lon="0.416659">
        <ele>316.58</ele>
        <time>2018-06-10T10:07:48Z</time>
      </trkpt>
      <trkpt lat="41.379604" lon="0.416729">
        <ele>316.18</ele>
        <time>2018-06-10T10:07:49Z</time>
      </trkpt>
      <trkpt lat="41.379573" lon="0.416805">
        <ele>315.78</ele>
        <time>2018-06-10T10:07:50Z</time>
      </trkpt>
      <trkpt lat="41.379543" lon="0.416885">
        <ele>315.36</ele>
        <time>2018-06-10T10:07:51Z</time>
      </trkpt>
      <trkpt lat="41.379519" lon="0.416970">
        <ele>314.95</ele>
        <time>2018-06-10T10:07:52Z</time>
      </trkpt>
      <trkpt lat="41.379506" lon="0.417055">
        <ele>314.53</ele>
        <time>2018-06-10T10:07:53Z</time>
      </trkpt>
      <trkpt lat="41.379504" lon="0.417125">
        <ele>314.12</ele>
        <time>2018-06-10T10:07:54Z</time>
      </trkpt>
      <trkpt lat="41.379502" lon="0.417202">
        <ele>313.29</ele>
        <time>2018-06-10T10:07:56Z</time>
      </trkpt>
      <trkpt lat="41.379464" lon="0.417241">
        <ele>312.05</ele>
        <time>2018-06-10T10:07:59Z</time>
      </trkpt>
      <trkpt lat="41.379416" lon="0.417238">
        <ele>311.81</ele>
        <time>2018-06-10T10:08:01Z</time>
      </trkpt>
      <trkpt lat="41.379365" lon="0.417258">
        <ele>311.61</ele>
        <time>2018-06-10T10:08:03Z</time>
      </trkpt>
      <trkpt lat="41.379321" lon="0.417314">
        <ele>311.41</ele>
        <time>2018-06-10T10:08:05Z</time>
      </trkpt>
      <trkpt lat="41.379280" lon="0.417384">
        <ele>311.22</ele>
        <time>2018-06-10T10:08:07Z</time>
      </trkpt>
      <trkpt lat="41.379245" lon="0.417453">
        <ele>311.02</ele>
        <time>2018-06-10T10:08:09Z</time>
      </trkpt>
      <trkpt lat="41.379208" lon="0.417524">
        <ele>310.45</ele>
        <time>2018-06-10T10:08:11Z</time>
      </trkpt>
      <trkpt lat="41.379183" lon="0.417560">
        <ele>310.15</ele>
        <time>2018-06-10T10:08:12Z</time>
      </trkpt>
      <trkpt lat="41.379150" lon="0.417596">
        <ele>309.85</ele>
        <time>2018-06-10T10:08:13Z</time>
      </trkpt>
      <trkpt lat="41.379111" lon="0.417636">
        <ele>309.55</ele>
        <time>2018-06-10T10:08:14Z</time>
      </trkpt>
      <trkpt lat="41.379074" lon="0.417686">
        <ele>309.25</ele>
        <time>2018-06-10T10:08:15Z</time>
      </trkpt>
      <trkpt lat="41.379045" lon="0.417747">
        <ele>308.95</ele>
        <time>2018-06-10T10:08:16Z</time>
      </trkpt>
      <trkpt lat="41.379025" lon="0.417817">
        <ele>308.65</ele>
        <time>2018-06-10T10:08:17Z</time>
      </trkpt>
      <trkpt lat="41.379009" lon="0.417889">
        <ele>308.35</ele>
        <time>2018-06-10T10:08:18Z</time>
      </trkpt>
      <trkpt lat="41.378994" lon="0.417954">
        <ele>308.05</ele>
        <time>2018-06-10T10:08:19Z</time>
      </trkpt>
      <trkpt lat="41.378980" lon="0.418004">
        <ele>307.75</ele>
        <time>2018-06-10T10:08:20Z</time>
      </trkpt>
      <trkpt lat="41.378965" lon="0.418071">
        <ele>307.16</ele>
        <time>2018-06-10T10:08:22Z</time>
      </trkpt>
      <trkpt lat="41.378972" lon="0.418124">
        <ele>306.56</ele>
        <time>2018-06-10T10:08:24Z</time>
      </trkpt>
      <trkpt lat="41.378974" lon="0.418195">
        <ele>305.97</ele>
        <time>2018-06-10T10:08:26Z</time>
      </trkpt>
      <trkpt lat="41.378977" lon="0.418266">
        <ele>305.38</ele>
        <time>2018-06-10T10:08:28Z</time>
      </trkpt>
      <trkpt lat="41.378959" lon="0.418303">
        <ele>302.96</ele>
        <time>2018-06-10T10:08:36Z</time>
      </trkpt>
      <trkpt lat="41.378935" lon="0.418335">
        <ele>299.12</ele>
        <time>2018-06-10T10:08:58Z</time>
      </trkpt>
      <trkpt lat="41.378894" lon="0.418375">
        <ele>298.93</ele>
        <time>2018-06-10T10:09:00Z</time>
      </trkpt>
      <trkpt lat="41.378853" lon="0.418414">
        <ele>298.72</ele>
        <time>2018-06-10T10:09:02Z</time>
      </trkpt>
      <trkpt lat="41.378819" lon="0.418428">
        <ele>298.52</ele>
        <time>2018-06-10T10:09:04Z</time>
      </trkpt>
      <trkpt lat="41.378774" lon="0.418442">
        <ele>298.32</ele>
        <time>2018-06-10T10:09:06Z</time>
      </trkpt>
      <trkpt lat="41.378727" lon="0.418489">
        <ele>298.12</ele>
        <time>2018-06-10T10:09:08Z</time>
      </trkpt>
      <trkpt lat="41.378684" lon="0.418552">
        <ele>297.58</ele>
        <time>2018-06-10T10:09:10Z</time>
      </trkpt>
      <trkpt lat="41.378644" lon="0.418619">
        <ele>296.59</ele>
        <time>2018-06-10T10:09:12Z</time>
      </trkpt>
      <trkpt lat="41.378605" lon="0.418676">
        <ele>295.60</ele>
        <time>2018-06-10T10:09:14Z</time>
      </trkpt>
      <trkpt lat="41.378535" lon="0.418671">
        <ele>294.61</ele>
        <time>2018-06-10T10:09:16Z</time>
      </trkpt>
      <trkpt lat="41.378508" lon="0.418630">
        <ele>294.11</ele>
        <time>2018-06-10T10:09:17Z</time>
      </trkpt>
      <trkpt lat="41.378489" lon="0.418581">
        <ele>293.61</ele>
        <time>2018-06-10T10:09:18Z</time>
      </trkpt>
      <trkpt lat="41.378469" lon="0.418534">
        <ele>293.12</ele>
        <time>2018-06-10T10:09:19Z</time>
      </trkpt>
      <trkpt lat="41.378448" lon="0.418489">
        <ele>292.70</ele>
        <time>2018-06-10T10:09:20Z</time>
      </trkpt>
      <trkpt lat="41.378426" lon="0.418445">
        <ele>292.30</ele>
        <time>2018-06-10T10:09:21Z</time>
      </trkpt>
      <trkpt lat="41.378403" lon="0.418400">
        <ele>291.90</ele>
        <time>2018-06-10T10:09:22Z</time>
      </trkpt>
      <trkpt lat="41.378377" lon="0.418355">
        <ele>291.50</ele>
        <time>2018-06-10T10:09:23Z</time>
      </trkpt>
      <trkpt lat="41.378349" lon="0.418310">
        <ele>291.10</ele>
        <time>2018-06-10T10:09:24Z</time>
      </trkpt>
      <trkpt lat="41.378319" lon="0.418265">
        <ele>290.70</ele>
        <time>2018-06-10T10:09:25Z</time>
      </trkpt>
      <trkpt lat="41.378286" lon="0.418221">
        <ele>290.30</ele>
        <time>2018-06-10T10:09:26Z</time>
      </trkpt>
      <trkpt lat="41.378253" lon="0.418178">
        <ele>289.91</ele>
        <time>2018-06-10T10:09:27Z</time>
      </trkpt>
      <trkpt lat="41.378218" lon="0.418135">
        <ele>289.51</ele>
        <time>2018-06-10T10:09:28Z</time>
      </trkpt>
      <trkpt lat="41.378183" lon="0.418093">
        <ele>289.11</ele>
        <time>2018-06-10T10:09:29Z</time>
      </trkpt>
      <trkpt lat="41.378149" lon="0.418051">
        <ele>288.86</ele>
        <time>2018-06-10T10:09:30Z</time>
      </trkpt>
      <trkpt lat="41.378113" lon="0.418012">
        <ele>288.66</ele>
        <time>2018-06-10T10:09:31Z</time>
      </trkpt>
      <trkpt lat="41.378076" lon="0.417976">
        <ele>288.46</ele>
        <time>2018-06-10T10:09:32Z</time>
      </trkpt>
      <trkpt lat="41.378039" lon="0.417940">
        <ele>288.27</ele>
        <time>2018-06-10T10:09:33Z</time>
      </trkpt>
      <trkpt lat="41.378003" lon="0.417900">
        <ele>288.07</ele>
        <time>2018-06-10T10:09:34Z</time>
      </trkpt>
      <trkpt lat="41.377970" lon="0.417861">
        <ele>287.87</ele>
        <time>2018-06-10T10:09:35Z</time>
      </trkpt>
      <trkpt lat="41.377932" lon="0.417815">
        <ele>287.48</ele>
        <time>2018-06-10T10:09:37Z</time>
      </trkpt>
      <trkpt lat="41.377895" lon="0.417792">
        <ele>288.00</ele>
        <time>2018-06-10T10:11:59Z</time>
      </trkpt>
      <trkpt lat="41.377854" lon="0.417755">
        <ele>288.00</ele>
        <time>2018-06-10T10:12:02Z</time>
      </trkpt>
      <trkpt lat="41.377819" lon="0.417713">
        <ele>288.00</ele>
        <time>2018-06-10T10:12:05Z</time>
      </trkpt>
      <trkpt lat="41.377775" lon="0.417668">
        <ele>288.00</ele>
        <time>2018-06-10T10:12:08Z</time>
      </trkpt>
      <trkpt lat="41.377733" lon="0.417624">
        <ele>288.00</ele>
        <time>2018-06-10T10:12:10Z</time>
      </trkpt>
      <trkpt lat="41.377676" lon="0.417567">
        <ele>288.00</ele>
        <time>2018-06-10T10:12:12Z</time>
      </trkpt>
      <trkpt lat="41.377644" lon="0.417535">
        <ele>288.00</ele>
        <time>2018-06-10T10:12:13Z</time>
      </trkpt>
      <trkpt lat="41.377609" lon="0.417501">
        <ele>288.00</ele>
        <time>2018-06-10T10:12:14Z</time>
      </trkpt>
      <trkpt lat="41.377573" lon="0.417465">
        <ele>288.00</ele>
        <time>2018-06-10T10:12:15Z</time>
      </trkpt>
      <trkpt lat="41.377536" lon="0.417428">
        <ele>288.00</ele>
        <time>2018-06-10T10:12:16Z</time>
      </trkpt>
      <trkpt lat="41.377496" lon="0.417392">
        <ele>288.00</ele>
        <time>2018-06-10T10:12:17Z</time>
      </trkpt>
      <trkpt lat="41.377453" lon="0.417358">
        <ele>288.00</ele>
        <time>2018-06-10T10:12:18Z</time>
      </trkpt>
      <trkpt lat="41.377408" lon="0.417324">
        <ele>288.00</ele>
        <time>2018-06-10T10:12:19Z</time>
      </trkpt>
      <trkpt lat="41.377361" lon="0.417292">
        <ele>288.00</ele>
        <time>2018-06-10T10:12:20Z</time>
      </trkpt>
      <trkpt lat="41.377314" lon="0.417261">
        <ele>288.00</ele>
        <time>2018-06-10T10:12:21Z</time>
      </trkpt>
      <trkpt lat="41.377264" lon="0.417234">
        <ele>288.00</ele>
        <time>2018-06-10T10:12:22Z</time>
      </trkpt>
      <trkpt lat="41.377213" lon="0.417211">
        <ele>288.00</ele>
        <time>2018-06-10T10:12:23Z</time>
      </trkpt>
      <trkpt lat="41.377161" lon="0.417193">
        <ele>288.00</ele>
        <time>2018-06-10T10:12:24Z</time>
      </trkpt>
      <trkpt lat="41.377110" lon="0.417177">
        <ele>288.00</ele>
        <time>2018-06-10T10:12:25Z</time>
      </trkpt>
      <trkpt lat="41.377060" lon="0.417166">
        <ele>288.00</ele>
        <time>2018-06-10T10:12:26Z</time>
      </trkpt>
      <trkpt lat="41.377011" lon="0.417154">
        <ele>288.00</ele>
        <time>2018-06-10T10:12:27Z</time>
      </trkpt>
      <trkpt lat="41.376963" lon="0.417143">
        <ele>288.00</ele>
        <time>2018-06-10T10:12:28Z</time>
      </trkpt>
      <trkpt lat="41.376916" lon="0.417133">
        <ele>288.00</ele>
        <time>2018-06-10T10:12:29Z</time>
      </trkpt>
      <trkpt lat="41.376867" lon="0.417124">
        <ele>287.93</ele>
        <time>2018-06-10T10:12:30Z</time>
      </trkpt>
      <trkpt lat="41.376818" lon="0.417116">
        <ele>287.83</ele>
        <time>2018-06-10T10:12:31Z</time>
      </trkpt>
      <trkpt lat="41.376768" lon="0.417105">
        <ele>287.73</ele>
        <time>2018-06-10T10:12:32Z</time>
      </trkpt>
      <trkpt lat="41.376719" lon="0.417085">
        <ele>287.63</ele>
        <time>2018-06-10T10:12:33Z</time>
      </trkpt>
      <trkpt lat="41.376669" lon="0.417057">
        <ele>287.53</ele>
        <time>2018-06-10T10:12:34Z</time>
      </trkpt>
      <trkpt lat="41.376619" lon="0.417020">
        <ele>287.43</ele>
        <time>2018-06-10T10:12:35Z</time>
      </trkpt>
      <trkpt lat="41.376571" lon="0.416975">
        <ele>287.33</ele>
        <time>2018-06-10T10:12:36Z</time>
      </trkpt>
      <trkpt lat="41.376527" lon="0.416926">
        <ele>287.23</ele>
        <time>2018-06-10T10:12:37Z</time>
      </trkpt>
      <trkpt lat="41.376489" lon="0.416875">
        <ele>287.13</ele>
        <time>2018-06-10T10:12:38Z</time>
      </trkpt>
      <trkpt lat="41.376465" lon="0.416820">
        <ele>287.03</ele>
        <time>2018-06-10T10:12:39Z</time>
      </trkpt>
      <trkpt lat="41.376462" lon="0.416762">
        <ele>287.00</ele>
        <time>2018-06-10T10:12:40Z</time>
      </trkpt>
      <trkpt lat="41.376472" lon="0.416712">
        <ele>287.00</ele>
        <time>2018-06-10T10:12:41Z</time>
      </trkpt>
      <trkpt lat="41.376481" lon="0.416654">
        <ele>287.00</ele>
        <time>2018-06-10T10:12:43Z</time>
      </trkpt>
      <trkpt lat="41.376451" lon="0.416698">
        <ele>287.00</ele>
        <time>2018-06-10T10:12:46Z</time>
      </trkpt>
      <trkpt lat="41.376454" lon="0.416767">
        <ele>287.00</ele>
        <time>2018-06-10T10:12:48Z</time>
      </trkpt>
      <trkpt lat="41.376454" lon="0.416846">
        <ele>287.00</ele>
        <time>2018-06-10T10:12:50Z</time>
      </trkpt>
      <trkpt lat="41.376411" lon="0.416895">
        <ele>287.00</ele>
        <time>2018-06-10T10:12:52Z</time>
      </trkpt>
      <trkpt lat="41.376375" lon="0.416896">
        <ele>287.00</ele>
        <time>2018-06-10T10:12:53Z</time>
      </trkpt>
      <trkpt lat="41.376339" lon="0.416878">
        <ele>287.00</ele>
        <time>2018-06-10T10:12:54Z</time>
      </trkpt>
      <trkpt lat="41.376306" lon="0.416847">
        <ele>287.00</ele>
        <time>2018-06-10T10:12:55Z</time>
      </trkpt>
      <trkpt lat="41.376273" lon="0.416809">
        <ele>287.00</ele>
        <time>2018-06-10T10:12:56Z</time>
      </trkpt>
      <trkpt lat="41.376240" lon="0.416768">
        <ele>287.00</ele>
        <time>2018-06-10T10:12:57Z</time>
      </trkpt>
      <trkpt lat="41.376210" lon="0.416722">
        <ele>287.00</ele>
        <time>2018-06-10T10:12:58Z</time>
      </trkpt>
      <trkpt lat="41.376185" lon="0.416668">
        <ele>287.00</ele>
        <time>2018-06-10T10:12:59Z</time>
      </trkpt>
      <trkpt lat="41.376152" lon="0.416625">
        <ele>287.00</ele>
        <time>2018-06-10T10:13:00Z</time>
      </trkpt>
      <trkpt lat="41.376111" lon="0.416593">
        <ele>287.00</ele>
        <time>2018-06-10T10:13:01Z</time>
      </trkpt>
      <trkpt lat="41.375890" lon="0.416325">
        <ele>285.84</ele>
        <time>2018-06-10T10:13:06Z</time>
      </trkpt>
      <trkpt lat="41.375809" lon="0.416186">
        <ele>285.37</ele>
        <time>2018-06-10T10:13:07.84Z</time>
      </trkpt>
      <trkpt lat="41.375228" lon="0.415039">
        <ele>280.00</ele>
        <time>2018-06-10T10:13:23Z</time>
      </trkpt>
      <trkpt lat="41.375184" lon="0.414976">
        <ele>280.00</ele>
        <time>2018-06-10T10:13:24Z</time>
      </trkpt>
      <trkpt lat="41.375141" lon="0.414917">
        <ele>280.00</ele>
        <time>2018-06-10T10:13:25Z</time>
      </trkpt>
      <trkpt lat="41.375102" lon="0.414857">
        <ele>280.00</ele>
        <time>2018-06-10T10:13:26Z</time>
      </trkpt>
      <trkpt lat="41.375060" lon="0.414797">
        <ele>280.00</ele>
        <time>2018-06-10T10:13:27Z</time>
      </trkpt>
      <trkpt lat="41.375019" lon="0.414737">
        <ele>280.00</ele>
        <time>2018-06-10T10:13:28Z</time>
      </trkpt>
      <trkpt lat="41.374979" lon="0.414679">
        <ele>280.00</ele>
        <time>2018-06-10T10:13:29Z</time>
      </trkpt>
      <trkpt lat="41.374938" lon="0.414622">
        <ele>280.00</ele>
        <time>2018-06-10T10:13:30Z</time>
      </trkpt>
      <trkpt lat="41.374901" lon="0.414563">
        <ele>280.00</ele>
        <time>2018-06-10T10:13:31Z</time>
      </trkpt>
      <trkpt lat="41.374865" lon="0.414505">
        <ele>280.00</ele>
        <time>2018-06-10T10:13:32Z</time>
      </trkpt>
      <trkpt lat="41.374829" lon="0.414451">
        <ele>280.00</ele>
        <time>2018-06-10T10:13:33Z</time>
      </trkpt>
      <trkpt lat="41.374792" lon="0.414399">
        <ele>280.00</ele>
        <time>2018-06-10T10:13:34Z</time>
      </trkpt>
      <trkpt lat="41.374756" lon="0.414347">
        <ele>280.00</ele>
        <time>2018-06-10T10:13:35Z</time>
      </trkpt>
      <trkpt lat="41.374723" lon="0.414295">
        <ele>280.00</ele>
        <time>2018-06-10T10:13:36Z</time>
      </trkpt>
      <trkpt lat="41.374690" lon="0.414243">
        <ele>280.00</ele>
        <time>2018-06-10T10:13:37Z</time>
      </trkpt>
      <trkpt lat="41.374658" lon="0.414192">
        <ele>280.00</ele>
        <time>2018-06-10T10:13:38Z</time>
      </trkpt>
      <trkpt lat="41.374628" lon="0.414143">
        <ele>280.00</ele>
        <time>2018-06-10T10:13:39Z</time>
      </trkpt>
      <trkpt lat="41.374598" lon="0.414096">
        <ele>280.22</ele>
        <time>2018-06-10T10:13:40Z</time>
      </trkpt>
      <trkpt lat="41.374568" lon="0.414051">
        <ele>280.52</ele>
        <time>2018-06-10T10:13:41Z</time>
      </trkpt>
      <trkpt lat="41.374540" lon="0.414007">
        <ele>280.82</ele>
        <time>2018-06-10T10:13:42Z</time>
      </trkpt>
      <trkpt lat="41.374513" lon="0.413963">
        <ele>281.13</ele>
        <time>2018-06-10T10:13:43Z</time>
      </trkpt>
      <trkpt lat="41.374487" lon="0.413917">
        <ele>281.43</ele>
        <time>2018-06-10T10:13:44Z</time>
      </trkpt>
      <trkpt lat="41.374463" lon="0.413873">
        <ele>281.74</ele>
        <time>2018-06-10T10:13:45Z</time>
      </trkpt>
      <trkpt lat="41.374440" lon="0.413831">
        <ele>282.04</ele>
        <time>2018-06-10T10:13:46Z</time>
      </trkpt>
      <trkpt lat="41.374402" lon="0.413754">
        <ele>282.65</ele>
        <time>2018-06-10T10:13:48Z</time>
      </trkpt>
      <trkpt lat="41.374373" lon="0.413680">
        <ele>283.25</ele>
        <time>2018-06-10T10:13:50Z</time>
      </trkpt>
      <trkpt lat="41.374351" lon="0.413613">
        <ele>283.84</ele>
        <time>2018-06-10T10:13:52Z</time>
      </trkpt>
      <trkpt lat="41.374338" lon="0.413554">
        <ele>284.44</ele>
        <time>2018-06-10T10:13:54Z</time>
      </trkpt>
      <trkpt lat="41.374327" lon="0.413502">
        <ele>285.03</ele>
        <time>2018-06-10T10:13:56Z</time>
      </trkpt>
      <trkpt lat="41.374309" lon="0.413450">
        <ele>285.62</ele>
        <time>2018-06-10T10:13:58Z</time>
      </trkpt>
      <trkpt lat="41.374288" lon="0.413382">
        <ele>286.00</ele>
        <time>2018-06-10T10:14:00Z</time>
      </trkpt>
      <trkpt lat="41.374272" lon="0.413284">
        <ele>286.00</ele>
        <time>2018-06-10T10:14:02Z</time>
      </trkpt>
      <trkpt lat="41.374265" lon="0.413228">
        <ele>286.00</ele>
        <time>2018-06-10T10:14:03Z</time>
      </trkpt>
      <trkpt lat="41.374259" lon="0.413168">
        <ele>286.00</ele>
        <time>2018-06-10T10:14:04Z</time>
      </trkpt>
      <trkpt lat="41.374252" lon="0.413106">
        <ele>286.00</ele>
        <time>2018-06-10T10:14:05Z</time>
      </trkpt>
      <trkpt lat="41.374245" lon="0.413044">
        <ele>286.00</ele>
        <time>2018-06-10T10:14:06Z</time>
      </trkpt>
      <trkpt lat="41.374239" lon="0.412985">
        <ele>286.00</ele>
        <time>2018-06-10T10:14:07Z</time>
      </trkpt>
      <trkpt lat="41.374235" lon="0.412928">
        <ele>286.00</ele>
        <time>2018-06-10T10:14:08Z</time>
      </trkpt>
      <trkpt lat="41.374230" lon="0.412873">
        <ele>286.00</ele>
        <time>2018-06-10T10:14:09Z</time>
      </trkpt>
      <trkpt lat="41.374222" lon="0.412819">
        <ele>286.00</ele>
        <time>2018-06-10T10:14:10Z</time>
      </trkpt>
      <trkpt lat="41.374213" lon="0.412767">
        <ele>286.00</ele>
        <time>2018-06-10T10:14:11Z</time>
      </trkpt>
      <trkpt lat="41.374206" lon="0.412715">
        <ele>286.00</ele>
        <time>2018-06-10T10:14:12Z</time>
      </trkpt>
      <trkpt lat="41.374196" lon="0.412662">
        <ele>286.00</ele>
        <time>2018-06-10T10:14:13Z</time>
      </trkpt>
      <trkpt lat="41.374185" lon="0.412608">
        <ele>286.00</ele>
        <time>2018-06-10T10:14:14Z</time>
      </trkpt>
      <trkpt lat="41.374174" lon="0.412553">
        <ele>286.00</ele>
        <time>2018-06-10T10:14:15Z</time>
      </trkpt>
      <trkpt lat="41.374161" lon="0.412498">
        <ele>286.00</ele>
        <time>2018-06-10T10:14:16Z</time>
      </trkpt>
      <trkpt lat="41.374149" lon="0.412442">
        <ele>286.00</ele>
        <time>2018-06-10T10:14:17Z</time>
      </trkpt>
      <trkpt lat="41.374139" lon="0.412388">
        <ele>286.00</ele>
        <time>2018-06-10T10:14:18Z</time>
      </trkpt>
      <trkpt lat="41.374130" lon="0.412335">
        <ele>286.00</ele>
        <time>2018-06-10T10:14:19Z</time>
      </trkpt>
      <trkpt lat="41.374120" lon="0.412283">
        <ele>285.92</ele>
        <time>2018-06-10T10:14:20Z</time>
      </trkpt>
      <trkpt lat="41.374108" lon="0.412234">
        <ele>285.82</ele>
        <time>2018-06-10T10:14:21Z</time>
      </trkpt>
      <trkpt lat="41.374095" lon="0.412186">
        <ele>285.72</ele>
        <time>2018-06-10T10:14:22Z</time>
      </trkpt>
      <trkpt lat="41.374082" lon="0.412140">
        <ele>285.62</ele>
        <time>2018-06-10T10:14:23Z</time>
      </trkpt>
      <trkpt lat="41.374068" lon="0.412093">
        <ele>285.52</ele>
        <time>2018-06-10T10:14:24Z</time>
      </trkpt>
      <trkpt lat="41.374053" lon="0.412046">
        <ele>285.42</ele>
        <time>2018-06-10T10:14:25Z</time>
      </trkpt>
      <trkpt lat="41.374039" lon="0.411995">
        <ele>285.32</ele>
        <time>2018-06-10T10:14:26Z</time>
      </trkpt>
      <trkpt lat="41.374026" lon="0.411941">
        <ele>285.22</ele>
        <time>2018-06-10T10:14:27Z</time>
      </trkpt>
      <trkpt lat="41.374012" lon="0.411885">
        <ele>285.12</ele>
        <time>2018-06-10T10:14:28Z</time>
      </trkpt>
      <trkpt lat="41.374000" lon="0.411829">
        <ele>285.02</ele>
        <time>2018-06-10T10:14:29Z</time>
      </trkpt>
      <trkpt lat="41.373993" lon="0.411772">
        <ele>285.00</ele>
        <time>2018-06-10T10:14:30Z</time>
      </trkpt>
      <trkpt lat="41.373995" lon="0.411717">
        <ele>285.00</ele>
        <time>2018-06-10T10:14:31Z</time>
      </trkpt>
      <trkpt lat="41.374003" lon="0.411665">
        <ele>285.00</ele>
        <time>2018-06-10T10:14:32Z</time>
      </trkpt>
      <trkpt lat="41.374017" lon="0.411617">
        <ele>285.00</ele>
        <time>2018-06-10T10:14:33Z</time>
      </trkpt>
      <trkpt lat="41.374034" lon="0.411571">
        <ele>285.00</ele>
        <time>2018-06-10T10:14:34Z</time>
      </trkpt>
      <trkpt lat="41.374050" lon="0.411525">
        <ele>285.00</ele>
        <time>2018-06-10T10:14:35Z</time>
      </trkpt>
      <trkpt lat="41.374068" lon="0.411478">
        <ele>285.00</ele>
        <time>2018-06-10T10:14:36Z</time>
      </trkpt>
      <trkpt lat="41.374088" lon="0.411430">
        <ele>285.00</ele>
        <time>2018-06-10T10:14:37Z</time>
      </trkpt>
      <trkpt lat="41.374111" lon="0.411380">
        <ele>285.00</ele>
        <time>2018-06-10T10:14:38Z</time>
      </trkpt>
      <trkpt lat="41.374137" lon="0.411328">
        <ele>285.00</ele>
        <time>2018-06-10T10:14:39Z</time>
      </trkpt>
      <trkpt lat="41.374166" lon="0.411273">
        <ele>284.70</ele>
        <time>2018-06-10T10:14:40Z</time>
      </trkpt>
      <trkpt lat="41.374197" lon="0.411213">
        <ele>284.30</ele>
        <time>2018-06-10T10:14:41Z</time>
      </trkpt>
      <trkpt lat="41.374234" lon="0.411150">
        <ele>283.90</ele>
        <time>2018-06-10T10:14:42Z</time>
      </trkpt>
      <trkpt lat="41.374275" lon="0.411086">
        <ele>283.50</ele>
        <time>2018-06-10T10:14:43Z</time>
      </trkpt>
      <trkpt lat="41.374321" lon="0.411024">
        <ele>283.11</ele>
        <time>2018-06-10T10:14:44Z</time>
      </trkpt>
      <trkpt lat="41.374369" lon="0.410961">
        <ele>282.71</ele>
        <time>2018-06-10T10:14:45Z</time>
      </trkpt>
      <trkpt lat="41.374416" lon="0.410897">
        <ele>282.31</ele>
        <time>2018-06-10T10:14:46Z</time>
      </trkpt>
      <trkpt lat="41.374462" lon="0.410833">
        <ele>281.91</ele>
        <time>2018-06-10T10:14:47Z</time>
      </trkpt>
      <trkpt lat="41.374506" lon="0.410771">
        <ele>281.51</ele>
        <time>2018-06-10T10:14:48Z</time>
      </trkpt>
      <trkpt lat="41.374547" lon="0.410712">
        <ele>281.11</ele>
        <time>2018-06-10T10:14:49Z</time>
      </trkpt>
      <trkpt lat="41.374586" lon="0.410656">
        <ele>280.93</ele>
        <time>2018-06-10T10:14:50Z</time>
      </trkpt>
      <trkpt lat="41.374625" lon="0.410604">
        <ele>280.83</ele>
        <time>2018-06-10T10:14:51Z</time>
      </trkpt>
      <trkpt lat="41.374664" lon="0.410552">
        <ele>280.72</ele>
        <time>2018-06-10T10:14:52Z</time>
      </trkpt>
      <trkpt lat="41.374703" lon="0.410502">
        <ele>280.62</ele>
        <time>2018-06-10T10:14:53Z</time>
      </trkpt>
      <trkpt lat="41.374741" lon="0.410455">
        <ele>280.52</ele>
        <time>2018-06-10T10:14:54Z</time>
      </trkpt>
      <trkpt lat="41.374777" lon="0.410408">
        <ele>280.42</ele>
        <time>2018-06-10T10:14:55Z</time>
      </trkpt>
      <trkpt lat="41.374811" lon="0.410362">
        <ele>280.32</ele>
        <time>2018-06-10T10:14:56Z</time>
      </trkpt>
      <trkpt lat="41.374844" lon="0.410316">
        <ele>280.22</ele>
        <time>2018-06-10T10:14:57Z</time>
      </trkpt>
      <trkpt lat="41.374875" lon="0.410270">
        <ele>280.12</ele>
        <time>2018-06-10T10:14:58Z</time>
      </trkpt>
      <trkpt lat="41.374903" lon="0.410221">
        <ele>280.02</ele>
        <time>2018-06-10T10:14:59Z</time>
      </trkpt>
      <trkpt lat="41.374928" lon="0.410171">
        <ele>280.08</ele>
        <time>2018-06-10T10:15:00Z</time>
      </trkpt>
      <trkpt lat="41.374950" lon="0.410119">
        <ele>280.18</ele>
        <time>2018-06-10T10:15:01Z</time>
      </trkpt>
      <trkpt lat="41.374968" lon="0.410066">
        <ele>280.28</ele>
        <time>2018-06-10T10:15:02Z</time>
      </trkpt>
      <trkpt lat="41.374986" lon="0.410013">
        <ele>280.38</ele>
        <time>2018-06-10T10:15:03Z</time>
      </trkpt>
      <trkpt lat="41.375005" lon="0.409962">
        <ele>280.48</ele>
        <time>2018-06-10T10:15:04Z</time>
      </trkpt>
      <trkpt lat="41.375025" lon="0.409912">
        <ele>280.58</ele>
        <time>2018-06-10T10:15:05Z</time>
      </trkpt>
      <trkpt lat="41.375046" lon="0.409863">
        <ele>280.68</ele>
        <time>2018-06-10T10:15:06Z</time>
      </trkpt>
      <trkpt lat="41.375069" lon="0.409819">
        <ele>280.78</ele>
        <time>2018-06-10T10:15:07Z</time>
      </trkpt>
      <trkpt lat="41.375091" lon="0.409780">
        <ele>280.88</ele>
        <time>2018-06-10T10:15:08Z</time>
      </trkpt>
      <trkpt lat="41.375119" lon="0.409739">
        <ele>281.16</ele>
        <time>2018-06-10T10:15:10Z</time>
      </trkpt>
      <trkpt lat="41.375128" lon="0.409701">
        <ele>284.00</ele>
        <time>2018-06-10T10:16:05Z</time>
      </trkpt>
      <trkpt lat="41.375151" lon="0.409657">
        <ele>284.00</ele>
        <time>2018-06-10T10:16:07Z</time>
      </trkpt>
      <trkpt lat="41.375184" lon="0.409611">
        <ele>284.00</ele>
        <time>2018-06-10T10:16:09Z</time>
      </trkpt>
      <trkpt lat="41.375227" lon="0.409557">
        <ele>284.18</ele>
        <time>2018-06-10T10:16:11Z</time>
      </trkpt>
      <trkpt lat="41.375281" lon="0.409502">
        <ele>284.39</ele>
        <time>2018-06-10T10:16:13Z</time>
      </trkpt>
      <trkpt lat="41.375338" lon="0.409446">
        <ele>284.59</ele>
        <time>2018-06-10T10:16:15Z</time>
      </trkpt>
      <trkpt lat="41.375369" lon="0.409418">
        <ele>284.69</ele>
        <time>2018-06-10T10:16:16Z</time>
      </trkpt>
      <trkpt lat="41.375399" lon="0.409391">
        <ele>284.79</ele>
        <time>2018-06-10T10:16:17Z</time>
      </trkpt>
      <trkpt lat="41.375429" lon="0.409363">
        <ele>284.89</ele>
        <time>2018-06-10T10:16:18Z</time>
      </trkpt>
      <trkpt lat="41.375459" lon="0.409333">
        <ele>284.99</ele>
        <time>2018-06-10T10:16:19Z</time>
      </trkpt>
      <trkpt lat="41.375490" lon="0.409303">
        <ele>285.00</ele>
        <time>2018-06-10T10:16:20Z</time>
      </trkpt>
      <trkpt lat="41.375521" lon="0.409272">
        <ele>285.00</ele>
        <time>2018-06-10T10:16:21Z</time>
      </trkpt>
      <trkpt lat="41.375550" lon="0.409240">
        <ele>285.00</ele>
        <time>2018-06-10T10:16:22Z</time>
      </trkpt>
      <trkpt lat="41.375580" lon="0.409209">
        <ele>285.00</ele>
        <time>2018-06-10T10:16:23Z</time>
      </trkpt>
      <trkpt lat="41.375608" lon="0.409176">
        <ele>285.00</ele>
        <time>2018-06-10T10:16:24Z</time>
      </trkpt>
      <trkpt lat="41.375636" lon="0.409140">
        <ele>285.00</ele>
        <time>2018-06-10T10:16:25Z</time>
      </trkpt>
      <trkpt lat="41.375664" lon="0.409104">
        <ele>285.00</ele>
        <time>2018-06-10T10:16:26Z</time>
      </trkpt>
      <trkpt lat="41.375690" lon="0.409065">
        <ele>285.00</ele>
        <time>2018-06-10T10:16:27Z</time>
      </trkpt>
      <trkpt lat="41.375715" lon="0.409026">
        <ele>285.00</ele>
        <time>2018-06-10T10:16:28Z</time>
      </trkpt>
      <trkpt lat="41.375739" lon="0.408986">
        <ele>285.00</ele>
        <time>2018-06-10T10:16:29Z</time>
      </trkpt>
      <trkpt lat="41.375763" lon="0.408947">
        <ele>285.08</ele>
        <time>2018-06-10T10:16:30Z</time>
      </trkpt>
      <trkpt lat="41.375785" lon="0.408906">
        <ele>285.18</ele>
        <time>2018-06-10T10:16:31Z</time>
      </trkpt>
      <trkpt lat="41.375805" lon="0.408863">
        <ele>285.28</ele>
        <time>2018-06-10T10:16:32Z</time>
      </trkpt>
      <trkpt lat="41.375826" lon="0.408822">
        <ele>285.38</ele>
        <time>2018-06-10T10:16:33Z</time>
      </trkpt>
      <trkpt lat="41.375846" lon="0.408779">
        <ele>285.48</ele>
        <time>2018-06-10T10:16:34Z</time>
      </trkpt>
      <trkpt lat="41.375865" lon="0.408735">
        <ele>285.58</ele>
        <time>2018-06-10T10:16:35Z</time>
      </trkpt>
      <trkpt lat="41.375883" lon="0.408690">
        <ele>285.68</ele>
        <time>2018-06-10T10:16:36Z</time>
      </trkpt>
      <trkpt lat="41.375900" lon="0.408645">
        <ele>285.78</ele>
        <time>2018-06-10T10:16:37Z</time>
      </trkpt>
      <trkpt lat="41.375915" lon="0.408601">
        <ele>285.88</ele>
        <time>2018-06-10T10:16:38Z</time>
      </trkpt>
      <trkpt lat="41.375944" lon="0.408522">
        <ele>286.17</ele>
        <time>2018-06-10T10:16:40Z</time>
      </trkpt>
      <trkpt lat="41.375973" lon="0.408450">
        <ele>286.57</ele>
        <time>2018-06-10T10:16:42Z</time>
      </trkpt>
      <trkpt lat="41.376004" lon="0.408379">
        <ele>286.97</ele>
        <time>2018-06-10T10:16:44Z</time>
      </trkpt>
      <trkpt lat="41.376041" lon="0.408309">
        <ele>287.37</ele>
        <time>2018-06-10T10:16:46Z</time>
      </trkpt>
      <trkpt lat="41.376085" lon="0.408246">
        <ele>287.77</ele>
        <time>2018-06-10T10:16:48Z</time>
      </trkpt>
      <trkpt lat="41.376134" lon="0.408197">
        <ele>288.25</ele>
        <time>2018-06-10T10:16:50Z</time>
      </trkpt>
      <trkpt lat="41.376185" lon="0.408159">
        <ele>288.86</ele>
        <time>2018-06-10T10:16:52Z</time>
      </trkpt>
      <trkpt lat="41.376232" lon="0.408122">
        <ele>289.46</ele>
        <time>2018-06-10T10:16:54Z</time>
      </trkpt>
      <trkpt lat="41.376281" lon="0.408084">
        <ele>290.06</ele>
        <time>2018-06-10T10:16:56Z</time>
      </trkpt>
      <trkpt lat="41.376333" lon="0.408043">
        <ele>290.66</ele>
        <time>2018-06-10T10:16:58Z</time>
      </trkpt>
      <trkpt lat="41.376390" lon="0.408002">
        <ele>291.09</ele>
        <time>2018-06-10T10:17:00Z</time>
      </trkpt>
      <trkpt lat="41.376449" lon="0.407964">
        <ele>291.29</ele>
        <time>2018-06-10T10:17:02Z</time>
      </trkpt>
      <trkpt lat="41.376508" lon="0.407927">
        <ele>291.49</ele>
        <time>2018-06-10T10:17:04Z</time>
      </trkpt>
      <trkpt lat="41.376569" lon="0.407901">
        <ele>291.68</ele>
        <time>2018-06-10T10:17:06Z</time>
      </trkpt>
      <trkpt lat="41.376629" lon="0.407874">
        <ele>291.88</ele>
        <time>2018-06-10T10:17:08Z</time>
      </trkpt>
      <trkpt lat="41.376690" lon="0.407855">
        <ele>292.00</ele>
        <time>2018-06-10T10:17:10Z</time>
      </trkpt>
      <trkpt lat="41.376746" lon="0.407840">
        <ele>292.00</ele>
        <time>2018-06-10T10:17:12Z</time>
      </trkpt>
      <trkpt lat="41.376791" lon="0.407819">
        <ele>292.00</ele>
        <time>2018-06-10T10:17:14Z</time>
      </trkpt>
      <trkpt lat="41.376837" lon="0.407793">
        <ele>292.00</ele>
        <time>2018-06-10T10:17:16Z</time>
      </trkpt>
      <trkpt lat="41.376887" lon="0.407758">
        <ele>292.00</ele>
        <time>2018-06-10T10:17:18Z</time>
      </trkpt>
      <trkpt lat="41.376938" lon="0.407711">
        <ele>292.12</ele>
        <time>2018-06-10T10:17:20Z</time>
      </trkpt>
      <trkpt lat="41.376988" lon="0.407661">
        <ele>292.53</ele>
        <time>2018-06-10T10:17:22Z</time>
      </trkpt>
      <trkpt lat="41.377041" lon="0.407614">
        <ele>292.94</ele>
        <time>2018-06-10T10:17:24Z</time>
      </trkpt>
      <trkpt lat="41.377098" lon="0.407580">
        <ele>293.35</ele>
        <time>2018-06-10T10:17:26Z</time>
      </trkpt>
      <trkpt lat="41.377158" lon="0.407560">
        <ele>293.76</ele>
        <time>2018-06-10T10:17:28Z</time>
      </trkpt>
      <trkpt lat="41.377221" lon="0.407551">
        <ele>294.00</ele>
        <time>2018-06-10T10:17:30Z</time>
      </trkpt>
      <trkpt lat="41.377398" lon="0.407473">
        <ele>294.00</ele>
        <time>2018-06-10T10:17:36Z</time>
      </trkpt>
      <trkpt lat="41.377982" lon="0.407067">
        <ele>296.43</ele>
        <time>2018-06-10T10:17:51.42Z</time>
      </trkpt>
      <trkpt lat="41.377927" lon="0.406930">
        <ele>297.85</ele>
        <time>2018-06-10T10:17:58.42Z</time>
      </trkpt>
      <trkpt lat="41.377953" lon="0.406764">
        <ele>298.12</ele>
        <time>2018-06-10T10:18:00.42Z</time>
      </trkpt>
      <trkpt lat="41.378151" lon="0.406996">
        <ele>298.93</ele>
        <time>2018-06-10T10:18:08.49Z</time>
      </trkpt>
      <trkpt lat="41.378232" lon="0.406962">
        <ele>299.00</ele>
        <time>2018-06-10T10:18:11Z</time>
      </trkpt>
      <trkpt lat="41.378295" lon="0.406950">
        <ele>299.00</ele>
        <time>2018-06-10T10:18:13Z</time>
      </trkpt>
      <trkpt lat="41.378360" lon="0.406942">
        <ele>299.00</ele>
        <time>2018-06-10T10:18:15Z</time>
      </trkpt>
      <trkpt lat="41.378428" lon="0.406932">
        <ele>299.00</ele>
        <time>2018-06-10T10:18:17Z</time>
      </trkpt>
      <trkpt lat="41.378496" lon="0.406918">
        <ele>299.00</ele>
        <time>2018-06-10T10:18:19Z</time>
      </trkpt>
      <trkpt lat="41.378563" lon="0.406908">
        <ele>299.17</ele>
        <time>2018-06-10T10:18:21Z</time>
      </trkpt>
      <trkpt lat="41.378630" lon="0.406902">
        <ele>299.37</ele>
        <time>2018-06-10T10:18:23Z</time>
      </trkpt>
      <trkpt lat="41.378663" lon="0.406900">
        <ele>299.47</ele>
        <time>2018-06-10T10:18:24Z</time>
      </trkpt>
      <trkpt lat="41.378728" lon="0.406897">
        <ele>299.67</ele>
        <time>2018-06-10T10:18:26Z</time>
      </trkpt>
      <trkpt lat="41.378786" lon="0.406898">
        <ele>299.87</ele>
        <time>2018-06-10T10:18:28Z</time>
      </trkpt>
      <trkpt lat="41.378845" lon="0.406906">
        <ele>300.15</ele>
        <time>2018-06-10T10:18:30Z</time>
      </trkpt>
      <trkpt lat="41.378901" lon="0.406928">
        <ele>300.55</ele>
        <time>2018-06-10T10:18:32Z</time>
      </trkpt>
      <trkpt lat="41.378951" lon="0.406963">
        <ele>300.95</ele>
        <time>2018-06-10T10:18:34Z</time>
      </trkpt>
      <trkpt lat="41.378996" lon="0.407002">
        <ele>301.35</ele>
        <time>2018-06-10T10:18:36Z</time>
      </trkpt>
      <trkpt lat="41.379038" lon="0.407044">
        <ele>301.74</ele>
        <time>2018-06-10T10:18:38Z</time>
      </trkpt>
      <trkpt lat="41.379080" lon="0.407084">
        <ele>302.22</ele>
        <time>2018-06-10T10:18:40Z</time>
      </trkpt>
      <trkpt lat="41.379124" lon="0.407128">
        <ele>302.82</ele>
        <time>2018-06-10T10:18:42Z</time>
      </trkpt>
      <trkpt lat="41.379172" lon="0.407162">
        <ele>303.42</ele>
        <time>2018-06-10T10:18:44Z</time>
      </trkpt>
      <trkpt lat="41.379222" lon="0.407182">
        <ele>304.02</ele>
        <time>2018-06-10T10:18:46Z</time>
      </trkpt>
      <trkpt lat="41.379270" lon="0.407192">
        <ele>304.62</ele>
        <time>2018-06-10T10:18:48Z</time>
      </trkpt>
      <trkpt lat="41.379320" lon="0.407198">
        <ele>305.15</ele>
        <time>2018-06-10T10:18:50Z</time>
      </trkpt>
      <trkpt lat="41.379372" lon="0.407206">
        <ele>305.55</ele>
        <time>2018-06-10T10:18:52Z</time>
      </trkpt>
      <trkpt lat="41.379423" lon="0.407214">
        <ele>305.95</ele>
        <time>2018-06-10T10:18:54Z</time>
      </trkpt>
      <trkpt lat="41.379473" lon="0.407232">
        <ele>306.36</ele>
        <time>2018-06-10T10:18:56Z</time>
      </trkpt>
      <trkpt lat="41.379518" lon="0.407264">
        <ele>306.76</ele>
        <time>2018-06-10T10:18:58Z</time>
      </trkpt>
      <trkpt lat="41.379551" lon="0.407317">
        <ele>307.24</ele>
        <time>2018-06-10T10:19:00Z</time>
      </trkpt>
      <trkpt lat="41.379574" lon="0.407378">
        <ele>307.84</ele>
        <time>2018-06-10T10:19:02Z</time>
      </trkpt>
      <trkpt lat="41.379597" lon="0.407430">
        <ele>308.43</ele>
        <time>2018-06-10T10:19:04Z</time>
      </trkpt>
      <trkpt lat="41.379629" lon="0.407472">
        <ele>309.03</ele>
        <time>2018-06-10T10:19:06Z</time>
      </trkpt>
      <trkpt lat="41.379676" lon="0.407490">
        <ele>310.58</ele>
        <time>2018-06-10T10:19:15Z</time>
      </trkpt>
      <trkpt lat="41.379737" lon="0.407480">
        <ele>310.78</ele>
        <time>2018-06-10T10:19:17Z</time>
      </trkpt>
      <trkpt lat="41.379800" lon="0.407454">
        <ele>310.98</ele>
        <time>2018-06-10T10:19:19Z</time>
      </trkpt>
      <trkpt lat="41.379867" lon="0.407419">
        <ele>311.00</ele>
        <time>2018-06-10T10:19:21Z</time>
      </trkpt>
      <trkpt lat="41.379901" lon="0.407400">
        <ele>311.00</ele>
        <time>2018-06-10T10:19:22Z</time>
      </trkpt>
      <trkpt lat="41.379937" lon="0.407385">
        <ele>311.00</ele>
        <time>2018-06-10T10:19:23Z</time>
      </trkpt>
      <trkpt lat="41.379974" lon="0.407373">
        <ele>311.00</ele>
        <time>2018-06-10T10:19:24Z</time>
      </trkpt>
      <trkpt lat="41.380012" lon="0.407364">
        <ele>311.00</ele>
        <time>2018-06-10T10:19:25Z</time>
      </trkpt>
      <trkpt lat="41.380049" lon="0.407356">
        <ele>311.00</ele>
        <time>2018-06-10T10:19:26Z</time>
      </trkpt>
      <trkpt lat="41.380087" lon="0.407351">
        <ele>311.00</ele>
        <time>2018-06-10T10:19:27Z</time>
      </trkpt>
      <trkpt lat="41.380125" lon="0.407349">
        <ele>311.00</ele>
        <time>2018-06-10T10:19:28Z</time>
      </trkpt>
      <trkpt lat="41.380164" lon="0.407351">
        <ele>311.00</ele>
        <time>2018-06-10T10:19:29Z</time>
      </trkpt>
      <trkpt lat="41.380203" lon="0.407355">
        <ele>311.08</ele>
        <time>2018-06-10T10:19:30Z</time>
      </trkpt>
      <trkpt lat="41.380242" lon="0.407357">
        <ele>311.18</ele>
        <time>2018-06-10T10:19:31Z</time>
      </trkpt>
      <trkpt lat="41.380280" lon="0.407356">
        <ele>311.28</ele>
        <time>2018-06-10T10:19:32Z</time>
      </trkpt>
      <trkpt lat="41.380317" lon="0.407354">
        <ele>311.38</ele>
        <time>2018-06-10T10:19:33Z</time>
      </trkpt>
      <trkpt lat="41.380352" lon="0.407352">
        <ele>311.48</ele>
        <time>2018-06-10T10:19:34Z</time>
      </trkpt>
      <trkpt lat="41.380421" lon="0.407347">
        <ele>311.68</ele>
        <time>2018-06-10T10:19:36Z</time>
      </trkpt>
      <trkpt lat="41.380489" lon="0.407337">
        <ele>311.87</ele>
        <time>2018-06-10T10:19:38Z</time>
      </trkpt>
      <trkpt lat="41.380525" lon="0.407333">
        <ele>311.97</ele>
        <time>2018-06-10T10:19:39Z</time>
      </trkpt>
      <trkpt lat="41.380591" lon="0.407326">
        <ele>312.17</ele>
        <time>2018-06-10T10:19:41Z</time>
      </trkpt>
      <trkpt lat="41.380648" lon="0.407326">
        <ele>312.37</ele>
        <time>2018-06-10T10:19:43Z</time>
      </trkpt>
      <trkpt lat="41.380700" lon="0.407337">
        <ele>312.58</ele>
        <time>2018-06-10T10:19:45Z</time>
      </trkpt>
      <trkpt lat="41.380750" lon="0.407356">
        <ele>312.78</ele>
        <time>2018-06-10T10:19:47Z</time>
      </trkpt>
      <trkpt lat="41.380807" lon="0.407381">
        <ele>312.98</ele>
        <time>2018-06-10T10:19:49Z</time>
      </trkpt>
      <trkpt lat="41.380873" lon="0.407399">
        <ele>313.18</ele>
        <time>2018-06-10T10:19:51Z</time>
      </trkpt>
      <trkpt lat="41.380911" lon="0.407401">
        <ele>313.28</ele>
        <time>2018-06-10T10:19:52Z</time>
      </trkpt>
      <trkpt lat="41.380952" lon="0.407393">
        <ele>313.38</ele>
        <time>2018-06-10T10:19:53Z</time>
      </trkpt>
      <trkpt lat="41.380995" lon="0.407378">
        <ele>313.48</ele>
        <time>2018-06-10T10:19:54Z</time>
      </trkpt>
      <trkpt lat="41.381040" lon="0.407356">
        <ele>313.58</ele>
        <time>2018-06-10T10:19:55Z</time>
      </trkpt>
      <trkpt lat="41.381084" lon="0.407332">
        <ele>313.68</ele>
        <time>2018-06-10T10:19:56Z</time>
      </trkpt>
      <trkpt lat="41.381128" lon="0.407312">
        <ele>313.78</ele>
        <time>2018-06-10T10:19:57Z</time>
      </trkpt>
      <trkpt lat="41.381173" lon="0.407295">
        <ele>313.88</ele>
        <time>2018-06-10T10:19:58Z</time>
      </trkpt>
      <trkpt lat="41.381216" lon="0.407281">
        <ele>313.98</ele>
        <time>2018-06-10T10:19:59Z</time>
      </trkpt>
      <trkpt lat="41.381258" lon="0.407269">
        <ele>313.92</ele>
        <time>2018-06-10T10:20:00Z</time>
      </trkpt>
      <trkpt lat="41.381297" lon="0.407257">
        <ele>313.82</ele>
        <time>2018-06-10T10:20:01Z</time>
      </trkpt>
      <trkpt lat="41.381336" lon="0.407244">
        <ele>313.72</ele>
        <time>2018-06-10T10:20:02Z</time>
      </trkpt>
      <trkpt lat="41.381376" lon="0.407231">
        <ele>313.62</ele>
        <time>2018-06-10T10:20:03Z</time>
      </trkpt>
      <trkpt lat="41.381416" lon="0.407220">
        <ele>313.52</ele>
        <time>2018-06-10T10:20:04Z</time>
      </trkpt>
      <trkpt lat="41.381458" lon="0.407212">
        <ele>313.42</ele>
        <time>2018-06-10T10:20:05Z</time>
      </trkpt>
      <trkpt lat="41.381499" lon="0.407206">
        <ele>313.32</ele>
        <time>2018-06-10T10:20:06Z</time>
      </trkpt>
      <trkpt lat="41.381540" lon="0.407206">
        <ele>313.22</ele>
        <time>2018-06-10T10:20:07Z</time>
      </trkpt>
      <trkpt lat="41.381579" lon="0.407213">
        <ele>313.12</ele>
        <time>2018-06-10T10:20:08Z</time>
      </trkpt>
      <trkpt lat="41.381615" lon="0.407226">
        <ele>313.02</ele>
        <time>2018-06-10T10:20:09Z</time>
      </trkpt>
      <trkpt lat="41.381649" lon="0.407240">
        <ele>313.08</ele>
        <time>2018-06-10T10:20:10Z</time>
      </trkpt>
      <trkpt lat="41.381715" lon="0.407267">
        <ele>313.28</ele>
        <time>2018-06-10T10:20:12Z</time>
      </trkpt>
      <trkpt lat="41.381774" lon="0.407295">
        <ele>313.48</ele>
        <time>2018-06-10T10:20:14Z</time>
      </trkpt>
      <trkpt lat="41.381833" lon="0.407319">
        <ele>313.68</ele>
        <time>2018-06-10T10:20:16Z</time>
      </trkpt>
      <trkpt lat="41.381890" lon="0.407341">
        <ele>313.88</ele>
        <time>2018-06-10T10:20:18Z</time>
      </trkpt>
      <trkpt lat="41.381944" lon="0.407364">
        <ele>314.24</ele>
        <time>2018-06-10T10:20:20Z</time>
      </trkpt>
      <trkpt lat="41.381985" lon="0.407375">
        <ele>314.82</ele>
        <time>2018-06-10T10:20:22Z</time>
      </trkpt>
      <trkpt lat="41.382017" lon="0.407358">
        <ele>316.00</ele>
        <time>2018-06-10T10:21:27Z</time>
      </trkpt>
      <trkpt lat="41.382069" lon="0.407382">
        <ele>316.08</ele>
        <time>2018-06-10T10:21:30Z</time>
      </trkpt>
      <trkpt lat="41.382109" lon="0.407414">
        <ele>316.28</ele>
        <time>2018-06-10T10:21:32Z</time>
      </trkpt>
      <trkpt lat="41.382155" lon="0.407438">
        <ele>316.48</ele>
        <time>2018-06-10T10:21:34Z</time>
      </trkpt>
      <trkpt lat="41.382205" lon="0.407446">
        <ele>316.68</ele>
        <time>2018-06-10T10:21:36Z</time>
      </trkpt>
      <trkpt lat="41.382258" lon="0.407450">
        <ele>316.87</ele>
        <time>2018-06-10T10:21:38Z</time>
      </trkpt>
      <trkpt lat="41.382310" lon="0.407458">
        <ele>317.15</ele>
        <time>2018-06-10T10:21:40Z</time>
      </trkpt>
      <trkpt lat="41.382360" lon="0.407466">
        <ele>317.55</ele>
        <time>2018-06-10T10:21:42Z</time>
      </trkpt>
      <trkpt lat="41.382412" lon="0.407476">
        <ele>317.96</ele>
        <time>2018-06-10T10:21:44Z</time>
      </trkpt>
      <trkpt lat="41.382459" lon="0.407490">
        <ele>318.37</ele>
        <time>2018-06-10T10:21:46Z</time>
      </trkpt>
      <trkpt lat="41.382498" lon="0.407506">
        <ele>318.77</ele>
        <time>2018-06-10T10:21:48Z</time>
      </trkpt>
      <trkpt lat="41.382536" lon="0.407524">
        <ele>319.09</ele>
        <time>2018-06-10T10:21:50Z</time>
      </trkpt>
      <trkpt lat="41.382578" lon="0.407540">
        <ele>319.28</ele>
        <time>2018-06-10T10:21:52Z</time>
      </trkpt>
      <trkpt lat="41.382622" lon="0.407556">
        <ele>319.48</ele>
        <time>2018-06-10T10:21:54Z</time>
      </trkpt>
      <trkpt lat="41.382663" lon="0.407562">
        <ele>319.68</ele>
        <time>2018-06-10T10:21:56Z</time>
      </trkpt>
      <trkpt lat="41.382704" lon="0.407574">
        <ele>319.88</ele>
        <time>2018-06-10T10:21:58Z</time>
      </trkpt>
      <trkpt lat="41.382742" lon="0.407590">
        <ele>320.16</ele>
        <time>2018-06-10T10:22:00Z</time>
      </trkpt>
      <trkpt lat="41.382778" lon="0.407590">
        <ele>320.55</ele>
        <time>2018-06-10T10:22:02Z</time>
      </trkpt>
      <trkpt lat="41.382811" lon="0.407579">
        <ele>320.95</ele>
        <time>2018-06-10T10:22:04Z</time>
      </trkpt>
      <trkpt lat="41.382850" lon="0.407562">
        <ele>321.35</ele>
        <time>2018-06-10T10:22:06Z</time>
      </trkpt>
      <trkpt lat="41.382892" lon="0.407553">
        <ele>321.75</ele>
        <time>2018-06-10T10:22:08Z</time>
      </trkpt>
      <trkpt lat="41.382931" lon="0.407554">
        <ele>322.00</ele>
        <time>2018-06-10T10:22:10Z</time>
      </trkpt>
      <trkpt lat="41.382967" lon="0.407575">
        <ele>322.00</ele>
        <time>2018-06-10T10:22:12Z</time>
      </trkpt>
      <trkpt lat="41.383005" lon="0.407609">
        <ele>322.00</ele>
        <time>2018-06-10T10:22:15Z</time>
      </trkpt>
      <trkpt lat="41.383045" lon="0.407637">
        <ele>322.00</ele>
        <time>2018-06-10T10:22:18Z</time>
      </trkpt>
      <trkpt lat="41.383092" lon="0.407659">
        <ele>322.37</ele>
        <time>2018-06-10T10:22:21Z</time>
      </trkpt>
      <trkpt lat="41.383141" lon="0.407691">
        <ele>322.97</ele>
        <time>2018-06-10T10:22:24Z</time>
      </trkpt>
      <trkpt lat="41.383178" lon="0.407714">
        <ele>323.37</ele>
        <time>2018-06-10T10:22:26Z</time>
      </trkpt>
      <trkpt lat="41.383213" lon="0.407737">
        <ele>323.77</ele>
        <time>2018-06-10T10:22:28Z</time>
      </trkpt>
      <trkpt lat="41.383248" lon="0.407762">
        <ele>325.00</ele>
        <time>2018-06-10T10:22:42Z</time>
      </trkpt>
      <trkpt lat="41.383282" lon="0.407786">
        <ele>325.00</ele>
        <time>2018-06-10T10:22:46Z</time>
      </trkpt>
      <trkpt lat="41.383328" lon="0.407789">
        <ele>326.06</ele>
        <time>2018-06-10T10:23:00Z</time>
      </trkpt>
      <trkpt lat="41.383380" lon="0.407795">
        <ele>326.37</ele>
        <time>2018-06-10T10:23:03Z</time>
      </trkpt>
      <trkpt lat="41.383421" lon="0.407797">
        <ele>326.57</ele>
        <time>2018-06-10T10:23:05Z</time>
      </trkpt>
      <trkpt lat="41.383458" lon="0.407796">
        <ele>326.77</ele>
        <time>2018-06-10T10:23:07Z</time>
      </trkpt>
      <trkpt lat="41.383500" lon="0.407792">
        <ele>326.98</ele>
        <time>2018-06-10T10:23:09Z</time>
      </trkpt>
      <trkpt lat="41.383539" lon="0.407808">
        <ele>327.18</ele>
        <time>2018-06-10T10:23:11Z</time>
      </trkpt>
      <trkpt lat="41.383590" lon="0.407814">
        <ele>327.48</ele>
        <time>2018-06-10T10:23:14Z</time>
      </trkpt>
      <trkpt lat="41.383630" lon="0.407805">
        <ele>327.78</ele>
        <time>2018-06-10T10:23:17Z</time>
      </trkpt>
      <trkpt lat="41.383680" lon="0.407830">
        <ele>328.16</ele>
        <time>2018-06-10T10:23:20Z</time>
      </trkpt>
      <trkpt lat="41.383717" lon="0.407843">
        <ele>328.56</ele>
        <time>2018-06-10T10:23:22Z</time>
      </trkpt>
      <trkpt lat="41.383769" lon="0.407847">
        <ele>329.16</ele>
        <time>2018-06-10T10:23:25Z</time>
      </trkpt>
      <trkpt lat="41.383820" lon="0.407868">
        <ele>329.76</ele>
        <time>2018-06-10T10:23:28Z</time>
      </trkpt>
      <trkpt lat="41.383855" lon="0.407890">
        <ele>330.08</ele>
        <time>2018-06-10T10:23:30Z</time>
      </trkpt>
      <trkpt lat="41.383901" lon="0.407900">
        <ele>330.37</ele>
        <time>2018-06-10T10:23:33Z</time>
      </trkpt>
      <trkpt lat="41.383946" lon="0.407891">
        <ele>330.67</ele>
        <time>2018-06-10T10:23:36Z</time>
      </trkpt>
      <trkpt lat="41.383987" lon="0.407889">
        <ele>330.86</ele>
        <time>2018-06-10T10:23:38Z</time>
      </trkpt>
      <trkpt lat="41.384027" lon="0.407901">
        <ele>331.06</ele>
        <time>2018-06-10T10:23:40Z</time>
      </trkpt>
      <trkpt lat="41.384061" lon="0.407919">
        <ele>331.27</ele>
        <time>2018-06-10T10:23:42Z</time>
      </trkpt>
      <trkpt lat="41.384107" lon="0.407923">
        <ele>331.58</ele>
        <time>2018-06-10T10:23:45Z</time>
      </trkpt>
      <trkpt lat="41.384149" lon="0.407947">
        <ele>331.88</ele>
        <time>2018-06-10T10:23:48Z</time>
      </trkpt>
      <trkpt lat="41.384187" lon="0.407976">
        <ele>332.37</ele>
        <time>2018-06-10T10:23:51Z</time>
      </trkpt>
      <trkpt lat="41.384226" lon="0.408004">
        <ele>332.96</ele>
        <time>2018-06-10T10:23:54Z</time>
      </trkpt>
      <trkpt lat="41.384264" lon="0.408022">
        <ele>333.56</ele>
        <time>2018-06-10T10:23:57Z</time>
      </trkpt>
      <trkpt lat="41.384302" lon="0.408035">
        <ele>334.23</ele>
        <time>2018-06-10T10:24:00Z</time>
      </trkpt>
      <trkpt lat="41.384336" lon="0.408050">
        <ele>335.14</ele>
        <time>2018-06-10T10:24:03Z</time>
      </trkpt>
      <trkpt lat="41.384376" lon="0.408082">
        <ele>336.36</ele>
        <time>2018-06-10T10:24:07Z</time>
      </trkpt>
      <trkpt lat="41.384411" lon="0.408103">
        <ele>337.96</ele>
        <time>2018-06-10T10:24:14Z</time>
      </trkpt>
      <trkpt lat="41.384432" lon="0.408136">
        <ele>338.74</ele>
        <time>2018-06-10T10:24:18Z</time>
      </trkpt>
      <trkpt lat="41.384463" lon="0.408172">
        <ele>340.12</ele>
        <time>2018-06-10T10:24:23Z</time>
      </trkpt>
      <trkpt lat="41.384497" lon="0.408191">
        <ele>341.35</ele>
        <time>2018-06-10T10:24:27Z</time>
      </trkpt>
      <trkpt lat="41.384535" lon="0.408178">
        <ele>342.19</ele>
        <time>2018-06-10T10:24:31Z</time>
      </trkpt>
      <trkpt lat="41.384553" lon="0.408137">
        <ele>343.00</ele>
        <time>2018-06-10T10:24:48Z</time>
      </trkpt>
      <trkpt lat="41.384571" lon="0.408072">
        <ele>343.00</ele>
        <time>2018-06-10T10:24:51Z</time>
      </trkpt>
      <trkpt lat="41.384581" lon="0.408010">
        <ele>343.00</ele>
        <time>2018-06-10T10:24:54Z</time>
      </trkpt>
      <trkpt lat="41.384583" lon="0.407959">
        <ele>343.00</ele>
        <time>2018-06-10T10:24:56Z</time>
      </trkpt>
      <trkpt lat="41.384588" lon="0.407903">
        <ele>343.00</ele>
        <time>2018-06-10T10:24:58Z</time>
      </trkpt>
      <trkpt lat="41.384592" lon="0.407844">
        <ele>343.00</ele>
        <time>2018-06-10T10:25:00Z</time>
      </trkpt>
      <trkpt lat="41.384601" lon="0.407781">
        <ele>343.00</ele>
        <time>2018-06-10T10:25:02Z</time>
      </trkpt>
      <trkpt lat="41.384614" lon="0.407717">
        <ele>343.00</ele>
        <time>2018-06-10T10:25:04Z</time>
      </trkpt>
      <trkpt lat="41.384631" lon="0.407658">
        <ele>343.00</ele>
        <time>2018-06-10T10:25:06Z</time>
      </trkpt>
      <trkpt lat="41.384650" lon="0.407605">
        <ele>343.00</ele>
        <time>2018-06-10T10:25:09Z</time>
      </trkpt>
      <trkpt lat="41.384668" lon="0.407555">
        <ele>343.88</ele>
        <time>2018-06-10T10:25:38Z</time>
      </trkpt>
      <trkpt lat="41.384685" lon="0.407502">
        <ele>344.52</ele>
        <time>2018-06-10T10:26:04Z</time>
      </trkpt>
      <trkpt lat="41.384710" lon="0.407444">
        <ele>344.22</ele>
        <time>2018-06-10T10:26:07Z</time>
      </trkpt>
      <trkpt lat="41.384727" lon="0.407390">
        <ele>344.09</ele>
        <time>2018-06-10T10:26:10Z</time>
      </trkpt>
      <trkpt lat="41.384750" lon="0.407328">
        <ele>344.40</ele>
        <time>2018-06-10T10:26:13Z</time>
      </trkpt>
      <trkpt lat="41.384767" lon="0.407278">
        <ele>344.61</ele>
        <time>2018-06-10T10:26:15Z</time>
      </trkpt>
      <trkpt lat="41.384797" lon="0.407222">
        <ele>344.93</ele>
        <time>2018-06-10T10:26:18Z</time>
      </trkpt>
      <trkpt lat="41.384868" lon="0.407138">
        <ele>346.71</ele>
        <time>2018-06-10T10:26:25Z</time>
      </trkpt>
      <trkpt lat="41.385002" lon="0.406970">
        <ele>349.88</ele>
        <time>2018-06-10T10:26:39Z</time>
      </trkpt>
      <trkpt lat="41.385037" lon="0.406928">
        <ele>350.24</ele>
        <time>2018-06-10T10:26:42Z</time>
      </trkpt>
      <trkpt lat="41.385074" lon="0.406904">
        <ele>350.55</ele>
        <time>2018-06-10T10:26:45Z</time>
      </trkpt>
      <trkpt lat="41.385111" lon="0.406902">
        <ele>352.15</ele>
        <time>2018-06-10T10:26:55Z</time>
      </trkpt>
      <trkpt lat="41.385153" lon="0.406902">
        <ele>353.37</ele>
        <time>2018-06-10T10:27:11Z</time>
      </trkpt>
      <trkpt lat="41.385191" lon="0.406895">
        <ele>354.17</ele>
        <time>2018-06-10T10:27:15Z</time>
      </trkpt>
      <trkpt lat="41.385229" lon="0.406876">
        <ele>354.97</ele>
        <time>2018-06-10T10:27:19Z</time>
      </trkpt>
      <trkpt lat="41.385261" lon="0.406855">
        <ele>355.29</ele>
        <time>2018-06-10T10:27:22Z</time>
      </trkpt>
      <trkpt lat="41.385295" lon="0.406837">
        <ele>355.59</ele>
        <time>2018-06-10T10:27:25Z</time>
      </trkpt>
      <trkpt lat="41.385332" lon="0.406821">
        <ele>355.99</ele>
        <time>2018-06-10T10:27:29Z</time>
      </trkpt>
      <trkpt lat="41.385377" lon="0.406816">
        <ele>356.77</ele>
        <time>2018-06-10T10:27:33Z</time>
      </trkpt>
      <trkpt lat="41.385412" lon="0.406823">
        <ele>357.38</ele>
        <time>2018-06-10T10:27:36Z</time>
      </trkpt>
      <trkpt lat="41.385445" lon="0.406795">
        <ele>358.26</ele>
        <time>2018-06-10T10:27:40Z</time>
      </trkpt>
      <trkpt lat="41.385470" lon="0.406749">
        <ele>359.44</ele>
        <time>2018-06-10T10:27:44Z</time>
      </trkpt>
      <trkpt lat="41.385479" lon="0.406713">
        <ele>360.33</ele>
        <time>2018-06-10T10:27:47Z</time>
      </trkpt>
      <trkpt lat="41.385479" lon="0.406655">
        <ele>361.17</ele>
        <time>2018-06-10T10:27:51Z</time>
      </trkpt>
      <trkpt lat="41.385477" lon="0.406607">
        <ele>361.47</ele>
        <time>2018-06-10T10:27:54Z</time>
      </trkpt>
      <trkpt lat="41.385472" lon="0.406556">
        <ele>361.78</ele>
        <time>2018-06-10T10:27:57Z</time>
      </trkpt>
      <trkpt lat="41.385472" lon="0.406505">
        <ele>362.00</ele>
        <time>2018-06-10T10:28:00Z</time>
      </trkpt>
      <trkpt lat="41.385469" lon="0.406455">
        <ele>362.00</ele>
        <time>2018-06-10T10:28:03Z</time>
      </trkpt>
      <trkpt lat="41.385457" lon="0.406406">
        <ele>362.00</ele>
        <time>2018-06-10T10:28:06Z</time>
      </trkpt>
      <trkpt lat="41.385445" lon="0.406358">
        <ele>362.00</ele>
        <time>2018-06-10T10:28:09Z</time>
      </trkpt>
      <trkpt lat="41.385453" lon="0.406299">
        <ele>362.73</ele>
        <time>2018-06-10T10:28:13Z</time>
      </trkpt>
      <trkpt lat="41.385473" lon="0.406261">
        <ele>363.33</ele>
        <time>2018-06-10T10:28:16Z</time>
      </trkpt>
      <trkpt lat="41.385497" lon="0.406227">
        <ele>365.00</ele>
        <time>2018-06-10T10:29:18Z</time>
      </trkpt>
      <trkpt lat="41.385529" lon="0.406181">
        <ele>365.78</ele>
        <time>2018-06-10T10:29:37Z</time>
      </trkpt>
      <trkpt lat="41.385541" lon="0.406093">
        <ele>365.98</ele>
        <time>2018-06-10T10:29:39Z</time>
      </trkpt>
      <trkpt lat="41.385555" lon="0.406026">
        <ele>365.68</ele>
        <time>2018-06-10T10:29:40Z</time>
      </trkpt>
      <trkpt lat="41.385579" lon="0.405952">
        <ele>365.28</ele>
        <time>2018-06-10T10:29:41Z</time>
      </trkpt>
      <trkpt lat="41.385608" lon="0.405874">
        <ele>364.89</ele>
        <time>2018-06-10T10:29:42Z</time>
      </trkpt>
      <trkpt lat="41.385636" lon="0.405790">
        <ele>364.50</ele>
        <time>2018-06-10T10:29:43Z</time>
      </trkpt>
      <trkpt lat="41.385666" lon="0.405704">
        <ele>364.11</ele>
        <time>2018-06-10T10:29:44Z</time>
      </trkpt>
      <trkpt lat="41.385698" lon="0.405619">
        <ele>363.72</ele>
        <time>2018-06-10T10:29:45Z</time>
      </trkpt>
      <trkpt lat="41.385732" lon="0.405539">
        <ele>363.33</ele>
        <time>2018-06-10T10:29:46Z</time>
      </trkpt>
      <trkpt lat="41.385756" lon="0.405459">
        <ele>362.94</ele>
        <time>2018-06-10T10:29:47Z</time>
      </trkpt>
      <trkpt lat="41.385770" lon="0.405379">
        <ele>362.55</ele>
        <time>2018-06-10T10:29:48Z</time>
      </trkpt>
      <trkpt lat="41.385781" lon="0.405306">
        <ele>362.16</ele>
        <time>2018-06-10T10:29:49Z</time>
      </trkpt>
      <trkpt lat="41.385792" lon="0.405244">
        <ele>362.00</ele>
        <time>2018-06-10T10:29:50Z</time>
      </trkpt>
      <trkpt lat="41.385804" lon="0.405193">
        <ele>362.00</ele>
        <time>2018-06-10T10:29:51Z</time>
      </trkpt>
      <trkpt lat="41.385825" lon="0.405115">
        <ele>362.00</ele>
        <time>2018-06-10T10:29:53Z</time>
      </trkpt>
      <trkpt lat="41.385842" lon="0.405059">
        <ele>362.00</ele>
        <time>2018-06-10T10:29:55Z</time>
      </trkpt>
      <trkpt lat="41.385859" lon="0.405011">
        <ele>362.00</ele>
        <time>2018-06-10T10:29:57Z</time>
      </trkpt>
      <trkpt lat="41.385876" lon="0.404965">
        <ele>362.00</ele>
        <time>2018-06-10T10:29:59Z</time>
      </trkpt>
      <trkpt lat="41.385898" lon="0.404900">
        <ele>362.50</ele>
        <time>2018-06-10T10:30:02Z</time>
      </trkpt>
      <trkpt lat="41.385902" lon="0.404850">
        <ele>362.92</ele>
        <time>2018-06-10T10:30:04Z</time>
      </trkpt>
      <trkpt lat="41.385890" lon="0.404801">
        <ele>363.33</ele>
        <time>2018-06-10T10:30:06Z</time>
      </trkpt>
      <trkpt lat="41.385864" lon="0.404761">
        <ele>363.74</ele>
        <time>2018-06-10T10:30:08Z</time>
      </trkpt>
      <trkpt lat="41.385836" lon="0.404725">
        <ele>364.07</ele>
        <time>2018-06-10T10:30:10Z</time>
      </trkpt>
      <trkpt lat="41.385800" lon="0.404693">
        <ele>364.28</ele>
        <time>2018-06-10T10:30:12Z</time>
      </trkpt>
      <trkpt lat="41.385762" lon="0.404668">
        <ele>364.48</ele>
        <time>2018-06-10T10:30:14Z</time>
      </trkpt>
      <trkpt lat="41.385726" lon="0.404649">
        <ele>364.68</ele>
        <time>2018-06-10T10:30:16Z</time>
      </trkpt>
      <trkpt lat="41.385692" lon="0.404626">
        <ele>364.89</ele>
        <time>2018-06-10T10:30:18Z</time>
      </trkpt>
      <trkpt lat="41.385656" lon="0.404597">
        <ele>365.17</ele>
        <time>2018-06-10T10:30:20Z</time>
      </trkpt>
      <trkpt lat="41.385620" lon="0.404575">
        <ele>365.57</ele>
        <time>2018-06-10T10:30:22Z</time>
      </trkpt>
      <trkpt lat="41.385582" lon="0.404559">
        <ele>365.96</ele>
        <time>2018-06-10T10:30:24Z</time>
      </trkpt>
      <trkpt lat="41.385544" lon="0.404546">
        <ele>366.36</ele>
        <time>2018-06-10T10:30:26Z</time>
      </trkpt>
      <trkpt lat="41.385508" lon="0.404531">
        <ele>366.75</ele>
        <time>2018-06-10T10:30:28Z</time>
      </trkpt>
      <trkpt lat="41.385463" lon="0.404503">
        <ele>367.53</ele>
        <time>2018-06-10T10:30:31Z</time>
      </trkpt>
      <trkpt lat="41.385434" lon="0.404509">
        <ele>368.44</ele>
        <time>2018-06-10T10:30:34Z</time>
      </trkpt>
      <trkpt lat="41.385434" lon="0.404461">
        <ele>371.00</ele>
        <time>2018-06-10T10:31:14Z</time>
      </trkpt>
      <trkpt lat="41.385430" lon="0.404397">
        <ele>371.00</ele>
        <time>2018-06-10T10:31:17Z</time>
      </trkpt>
      <trkpt lat="41.385428" lon="0.404331">
        <ele>371.00</ele>
        <time>2018-06-10T10:31:20Z</time>
      </trkpt>
      <trkpt lat="41.385424" lon="0.404261">
        <ele>371.00</ele>
        <time>2018-06-10T10:31:23Z</time>
      </trkpt>
      <trkpt lat="41.385420" lon="0.404196">
        <ele>371.00</ele>
        <time>2018-06-10T10:31:26Z</time>
      </trkpt>
      <trkpt lat="41.385412" lon="0.404126">
        <ele>371.00</ele>
        <time>2018-06-10T10:31:29Z</time>
      </trkpt>
      <trkpt lat="41.385404" lon="0.404062">
        <ele>371.19</ele>
        <time>2018-06-10T10:31:31Z</time>
      </trkpt>
      <trkpt lat="41.385388" lon="0.403994">
        <ele>371.39</ele>
        <time>2018-06-10T10:31:33Z</time>
      </trkpt>
      <trkpt lat="41.385342" lon="0.403927">
        <ele>371.59</ele>
        <time>2018-06-10T10:31:35Z</time>
      </trkpt>
      <trkpt lat="41.385304" lon="0.403893">
        <ele>371.69</ele>
        <time>2018-06-10T10:31:36Z</time>
      </trkpt>
      <trkpt lat="41.385258" lon="0.403864">
        <ele>371.78</ele>
        <time>2018-06-10T10:31:37Z</time>
      </trkpt>
      <trkpt lat="41.385214" lon="0.403836">
        <ele>371.88</ele>
        <time>2018-06-10T10:31:38Z</time>
      </trkpt>
      <trkpt lat="41.385170" lon="0.403800">
        <ele>371.98</ele>
        <time>2018-06-10T10:31:39Z</time>
      </trkpt>
      <trkpt lat="41.385124" lon="0.403757">
        <ele>371.58</ele>
        <time>2018-06-10T10:31:40Z</time>
      </trkpt>
      <trkpt lat="41.385084" lon="0.403708">
        <ele>371.08</ele>
        <time>2018-06-10T10:31:41Z</time>
      </trkpt>
      <trkpt lat="41.385052" lon="0.403662">
        <ele>370.57</ele>
        <time>2018-06-10T10:31:42Z</time>
      </trkpt>
      <trkpt lat="41.385022" lon="0.403618">
        <ele>370.07</ele>
        <time>2018-06-10T10:31:43Z</time>
      </trkpt>
      <trkpt lat="41.384988" lon="0.403579">
        <ele>369.57</ele>
        <time>2018-06-10T10:31:44Z</time>
      </trkpt>
      <trkpt lat="41.384946" lon="0.403549">
        <ele>369.07</ele>
        <time>2018-06-10T10:31:45Z</time>
      </trkpt>
      <trkpt lat="41.384900" lon="0.403524">
        <ele>368.57</ele>
        <time>2018-06-10T10:31:46Z</time>
      </trkpt>
      <trkpt lat="41.384850" lon="0.403496">
        <ele>368.06</ele>
        <time>2018-06-10T10:31:47Z</time>
      </trkpt>
      <trkpt lat="41.384804" lon="0.403466">
        <ele>367.56</ele>
        <time>2018-06-10T10:31:48Z</time>
      </trkpt>
      <trkpt lat="41.384762" lon="0.403435">
        <ele>367.06</ele>
        <time>2018-06-10T10:31:49Z</time>
      </trkpt>
      <trkpt lat="41.384722" lon="0.403403">
        <ele>366.38</ele>
        <time>2018-06-10T10:31:50Z</time>
      </trkpt>
      <trkpt lat="41.384683" lon="0.403370">
        <ele>365.68</ele>
        <time>2018-06-10T10:31:51Z</time>
      </trkpt>
      <trkpt lat="41.384646" lon="0.403336">
        <ele>364.98</ele>
        <time>2018-06-10T10:31:52Z</time>
      </trkpt>
      <trkpt lat="41.384608" lon="0.403296">
        <ele>364.28</ele>
        <time>2018-06-10T10:31:53Z</time>
      </trkpt>
      <trkpt lat="41.384574" lon="0.403249">
        <ele>363.58</ele>
        <time>2018-06-10T10:31:54Z</time>
      </trkpt>
      <trkpt lat="41.384549" lon="0.403192">
        <ele>362.88</ele>
        <time>2018-06-10T10:31:55Z</time>
      </trkpt>
      <trkpt lat="41.384542" lon="0.403126">
        <ele>362.18</ele>
        <time>2018-06-10T10:31:56Z</time>
      </trkpt>
      <trkpt lat="41.384542" lon="0.403062">
        <ele>361.48</ele>
        <time>2018-06-10T10:31:57Z</time>
      </trkpt>
      <trkpt lat="41.384536" lon="0.403005">
        <ele>360.78</ele>
        <time>2018-06-10T10:31:58Z</time>
      </trkpt>
      <trkpt lat="41.384524" lon="0.402956">
        <ele>360.08</ele>
        <time>2018-06-10T10:31:59Z</time>
      </trkpt>
      <trkpt lat="41.384496" lon="0.402875">
        <ele>359.44</ele>
        <time>2018-06-10T10:32:01Z</time>
      </trkpt>
      <trkpt lat="41.384465" lon="0.402797">
        <ele>358.84</ele>
        <time>2018-06-10T10:32:03Z</time>
      </trkpt>
      <trkpt lat="41.384443" lon="0.402753">
        <ele>358.54</ele>
        <time>2018-06-10T10:32:04Z</time>
      </trkpt>
      <trkpt lat="41.384422" lon="0.402703">
        <ele>358.24</ele>
        <time>2018-06-10T10:32:05Z</time>
      </trkpt>
      <trkpt lat="41.384397" lon="0.402651">
        <ele>357.95</ele>
        <time>2018-06-10T10:32:06Z</time>
      </trkpt>
      <trkpt lat="41.384369" lon="0.402601">
        <ele>357.65</ele>
        <time>2018-06-10T10:32:07Z</time>
      </trkpt>
      <trkpt lat="41.384336" lon="0.402552">
        <ele>357.35</ele>
        <time>2018-06-10T10:32:08Z</time>
      </trkpt>
      <trkpt lat="41.384304" lon="0.402503">
        <ele>357.05</ele>
        <time>2018-06-10T10:32:09Z</time>
      </trkpt>
      <trkpt lat="41.384275" lon="0.402450">
        <ele>356.92</ele>
        <time>2018-06-10T10:32:10Z</time>
      </trkpt>
      <trkpt lat="41.384247" lon="0.402394">
        <ele>356.82</ele>
        <time>2018-06-10T10:32:11Z</time>
      </trkpt>
      <trkpt lat="41.384218" lon="0.402339">
        <ele>356.72</ele>
        <time>2018-06-10T10:32:12Z</time>
      </trkpt>
      <trkpt lat="41.384184" lon="0.402285">
        <ele>356.62</ele>
        <time>2018-06-10T10:32:13Z</time>
      </trkpt>
      <trkpt lat="41.384148" lon="0.402231">
        <ele>356.52</ele>
        <time>2018-06-10T10:32:14Z</time>
      </trkpt>
      <trkpt lat="41.384111" lon="0.402176">
        <ele>356.42</ele>
        <time>2018-06-10T10:32:15Z</time>
      </trkpt>
      <trkpt lat="41.384076" lon="0.402121">
        <ele>356.32</ele>
        <time>2018-06-10T10:32:16Z</time>
      </trkpt>
      <trkpt lat="41.384044" lon="0.402063">
        <ele>356.22</ele>
        <time>2018-06-10T10:32:17Z</time>
      </trkpt>
      <trkpt lat="41.384013" lon="0.402005">
        <ele>356.12</ele>
        <time>2018-06-10T10:32:18Z</time>
      </trkpt>
      <trkpt lat="41.383979" lon="0.401949">
        <ele>356.02</ele>
        <time>2018-06-10T10:32:19Z</time>
      </trkpt>
      <trkpt lat="41.383943" lon="0.401894">
        <ele>356.00</ele>
        <time>2018-06-10T10:32:20Z</time>
      </trkpt>
      <trkpt lat="41.383903" lon="0.401844">
        <ele>356.00</ele>
        <time>2018-06-10T10:32:21Z</time>
      </trkpt>
      <trkpt lat="41.383860" lon="0.401803">
        <ele>356.00</ele>
        <time>2018-06-10T10:32:22Z</time>
      </trkpt>
      <trkpt lat="41.383817" lon="0.401768">
        <ele>356.00</ele>
        <time>2018-06-10T10:32:23Z</time>
      </trkpt>
      <trkpt lat="41.383777" lon="0.401737">
        <ele>356.00</ele>
        <time>2018-06-10T10:32:24Z</time>
      </trkpt>
      <trkpt lat="41.383743" lon="0.401712">
        <ele>356.00</ele>
        <time>2018-06-10T10:32:25Z</time>
      </trkpt>
      <trkpt lat="41.383686" lon="0.401666">
        <ele>356.00</ele>
        <time>2018-06-10T10:32:27Z</time>
      </trkpt>
      <trkpt lat="41.383633" lon="0.401605">
        <ele>356.00</ele>
        <time>2018-06-10T10:32:29Z</time>
      </trkpt>
      <trkpt lat="41.383605" lon="0.401571">
        <ele>355.94</ele>
        <time>2018-06-10T10:32:30Z</time>
      </trkpt>
      <trkpt lat="41.383576" lon="0.401538">
        <ele>355.84</ele>
        <time>2018-06-10T10:32:31Z</time>
      </trkpt>
      <trkpt lat="41.383546" lon="0.401505">
        <ele>355.73</ele>
        <time>2018-06-10T10:32:32Z</time>
      </trkpt>
      <trkpt lat="41.383515" lon="0.401473">
        <ele>355.63</ele>
        <time>2018-06-10T10:32:33Z</time>
      </trkpt>
      <trkpt lat="41.383484" lon="0.401442">
        <ele>355.53</ele>
        <time>2018-06-10T10:32:34Z</time>
      </trkpt>
      <trkpt lat="41.383454" lon="0.401412">
        <ele>355.43</ele>
        <time>2018-06-10T10:32:35Z</time>
      </trkpt>
      <trkpt lat="41.383401" lon="0.401361">
        <ele>355.22</ele>
        <time>2018-06-10T10:32:37Z</time>
      </trkpt>
      <trkpt lat="41.383362" lon="0.401322">
        <ele>355.02</ele>
        <time>2018-06-10T10:32:39Z</time>
      </trkpt>
      <trkpt lat="41.383384" lon="0.401284">
        <ele>356.00</ele>
        <time>2018-06-10T10:33:14Z</time>
      </trkpt>
      <trkpt lat="41.383424" lon="0.401247">
        <ele>356.00</ele>
        <time>2018-06-10T10:33:16Z</time>
      </trkpt>
      <trkpt lat="41.383467" lon="0.401176">
        <ele>356.00</ele>
        <time>2018-06-10T10:33:18Z</time>
      </trkpt>
      <trkpt lat="41.383491" lon="0.401136">
        <ele>356.00</ele>
        <time>2018-06-10T10:33:19Z</time>
      </trkpt>
      <trkpt lat="41.383516" lon="0.401093">
        <ele>355.93</ele>
        <time>2018-06-10T10:33:20Z</time>
      </trkpt>
      <trkpt lat="41.383542" lon="0.401049">
        <ele>355.83</ele>
        <time>2018-06-10T10:33:21Z</time>
      </trkpt>
      <trkpt lat="41.383570" lon="0.400999">
        <ele>355.72</ele>
        <time>2018-06-10T10:33:22Z</time>
      </trkpt>
      <trkpt lat="41.383599" lon="0.400946">
        <ele>355.62</ele>
        <time>2018-06-10T10:33:23Z</time>
      </trkpt>
      <trkpt lat="41.383630" lon="0.400892">
        <ele>355.52</ele>
        <time>2018-06-10T10:33:24Z</time>
      </trkpt>
      <trkpt lat="41.383662" lon="0.400839">
        <ele>355.42</ele>
        <time>2018-06-10T10:33:25Z</time>
      </trkpt>
      <trkpt lat="41.383693" lon="0.400788">
        <ele>355.32</ele>
        <time>2018-06-10T10:33:26Z</time>
      </trkpt>
      <trkpt lat="41.383726" lon="0.400737">
        <ele>355.22</ele>
        <time>2018-06-10T10:33:27Z</time>
      </trkpt>
      <trkpt lat="41.383762" lon="0.400691">
        <ele>355.12</ele>
        <time>2018-06-10T10:33:28Z</time>
      </trkpt>
      <trkpt lat="41.383805" lon="0.400651">
        <ele>355.02</ele>
        <time>2018-06-10T10:33:29Z</time>
      </trkpt>
      <trkpt lat="41.383855" lon="0.400620">
        <ele>354.92</ele>
        <time>2018-06-10T10:33:30Z</time>
      </trkpt>
      <trkpt lat="41.383907" lon="0.400599">
        <ele>354.82</ele>
        <time>2018-06-10T10:33:31Z</time>
      </trkpt>
      <trkpt lat="41.383961" lon="0.400588">
        <ele>354.72</ele>
        <time>2018-06-10T10:33:32Z</time>
      </trkpt>
      <trkpt lat="41.384015" lon="0.400587">
        <ele>354.62</ele>
        <time>2018-06-10T10:33:33Z</time>
      </trkpt>
      <trkpt lat="41.384069" lon="0.400589">
        <ele>354.52</ele>
        <time>2018-06-10T10:33:34Z</time>
      </trkpt>
      <trkpt lat="41.384123" lon="0.400592">
        <ele>354.42</ele>
        <time>2018-06-10T10:33:35Z</time>
      </trkpt>
      <trkpt lat="41.384175" lon="0.400595">
        <ele>354.32</ele>
        <time>2018-06-10T10:33:36Z</time>
      </trkpt>
      <trkpt lat="41.384224" lon="0.400587">
        <ele>354.22</ele>
        <time>2018-06-10T10:33:37Z</time>
      </trkpt>
      <trkpt lat="41.384267" lon="0.400560">
        <ele>354.12</ele>
        <time>2018-06-10T10:33:38Z</time>
      </trkpt>
      <trkpt lat="41.384300" lon="0.400514">
        <ele>354.02</ele>
        <time>2018-06-10T10:33:39Z</time>
      </trkpt>
      <trkpt lat="41.384322" lon="0.400461">
        <ele>354.00</ele>
        <time>2018-06-10T10:33:40Z</time>
      </trkpt>
      <trkpt lat="41.384336" lon="0.400406">
        <ele>354.00</ele>
        <time>2018-06-10T10:33:41Z</time>
      </trkpt>
      <trkpt lat="41.384345" lon="0.400348">
        <ele>354.00</ele>
        <time>2018-06-10T10:33:42Z</time>
      </trkpt>
      <trkpt lat="41.384346" lon="0.400289">
        <ele>354.00</ele>
        <time>2018-06-10T10:33:43Z</time>
      </trkpt>
      <trkpt lat="41.384335" lon="0.400235">
        <ele>354.00</ele>
        <time>2018-06-10T10:33:44Z</time>
      </trkpt>
      <trkpt lat="41.384311" lon="0.400192">
        <ele>354.00</ele>
        <time>2018-06-10T10:33:45Z</time>
      </trkpt>
      <trkpt lat="41.384276" lon="0.400165">
        <ele>354.00</ele>
        <time>2018-06-10T10:33:46Z</time>
      </trkpt>
      <trkpt lat="41.384233" lon="0.400144">
        <ele>354.00</ele>
        <time>2018-06-10T10:33:47Z</time>
      </trkpt>
      <trkpt lat="41.384188" lon="0.400118">
        <ele>354.00</ele>
        <time>2018-06-10T10:33:48Z</time>
      </trkpt>
      <trkpt lat="41.384143" lon="0.400084">
        <ele>354.00</ele>
        <time>2018-06-10T10:33:49Z</time>
      </trkpt>
      <trkpt lat="41.384099" lon="0.400040">
        <ele>353.83</ele>
        <time>2018-06-10T10:33:50Z</time>
      </trkpt>
      <trkpt lat="41.384057" lon="0.399986">
        <ele>353.53</ele>
        <time>2018-06-10T10:33:51Z</time>
      </trkpt>
      <trkpt lat="41.384017" lon="0.399924">
        <ele>353.23</ele>
        <time>2018-06-10T10:33:52Z</time>
      </trkpt>
      <trkpt lat="41.383981" lon="0.399859">
        <ele>352.93</ele>
        <time>2018-06-10T10:33:53Z</time>
      </trkpt>
      <trkpt lat="41.383948" lon="0.399796">
        <ele>352.63</ele>
        <time>2018-06-10T10:33:54Z</time>
      </trkpt>
      <trkpt lat="41.383919" lon="0.399737">
        <ele>352.33</ele>
        <time>2018-06-10T10:33:55Z</time>
      </trkpt>
      <trkpt lat="41.383890" lon="0.399685">
        <ele>352.03</ele>
        <time>2018-06-10T10:33:56Z</time>
      </trkpt>
      <trkpt lat="41.383863" lon="0.399644">
        <ele>351.73</ele>
        <time>2018-06-10T10:33:57Z</time>
      </trkpt>
      <trkpt lat="41.383823" lon="0.399579">
        <ele>351.12</ele>
        <time>2018-06-10T10:33:59Z</time>
      </trkpt>
      <trkpt lat="41.383819" lon="0.399507">
        <ele>350.35</ele>
        <time>2018-06-10T10:34:01Z</time>
      </trkpt>
      <trkpt lat="41.383850" lon="0.399447">
        <ele>349.53</ele>
        <time>2018-06-10T10:34:03Z</time>
      </trkpt>
      <trkpt lat="41.383870" lon="0.399422">
        <ele>349.12</ele>
        <time>2018-06-10T10:34:04Z</time>
      </trkpt>
      <trkpt lat="41.383918" lon="0.399370">
        <ele>348.31</ele>
        <time>2018-06-10T10:34:06Z</time>
      </trkpt>
      <trkpt lat="41.383973" lon="0.399313">
        <ele>347.49</ele>
        <time>2018-06-10T10:34:08Z</time>
      </trkpt>
      <trkpt lat="41.384000" lon="0.399281">
        <ele>347.08</ele>
        <time>2018-06-10T10:34:09Z</time>
      </trkpt>
      <trkpt lat="41.384026" lon="0.399244">
        <ele>347.00</ele>
        <time>2018-06-10T10:34:10Z</time>
      </trkpt>
      <trkpt lat="41.384049" lon="0.399206">
        <ele>347.00</ele>
        <time>2018-06-10T10:34:11Z</time>
      </trkpt>
      <trkpt lat="41.384071" lon="0.399164">
        <ele>347.00</ele>
        <time>2018-06-10T10:34:12Z</time>
      </trkpt>
      <trkpt lat="41.384090" lon="0.399120">
        <ele>347.00</ele>
        <time>2018-06-10T10:34:13Z</time>
      </trkpt>
      <trkpt lat="41.384155" lon="0.398919">
        <ele>347.00</ele>
        <time>2018-06-10T10:34:18Z</time>
      </trkpt>
      <trkpt lat="41.383867" lon="0.398265">
        <ele>349.00</ele>
        <time>2018-06-10T10:34:36Z</time>
      </trkpt>
      <trkpt lat="41.383827" lon="0.398278">
        <ele>349.00</ele>
        <time>2018-06-10T10:34:37Z</time>
      </trkpt>
      <trkpt lat="41.383789" lon="0.398295">
        <ele>349.00</ele>
        <time>2018-06-10T10:34:38Z</time>
      </trkpt>
      <trkpt lat="41.383752" lon="0.398316">
        <ele>349.00</ele>
        <time>2018-06-10T10:34:39Z</time>
      </trkpt>
      <trkpt lat="41.383716" lon="0.398341">
        <ele>349.15</ele>
        <time>2018-06-10T10:34:40Z</time>
      </trkpt>
      <trkpt lat="41.383681" lon="0.398366">
        <ele>349.35</ele>
        <time>2018-06-10T10:34:41Z</time>
      </trkpt>
      <trkpt lat="41.383647" lon="0.398388">
        <ele>349.56</ele>
        <time>2018-06-10T10:34:42Z</time>
      </trkpt>
      <trkpt lat="41.383588" lon="0.398430">
        <ele>349.96</ele>
        <time>2018-06-10T10:34:44Z</time>
      </trkpt>
      <trkpt lat="41.383531" lon="0.398451">
        <ele>350.37</ele>
        <time>2018-06-10T10:34:46Z</time>
      </trkpt>
      <trkpt lat="41.383476" lon="0.398461">
        <ele>350.77</ele>
        <time>2018-06-10T10:34:48Z</time>
      </trkpt>
      <trkpt lat="41.383421" lon="0.398471">
        <ele>351.17</ele>
        <time>2018-06-10T10:34:50Z</time>
      </trkpt>
      <trkpt lat="41.383361" lon="0.398492">
        <ele>351.56</ele>
        <time>2018-06-10T10:34:52Z</time>
      </trkpt>
      <trkpt lat="41.383302" lon="0.398530">
        <ele>351.96</ele>
        <time>2018-06-10T10:34:54Z</time>
      </trkpt>
      <trkpt lat="41.383244" lon="0.398576">
        <ele>352.35</ele>
        <time>2018-06-10T10:34:56Z</time>
      </trkpt>
      <trkpt lat="41.383192" lon="0.398632">
        <ele>352.74</ele>
        <time>2018-06-10T10:34:58Z</time>
      </trkpt>
      <trkpt lat="41.383141" lon="0.398689">
        <ele>353.14</ele>
        <time>2018-06-10T10:35:00Z</time>
      </trkpt>
      <trkpt lat="41.383087" lon="0.398736">
        <ele>353.55</ele>
        <time>2018-06-10T10:35:02Z</time>
      </trkpt>
      <trkpt lat="41.383027" lon="0.398777">
        <ele>353.95</ele>
        <time>2018-06-10T10:35:04Z</time>
      </trkpt>
      <trkpt lat="41.382960" lon="0.398809">
        <ele>354.36</ele>
        <time>2018-06-10T10:35:06Z</time>
      </trkpt>
      <trkpt lat="41.382891" lon="0.398825">
        <ele>354.76</ele>
        <time>2018-06-10T10:35:08Z</time>
      </trkpt>
      <trkpt lat="41.382854" lon="0.398833">
        <ele>354.97</ele>
        <time>2018-06-10T10:35:09Z</time>
      </trkpt>
      <trkpt lat="41.382818" lon="0.398842">
        <ele>355.00</ele>
        <time>2018-06-10T10:35:10Z</time>
      </trkpt>
      <trkpt lat="41.382781" lon="0.398855">
        <ele>355.00</ele>
        <time>2018-06-10T10:35:11Z</time>
      </trkpt>
      <trkpt lat="41.382746" lon="0.398871">
        <ele>355.00</ele>
        <time>2018-06-10T10:35:12Z</time>
      </trkpt>
      <trkpt lat="41.382712" lon="0.398892">
        <ele>355.00</ele>
        <time>2018-06-10T10:35:13Z</time>
      </trkpt>
      <trkpt lat="41.382681" lon="0.398915">
        <ele>355.00</ele>
        <time>2018-06-10T10:35:14Z</time>
      </trkpt>
      <trkpt lat="41.382650" lon="0.398940">
        <ele>355.00</ele>
        <time>2018-06-10T10:35:15Z</time>
      </trkpt>
      <trkpt lat="41.382588" lon="0.398987">
        <ele>355.00</ele>
        <time>2018-06-10T10:35:17Z</time>
      </trkpt>
      <trkpt lat="41.382527" lon="0.399037">
        <ele>355.00</ele>
        <time>2018-06-10T10:35:19Z</time>
      </trkpt>
      <trkpt lat="41.382470" lon="0.399089">
        <ele>355.35</ele>
        <time>2018-06-10T10:35:21Z</time>
      </trkpt>
      <trkpt lat="41.382410" lon="0.399128">
        <ele>355.74</ele>
        <time>2018-06-10T10:35:23Z</time>
      </trkpt>
      <trkpt lat="41.382347" lon="0.399140">
        <ele>356.13</ele>
        <time>2018-06-10T10:35:25Z</time>
      </trkpt>
      <trkpt lat="41.382292" lon="0.399120">
        <ele>356.52</ele>
        <time>2018-06-10T10:35:27Z</time>
      </trkpt>
      <trkpt lat="41.382256" lon="0.399076">
        <ele>356.91</ele>
        <time>2018-06-10T10:35:29Z</time>
      </trkpt>
      <trkpt lat="41.382236" lon="0.399022">
        <ele>357.00</ele>
        <time>2018-06-10T10:35:31Z</time>
      </trkpt>
      <trkpt lat="41.382241" lon="0.398948">
        <ele>357.00</ele>
        <time>2018-06-10T10:35:33Z</time>
      </trkpt>
      <trkpt lat="41.382265" lon="0.398884">
        <ele>357.00</ele>
        <time>2018-06-10T10:35:35Z</time>
      </trkpt>
      <trkpt lat="41.382300" lon="0.398841">
        <ele>357.00</ele>
        <time>2018-06-10T10:35:37Z</time>
      </trkpt>
      <trkpt lat="41.382337" lon="0.398818">
        <ele>357.00</ele>
        <time>2018-06-10T10:35:39Z</time>
      </trkpt>
      <trkpt lat="41.382384" lon="0.398792">
        <ele>357.56</ele>
        <time>2018-06-10T10:35:42Z</time>
      </trkpt>
      <trkpt lat="41.382416" lon="0.398772">
        <ele>357.95</ele>
        <time>2018-06-10T10:35:44Z</time>
      </trkpt>
      <trkpt lat="41.382462" lon="0.398742">
        <ele>358.55</ele>
        <time>2018-06-10T10:35:47Z</time>
      </trkpt>
      <trkpt lat="41.382507" lon="0.398706">
        <ele>359.22</ele>
        <time>2018-06-10T10:35:50Z</time>
      </trkpt>
      <trkpt lat="41.382537" lon="0.398677">
        <ele>359.82</ele>
        <time>2018-06-10T10:35:52Z</time>
      </trkpt>
      <trkpt lat="41.382568" lon="0.398643">
        <ele>360.42</ele>
        <time>2018-06-10T10:35:54Z</time>
      </trkpt>
      <trkpt lat="41.382598" lon="0.398611">
        <ele>361.02</ele>
        <time>2018-06-10T10:35:56Z</time>
      </trkpt>
      <trkpt lat="41.382633" lon="0.398575">
        <ele>361.62</ele>
        <time>2018-06-10T10:35:58Z</time>
      </trkpt>
      <trkpt lat="41.382671" lon="0.398535">
        <ele>362.07</ele>
        <time>2018-06-10T10:36:00Z</time>
      </trkpt>
      <trkpt lat="41.382708" lon="0.398494">
        <ele>362.27</ele>
        <time>2018-06-10T10:36:02Z</time>
      </trkpt>
      <trkpt lat="41.382747" lon="0.398459">
        <ele>362.47</ele>
        <time>2018-06-10T10:36:04Z</time>
      </trkpt>
      <trkpt lat="41.382788" lon="0.398432">
        <ele>362.67</ele>
        <time>2018-06-10T10:36:06Z</time>
      </trkpt>
      <trkpt lat="41.382826" lon="0.398402">
        <ele>362.87</ele>
        <time>2018-06-10T10:36:08Z</time>
      </trkpt>
      <trkpt lat="41.382860" lon="0.398368">
        <ele>363.14</ele>
        <time>2018-06-10T10:36:10Z</time>
      </trkpt>
      <trkpt lat="41.382893" lon="0.398333">
        <ele>363.53</ele>
        <time>2018-06-10T10:36:12Z</time>
      </trkpt>
      <trkpt lat="41.382925" lon="0.398296">
        <ele>363.93</ele>
        <time>2018-06-10T10:36:14Z</time>
      </trkpt>
      <trkpt lat="41.382955" lon="0.398256">
        <ele>364.32</ele>
        <time>2018-06-10T10:36:16Z</time>
      </trkpt>
      <trkpt lat="41.382982" lon="0.398212">
        <ele>364.71</ele>
        <time>2018-06-10T10:36:18Z</time>
      </trkpt>
      <trkpt lat="41.383007" lon="0.398164">
        <ele>365.17</ele>
        <time>2018-06-10T10:36:20Z</time>
      </trkpt>
      <trkpt lat="41.383031" lon="0.398115">
        <ele>365.79</ele>
        <time>2018-06-10T10:36:22Z</time>
      </trkpt>
      <trkpt lat="41.383057" lon="0.398067">
        <ele>366.41</ele>
        <time>2018-06-10T10:36:24Z</time>
      </trkpt>
      <trkpt lat="41.383082" lon="0.398019">
        <ele>367.03</ele>
        <time>2018-06-10T10:36:26Z</time>
      </trkpt>
      <trkpt lat="41.383108" lon="0.397973">
        <ele>367.65</ele>
        <time>2018-06-10T10:36:28Z</time>
      </trkpt>
      <trkpt lat="41.383131" lon="0.397926">
        <ele>368.17</ele>
        <time>2018-06-10T10:36:30Z</time>
      </trkpt>
      <trkpt lat="41.383155" lon="0.397880">
        <ele>368.56</ele>
        <time>2018-06-10T10:36:32Z</time>
      </trkpt>
      <trkpt lat="41.383181" lon="0.397835">
        <ele>368.96</ele>
        <time>2018-06-10T10:36:34Z</time>
      </trkpt>
      <trkpt lat="41.383206" lon="0.397790">
        <ele>369.35</ele>
        <time>2018-06-10T10:36:36Z</time>
      </trkpt>
      <trkpt lat="41.383232" lon="0.397744">
        <ele>369.75</ele>
        <time>2018-06-10T10:36:38Z</time>
      </trkpt>
      <trkpt lat="41.383256" lon="0.397696">
        <ele>370.22</ele>
        <time>2018-06-10T10:36:40Z</time>
      </trkpt>
      <trkpt lat="41.383277" lon="0.397648">
        <ele>370.82</ele>
        <time>2018-06-10T10:36:42Z</time>
      </trkpt>
      <trkpt lat="41.383303" lon="0.397603">
        <ele>371.43</ele>
        <time>2018-06-10T10:36:44Z</time>
      </trkpt>
      <trkpt lat="41.383331" lon="0.397556">
        <ele>372.04</ele>
        <time>2018-06-10T10:36:46Z</time>
      </trkpt>
      <trkpt lat="41.383367" lon="0.397516">
        <ele>372.64</ele>
        <time>2018-06-10T10:36:48Z</time>
      </trkpt>
      <trkpt lat="41.383400" lon="0.397467">
        <ele>373.08</ele>
        <time>2018-06-10T10:36:50Z</time>
      </trkpt>
      <trkpt lat="41.383427" lon="0.397414">
        <ele>373.28</ele>
        <time>2018-06-10T10:36:52Z</time>
      </trkpt>
      <trkpt lat="41.383453" lon="0.397360">
        <ele>373.48</ele>
        <time>2018-06-10T10:36:54Z</time>
      </trkpt>
      <trkpt lat="41.383479" lon="0.397304">
        <ele>373.68</ele>
        <time>2018-06-10T10:36:56Z</time>
      </trkpt>
      <trkpt lat="41.383504" lon="0.397247">
        <ele>373.87</ele>
        <time>2018-06-10T10:36:58Z</time>
      </trkpt>
      <trkpt lat="41.383526" lon="0.397192">
        <ele>374.22</ele>
        <time>2018-06-10T10:37:00Z</time>
      </trkpt>
      <trkpt lat="41.383548" lon="0.397139">
        <ele>374.83</ele>
        <time>2018-06-10T10:37:02Z</time>
      </trkpt>
      <trkpt lat="41.383568" lon="0.397088">
        <ele>375.43</ele>
        <time>2018-06-10T10:37:04Z</time>
      </trkpt>
      <trkpt lat="41.383587" lon="0.397037">
        <ele>376.04</ele>
        <time>2018-06-10T10:37:06Z</time>
      </trkpt>
      <trkpt lat="41.383604" lon="0.396987">
        <ele>376.65</ele>
        <time>2018-06-10T10:37:08Z</time>
      </trkpt>
      <trkpt lat="41.383625" lon="0.396943">
        <ele>377.17</ele>
        <time>2018-06-10T10:37:10Z</time>
      </trkpt>
      <trkpt lat="41.383648" lon="0.396901">
        <ele>377.57</ele>
        <time>2018-06-10T10:37:12Z</time>
      </trkpt>
      <trkpt lat="41.383672" lon="0.396863">
        <ele>377.97</ele>
        <time>2018-06-10T10:37:14Z</time>
      </trkpt>
      <trkpt lat="41.383702" lon="0.396812">
        <ele>378.57</ele>
        <time>2018-06-10T10:37:17Z</time>
      </trkpt>
      <trkpt lat="41.383734" lon="0.396776">
        <ele>379.17</ele>
        <time>2018-06-10T10:37:20Z</time>
      </trkpt>
      <trkpt lat="41.383766" lon="0.396746">
        <ele>379.75</ele>
        <time>2018-06-10T10:37:23Z</time>
      </trkpt>
      <trkpt lat="41.383719" lon="0.396698">
        <ele>382.00</ele>
        <time>2018-06-10T10:38:33Z</time>
      </trkpt>
      <trkpt lat="41.383667" lon="0.396702">
        <ele>382.00</ele>
        <time>2018-06-10T10:38:36Z</time>
      </trkpt>
      <trkpt lat="41.383623" lon="0.396712">
        <ele>382.00</ele>
        <time>2018-06-10T10:38:38Z</time>
      </trkpt>
      <trkpt lat="41.383570" lon="0.396726">
        <ele>382.00</ele>
        <time>2018-06-10T10:38:40Z</time>
      </trkpt>
      <trkpt lat="41.383507" lon="0.396744">
        <ele>382.00</ele>
        <time>2018-06-10T10:38:42Z</time>
      </trkpt>
      <trkpt lat="41.383445" lon="0.396760">
        <ele>382.00</ele>
        <time>2018-06-10T10:38:44Z</time>
      </trkpt>
      <trkpt lat="41.383381" lon="0.396766">
        <ele>382.00</ele>
        <time>2018-06-10T10:38:46Z</time>
      </trkpt>
      <trkpt lat="41.383313" lon="0.396780">
        <ele>382.00</ele>
        <time>2018-06-10T10:38:48Z</time>
      </trkpt>
      <trkpt lat="41.383249" lon="0.396794">
        <ele>382.00</ele>
        <time>2018-06-10T10:38:50Z</time>
      </trkpt>
      <trkpt lat="41.383179" lon="0.396808">
        <ele>382.00</ele>
        <time>2018-06-10T10:38:52Z</time>
      </trkpt>
      <trkpt lat="41.383141" lon="0.396814">
        <ele>382.00</ele>
        <time>2018-06-10T10:38:53Z</time>
      </trkpt>
      <trkpt lat="41.383104" lon="0.396820">
        <ele>382.00</ele>
        <time>2018-06-10T10:38:54Z</time>
      </trkpt>
      <trkpt lat="41.383068" lon="0.396828">
        <ele>382.00</ele>
        <time>2018-06-10T10:38:55Z</time>
      </trkpt>
      <trkpt lat="41.383030" lon="0.396840">
        <ele>382.00</ele>
        <time>2018-06-10T10:38:56Z</time>
      </trkpt>
      <trkpt lat="41.382993" lon="0.396850">
        <ele>382.00</ele>
        <time>2018-06-10T10:38:57Z</time>
      </trkpt>
      <trkpt lat="41.382956" lon="0.396864">
        <ele>382.00</ele>
        <time>2018-06-10T10:38:58Z</time>
      </trkpt>
      <trkpt lat="41.382921" lon="0.396876">
        <ele>382.00</ele>
        <time>2018-06-10T10:38:59Z</time>
      </trkpt>
      <trkpt lat="41.382854" lon="0.396900">
        <ele>382.19</ele>
        <time>2018-06-10T10:39:01Z</time>
      </trkpt>
      <trkpt lat="41.382796" lon="0.396902">
        <ele>382.39</ele>
        <time>2018-06-10T10:39:03Z</time>
      </trkpt>
      <trkpt lat="41.382745" lon="0.396889">
        <ele>382.58</ele>
        <time>2018-06-10T10:39:05Z</time>
      </trkpt>
      <trkpt lat="41.382690" lon="0.396862">
        <ele>382.78</ele>
        <time>2018-06-10T10:39:07Z</time>
      </trkpt>
      <trkpt lat="41.382627" lon="0.396836">
        <ele>382.98</ele>
        <time>2018-06-10T10:39:09Z</time>
      </trkpt>
      <trkpt lat="41.382556" lon="0.396811">
        <ele>383.00</ele>
        <time>2018-06-10T10:39:11Z</time>
      </trkpt>
      <trkpt lat="41.382520" lon="0.396798">
        <ele>383.00</ele>
        <time>2018-06-10T10:39:12Z</time>
      </trkpt>
      <trkpt lat="41.382482" lon="0.396785">
        <ele>383.00</ele>
        <time>2018-06-10T10:39:13Z</time>
      </trkpt>
      <trkpt lat="41.382443" lon="0.396774">
        <ele>383.00</ele>
        <time>2018-06-10T10:39:14Z</time>
      </trkpt>
      <trkpt lat="41.382404" lon="0.396766">
        <ele>383.00</ele>
        <time>2018-06-10T10:39:15Z</time>
      </trkpt>
      <trkpt lat="41.382365" lon="0.396761">
        <ele>383.00</ele>
        <time>2018-06-10T10:39:16Z</time>
      </trkpt>
      <trkpt lat="41.382325" lon="0.396758">
        <ele>383.00</ele>
        <time>2018-06-10T10:39:17Z</time>
      </trkpt>
      <trkpt lat="41.382287" lon="0.396756">
        <ele>383.00</ele>
        <time>2018-06-10T10:39:18Z</time>
      </trkpt>
      <trkpt lat="41.382249" lon="0.396750">
        <ele>383.00</ele>
        <time>2018-06-10T10:39:19Z</time>
      </trkpt>
      <trkpt lat="41.382210" lon="0.396741">
        <ele>383.00</ele>
        <time>2018-06-10T10:39:20Z</time>
      </trkpt>
      <trkpt lat="41.382171" lon="0.396728">
        <ele>383.00</ele>
        <time>2018-06-10T10:39:21Z</time>
      </trkpt>
      <trkpt lat="41.382132" lon="0.396715">
        <ele>383.00</ele>
        <time>2018-06-10T10:39:22Z</time>
      </trkpt>
      <trkpt lat="41.382092" lon="0.396700">
        <ele>383.00</ele>
        <time>2018-06-10T10:39:23Z</time>
      </trkpt>
      <trkpt lat="41.382054" lon="0.396682">
        <ele>383.00</ele>
        <time>2018-06-10T10:39:24Z</time>
      </trkpt>
      <trkpt lat="41.382017" lon="0.396658">
        <ele>383.00</ele>
        <time>2018-06-10T10:39:25Z</time>
      </trkpt>
      <trkpt lat="41.381983" lon="0.396629">
        <ele>383.00</ele>
        <time>2018-06-10T10:39:26Z</time>
      </trkpt>
      <trkpt lat="41.381950" lon="0.396596">
        <ele>383.00</ele>
        <time>2018-06-10T10:39:27Z</time>
      </trkpt>
      <trkpt lat="41.381918" lon="0.396560">
        <ele>383.00</ele>
        <time>2018-06-10T10:39:28Z</time>
      </trkpt>
      <trkpt lat="41.381888" lon="0.396519">
        <ele>383.00</ele>
        <time>2018-06-10T10:39:29Z</time>
      </trkpt>
      <trkpt lat="41.381860" lon="0.396475">
        <ele>383.00</ele>
        <time>2018-06-10T10:39:30Z</time>
      </trkpt>
      <trkpt lat="41.381832" lon="0.396431">
        <ele>383.00</ele>
        <time>2018-06-10T10:39:31Z</time>
      </trkpt>
      <trkpt lat="41.381802" lon="0.396388">
        <ele>383.00</ele>
        <time>2018-06-10T10:39:32Z</time>
      </trkpt>
      <trkpt lat="41.381770" lon="0.396347">
        <ele>383.00</ele>
        <time>2018-06-10T10:39:33Z</time>
      </trkpt>
      <trkpt lat="41.381735" lon="0.396307">
        <ele>383.00</ele>
        <time>2018-06-10T10:39:34Z</time>
      </trkpt>
      <trkpt lat="41.381699" lon="0.396267">
        <ele>383.00</ele>
        <time>2018-06-10T10:39:35Z</time>
      </trkpt>
      <trkpt lat="41.381663" lon="0.396226">
        <ele>383.00</ele>
        <time>2018-06-10T10:39:36Z</time>
      </trkpt>
      <trkpt lat="41.381625" lon="0.396186">
        <ele>383.00</ele>
        <time>2018-06-10T10:39:37Z</time>
      </trkpt>
      <trkpt lat="41.381586" lon="0.396147">
        <ele>383.00</ele>
        <time>2018-06-10T10:39:38Z</time>
      </trkpt>
      <trkpt lat="41.381546" lon="0.396110">
        <ele>383.00</ele>
        <time>2018-06-10T10:39:39Z</time>
      </trkpt>
      <trkpt lat="41.381506" lon="0.396076">
        <ele>383.00</ele>
        <time>2018-06-10T10:39:40Z</time>
      </trkpt>
      <trkpt lat="41.381466" lon="0.396042">
        <ele>383.00</ele>
        <time>2018-06-10T10:39:41Z</time>
      </trkpt>
      <trkpt lat="41.381426" lon="0.396011">
        <ele>383.00</ele>
        <time>2018-06-10T10:39:42Z</time>
      </trkpt>
      <trkpt lat="41.381384" lon="0.395982">
        <ele>383.00</ele>
        <time>2018-06-10T10:39:43Z</time>
      </trkpt>
      <trkpt lat="41.381341" lon="0.395954">
        <ele>383.00</ele>
        <time>2018-06-10T10:39:44Z</time>
      </trkpt>
      <trkpt lat="41.381298" lon="0.395925">
        <ele>383.00</ele>
        <time>2018-06-10T10:39:45Z</time>
      </trkpt>
      <trkpt lat="41.381254" lon="0.395895">
        <ele>383.00</ele>
        <time>2018-06-10T10:39:46Z</time>
      </trkpt>
      <trkpt lat="41.381210" lon="0.395861">
        <ele>383.00</ele>
        <time>2018-06-10T10:39:47Z</time>
      </trkpt>
      <trkpt lat="41.381166" lon="0.395825">
        <ele>383.00</ele>
        <time>2018-06-10T10:39:48Z</time>
      </trkpt>
      <trkpt lat="41.381122" lon="0.395789">
        <ele>383.00</ele>
        <time>2018-06-10T10:39:49Z</time>
      </trkpt>
      <trkpt lat="41.381078" lon="0.395752">
        <ele>383.00</ele>
        <time>2018-06-10T10:39:50Z</time>
      </trkpt>
      <trkpt lat="41.381034" lon="0.395717">
        <ele>383.00</ele>
        <time>2018-06-10T10:39:51Z</time>
      </trkpt>
      <trkpt lat="41.380990" lon="0.395686">
        <ele>383.00</ele>
        <time>2018-06-10T10:39:52Z</time>
      </trkpt>
      <trkpt lat="41.380944" lon="0.395662">
        <ele>383.00</ele>
        <time>2018-06-10T10:39:53Z</time>
      </trkpt>
      <trkpt lat="41.380897" lon="0.395641">
        <ele>383.00</ele>
        <time>2018-06-10T10:39:54Z</time>
      </trkpt>
      <trkpt lat="41.380850" lon="0.395622">
        <ele>383.00</ele>
        <time>2018-06-10T10:39:55Z</time>
      </trkpt>
      <trkpt lat="41.380802" lon="0.395603">
        <ele>383.00</ele>
        <time>2018-06-10T10:39:56Z</time>
      </trkpt>
      <trkpt lat="41.380754" lon="0.395584">
        <ele>383.00</ele>
        <time>2018-06-10T10:39:57Z</time>
      </trkpt>
      <trkpt lat="41.380708" lon="0.395565">
        <ele>383.00</ele>
        <time>2018-06-10T10:39:58Z</time>
      </trkpt>
      <trkpt lat="41.380660" lon="0.395551">
        <ele>383.00</ele>
        <time>2018-06-10T10:39:59Z</time>
      </trkpt>
      <trkpt lat="41.380611" lon="0.395542">
        <ele>383.07</ele>
        <time>2018-06-10T10:40:00Z</time>
      </trkpt>
      <trkpt lat="41.380563" lon="0.395533">
        <ele>383.17</ele>
        <time>2018-06-10T10:40:01Z</time>
      </trkpt>
      <trkpt lat="41.380514" lon="0.395524">
        <ele>383.27</ele>
        <time>2018-06-10T10:40:02Z</time>
      </trkpt>
      <trkpt lat="41.380465" lon="0.395514">
        <ele>383.37</ele>
        <time>2018-06-10T10:40:03Z</time>
      </trkpt>
      <trkpt lat="41.380416" lon="0.395504">
        <ele>383.47</ele>
        <time>2018-06-10T10:40:04Z</time>
      </trkpt>
      <trkpt lat="41.380366" lon="0.395496">
        <ele>383.57</ele>
        <time>2018-06-10T10:40:05Z</time>
      </trkpt>
      <trkpt lat="41.380316" lon="0.395493">
        <ele>383.67</ele>
        <time>2018-06-10T10:40:06Z</time>
      </trkpt>
      <trkpt lat="41.380266" lon="0.395488">
        <ele>383.77</ele>
        <time>2018-06-10T10:40:07Z</time>
      </trkpt>
      <trkpt lat="41.380217" lon="0.395481">
        <ele>383.87</ele>
        <time>2018-06-10T10:40:08Z</time>
      </trkpt>
      <trkpt lat="41.380170" lon="0.395471">
        <ele>383.97</ele>
        <time>2018-06-10T10:40:09Z</time>
      </trkpt>
      <trkpt lat="41.380123" lon="0.395463">
        <ele>384.00</ele>
        <time>2018-06-10T10:40:10Z</time>
      </trkpt>
      <trkpt lat="41.380075" lon="0.395453">
        <ele>384.00</ele>
        <time>2018-06-10T10:40:11Z</time>
      </trkpt>
      <trkpt lat="41.379872" lon="0.395315">
        <ele>384.00</ele>
        <time>2018-06-10T10:40:16Z</time>
      </trkpt>
      <trkpt lat="41.379800" lon="0.395232">
        <ele>384.00</ele>
        <time>2018-06-10T10:40:17.96Z</time>
      </trkpt>
      <trkpt lat="41.379378" lon="0.394912">
        <ele>383.28</ele>
        <time>2018-06-10T10:40:32Z</time>
      </trkpt>
      <trkpt lat="41.379333" lon="0.394888">
        <ele>383.83</ele>
        <time>2018-06-10T10:40:41Z</time>
      </trkpt>
      <trkpt lat="41.379287" lon="0.394835">
        <ele>383.63</ele>
        <time>2018-06-10T10:40:43Z</time>
      </trkpt>
      <trkpt lat="41.379261" lon="0.394802">
        <ele>383.53</ele>
        <time>2018-06-10T10:40:44Z</time>
      </trkpt>
      <trkpt lat="41.379205" lon="0.394758">
        <ele>383.32</ele>
        <time>2018-06-10T10:40:46Z</time>
      </trkpt>
      <trkpt lat="41.379150" lon="0.394731">
        <ele>383.12</ele>
        <time>2018-06-10T10:40:48Z</time>
      </trkpt>
      <trkpt lat="41.379074" lon="0.394702">
        <ele>382.68</ele>
        <time>2018-06-10T10:40:50Z</time>
      </trkpt>
      <trkpt lat="41.379028" lon="0.394691">
        <ele>382.28</ele>
        <time>2018-06-10T10:40:51Z</time>
      </trkpt>
      <trkpt lat="41.378979" lon="0.394683">
        <ele>381.88</ele>
        <time>2018-06-10T10:40:52Z</time>
      </trkpt>
      <trkpt lat="41.378930" lon="0.394673">
        <ele>381.48</ele>
        <time>2018-06-10T10:40:53Z</time>
      </trkpt>
      <trkpt lat="41.378879" lon="0.394665">
        <ele>381.07</ele>
        <time>2018-06-10T10:40:54Z</time>
      </trkpt>
      <trkpt lat="41.378833" lon="0.394661">
        <ele>380.67</ele>
        <time>2018-06-10T10:40:55Z</time>
      </trkpt>
      <trkpt lat="41.378793" lon="0.394663">
        <ele>380.27</ele>
        <time>2018-06-10T10:40:56Z</time>
      </trkpt>
      <trkpt lat="41.378757" lon="0.394663">
        <ele>379.87</ele>
        <time>2018-06-10T10:40:57Z</time>
      </trkpt>
      <trkpt lat="41.378688" lon="0.394651">
        <ele>379.07</ele>
        <time>2018-06-10T10:40:59Z</time>
      </trkpt>
      <trkpt lat="41.378616" lon="0.394656">
        <ele>378.27</ele>
        <time>2018-06-10T10:41:01Z</time>
      </trkpt>
      <trkpt lat="41.378577" lon="0.394652">
        <ele>377.86</ele>
        <time>2018-06-10T10:41:02Z</time>
      </trkpt>
      <trkpt lat="41.378535" lon="0.394643">
        <ele>377.46</ele>
        <time>2018-06-10T10:41:03Z</time>
      </trkpt>
      <trkpt lat="41.378489" lon="0.394636">
        <ele>377.06</ele>
        <time>2018-06-10T10:41:04Z</time>
      </trkpt>
      <trkpt lat="41.378443" lon="0.394629">
        <ele>376.66</ele>
        <time>2018-06-10T10:41:05Z</time>
      </trkpt>
      <trkpt lat="41.378399" lon="0.394621">
        <ele>376.26</ele>
        <time>2018-06-10T10:41:06Z</time>
      </trkpt>
      <trkpt lat="41.378363" lon="0.394613">
        <ele>375.86</ele>
        <time>2018-06-10T10:41:07Z</time>
      </trkpt>
      <trkpt lat="41.378310" lon="0.394611">
        <ele>375.06</ele>
        <time>2018-06-10T10:41:09Z</time>
      </trkpt>
      <trkpt lat="41.378267" lon="0.394613">
        <ele>374.26</ele>
        <time>2018-06-10T10:41:11Z</time>
      </trkpt>
      <trkpt lat="41.378219" lon="0.394615">
        <ele>373.06</ele>
        <time>2018-06-10T10:41:14Z</time>
      </trkpt>
      <trkpt lat="41.378199" lon="0.394617">
        <ele>372.66</ele>
        <time>2018-06-10T10:41:15Z</time>
      </trkpt>
      <trkpt lat="41.378152" lon="0.394626">
        <ele>371.86</ele>
        <time>2018-06-10T10:41:17Z</time>
      </trkpt>
      <trkpt lat="41.378092" lon="0.394635">
        <ele>371.06</ele>
        <time>2018-06-10T10:41:19Z</time>
      </trkpt>
      <trkpt lat="41.378022" lon="0.394639">
        <ele>370.28</ele>
        <time>2018-06-10T10:41:21Z</time>
      </trkpt>
      <trkpt lat="41.377958" lon="0.394636">
        <ele>369.49</ele>
        <time>2018-06-10T10:41:23Z</time>
      </trkpt>
      <trkpt lat="41.377928" lon="0.394638">
        <ele>369.10</ele>
        <time>2018-06-10T10:41:24Z</time>
      </trkpt>
      <trkpt lat="41.377856" lon="0.394631">
        <ele>368.32</ele>
        <time>2018-06-10T10:41:26Z</time>
      </trkpt>
      <trkpt lat="41.377817" lon="0.394615">
        <ele>367.54</ele>
        <time>2018-06-10T10:41:28Z</time>
      </trkpt>
      <trkpt lat="41.377770" lon="0.394595">
        <ele>365.66</ele>
        <time>2018-06-10T10:41:36Z</time>
      </trkpt>
      <trkpt lat="41.377707" lon="0.394570">
        <ele>365.26</ele>
        <time>2018-06-10T10:41:38Z</time>
      </trkpt>
      <trkpt lat="41.377645" lon="0.394530">
        <ele>364.93</ele>
        <time>2018-06-10T10:41:40Z</time>
      </trkpt>
      <trkpt lat="41.377598" lon="0.394475">
        <ele>364.72</ele>
        <time>2018-06-10T10:41:42Z</time>
      </trkpt>
      <trkpt lat="41.377576" lon="0.394481">
        <ele>364.52</ele>
        <time>2018-06-10T10:41:44Z</time>
      </trkpt>
      <trkpt lat="41.377512" lon="0.394494">
        <ele>363.00</ele>
        <time>2018-06-10T10:42:37Z</time>
      </trkpt>
      <trkpt lat="41.377476" lon="0.394496">
        <ele>362.74</ele>
        <time>2018-06-10T10:42:42Z</time>
      </trkpt>
      <trkpt lat="41.377444" lon="0.394528">
        <ele>362.33</ele>
        <time>2018-06-10T10:42:46Z</time>
      </trkpt>
      <trkpt lat="41.377421" lon="0.394566">
        <ele>361.85</ele>
        <time>2018-06-10T10:42:50Z</time>
      </trkpt>
      <trkpt lat="41.377378" lon="0.394592">
        <ele>359.76</ele>
        <time>2018-06-10T10:43:00Z</time>
      </trkpt>
      <trkpt lat="41.377331" lon="0.394648">
        <ele>359.15</ele>
        <time>2018-06-10T10:43:02Z</time>
      </trkpt>
      <trkpt lat="41.377306" lon="0.394685">
        <ele>358.85</ele>
        <time>2018-06-10T10:43:03Z</time>
      </trkpt>
      <trkpt lat="41.377273" lon="0.394709">
        <ele>358.55</ele>
        <time>2018-06-10T10:43:04Z</time>
      </trkpt>
      <trkpt lat="41.377238" lon="0.394731">
        <ele>358.25</ele>
        <time>2018-06-10T10:43:05Z</time>
      </trkpt>
      <trkpt lat="41.377192" lon="0.394770">
        <ele>357.64</ele>
        <time>2018-06-10T10:43:07Z</time>
      </trkpt>
      <trkpt lat="41.377152" lon="0.394771">
        <ele>357.04</ele>
        <time>2018-06-10T10:43:09Z</time>
      </trkpt>
      <trkpt lat="41.377115" lon="0.394744">
        <ele>356.45</ele>
        <time>2018-06-10T10:43:11Z</time>
      </trkpt>
      <trkpt lat="41.377078" lon="0.394721">
        <ele>355.86</ele>
        <time>2018-06-10T10:43:13Z</time>
      </trkpt>
      <trkpt lat="41.377032" lon="0.394706">
        <ele>355.27</ele>
        <time>2018-06-10T10:43:15Z</time>
      </trkpt>
      <trkpt lat="41.376982" lon="0.394712">
        <ele>354.68</ele>
        <time>2018-06-10T10:43:17Z</time>
      </trkpt>
      <trkpt lat="41.376936" lon="0.394719">
        <ele>354.09</ele>
        <time>2018-06-10T10:43:19Z</time>
      </trkpt>
      <trkpt lat="41.376892" lon="0.394718">
        <ele>353.83</ele>
        <time>2018-06-10T10:43:21Z</time>
      </trkpt>
      <trkpt lat="41.376854" lon="0.394721">
        <ele>353.63</ele>
        <time>2018-06-10T10:43:23Z</time>
      </trkpt>
      <trkpt lat="41.376811" lon="0.394749">
        <ele>353.43</ele>
        <time>2018-06-10T10:43:25Z</time>
      </trkpt>
      <trkpt lat="41.376766" lon="0.394791">
        <ele>353.23</ele>
        <time>2018-06-10T10:43:27Z</time>
      </trkpt>
      <trkpt lat="41.376717" lon="0.394825">
        <ele>353.03</ele>
        <time>2018-06-10T10:43:29Z</time>
      </trkpt>
      <trkpt lat="41.376676" lon="0.394846">
        <ele>353.00</ele>
        <time>2018-06-10T10:43:31Z</time>
      </trkpt>
      <trkpt lat="41.376646" lon="0.394880">
        <ele>353.00</ele>
        <time>2018-06-10T10:43:53Z</time>
      </trkpt>
      <trkpt lat="41.376629" lon="0.394933">
        <ele>352.63</ele>
        <time>2018-06-10T10:44:01Z</time>
      </trkpt>
      <trkpt lat="41.376599" lon="0.394963">
        <ele>352.23</ele>
        <time>2018-06-10T10:44:03Z</time>
      </trkpt>
      <trkpt lat="41.376557" lon="0.394983">
        <ele>351.83</ele>
        <time>2018-06-10T10:44:05Z</time>
      </trkpt>
      <trkpt lat="41.376520" lon="0.395027">
        <ele>351.44</ele>
        <time>2018-06-10T10:44:07Z</time>
      </trkpt>
      <trkpt lat="41.376477" lon="0.395081">
        <ele>351.04</ele>
        <time>2018-06-10T10:44:09Z</time>
      </trkpt>
      <trkpt lat="41.376441" lon="0.395121">
        <ele>350.29</ele>
        <time>2018-06-10T10:44:11Z</time>
      </trkpt>
      <trkpt lat="41.376415" lon="0.395161">
        <ele>349.50</ele>
        <time>2018-06-10T10:44:13Z</time>
      </trkpt>
      <trkpt lat="41.376398" lon="0.395180">
        <ele>349.10</ele>
        <time>2018-06-10T10:44:14Z</time>
      </trkpt>
      <trkpt lat="41.376368" lon="0.395225">
        <ele>345.91</ele>
        <time>2018-06-10T10:44:23Z</time>
      </trkpt>
      <trkpt lat="41.376345" lon="0.395261">
        <ele>345.32</ele>
        <time>2018-06-10T10:44:25Z</time>
      </trkpt>
      <trkpt lat="41.376316" lon="0.395312">
        <ele>344.74</ele>
        <time>2018-06-10T10:44:27Z</time>
      </trkpt>
      <trkpt lat="41.376303" lon="0.395350">
        <ele>341.62</ele>
        <time>2018-06-10T10:44:43Z</time>
      </trkpt>
      <trkpt lat="41.376303" lon="0.395396">
        <ele>340.33</ele>
        <time>2018-06-10T10:44:56Z</time>
      </trkpt>
      <trkpt lat="41.376298" lon="0.395448">
        <ele>339.67</ele>
        <time>2018-06-10T10:45:01Z</time>
      </trkpt>
      <trkpt lat="41.376281" lon="0.395480">
        <ele>338.87</ele>
        <time>2018-06-10T10:45:05Z</time>
      </trkpt>
      <trkpt lat="41.376273" lon="0.395531">
        <ele>337.19</ele>
        <time>2018-06-10T10:45:12Z</time>
      </trkpt>
      <trkpt lat="41.376257" lon="0.395565">
        <ele>335.68</ele>
        <time>2018-06-10T10:45:17Z</time>
      </trkpt>
      <trkpt lat="41.376234" lon="0.395610">
        <ele>333.89</ele>
        <time>2018-06-10T10:45:23Z</time>
      </trkpt>
      <trkpt lat="41.376220" lon="0.395651">
        <ele>332.40</ele>
        <time>2018-06-10T10:45:28Z</time>
      </trkpt>
      <trkpt lat="41.376205" lon="0.395697">
        <ele>331.06</ele>
        <time>2018-06-10T10:45:34Z</time>
      </trkpt>
      <trkpt lat="41.376190" lon="0.395737">
        <ele>330.25</ele>
        <time>2018-06-10T10:45:38Z</time>
      </trkpt>
      <trkpt lat="41.376175" lon="0.395781">
        <ele>328.90</ele>
        <time>2018-06-10T10:45:43Z</time>
      </trkpt>
      <trkpt lat="41.376156" lon="0.395828">
        <ele>327.72</ele>
        <time>2018-06-10T10:45:47Z</time>
      </trkpt>
      <trkpt lat="41.376125" lon="0.395871">
        <ele>326.69</ele>
        <time>2018-06-10T10:45:51Z</time>
      </trkpt>
      <trkpt lat="41.376120" lon="0.395910">
        <ele>326.07</ele>
        <time>2018-06-10T10:45:54Z</time>
      </trkpt>
      <trkpt lat="41.376116" lon="0.395967">
        <ele>325.05</ele>
        <time>2018-06-10T10:45:59Z</time>
      </trkpt>
      <trkpt lat="41.376110" lon="0.396010">
        <ele>323.88</ele>
        <time>2018-06-10T10:46:03Z</time>
      </trkpt>
      <trkpt lat="41.376074" lon="0.396053">
        <ele>320.46</ele>
        <time>2018-06-10T10:46:17Z</time>
      </trkpt>
      <trkpt lat="41.376024" lon="0.396071">
        <ele>320.00</ele>
        <time>2018-06-10T10:46:20Z</time>
      </trkpt>
      <trkpt lat="41.375970" lon="0.396090">
        <ele>320.00</ele>
        <time>2018-06-10T10:46:23Z</time>
      </trkpt>
      <trkpt lat="41.375923" lon="0.396097">
        <ele>320.00</ele>
        <time>2018-06-10T10:46:25Z</time>
      </trkpt>
      <trkpt lat="41.375871" lon="0.396099">
        <ele>320.00</ele>
        <time>2018-06-10T10:46:27Z</time>
      </trkpt>
      <trkpt lat="41.375818" lon="0.396122">
        <ele>320.00</ele>
        <time>2018-06-10T10:46:29Z</time>
      </trkpt>
      <trkpt lat="41.375761" lon="0.396158">
        <ele>320.00</ele>
        <time>2018-06-10T10:46:31Z</time>
      </trkpt>
      <trkpt lat="41.375701" lon="0.396156">
        <ele>320.00</ele>
        <time>2018-06-10T10:46:33Z</time>
      </trkpt>
      <trkpt lat="41.375641" lon="0.396165">
        <ele>320.00</ele>
        <time>2018-06-10T10:46:35Z</time>
      </trkpt>
      <trkpt lat="41.375578" lon="0.396171">
        <ele>320.00</ele>
        <time>2018-06-10T10:46:37Z</time>
      </trkpt>
      <trkpt lat="41.375515" lon="0.396160">
        <ele>320.00</ele>
        <time>2018-06-10T10:46:39Z</time>
      </trkpt>
      <trkpt lat="41.375455" lon="0.396120">
        <ele>319.83</ele>
        <time>2018-06-10T10:46:41Z</time>
      </trkpt>
      <trkpt lat="41.375397" lon="0.396123">
        <ele>319.64</ele>
        <time>2018-06-10T10:46:43Z</time>
      </trkpt>
      <trkpt lat="41.375331" lon="0.396131">
        <ele>319.44</ele>
        <time>2018-06-10T10:46:45Z</time>
      </trkpt>
      <trkpt lat="41.375272" lon="0.396126">
        <ele>319.25</ele>
        <time>2018-06-10T10:46:47Z</time>
      </trkpt>
      <trkpt lat="41.375221" lon="0.396105">
        <ele>319.05</ele>
        <time>2018-06-10T10:46:49Z</time>
      </trkpt>
      <trkpt lat="41.375176" lon="0.396067">
        <ele>319.15</ele>
        <time>2018-06-10T10:46:51Z</time>
      </trkpt>
      <trkpt lat="41.375136" lon="0.396030">
        <ele>319.36</ele>
        <time>2018-06-10T10:46:53Z</time>
      </trkpt>
      <trkpt lat="41.375088" lon="0.396010">
        <ele>319.57</ele>
        <time>2018-06-10T10:46:55Z</time>
      </trkpt>
      <trkpt lat="41.375029" lon="0.395973">
        <ele>319.78</ele>
        <time>2018-06-10T10:46:57Z</time>
      </trkpt>
      <trkpt lat="41.374977" lon="0.395923">
        <ele>319.98</ele>
        <time>2018-06-10T10:46:59Z</time>
      </trkpt>
      <trkpt lat="41.374931" lon="0.395895">
        <ele>320.00</ele>
        <time>2018-06-10T10:47:01Z</time>
      </trkpt>
      <trkpt lat="41.374881" lon="0.395872">
        <ele>320.00</ele>
        <time>2018-06-10T10:47:03Z</time>
      </trkpt>
      <trkpt lat="41.374842" lon="0.395845">
        <ele>320.00</ele>
        <time>2018-06-10T10:47:05Z</time>
      </trkpt>
      <trkpt lat="41.374812" lon="0.395817">
        <ele>320.00</ele>
        <time>2018-06-10T10:47:07Z</time>
      </trkpt>
      <trkpt lat="41.374769" lon="0.395809">
        <ele>320.00</ele>
        <time>2018-06-10T10:47:09Z</time>
      </trkpt>
      <trkpt lat="41.374716" lon="0.395771">
        <ele>320.00</ele>
        <time>2018-06-10T10:47:11Z</time>
      </trkpt>
      <trkpt lat="41.374681" lon="0.395726">
        <ele>320.00</ele>
        <time>2018-06-10T10:47:13Z</time>
      </trkpt>
      <trkpt lat="41.374640" lon="0.395691">
        <ele>320.00</ele>
        <time>2018-06-10T10:47:15Z</time>
      </trkpt>
      <trkpt lat="41.374584" lon="0.395636">
        <ele>320.00</ele>
        <time>2018-06-10T10:47:17Z</time>
      </trkpt>
      <trkpt lat="41.374555" lon="0.395606">
        <ele>320.00</ele>
        <time>2018-06-10T10:47:18Z</time>
      </trkpt>
      <trkpt lat="41.374503" lon="0.395547">
        <ele>320.00</ele>
        <time>2018-06-10T10:47:20Z</time>
      </trkpt>
      <trkpt lat="41.374457" lon="0.395480">
        <ele>320.00</ele>
        <time>2018-06-10T10:47:22Z</time>
      </trkpt>
      <trkpt lat="41.374435" lon="0.395440">
        <ele>320.00</ele>
        <time>2018-06-10T10:47:23Z</time>
      </trkpt>
      <trkpt lat="41.374413" lon="0.395397">
        <ele>320.00</ele>
        <time>2018-06-10T10:47:24Z</time>
      </trkpt>
      <trkpt lat="41.374376" lon="0.395328">
        <ele>320.00</ele>
        <time>2018-06-10T10:47:26Z</time>
      </trkpt>
      <trkpt lat="41.374352" lon="0.395268">
        <ele>320.00</ele>
        <time>2018-06-10T10:47:28Z</time>
      </trkpt>
      <trkpt lat="41.374330" lon="0.395195">
        <ele>320.00</ele>
        <time>2018-06-10T10:47:30Z</time>
      </trkpt>
      <trkpt lat="41.374305" lon="0.395122">
        <ele>320.00</ele>
        <time>2018-06-10T10:47:32Z</time>
      </trkpt>
      <trkpt lat="41.374281" lon="0.395047">
        <ele>320.00</ele>
        <time>2018-06-10T10:47:34Z</time>
      </trkpt>
      <trkpt lat="41.374258" lon="0.394971">
        <ele>320.00</ele>
        <time>2018-06-10T10:47:36Z</time>
      </trkpt>
      <trkpt lat="41.374229" lon="0.394897">
        <ele>320.00</ele>
        <time>2018-06-10T10:47:38Z</time>
      </trkpt>
      <trkpt lat="41.374201" lon="0.394815">
        <ele>320.00</ele>
        <time>2018-06-10T10:47:40Z</time>
      </trkpt>
      <trkpt lat="41.374165" lon="0.394736">
        <ele>320.00</ele>
        <time>2018-06-10T10:47:42Z</time>
      </trkpt>
      <trkpt lat="41.374103" lon="0.394705">
        <ele>320.00</ele>
        <time>2018-06-10T10:47:44Z</time>
      </trkpt>
      <trkpt lat="41.374060" lon="0.394697">
        <ele>320.00</ele>
        <time>2018-06-10T10:47:45Z</time>
      </trkpt>
      <trkpt lat="41.374013" lon="0.394693">
        <ele>320.00</ele>
        <time>2018-06-10T10:47:46Z</time>
      </trkpt>
      <trkpt lat="41.373965" lon="0.394691">
        <ele>320.00</ele>
        <time>2018-06-10T10:47:47Z</time>
      </trkpt>
      <trkpt lat="41.373917" lon="0.394698">
        <ele>320.00</ele>
        <time>2018-06-10T10:47:48Z</time>
      </trkpt>
      <trkpt lat="41.373873" lon="0.394703">
        <ele>320.00</ele>
        <time>2018-06-10T10:47:49Z</time>
      </trkpt>
      <trkpt lat="41.373814" lon="0.394705">
        <ele>320.00</ele>
        <time>2018-06-10T10:47:51Z</time>
      </trkpt>
      <trkpt lat="41.373771" lon="0.394729">
        <ele>320.00</ele>
        <time>2018-06-10T10:47:53Z</time>
      </trkpt>
      <trkpt lat="41.373724" lon="0.394762">
        <ele>320.00</ele>
        <time>2018-06-10T10:47:55Z</time>
      </trkpt>
      <trkpt lat="41.373664" lon="0.394797">
        <ele>320.00</ele>
        <time>2018-06-10T10:47:57Z</time>
      </trkpt>
      <trkpt lat="41.373606" lon="0.394839">
        <ele>320.00</ele>
        <time>2018-06-10T10:47:59Z</time>
      </trkpt>
      <trkpt lat="41.373541" lon="0.394884">
        <ele>320.00</ele>
        <time>2018-06-10T10:48:01Z</time>
      </trkpt>
      <trkpt lat="41.373506" lon="0.394904">
        <ele>320.00</ele>
        <time>2018-06-10T10:48:02Z</time>
      </trkpt>
      <trkpt lat="41.373469" lon="0.394923">
        <ele>320.00</ele>
        <time>2018-06-10T10:48:03Z</time>
      </trkpt>
      <trkpt lat="41.373432" lon="0.394939">
        <ele>320.00</ele>
        <time>2018-06-10T10:48:04Z</time>
      </trkpt>
      <trkpt lat="41.373369" lon="0.394971">
        <ele>320.00</ele>
        <time>2018-06-10T10:48:06Z</time>
      </trkpt>
      <trkpt lat="41.373314" lon="0.395003">
        <ele>320.00</ele>
        <time>2018-06-10T10:48:08Z</time>
      </trkpt>
      <trkpt lat="41.373257" lon="0.395028">
        <ele>319.93</ele>
        <time>2018-06-10T10:48:10Z</time>
      </trkpt>
      <trkpt lat="41.373198" lon="0.395048">
        <ele>319.72</ele>
        <time>2018-06-10T10:48:12Z</time>
      </trkpt>
      <trkpt lat="41.373138" lon="0.395069">
        <ele>319.52</ele>
        <time>2018-06-10T10:48:14Z</time>
      </trkpt>
      <trkpt lat="41.373077" lon="0.395082">
        <ele>319.32</ele>
        <time>2018-06-10T10:48:16Z</time>
      </trkpt>
      <trkpt lat="41.373029" lon="0.395095">
        <ele>319.12</ele>
        <time>2018-06-10T10:48:18Z</time>
      </trkpt>
      <trkpt lat="41.372983" lon="0.395131">
        <ele>319.00</ele>
        <time>2018-06-10T10:48:20Z</time>
      </trkpt>
      <trkpt lat="41.372920" lon="0.395146">
        <ele>319.00</ele>
        <time>2018-06-10T10:48:22Z</time>
      </trkpt>
      <trkpt lat="41.372859" lon="0.395142">
        <ele>319.00</ele>
        <time>2018-06-10T10:48:24Z</time>
      </trkpt>
      <trkpt lat="41.372803" lon="0.395143">
        <ele>319.00</ele>
        <time>2018-06-10T10:48:26Z</time>
      </trkpt>
      <trkpt lat="41.372650" lon="0.395214">
        <ele>319.00</ele>
        <time>2018-06-10T10:48:32Z</time>
      </trkpt>
      <trkpt lat="41.372260" lon="0.395518">
        <ele>319.00</ele>
        <time>2018-06-10T10:48:48Z</time>
      </trkpt>
      <trkpt lat="41.372229" lon="0.395554">
        <ele>318.98</ele>
        <time>2018-06-10T10:48:50Z</time>
      </trkpt>
      <trkpt lat="41.372183" lon="0.395603">
        <ele>318.77</ele>
        <time>2018-06-10T10:48:52Z</time>
      </trkpt>
      <trkpt lat="41.372155" lon="0.395649">
        <ele>318.56</ele>
        <time>2018-06-10T10:48:54Z</time>
      </trkpt>
      <trkpt lat="41.372156" lon="0.395710">
        <ele>318.25</ele>
        <time>2018-06-10T10:48:57Z</time>
      </trkpt>
      <trkpt lat="41.372152" lon="0.395760">
        <ele>318.04</ele>
        <time>2018-06-10T10:48:59Z</time>
      </trkpt>
      <trkpt lat="41.372131" lon="0.395806">
        <ele>317.50</ele>
        <time>2018-06-10T10:49:01Z</time>
      </trkpt>
      <trkpt lat="41.372117" lon="0.395886">
        <ele>316.89</ele>
        <time>2018-06-10T10:49:03Z</time>
      </trkpt>
      <trkpt lat="41.372082" lon="0.395923">
        <ele>316.27</ele>
        <time>2018-06-10T10:49:05Z</time>
      </trkpt>
      <trkpt lat="41.372037" lon="0.395954">
        <ele>315.65</ele>
        <time>2018-06-10T10:49:07Z</time>
      </trkpt>
      <trkpt lat="41.371998" lon="0.395981">
        <ele>315.04</ele>
        <time>2018-06-10T10:49:09Z</time>
      </trkpt>
      <trkpt lat="41.371955" lon="0.396013">
        <ele>314.81</ele>
        <time>2018-06-10T10:49:11Z</time>
      </trkpt>
      <trkpt lat="41.371915" lon="0.396041">
        <ele>314.62</ele>
        <time>2018-06-10T10:49:13Z</time>
      </trkpt>
      <trkpt lat="41.371865" lon="0.396083">
        <ele>314.42</ele>
        <time>2018-06-10T10:49:15Z</time>
      </trkpt>
      <trkpt lat="41.371809" lon="0.396109">
        <ele>314.22</ele>
        <time>2018-06-10T10:49:17Z</time>
      </trkpt>
      <trkpt lat="41.371750" lon="0.396120">
        <ele>314.02</ele>
        <time>2018-06-10T10:49:19Z</time>
      </trkpt>
      <trkpt lat="41.371687" lon="0.396149">
        <ele>314.00</ele>
        <time>2018-06-10T10:49:21Z</time>
      </trkpt>
      <trkpt lat="41.371652" lon="0.396172">
        <ele>314.00</ele>
        <time>2018-06-10T10:49:22Z</time>
      </trkpt>
      <trkpt lat="41.371621" lon="0.396201">
        <ele>314.00</ele>
        <time>2018-06-10T10:49:23Z</time>
      </trkpt>
      <trkpt lat="41.371590" lon="0.396226">
        <ele>314.00</ele>
        <time>2018-06-10T10:49:24Z</time>
      </trkpt>
      <trkpt lat="41.371530" lon="0.396258">
        <ele>314.00</ele>
        <time>2018-06-10T10:49:26Z</time>
      </trkpt>
      <trkpt lat="41.371480" lon="0.396274">
        <ele>314.00</ele>
        <time>2018-06-10T10:49:28Z</time>
      </trkpt>
      <trkpt lat="41.371438" lon="0.396284">
        <ele>314.00</ele>
        <time>2018-06-10T10:49:30Z</time>
      </trkpt>
      <trkpt lat="41.371389" lon="0.396298">
        <ele>314.00</ele>
        <time>2018-06-10T10:49:32Z</time>
      </trkpt>
      <trkpt lat="41.371335" lon="0.396295">
        <ele>314.00</ele>
        <time>2018-06-10T10:49:34Z</time>
      </trkpt>
      <trkpt lat="41.371291" lon="0.396265">
        <ele>314.00</ele>
        <time>2018-06-10T10:49:36Z</time>
      </trkpt>
      <trkpt lat="41.371255" lon="0.396227">
        <ele>314.00</ele>
        <time>2018-06-10T10:49:38Z</time>
      </trkpt>
      <trkpt lat="41.371186" lon="0.396208">
        <ele>313.92</ele>
        <time>2018-06-10T10:49:40Z</time>
      </trkpt>
      <trkpt lat="41.371152" lon="0.396186">
        <ele>313.82</ele>
        <time>2018-06-10T10:49:41Z</time>
      </trkpt>
      <trkpt lat="41.371112" lon="0.396111">
        <ele>313.63</ele>
        <time>2018-06-10T10:49:43Z</time>
      </trkpt>
      <trkpt lat="41.371098" lon="0.396036">
        <ele>313.43</ele>
        <time>2018-06-10T10:49:45Z</time>
      </trkpt>
      <trkpt lat="41.371096" lon="0.395965">
        <ele>313.23</ele>
        <time>2018-06-10T10:49:47Z</time>
      </trkpt>
      <trkpt lat="41.371091" lon="0.395916">
        <ele>313.00</ele>
        <time>2018-06-10T10:49:55Z</time>
      </trkpt>
      <trkpt lat="41.371082" lon="0.395869">
        <ele>313.00</ele>
        <time>2018-06-10T10:49:57Z</time>
      </trkpt>
      <trkpt lat="41.371053" lon="0.395828">
        <ele>313.00</ele>
        <time>2018-06-10T10:49:59Z</time>
      </trkpt>
      <trkpt lat="41.371007" lon="0.395803">
        <ele>312.64</ele>
        <time>2018-06-10T10:50:01Z</time>
      </trkpt>
      <trkpt lat="41.370989" lon="0.395752">
        <ele>312.25</ele>
        <time>2018-06-10T10:50:03Z</time>
      </trkpt>
      <trkpt lat="41.370988" lon="0.395682">
        <ele>311.85</ele>
        <time>2018-06-10T10:50:05Z</time>
      </trkpt>
      <trkpt lat="41.370978" lon="0.395607">
        <ele>311.46</ele>
        <time>2018-06-10T10:50:07Z</time>
      </trkpt>
      <trkpt lat="41.370972" lon="0.395542">
        <ele>311.06</ele>
        <time>2018-06-10T10:50:09Z</time>
      </trkpt>
      <trkpt lat="41.370977" lon="0.395497">
        <ele>309.00</ele>
        <time>2018-06-10T10:51:03Z</time>
      </trkpt>
      <trkpt lat="41.370977" lon="0.395435">
        <ele>309.00</ele>
        <time>2018-06-10T10:51:05Z</time>
      </trkpt>
      <trkpt lat="41.370962" lon="0.395359">
        <ele>309.00</ele>
        <time>2018-06-10T10:51:07Z</time>
      </trkpt>
      <trkpt lat="41.370947" lon="0.395282">
        <ele>309.00</ele>
        <time>2018-06-10T10:51:09Z</time>
      </trkpt>
      <trkpt lat="41.370942" lon="0.395210">
        <ele>309.00</ele>
        <time>2018-06-10T10:51:11Z</time>
      </trkpt>
      <trkpt lat="41.370935" lon="0.395136">
        <ele>309.00</ele>
        <time>2018-06-10T10:51:13Z</time>
      </trkpt>
      <trkpt lat="41.370932" lon="0.395069">
        <ele>309.00</ele>
        <time>2018-06-10T10:51:15Z</time>
      </trkpt>
      <trkpt lat="41.370924" lon="0.395020">
        <ele>309.00</ele>
        <time>2018-06-10T10:51:17Z</time>
      </trkpt>
      <trkpt lat="41.370914" lon="0.394951">
        <ele>309.00</ele>
        <time>2018-06-10T10:51:19Z</time>
      </trkpt>
      <trkpt lat="41.370904" lon="0.394872">
        <ele>309.00</ele>
        <time>2018-06-10T10:51:21Z</time>
      </trkpt>
      <trkpt lat="41.370898" lon="0.394790">
        <ele>309.00</ele>
        <time>2018-06-10T10:51:23Z</time>
      </trkpt>
      <trkpt lat="41.370883" lon="0.394720">
        <ele>309.00</ele>
        <time>2018-06-10T10:51:25Z</time>
      </trkpt>
      <trkpt lat="41.370878" lon="0.394650">
        <ele>309.00</ele>
        <time>2018-06-10T10:51:27Z</time>
      </trkpt>
      <trkpt lat="41.370885" lon="0.394594">
        <ele>309.00</ele>
        <time>2018-06-10T10:51:29Z</time>
      </trkpt>
      <trkpt lat="41.370890" lon="0.394540">
        <ele>309.18</ele>
        <time>2018-06-10T10:51:31Z</time>
      </trkpt>
      <trkpt lat="41.370899" lon="0.394489">
        <ele>309.37</ele>
        <time>2018-06-10T10:51:33Z</time>
      </trkpt>
      <trkpt lat="41.370910" lon="0.394443">
        <ele>309.57</ele>
        <time>2018-06-10T10:51:35Z</time>
      </trkpt>
      <trkpt lat="41.370915" lon="0.394393">
        <ele>309.76</ele>
        <time>2018-06-10T10:51:37Z</time>
      </trkpt>
      <trkpt lat="41.370912" lon="0.394328">
        <ele>309.96</ele>
        <time>2018-06-10T10:51:39Z</time>
      </trkpt>
      <trkpt lat="41.370908" lon="0.394249">
        <ele>310.16</ele>
        <time>2018-06-10T10:51:41Z</time>
      </trkpt>
      <trkpt lat="41.370909" lon="0.394169">
        <ele>310.36</ele>
        <time>2018-06-10T10:51:43Z</time>
      </trkpt>
      <trkpt lat="41.370930" lon="0.394118">
        <ele>310.56</ele>
        <time>2018-06-10T10:51:45Z</time>
      </trkpt>
      <trkpt lat="41.370949" lon="0.394069">
        <ele>310.77</ele>
        <time>2018-06-10T10:51:47Z</time>
      </trkpt>
      <trkpt lat="41.370964" lon="0.394009">
        <ele>310.97</ele>
        <time>2018-06-10T10:51:49Z</time>
      </trkpt>
      <trkpt lat="41.370970" lon="0.393939">
        <ele>310.65</ele>
        <time>2018-06-10T10:51:51Z</time>
      </trkpt>
      <trkpt lat="41.370993" lon="0.393874">
        <ele>310.25</ele>
        <time>2018-06-10T10:51:53Z</time>
      </trkpt>
      <trkpt lat="41.371026" lon="0.393828">
        <ele>309.84</ele>
        <time>2018-06-10T10:51:55Z</time>
      </trkpt>
      <trkpt lat="41.371068" lon="0.393820">
        <ele>309.44</ele>
        <time>2018-06-10T10:51:57Z</time>
      </trkpt>
      <trkpt lat="41.371115" lon="0.393777">
        <ele>308.84</ele>
        <time>2018-06-10T10:52:00Z</time>
      </trkpt>
      <trkpt lat="41.371155" lon="0.393729">
        <ele>308.46</ele>
        <time>2018-06-10T10:52:02Z</time>
      </trkpt>
      <trkpt lat="41.371196" lon="0.393668">
        <ele>308.07</ele>
        <time>2018-06-10T10:52:04Z</time>
      </trkpt>
      <trkpt lat="41.371221" lon="0.393634">
        <ele>307.50</ele>
        <time>2018-06-10T10:52:07Z</time>
      </trkpt>
      <trkpt lat="41.371198" lon="0.393585">
        <ele>306.34</ele>
        <time>2018-06-10T10:52:16Z</time>
      </trkpt>
      <trkpt lat="41.371211" lon="0.393527">
        <ele>305.47</ele>
        <time>2018-06-10T10:52:21Z</time>
      </trkpt>
      <trkpt lat="41.371232" lon="0.393474">
        <ele>304.25</ele>
        <time>2018-06-10T10:52:25Z</time>
      </trkpt>
      <trkpt lat="41.371249" lon="0.393430">
        <ele>303.34</ele>
        <time>2018-06-10T10:52:28Z</time>
      </trkpt>
      <trkpt lat="41.371241" lon="0.393376">
        <ele>301.56</ele>
        <time>2018-06-10T10:52:34Z</time>
      </trkpt>
      <trkpt lat="41.371210" lon="0.393331">
        <ele>300.09</ele>
        <time>2018-06-10T10:52:39Z</time>
      </trkpt>
      <trkpt lat="41.371185" lon="0.393296">
        <ele>298.87</ele>
        <time>2018-06-10T10:52:43Z</time>
      </trkpt>
      <trkpt lat="41.371182" lon="0.393250">
        <ele>296.03</ele>
        <time>2018-06-10T10:52:54Z</time>
      </trkpt>
      <trkpt lat="41.371181" lon="0.393204">
        <ele>294.83</ele>
        <time>2018-06-10T10:53:00Z</time>
      </trkpt>
      <trkpt lat="41.371181" lon="0.393145">
        <ele>294.03</ele>
        <time>2018-06-10T10:53:04Z</time>
      </trkpt>
      <trkpt lat="41.371188" lon="0.393095">
        <ele>293.43</ele>
        <time>2018-06-10T10:53:07Z</time>
      </trkpt>
      <trkpt lat="41.371210" lon="0.393043">
        <ele>289.82</ele>
        <time>2018-06-10T10:53:51Z</time>
      </trkpt>
      <trkpt lat="41.371232" lon="0.392988">
        <ele>289.62</ele>
        <time>2018-06-10T10:53:53Z</time>
      </trkpt>
      <trkpt lat="41.371240" lon="0.392930">
        <ele>289.42</ele>
        <time>2018-06-10T10:53:55Z</time>
      </trkpt>
      <trkpt lat="41.371236" lon="0.392877">
        <ele>289.23</ele>
        <time>2018-06-10T10:53:57Z</time>
      </trkpt>
      <trkpt lat="41.371237" lon="0.392825">
        <ele>289.03</ele>
        <time>2018-06-10T10:53:59Z</time>
      </trkpt>
      <trkpt lat="41.371268" lon="0.392750">
        <ele>288.15</ele>
        <time>2018-06-10T10:54:01Z</time>
      </trkpt>
      <trkpt lat="41.371295" lon="0.392662">
        <ele>287.15</ele>
        <time>2018-06-10T10:54:03Z</time>
      </trkpt>
      <trkpt lat="41.371313" lon="0.392618">
        <ele>286.65</ele>
        <time>2018-06-10T10:54:04Z</time>
      </trkpt>
      <trkpt lat="41.371342" lon="0.392590">
        <ele>286.15</ele>
        <time>2018-06-10T10:54:05Z</time>
      </trkpt>
      <trkpt lat="41.371377" lon="0.392578">
        <ele>285.65</ele>
        <time>2018-06-10T10:54:06Z</time>
      </trkpt>
      <trkpt lat="41.371437" lon="0.392580">
        <ele>284.65</ele>
        <time>2018-06-10T10:54:08Z</time>
      </trkpt>
      <trkpt lat="41.371475" lon="0.392584">
        <ele>284.00</ele>
        <time>2018-06-10T10:54:10Z</time>
      </trkpt>
      <trkpt lat="41.371513" lon="0.392561">
        <ele>284.00</ele>
        <time>2018-06-10T10:54:13Z</time>
      </trkpt>
      <trkpt lat="41.371547" lon="0.392513">
        <ele>284.00</ele>
        <time>2018-06-10T10:54:16Z</time>
      </trkpt>
      <trkpt lat="41.371585" lon="0.392496">
        <ele>284.00</ele>
        <time>2018-06-10T10:54:19Z</time>
      </trkpt>
      <trkpt lat="41.371628" lon="0.392480">
        <ele>284.00</ele>
        <time>2018-06-10T10:54:22Z</time>
      </trkpt>
      <trkpt lat="41.371671" lon="0.392454">
        <ele>284.00</ele>
        <time>2018-06-10T10:54:26Z</time>
      </trkpt>
      <trkpt lat="41.371721" lon="0.392430">
        <ele>284.00</ele>
        <time>2018-06-10T10:54:29Z</time>
      </trkpt>
      <trkpt lat="41.371756" lon="0.392414">
        <ele>284.00</ele>
        <time>2018-06-10T10:54:31Z</time>
      </trkpt>
      <trkpt lat="41.371793" lon="0.392402">
        <ele>284.00</ele>
        <time>2018-06-10T10:54:33Z</time>
      </trkpt>
      <trkpt lat="41.371831" lon="0.392396">
        <ele>284.00</ele>
        <time>2018-06-10T10:54:35Z</time>
      </trkpt>
      <trkpt lat="41.371881" lon="0.392394">
        <ele>284.00</ele>
        <time>2018-06-10T10:54:38Z</time>
      </trkpt>
      <trkpt lat="41.371923" lon="0.392377">
        <ele>284.17</ele>
        <time>2018-06-10T10:54:41Z</time>
      </trkpt>
      <trkpt lat="41.371956" lon="0.392344">
        <ele>284.38</ele>
        <time>2018-06-10T10:54:43Z</time>
      </trkpt>
      <trkpt lat="41.371988" lon="0.392322">
        <ele>284.58</ele>
        <time>2018-06-10T10:54:45Z</time>
      </trkpt>
      <trkpt lat="41.372024" lon="0.392305">
        <ele>284.78</ele>
        <time>2018-06-10T10:54:47Z</time>
      </trkpt>
      <trkpt lat="41.372063" lon="0.392280">
        <ele>284.99</ele>
        <time>2018-06-10T10:54:49Z</time>
      </trkpt>
      <trkpt lat="41.372103" lon="0.392256">
        <ele>285.00</ele>
        <time>2018-06-10T10:54:51Z</time>
      </trkpt>
      <trkpt lat="41.372144" lon="0.392236">
        <ele>285.00</ele>
        <time>2018-06-10T10:54:53Z</time>
      </trkpt>
      <trkpt lat="41.372181" lon="0.392221">
        <ele>285.00</ele>
        <time>2018-06-10T10:54:55Z</time>
      </trkpt>
      <trkpt lat="41.372221" lon="0.392206">
        <ele>285.00</ele>
        <time>2018-06-10T10:54:57Z</time>
      </trkpt>
      <trkpt lat="41.372261" lon="0.392196">
        <ele>285.00</ele>
        <time>2018-06-10T10:54:59Z</time>
      </trkpt>
      <trkpt lat="41.372303" lon="0.392180">
        <ele>285.17</ele>
        <time>2018-06-10T10:55:01Z</time>
      </trkpt>
      <trkpt lat="41.372342" lon="0.392156">
        <ele>285.37</ele>
        <time>2018-06-10T10:55:03Z</time>
      </trkpt>
      <trkpt lat="41.372379" lon="0.392127">
        <ele>285.57</ele>
        <time>2018-06-10T10:55:05Z</time>
      </trkpt>
      <trkpt lat="41.372414" lon="0.392090">
        <ele>285.77</ele>
        <time>2018-06-10T10:55:07Z</time>
      </trkpt>
      <trkpt lat="41.372449" lon="0.392054">
        <ele>285.97</ele>
        <time>2018-06-10T10:55:09Z</time>
      </trkpt>
      <trkpt lat="41.372480" lon="0.392016">
        <ele>286.17</ele>
        <time>2018-06-10T10:55:11Z</time>
      </trkpt>
      <trkpt lat="41.372504" lon="0.391979">
        <ele>286.36</ele>
        <time>2018-06-10T10:55:13Z</time>
      </trkpt>
      <trkpt lat="41.372528" lon="0.391939">
        <ele>286.55</ele>
        <time>2018-06-10T10:55:15Z</time>
      </trkpt>
      <trkpt lat="41.372562" lon="0.391915">
        <ele>286.74</ele>
        <time>2018-06-10T10:55:17Z</time>
      </trkpt>
      <trkpt lat="41.372596" lon="0.391898">
        <ele>286.93</ele>
        <time>2018-06-10T10:55:19Z</time>
      </trkpt>
      <trkpt lat="41.372632" lon="0.391846">
        <ele>287.47</ele>
        <time>2018-06-10T10:55:22Z</time>
      </trkpt>
      <trkpt lat="41.372651" lon="0.391798">
        <ele>287.89</ele>
        <time>2018-06-10T10:55:24Z</time>
      </trkpt>
      <trkpt lat="41.372680" lon="0.391751">
        <ele>288.30</ele>
        <time>2018-06-10T10:55:26Z</time>
      </trkpt>
      <trkpt lat="41.372713" lon="0.391713">
        <ele>288.63</ele>
        <time>2018-06-10T10:55:33Z</time>
      </trkpt>
      <trkpt lat="41.372755" lon="0.391677">
        <ele>288.23</ele>
        <time>2018-06-10T10:55:37Z</time>
      </trkpt>
      <trkpt lat="41.372788" lon="0.391653">
        <ele>288.03</ele>
        <time>2018-06-10T10:55:39Z</time>
      </trkpt>
      <trkpt lat="41.372835" lon="0.391628">
        <ele>288.28</ele>
        <time>2018-06-10T10:55:42Z</time>
      </trkpt>
      <trkpt lat="41.372866" lon="0.391575">
        <ele>288.58</ele>
        <time>2018-06-10T10:55:45Z</time>
      </trkpt>
      <trkpt lat="41.372886" lon="0.391531">
        <ele>288.78</ele>
        <time>2018-06-10T10:55:47Z</time>
      </trkpt>
      <trkpt lat="41.372913" lon="0.391496">
        <ele>288.99</ele>
        <time>2018-06-10T10:55:49Z</time>
      </trkpt>
      <trkpt lat="41.372955" lon="0.391469">
        <ele>289.57</ele>
        <time>2018-06-10T10:55:52Z</time>
      </trkpt>
      <trkpt lat="41.372988" lon="0.391460">
        <ele>292.00</ele>
        <time>2018-06-10T10:56:10Z</time>
      </trkpt>
      <trkpt lat="41.373021" lon="0.391410">
        <ele>292.00</ele>
        <time>2018-06-10T10:56:14Z</time>
      </trkpt>
      <trkpt lat="41.373039" lon="0.391364">
        <ele>292.00</ele>
        <time>2018-06-10T10:56:16Z</time>
      </trkpt>
      <trkpt lat="41.373060" lon="0.391318">
        <ele>292.00</ele>
        <time>2018-06-10T10:56:18Z</time>
      </trkpt>
      <trkpt lat="41.373081" lon="0.391276">
        <ele>291.92</ele>
        <time>2018-06-10T10:56:20Z</time>
      </trkpt>
      <trkpt lat="41.373104" lon="0.391234">
        <ele>291.72</ele>
        <time>2018-06-10T10:56:22Z</time>
      </trkpt>
      <trkpt lat="41.373131" lon="0.391194">
        <ele>291.52</ele>
        <time>2018-06-10T10:56:24Z</time>
      </trkpt>
      <trkpt lat="41.373160" lon="0.391162">
        <ele>291.32</ele>
        <time>2018-06-10T10:56:26Z</time>
      </trkpt>
      <trkpt lat="41.373200" lon="0.391136">
        <ele>291.02</ele>
        <time>2018-06-10T10:56:29Z</time>
      </trkpt>
      <trkpt lat="41.373237" lon="0.391128">
        <ele>291.18</ele>
        <time>2018-06-10T10:56:31Z</time>
      </trkpt>
      <trkpt lat="41.373281" lon="0.391106">
        <ele>291.48</ele>
        <time>2018-06-10T10:56:34Z</time>
      </trkpt>
      <trkpt lat="41.373311" lon="0.391058">
        <ele>291.78</ele>
        <time>2018-06-10T10:56:37Z</time>
      </trkpt>
      <trkpt lat="41.373340" lon="0.391004">
        <ele>292.08</ele>
        <time>2018-06-10T10:56:40Z</time>
      </trkpt>
      <trkpt lat="41.373386" lon="0.390974">
        <ele>292.38</ele>
        <time>2018-06-10T10:56:43Z</time>
      </trkpt>
      <trkpt lat="41.373433" lon="0.390972">
        <ele>292.68</ele>
        <time>2018-06-10T10:56:46Z</time>
      </trkpt>
      <trkpt lat="41.373488" lon="0.390972">
        <ele>292.97</ele>
        <time>2018-06-10T10:56:49Z</time>
      </trkpt>
      <trkpt lat="41.373527" lon="0.390978">
        <ele>293.17</ele>
        <time>2018-06-10T10:56:51Z</time>
      </trkpt>
      <trkpt lat="41.373570" lon="0.390986">
        <ele>293.37</ele>
        <time>2018-06-10T10:56:53Z</time>
      </trkpt>
      <trkpt lat="41.373614" lon="0.391000">
        <ele>293.57</ele>
        <time>2018-06-10T10:56:55Z</time>
      </trkpt>
      <trkpt lat="41.373656" lon="0.391010">
        <ele>293.77</ele>
        <time>2018-06-10T10:56:57Z</time>
      </trkpt>
      <trkpt lat="41.373692" lon="0.391026">
        <ele>293.97</ele>
        <time>2018-06-10T10:56:59Z</time>
      </trkpt>
      <trkpt lat="41.373730" lon="0.391042">
        <ele>294.00</ele>
        <time>2018-06-10T10:57:01Z</time>
      </trkpt>
      <trkpt lat="41.373772" lon="0.391056">
        <ele>294.00</ele>
        <time>2018-06-10T10:57:03Z</time>
      </trkpt>
      <trkpt lat="41.373816" lon="0.391065">
        <ele>294.00</ele>
        <time>2018-06-10T10:57:05Z</time>
      </trkpt>
      <trkpt lat="41.373858" lon="0.391073">
        <ele>294.00</ele>
        <time>2018-06-10T10:57:07Z</time>
      </trkpt>
      <trkpt lat="41.373903" lon="0.391075">
        <ele>294.00</ele>
        <time>2018-06-10T10:57:09Z</time>
      </trkpt>
      <trkpt lat="41.373945" lon="0.391080">
        <ele>294.00</ele>
        <time>2018-06-10T10:57:11Z</time>
      </trkpt>
      <trkpt lat="41.373987" lon="0.391081">
        <ele>294.00</ele>
        <time>2018-06-10T10:57:13Z</time>
      </trkpt>
      <trkpt lat="41.374030" lon="0.391077">
        <ele>294.00</ele>
        <time>2018-06-10T10:57:15Z</time>
      </trkpt>
      <trkpt lat="41.374072" lon="0.391072">
        <ele>294.00</ele>
        <time>2018-06-10T10:57:17Z</time>
      </trkpt>
      <trkpt lat="41.374112" lon="0.391068">
        <ele>294.00</ele>
        <time>2018-06-10T10:57:19Z</time>
      </trkpt>
      <trkpt lat="41.374160" lon="0.391066">
        <ele>294.55</ele>
        <time>2018-06-10T10:57:22Z</time>
      </trkpt>
      <trkpt lat="41.374193" lon="0.391064">
        <ele>294.95</ele>
        <time>2018-06-10T10:57:24Z</time>
      </trkpt>
      <trkpt lat="41.374235" lon="0.391063">
        <ele>295.34</ele>
        <time>2018-06-10T10:57:26Z</time>
      </trkpt>
      <trkpt lat="41.374279" lon="0.391059">
        <ele>295.74</ele>
        <time>2018-06-10T10:57:28Z</time>
      </trkpt>
      <trkpt lat="41.374321" lon="0.391054">
        <ele>296.07</ele>
        <time>2018-06-10T10:57:30Z</time>
      </trkpt>
      <trkpt lat="41.374362" lon="0.391050">
        <ele>296.28</ele>
        <time>2018-06-10T10:57:32Z</time>
      </trkpt>
      <trkpt lat="41.374402" lon="0.391045">
        <ele>296.48</ele>
        <time>2018-06-10T10:57:34Z</time>
      </trkpt>
      <trkpt lat="41.374441" lon="0.391042">
        <ele>296.68</ele>
        <time>2018-06-10T10:57:36Z</time>
      </trkpt>
      <trkpt lat="41.374478" lon="0.391036">
        <ele>296.89</ele>
        <time>2018-06-10T10:57:38Z</time>
      </trkpt>
      <trkpt lat="41.374515" lon="0.391030">
        <ele>297.09</ele>
        <time>2018-06-10T10:57:40Z</time>
      </trkpt>
      <trkpt lat="41.374554" lon="0.391021">
        <ele>297.28</ele>
        <time>2018-06-10T10:57:42Z</time>
      </trkpt>
      <trkpt lat="41.374595" lon="0.391016">
        <ele>297.48</ele>
        <time>2018-06-10T10:57:44Z</time>
      </trkpt>
      <trkpt lat="41.374639" lon="0.391010">
        <ele>297.68</ele>
        <time>2018-06-10T10:57:46Z</time>
      </trkpt>
      <trkpt lat="41.374686" lon="0.391002">
        <ele>297.87</ele>
        <time>2018-06-10T10:57:48Z</time>
      </trkpt>
      <trkpt lat="41.374732" lon="0.390996">
        <ele>298.00</ele>
        <time>2018-06-10T10:57:50Z</time>
      </trkpt>
      <trkpt lat="41.374772" lon="0.390992">
        <ele>298.00</ele>
        <time>2018-06-10T10:57:52Z</time>
      </trkpt>
      <trkpt lat="41.374861" lon="0.390987">
        <ele>299.32</ele>
        <time>2018-06-10T10:57:57Z</time>
      </trkpt>
      <trkpt lat="41.375134" lon="0.391071">
        <ele>301.00</ele>
        <time>2018-06-10T10:58:11Z</time>
      </trkpt>
      <trkpt lat="41.375175" lon="0.391070">
        <ele>301.00</ele>
        <time>2018-06-10T10:58:13Z</time>
      </trkpt>
      <trkpt lat="41.375213" lon="0.391066">
        <ele>301.00</ele>
        <time>2018-06-10T10:58:15Z</time>
      </trkpt>
      <trkpt lat="41.375261" lon="0.391083">
        <ele>301.00</ele>
        <time>2018-06-10T10:58:18Z</time>
      </trkpt>
      <trkpt lat="41.375296" lon="0.391095">
        <ele>301.14</ele>
        <time>2018-06-10T10:58:20Z</time>
      </trkpt>
      <trkpt lat="41.375334" lon="0.391098">
        <ele>301.53</ele>
        <time>2018-06-10T10:58:22Z</time>
      </trkpt>
      <trkpt lat="41.375372" lon="0.391102">
        <ele>301.93</ele>
        <time>2018-06-10T10:58:24Z</time>
      </trkpt>
      <trkpt lat="41.375419" lon="0.391120">
        <ele>302.52</ele>
        <time>2018-06-10T10:58:27Z</time>
      </trkpt>
      <trkpt lat="41.375450" lon="0.391151">
        <ele>302.92</ele>
        <time>2018-06-10T10:58:29Z</time>
      </trkpt>
      <trkpt lat="41.375486" lon="0.391192">
        <ele>303.16</ele>
        <time>2018-06-10T10:58:31Z</time>
      </trkpt>
      <trkpt lat="41.375526" lon="0.391226">
        <ele>303.37</ele>
        <time>2018-06-10T10:58:33Z</time>
      </trkpt>
      <trkpt lat="41.375567" lon="0.391241">
        <ele>303.57</ele>
        <time>2018-06-10T10:58:35Z</time>
      </trkpt>
      <trkpt lat="41.375609" lon="0.391248">
        <ele>303.78</ele>
        <time>2018-06-10T10:58:37Z</time>
      </trkpt>
      <trkpt lat="41.375649" lon="0.391259">
        <ele>303.98</ele>
        <time>2018-06-10T10:58:39Z</time>
      </trkpt>
      <trkpt lat="41.375686" lon="0.391295">
        <ele>304.29</ele>
        <time>2018-06-10T10:58:42Z</time>
      </trkpt>
      <trkpt lat="41.375714" lon="0.391331">
        <ele>304.49</ele>
        <time>2018-06-10T10:58:44Z</time>
      </trkpt>
      <trkpt lat="41.375754" lon="0.391336">
        <ele>304.69</ele>
        <time>2018-06-10T10:58:46Z</time>
      </trkpt>
      <trkpt lat="41.375795" lon="0.391330">
        <ele>304.89</ele>
        <time>2018-06-10T10:58:48Z</time>
      </trkpt>
      <trkpt lat="41.375836" lon="0.391329">
        <ele>305.09</ele>
        <time>2018-06-10T10:58:50Z</time>
      </trkpt>
      <trkpt lat="41.375877" lon="0.391332">
        <ele>305.29</ele>
        <time>2018-06-10T10:58:52Z</time>
      </trkpt>
      <trkpt lat="41.375925" lon="0.391336">
        <ele>305.59</ele>
        <time>2018-06-10T10:58:55Z</time>
      </trkpt>
      <trkpt lat="41.375979" lon="0.391340">
        <ele>305.89</ele>
        <time>2018-06-10T10:58:58Z</time>
      </trkpt>
      <trkpt lat="41.376018" lon="0.391337">
        <ele>306.17</ele>
        <time>2018-06-10T10:59:00Z</time>
      </trkpt>
      <trkpt lat="41.376058" lon="0.391336">
        <ele>306.57</ele>
        <time>2018-06-10T10:59:02Z</time>
      </trkpt>
      <trkpt lat="41.376100" lon="0.391331">
        <ele>306.97</ele>
        <time>2018-06-10T10:59:04Z</time>
      </trkpt>
      <trkpt lat="41.376137" lon="0.391322">
        <ele>307.37</ele>
        <time>2018-06-10T10:59:06Z</time>
      </trkpt>
      <trkpt lat="41.376174" lon="0.391319">
        <ele>307.76</ele>
        <time>2018-06-10T10:59:08Z</time>
      </trkpt>
      <trkpt lat="41.376212" lon="0.391334">
        <ele>308.00</ele>
        <time>2018-06-10T10:59:10Z</time>
      </trkpt>
      <trkpt lat="41.376248" lon="0.391339">
        <ele>308.00</ele>
        <time>2018-06-10T10:59:26Z</time>
      </trkpt>
      <trkpt lat="41.376294" lon="0.391356">
        <ele>308.36</ele>
        <time>2018-06-10T10:59:31Z</time>
      </trkpt>
      <trkpt lat="41.376340" lon="0.391360">
        <ele>308.97</ele>
        <time>2018-06-10T10:59:34Z</time>
      </trkpt>
      <trkpt lat="41.376388" lon="0.391357">
        <ele>309.57</ele>
        <time>2018-06-10T10:59:37Z</time>
      </trkpt>
      <trkpt lat="41.376427" lon="0.391368">
        <ele>310.00</ele>
        <time>2018-06-10T10:59:40Z</time>
      </trkpt>
      <trkpt lat="41.376457" lon="0.391407">
        <ele>310.00</ele>
        <time>2018-06-10T10:59:43Z</time>
      </trkpt>
      <trkpt lat="41.376491" lon="0.391457">
        <ele>310.00</ele>
        <time>2018-06-10T10:59:46Z</time>
      </trkpt>
      <trkpt lat="41.376539" lon="0.391469">
        <ele>310.00</ele>
        <time>2018-06-10T10:59:49Z</time>
      </trkpt>
      <trkpt lat="41.376586" lon="0.391466">
        <ele>310.28</ele>
        <time>2018-06-10T10:59:52Z</time>
      </trkpt>
      <trkpt lat="41.376627" lon="0.391480">
        <ele>310.58</ele>
        <time>2018-06-10T10:59:55Z</time>
      </trkpt>
      <trkpt lat="41.376665" lon="0.391504">
        <ele>310.88</ele>
        <time>2018-06-10T10:59:58Z</time>
      </trkpt>
      <trkpt lat="41.376715" lon="0.391526">
        <ele>311.37</ele>
        <time>2018-06-10T11:00:01Z</time>
      </trkpt>
      <trkpt lat="41.376752" lon="0.391546">
        <ele>311.77</ele>
        <time>2018-06-10T11:00:03Z</time>
      </trkpt>
      <trkpt lat="41.376784" lon="0.391568">
        <ele>312.17</ele>
        <time>2018-06-10T11:00:05Z</time>
      </trkpt>
      <trkpt lat="41.376824" lon="0.391603">
        <ele>312.77</ele>
        <time>2018-06-10T11:00:08Z</time>
      </trkpt>
      <trkpt lat="41.376869" lon="0.391612">
        <ele>313.18</ele>
        <time>2018-06-10T11:00:11Z</time>
      </trkpt>
      <trkpt lat="41.376917" lon="0.391617">
        <ele>313.48</ele>
        <time>2018-06-10T11:00:14Z</time>
      </trkpt>
      <trkpt lat="41.376958" lon="0.391639">
        <ele>313.78</ele>
        <time>2018-06-10T11:00:17Z</time>
      </trkpt>
      <trkpt lat="41.376986" lon="0.391686">
        <ele>314.15</ele>
        <time>2018-06-10T11:00:20Z</time>
      </trkpt>
      <trkpt lat="41.376998" lon="0.391732">
        <ele>314.55</ele>
        <time>2018-06-10T11:00:22Z</time>
      </trkpt>
      <trkpt lat="41.377013" lon="0.391777">
        <ele>314.95</ele>
        <time>2018-06-10T11:00:24Z</time>
      </trkpt>
      <trkpt lat="41.377032" lon="0.391820">
        <ele>315.35</ele>
        <time>2018-06-10T11:00:26Z</time>
      </trkpt>
      <trkpt lat="41.377056" lon="0.391858">
        <ele>315.75</ele>
        <time>2018-06-10T11:00:28Z</time>
      </trkpt>
      <trkpt lat="41.377093" lon="0.391896">
        <ele>316.00</ele>
        <time>2018-06-10T11:00:31Z</time>
      </trkpt>
      <trkpt lat="41.377138" lon="0.391916">
        <ele>316.00</ele>
        <time>2018-06-10T11:00:34Z</time>
      </trkpt>
      <trkpt lat="41.377184" lon="0.391944">
        <ele>316.00</ele>
        <time>2018-06-10T11:00:37Z</time>
      </trkpt>
      <trkpt lat="41.377226" lon="0.391975">
        <ele>316.16</ele>
        <time>2018-06-10T11:00:40Z</time>
      </trkpt>
      <trkpt lat="41.377269" lon="0.391990">
        <ele>316.76</ele>
        <time>2018-06-10T11:00:43Z</time>
      </trkpt>
      <trkpt lat="41.377309" lon="0.391989">
        <ele>317.36</ele>
        <time>2018-06-10T11:00:46Z</time>
      </trkpt>
      <trkpt lat="41.377350" lon="0.391975">
        <ele>317.96</ele>
        <time>2018-06-10T11:00:49Z</time>
      </trkpt>
      <trkpt lat="41.377398" lon="0.391969">
        <ele>318.56</ele>
        <time>2018-06-10T11:00:52Z</time>
      </trkpt>
      <trkpt lat="41.377439" lon="0.391984">
        <ele>319.15</ele>
        <time>2018-06-10T11:00:55Z</time>
      </trkpt>
      <trkpt lat="41.377486" lon="0.391984">
        <ele>320.35</ele>
        <time>2018-06-10T11:01:11Z</time>
      </trkpt>
      <trkpt lat="41.377537" lon="0.391992">
        <ele>320.95</ele>
        <time>2018-06-10T11:01:14Z</time>
      </trkpt>
      <trkpt lat="41.377570" lon="0.391999">
        <ele>321.35</ele>
        <time>2018-06-10T11:01:16Z</time>
      </trkpt>
      <trkpt lat="41.377608" lon="0.392000">
        <ele>321.76</ele>
        <time>2018-06-10T11:01:18Z</time>
      </trkpt>
      <trkpt lat="41.377656" lon="0.392001">
        <ele>322.18</ele>
        <time>2018-06-10T11:01:21Z</time>
      </trkpt>
      <trkpt lat="41.377708" lon="0.391998">
        <ele>322.47</ele>
        <time>2018-06-10T11:01:24Z</time>
      </trkpt>
      <trkpt lat="41.377746" lon="0.392003">
        <ele>322.67</ele>
        <time>2018-06-10T11:01:26Z</time>
      </trkpt>
      <trkpt lat="41.377783" lon="0.392010">
        <ele>322.87</ele>
        <time>2018-06-10T11:01:28Z</time>
      </trkpt>
      <trkpt lat="41.377834" lon="0.392018">
        <ele>323.16</ele>
        <time>2018-06-10T11:01:31Z</time>
      </trkpt>
      <trkpt lat="41.377869" lon="0.392035">
        <ele>323.36</ele>
        <time>2018-06-10T11:01:33Z</time>
      </trkpt>
      <trkpt lat="41.377906" lon="0.392052">
        <ele>323.56</ele>
        <time>2018-06-10T11:01:35Z</time>
      </trkpt>
      <trkpt lat="41.377943" lon="0.392055">
        <ele>323.76</ele>
        <time>2018-06-10T11:01:37Z</time>
      </trkpt>
      <trkpt lat="41.377989" lon="0.392054">
        <ele>324.12</ele>
        <time>2018-06-10T11:01:40Z</time>
      </trkpt>
      <trkpt lat="41.378030" lon="0.392078">
        <ele>324.74</ele>
        <time>2018-06-10T11:01:43Z</time>
      </trkpt>
      <trkpt lat="41.378066" lon="0.392086">
        <ele>325.15</ele>
        <time>2018-06-10T11:01:45Z</time>
      </trkpt>
      <trkpt lat="41.378101" lon="0.392095">
        <ele>325.56</ele>
        <time>2018-06-10T11:01:47Z</time>
      </trkpt>
      <trkpt lat="41.378152" lon="0.392114">
        <ele>326.08</ele>
        <time>2018-06-10T11:01:50Z</time>
      </trkpt>
      <trkpt lat="41.378199" lon="0.392125">
        <ele>326.38</ele>
        <time>2018-06-10T11:01:53Z</time>
      </trkpt>
      <trkpt lat="41.378238" lon="0.392117">
        <ele>326.67</ele>
        <time>2018-06-10T11:01:56Z</time>
      </trkpt>
      <trkpt lat="41.378272" lon="0.392137">
        <ele>327.37</ele>
        <time>2018-06-10T11:02:03Z</time>
      </trkpt>
      <trkpt lat="41.378313" lon="0.392149">
        <ele>327.88</ele>
        <time>2018-06-10T11:02:08Z</time>
      </trkpt>
      <trkpt lat="41.378353" lon="0.392122">
        <ele>328.28</ele>
        <time>2018-06-10T11:02:12Z</time>
      </trkpt>
      <trkpt lat="41.378385" lon="0.392136">
        <ele>328.68</ele>
        <time>2018-06-10T11:02:16Z</time>
      </trkpt>
      <trkpt lat="41.378431" lon="0.392145">
        <ele>329.78</ele>
        <time>2018-06-10T11:02:27Z</time>
      </trkpt>
      <trkpt lat="41.378469" lon="0.392132">
        <ele>330.08</ele>
        <time>2018-06-10T11:02:30Z</time>
      </trkpt>
      <trkpt lat="41.378510" lon="0.392131">
        <ele>330.78</ele>
        <time>2018-06-10T11:02:37Z</time>
      </trkpt>
      <trkpt lat="41.378550" lon="0.392141">
        <ele>331.08</ele>
        <time>2018-06-10T11:02:40Z</time>
      </trkpt>
      <trkpt lat="41.378584" lon="0.392175">
        <ele>331.48</ele>
        <time>2018-06-10T11:02:44Z</time>
      </trkpt>
      <trkpt lat="41.378621" lon="0.392227">
        <ele>331.78</ele>
        <time>2018-06-10T11:02:47Z</time>
      </trkpt>
      <trkpt lat="41.378651" lon="0.392276">
        <ele>332.15</ele>
        <time>2018-06-10T11:02:50Z</time>
      </trkpt>
      <trkpt lat="41.378689" lon="0.392284">
        <ele>332.75</ele>
        <time>2018-06-10T11:02:53Z</time>
      </trkpt>
      <trkpt lat="41.378731" lon="0.392258">
        <ele>333.34</ele>
        <time>2018-06-10T11:02:56Z</time>
      </trkpt>
      <trkpt lat="41.378769" lon="0.392247">
        <ele>333.74</ele>
        <time>2018-06-10T11:02:58Z</time>
      </trkpt>
      <trkpt lat="41.378806" lon="0.392246">
        <ele>334.00</ele>
        <time>2018-06-10T11:03:00Z</time>
      </trkpt>
      <trkpt lat="41.378858" lon="0.392262">
        <ele>334.00</ele>
        <time>2018-06-10T11:03:03Z</time>
      </trkpt>
      <trkpt lat="41.378897" lon="0.392274">
        <ele>334.00</ele>
        <time>2018-06-10T11:03:08Z</time>
      </trkpt>
      <trkpt lat="41.378936" lon="0.392289">
        <ele>334.27</ele>
        <time>2018-06-10T11:03:12Z</time>
      </trkpt>
      <trkpt lat="41.378971" lon="0.392306">
        <ele>334.68</ele>
        <time>2018-06-10T11:03:16Z</time>
      </trkpt>
      <trkpt lat="41.379012" lon="0.392315">
        <ele>334.99</ele>
        <time>2018-06-10T11:03:19Z</time>
      </trkpt>
      <trkpt lat="41.379058" lon="0.392309">
        <ele>335.57</ele>
        <time>2018-06-10T11:03:22Z</time>
      </trkpt>
      <trkpt lat="41.379097" lon="0.392298">
        <ele>336.16</ele>
        <time>2018-06-10T11:03:25Z</time>
      </trkpt>
      <trkpt lat="41.379133" lon="0.392328">
        <ele>336.75</ele>
        <time>2018-06-10T11:03:28Z</time>
      </trkpt>
      <trkpt lat="41.379162" lon="0.392388">
        <ele>337.34</ele>
        <time>2018-06-10T11:03:31Z</time>
      </trkpt>
      <trkpt lat="41.379189" lon="0.392433">
        <ele>337.74</ele>
        <time>2018-06-10T11:03:33Z</time>
      </trkpt>
      <trkpt lat="41.379217" lon="0.392470">
        <ele>338.14</ele>
        <time>2018-06-10T11:03:35Z</time>
      </trkpt>
      <trkpt lat="41.379253" lon="0.392491">
        <ele>338.54</ele>
        <time>2018-06-10T11:03:37Z</time>
      </trkpt>
      <trkpt lat="41.379290" lon="0.392489">
        <ele>338.94</ele>
        <time>2018-06-10T11:03:39Z</time>
      </trkpt>
      <trkpt lat="41.379332" lon="0.392474">
        <ele>339.48</ele>
        <time>2018-06-10T11:03:44Z</time>
      </trkpt>
      <trkpt lat="41.379370" lon="0.392486">
        <ele>339.88</ele>
        <time>2018-06-10T11:03:48Z</time>
      </trkpt>
      <trkpt lat="41.379394" lon="0.392547">
        <ele>340.28</ele>
        <time>2018-06-10T11:03:52Z</time>
      </trkpt>
      <trkpt lat="41.379412" lon="0.392589">
        <ele>340.48</ele>
        <time>2018-06-10T11:03:54Z</time>
      </trkpt>
      <trkpt lat="41.379458" lon="0.392617">
        <ele>340.79</ele>
        <time>2018-06-10T11:03:57Z</time>
      </trkpt>
      <trkpt lat="41.379506" lon="0.392621">
        <ele>341.09</ele>
        <time>2018-06-10T11:04:00Z</time>
      </trkpt>
      <trkpt lat="41.379545" lon="0.392644">
        <ele>341.38</ele>
        <time>2018-06-10T11:04:03Z</time>
      </trkpt>
      <trkpt lat="41.379583" lon="0.392681">
        <ele>341.68</ele>
        <time>2018-06-10T11:04:06Z</time>
      </trkpt>
      <trkpt lat="41.379623" lon="0.392731">
        <ele>341.97</ele>
        <time>2018-06-10T11:04:09Z</time>
      </trkpt>
      <trkpt lat="41.379668" lon="0.392765">
        <ele>342.55</ele>
        <time>2018-06-10T11:04:12Z</time>
      </trkpt>
      <trkpt lat="41.379705" lon="0.392800">
        <ele>343.15</ele>
        <time>2018-06-10T11:04:15Z</time>
      </trkpt>
      <trkpt lat="41.379734" lon="0.392829">
        <ele>343.56</ele>
        <time>2018-06-10T11:04:17Z</time>
      </trkpt>
      <trkpt lat="41.379786" lon="0.392839">
        <ele>344.16</ele>
        <time>2018-06-10T11:04:20Z</time>
      </trkpt>
      <trkpt lat="41.379820" lon="0.392866">
        <ele>344.76</ele>
        <time>2018-06-10T11:04:23Z</time>
      </trkpt>
      <trkpt lat="41.379843" lon="0.392898">
        <ele>345.16</ele>
        <time>2018-06-10T11:04:25Z</time>
      </trkpt>
      <trkpt lat="41.379873" lon="0.392932">
        <ele>345.56</ele>
        <time>2018-06-10T11:04:27Z</time>
      </trkpt>
      <trkpt lat="41.379908" lon="0.392963">
        <ele>345.96</ele>
        <time>2018-06-10T11:04:29Z</time>
      </trkpt>
      <trkpt lat="41.379946" lon="0.393001">
        <ele>346.57</ele>
        <time>2018-06-10T11:04:32Z</time>
      </trkpt>
      <trkpt lat="41.379963" lon="0.393035">
        <ele>346.97</ele>
        <time>2018-06-10T11:04:34Z</time>
      </trkpt>
      <trkpt lat="41.380003" lon="0.393079">
        <ele>347.57</ele>
        <time>2018-06-10T11:04:37Z</time>
      </trkpt>
      <trkpt lat="41.380051" lon="0.393095">
        <ele>348.17</ele>
        <time>2018-06-10T11:04:40Z</time>
      </trkpt>
      <trkpt lat="41.380093" lon="0.393086">
        <ele>348.74</ele>
        <time>2018-06-10T11:04:43Z</time>
      </trkpt>
      <trkpt lat="41.380126" lon="0.393105">
        <ele>350.00</ele>
        <time>2018-06-10T11:05:54Z</time>
      </trkpt>
      <trkpt lat="41.380135" lon="0.393168">
        <ele>350.00</ele>
        <time>2018-06-10T11:05:57Z</time>
      </trkpt>
      <trkpt lat="41.380125" lon="0.393239">
        <ele>350.00</ele>
        <time>2018-06-10T11:06:00Z</time>
      </trkpt>
      <trkpt lat="41.380101" lon="0.393281">
        <ele>350.00</ele>
        <time>2018-06-10T11:06:02Z</time>
      </trkpt>
      <trkpt lat="41.380069" lon="0.393310">
        <ele>350.00</ele>
        <time>2018-06-10T11:06:04Z</time>
      </trkpt>
      <trkpt lat="41.380036" lon="0.393340">
        <ele>350.00</ele>
        <time>2018-06-10T11:06:06Z</time>
      </trkpt>
      <trkpt lat="41.380005" lon="0.393377">
        <ele>350.00</ele>
        <time>2018-06-10T11:06:08Z</time>
      </trkpt>
      <trkpt lat="41.379972" lon="0.393406">
        <ele>350.00</ele>
        <time>2018-06-10T11:06:10Z</time>
      </trkpt>
      <trkpt lat="41.379920" lon="0.393410">
        <ele>350.00</ele>
        <time>2018-06-10T11:06:13Z</time>
      </trkpt>
      <trkpt lat="41.379881" lon="0.393394">
        <ele>350.00</ele>
        <time>2018-06-10T11:06:15Z</time>
      </trkpt>
      <trkpt lat="41.379841" lon="0.393393">
        <ele>350.00</ele>
        <time>2018-06-10T11:06:17Z</time>
      </trkpt>
      <trkpt lat="41.379805" lon="0.393385">
        <ele>350.00</ele>
        <time>2018-06-10T11:06:19Z</time>
      </trkpt>
      <trkpt lat="41.379771" lon="0.393362">
        <ele>350.00</ele>
        <time>2018-06-10T11:06:21Z</time>
      </trkpt>
      <trkpt lat="41.379735" lon="0.393336">
        <ele>350.00</ele>
        <time>2018-06-10T11:06:23Z</time>
      </trkpt>
      <trkpt lat="41.379699" lon="0.393309">
        <ele>350.00</ele>
        <time>2018-06-10T11:06:25Z</time>
      </trkpt>
      <trkpt lat="41.379665" lon="0.393282">
        <ele>350.00</ele>
        <time>2018-06-10T11:06:27Z</time>
      </trkpt>
      <trkpt lat="41.379629" lon="0.393256">
        <ele>350.00</ele>
        <time>2018-06-10T11:06:29Z</time>
      </trkpt>
      <trkpt lat="41.379584" lon="0.393229">
        <ele>350.17</ele>
        <time>2018-06-10T11:06:31Z</time>
      </trkpt>
      <trkpt lat="41.379536" lon="0.393200">
        <ele>350.38</ele>
        <time>2018-06-10T11:06:33Z</time>
      </trkpt>
      <trkpt lat="41.379488" lon="0.393165">
        <ele>350.58</ele>
        <time>2018-06-10T11:06:35Z</time>
      </trkpt>
      <trkpt lat="41.379437" lon="0.393131">
        <ele>350.78</ele>
        <time>2018-06-10T11:06:37Z</time>
      </trkpt>
      <trkpt lat="41.379385" lon="0.393105">
        <ele>350.98</ele>
        <time>2018-06-10T11:06:39Z</time>
      </trkpt>
      <trkpt lat="41.379337" lon="0.393070">
        <ele>351.00</ele>
        <time>2018-06-10T11:06:41Z</time>
      </trkpt>
      <trkpt lat="41.379290" lon="0.393029">
        <ele>351.00</ele>
        <time>2018-06-10T11:06:43Z</time>
      </trkpt>
      <trkpt lat="41.379238" lon="0.393003">
        <ele>351.00</ele>
        <time>2018-06-10T11:06:45Z</time>
      </trkpt>
      <trkpt lat="41.379187" lon="0.392983">
        <ele>351.00</ele>
        <time>2018-06-10T11:06:47Z</time>
      </trkpt>
      <trkpt lat="41.379136" lon="0.392956">
        <ele>351.00</ele>
        <time>2018-06-10T11:06:49Z</time>
      </trkpt>
      <trkpt lat="41.379084" lon="0.392929">
        <ele>351.18</ele>
        <time>2018-06-10T11:06:51Z</time>
      </trkpt>
      <trkpt lat="41.379030" lon="0.392901">
        <ele>351.38</ele>
        <time>2018-06-10T11:06:53Z</time>
      </trkpt>
      <trkpt lat="41.378982" lon="0.392879">
        <ele>351.58</ele>
        <time>2018-06-10T11:06:55Z</time>
      </trkpt>
      <trkpt lat="41.378940" lon="0.392863">
        <ele>351.79</ele>
        <time>2018-06-10T11:06:57Z</time>
      </trkpt>
      <trkpt lat="41.378893" lon="0.392849">
        <ele>351.99</ele>
        <time>2018-06-10T11:06:59Z</time>
      </trkpt>
      <trkpt lat="41.378840" lon="0.392838">
        <ele>352.00</ele>
        <time>2018-06-10T11:07:01Z</time>
      </trkpt>
      <trkpt lat="41.378784" lon="0.392830">
        <ele>352.00</ele>
        <time>2018-06-10T11:07:03Z</time>
      </trkpt>
      <trkpt lat="41.378726" lon="0.392822">
        <ele>352.00</ele>
        <time>2018-06-10T11:07:05Z</time>
      </trkpt>
      <trkpt lat="41.378668" lon="0.392812">
        <ele>352.00</ele>
        <time>2018-06-10T11:07:07Z</time>
      </trkpt>
      <trkpt lat="41.378610" lon="0.392808">
        <ele>352.00</ele>
        <time>2018-06-10T11:07:09Z</time>
      </trkpt>
      <trkpt lat="41.378553" lon="0.392803">
        <ele>352.18</ele>
        <time>2018-06-10T11:07:11Z</time>
      </trkpt>
      <trkpt lat="41.378498" lon="0.392810">
        <ele>352.38</ele>
        <time>2018-06-10T11:07:13Z</time>
      </trkpt>
      <trkpt lat="41.378442" lon="0.392818">
        <ele>352.58</ele>
        <time>2018-06-10T11:07:15Z</time>
      </trkpt>
      <trkpt lat="41.378381" lon="0.392815">
        <ele>352.78</ele>
        <time>2018-06-10T11:07:17Z</time>
      </trkpt>
      <trkpt lat="41.378321" lon="0.392817">
        <ele>352.98</ele>
        <time>2018-06-10T11:07:19Z</time>
      </trkpt>
      <trkpt lat="41.378263" lon="0.392835">
        <ele>353.00</ele>
        <time>2018-06-10T11:07:21Z</time>
      </trkpt>
      <trkpt lat="41.378212" lon="0.392877">
        <ele>353.00</ele>
        <time>2018-06-10T11:07:23Z</time>
      </trkpt>
      <trkpt lat="41.378177" lon="0.392917">
        <ele>353.00</ele>
        <time>2018-06-10T11:07:25Z</time>
      </trkpt>
      <trkpt lat="41.378146" lon="0.392947">
        <ele>353.00</ele>
        <time>2018-06-10T11:07:27Z</time>
      </trkpt>
      <trkpt lat="41.378096" lon="0.392976">
        <ele>353.16</ele>
        <time>2018-06-10T11:07:30Z</time>
      </trkpt>
      <trkpt lat="41.378053" lon="0.392989">
        <ele>353.55</ele>
        <time>2018-06-10T11:07:32Z</time>
      </trkpt>
      <trkpt lat="41.378005" lon="0.393007">
        <ele>353.95</ele>
        <time>2018-06-10T11:07:34Z</time>
      </trkpt>
      <trkpt lat="41.377955" lon="0.393035">
        <ele>354.34</ele>
        <time>2018-06-10T11:07:36Z</time>
      </trkpt>
      <trkpt lat="41.377903" lon="0.393070">
        <ele>354.74</ele>
        <time>2018-06-10T11:07:38Z</time>
      </trkpt>
      <trkpt lat="41.377859" lon="0.393109">
        <ele>355.13</ele>
        <time>2018-06-10T11:07:40Z</time>
      </trkpt>
      <trkpt lat="41.377824" lon="0.393150">
        <ele>355.54</ele>
        <time>2018-06-10T11:07:42Z</time>
      </trkpt>
      <trkpt lat="41.377793" lon="0.393191">
        <ele>355.94</ele>
        <time>2018-06-10T11:07:44Z</time>
      </trkpt>
      <trkpt lat="41.377759" lon="0.393232">
        <ele>356.34</ele>
        <time>2018-06-10T11:07:46Z</time>
      </trkpt>
      <trkpt lat="41.377728" lon="0.393278">
        <ele>356.74</ele>
        <time>2018-06-10T11:07:48Z</time>
      </trkpt>
      <trkpt lat="41.377694" lon="0.393322">
        <ele>357.08</ele>
        <time>2018-06-10T11:07:50Z</time>
      </trkpt>
      <trkpt lat="41.377656" lon="0.393365">
        <ele>357.32</ele>
        <time>2018-06-10T11:07:52Z</time>
      </trkpt>
      <trkpt lat="41.377611" lon="0.393429">
        <ele>357.55</ele>
        <time>2018-06-10T11:07:54Z</time>
      </trkpt>
      <trkpt lat="41.377596" lon="0.393472">
        <ele>357.67</ele>
        <time>2018-06-10T11:07:55Z</time>
      </trkpt>
      <trkpt lat="41.377588" lon="0.393553">
        <ele>357.90</ele>
        <time>2018-06-10T11:07:57Z</time>
      </trkpt>
      <trkpt lat="41.377562" lon="0.393762">
        <ele>358.55</ele>
        <time>2018-06-10T11:08:05Z</time>
      </trkpt>
      <trkpt lat="41.377488" lon="0.394227">
        <ele>362.15</ele>
        <time>2018-06-10T11:08:25Z</time>
      </trkpt>
      <trkpt lat="41.377501" lon="0.394289">
        <ele>362.76</ele>
        <time>2018-06-10T11:08:28Z</time>
      </trkpt>
      <trkpt lat="41.377523" lon="0.394341">
        <ele>363.36</ele>
        <time>2018-06-10T11:08:31Z</time>
      </trkpt>
      <trkpt lat="41.377544" lon="0.394376">
        <ele>365.00</ele>
        <time>2018-06-10T11:08:41Z</time>
      </trkpt>
      <trkpt lat="41.377567" lon="0.394418">
        <ele>365.00</ele>
        <time>2018-06-10T11:08:46Z</time>
      </trkpt>
      <trkpt lat="41.377595" lon="0.394454">
        <ele>366.00</ele>
        <time>2018-06-10T11:09:54Z</time>
      </trkpt>
      <trkpt lat="41.377657" lon="0.394522">
        <ele>366.19</ele>
        <time>2018-06-10T11:10:11Z</time>
      </trkpt>
      <trkpt lat="41.377737" lon="0.394567">
        <ele>366.48</ele>
        <time>2018-06-10T11:10:14Z</time>
      </trkpt>
      <trkpt lat="41.377854" lon="0.394618">
        <ele>366.68</ele>
        <time>2018-06-10T11:10:16Z</time>
      </trkpt>
      <trkpt lat="41.378055" lon="0.394630">
        <ele>367.80</ele>
        <time>2018-06-10T11:10:27.17Z</time>
      </trkpt>
      <trkpt lat="41.378103" lon="0.394634">
        <ele>368.37</ele>
        <time>2018-06-10T11:10:31Z</time>
      </trkpt>
      <trkpt lat="41.378149" lon="0.394625">
        <ele>368.97</ele>
        <time>2018-06-10T11:10:34Z</time>
      </trkpt>
      <trkpt lat="41.378183" lon="0.394617">
        <ele>369.38</ele>
        <time>2018-06-10T11:10:36Z</time>
      </trkpt>
      <trkpt lat="41.378218" lon="0.394603">
        <ele>369.78</ele>
        <time>2018-06-10T11:10:38Z</time>
      </trkpt>
      <trkpt lat="41.378258" lon="0.394595">
        <ele>370.19</ele>
        <time>2018-06-10T11:10:41Z</time>
      </trkpt>
      <trkpt lat="41.378297" lon="0.394608">
        <ele>371.25</ele>
        <time>2018-06-10T11:10:50Z</time>
      </trkpt>
      <trkpt lat="41.378343" lon="0.394608">
        <ele>372.46</ele>
        <time>2018-06-10T11:10:54Z</time>
      </trkpt>
      <trkpt lat="41.378389" lon="0.394603">
        <ele>373.66</ele>
        <time>2018-06-10T11:10:58Z</time>
      </trkpt>
      <trkpt lat="41.378428" lon="0.394613">
        <ele>375.00</ele>
        <time>2018-06-10T11:11:11Z</time>
      </trkpt>
      <trkpt lat="41.378472" lon="0.394621">
        <ele>375.00</ele>
        <time>2018-06-10T11:11:14Z</time>
      </trkpt>
      <trkpt lat="41.378521" lon="0.394628">
        <ele>375.00</ele>
        <time>2018-06-10T11:11:17Z</time>
      </trkpt>
      <trkpt lat="41.378569" lon="0.394635">
        <ele>375.14</ele>
        <time>2018-06-10T11:11:20Z</time>
      </trkpt>
      <trkpt lat="41.378613" lon="0.394643">
        <ele>375.74</ele>
        <time>2018-06-10T11:11:23Z</time>
      </trkpt>
      <trkpt lat="41.378659" lon="0.394651">
        <ele>376.34</ele>
        <time>2018-06-10T11:11:26Z</time>
      </trkpt>
      <trkpt lat="41.378702" lon="0.394645">
        <ele>376.94</ele>
        <time>2018-06-10T11:11:29Z</time>
      </trkpt>
      <trkpt lat="41.378745" lon="0.394647">
        <ele>377.54</ele>
        <time>2018-06-10T11:11:32Z</time>
      </trkpt>
      <trkpt lat="41.378784" lon="0.394660">
        <ele>378.14</ele>
        <time>2018-06-10T11:11:35Z</time>
      </trkpt>
      <trkpt lat="41.378824" lon="0.394661">
        <ele>378.74</ele>
        <time>2018-06-10T11:11:38Z</time>
      </trkpt>
      <trkpt lat="41.378865" lon="0.394661">
        <ele>379.17</ele>
        <time>2018-06-10T11:11:41Z</time>
      </trkpt>
      <trkpt lat="41.378911" lon="0.394671">
        <ele>379.47</ele>
        <time>2018-06-10T11:11:44Z</time>
      </trkpt>
      <trkpt lat="41.378957" lon="0.394679">
        <ele>379.77</ele>
        <time>2018-06-10T11:11:47Z</time>
      </trkpt>
      <trkpt lat="41.379003" lon="0.394688">
        <ele>380.14</ele>
        <time>2018-06-10T11:11:50Z</time>
      </trkpt>
      <trkpt lat="41.379047" lon="0.394696">
        <ele>380.74</ele>
        <time>2018-06-10T11:11:53Z</time>
      </trkpt>
      <trkpt lat="41.379093" lon="0.394707">
        <ele>381.34</ele>
        <time>2018-06-10T11:11:56Z</time>
      </trkpt>
      <trkpt lat="41.379138" lon="0.394724">
        <ele>381.94</ele>
        <time>2018-06-10T11:11:59Z</time>
      </trkpt>
      <trkpt lat="41.379180" lon="0.394739">
        <ele>382.55</ele>
        <time>2018-06-10T11:12:02Z</time>
      </trkpt>
      <trkpt lat="41.379216" lon="0.394760">
        <ele>383.15</ele>
        <time>2018-06-10T11:12:05Z</time>
      </trkpt>
      <trkpt lat="41.379255" lon="0.394780">
        <ele>383.76</ele>
        <time>2018-06-10T11:12:08Z</time>
      </trkpt>
      <trkpt lat="41.379296" lon="0.394822">
        <ele>384.36</ele>
        <time>2018-06-10T11:12:11Z</time>
      </trkpt>
      <trkpt lat="41.379325" lon="0.394855">
        <ele>384.76</ele>
        <time>2018-06-10T11:12:13Z</time>
      </trkpt>
      <trkpt lat="41.379354" lon="0.394884">
        <ele>385.16</ele>
        <time>2018-06-10T11:12:15Z</time>
      </trkpt>
      <trkpt lat="41.379395" lon="0.394909">
        <ele>385.75</ele>
        <time>2018-06-10T11:12:18Z</time>
      </trkpt>
      <trkpt lat="41.379434" lon="0.394902">
        <ele>386.27</ele>
        <time>2018-06-10T11:12:22Z</time>
      </trkpt>
      <trkpt lat="41.379486" lon="0.394899">
        <ele>386.57</ele>
        <time>2018-06-10T11:12:25Z</time>
      </trkpt>
      <trkpt lat="41.379527" lon="0.394916">
        <ele>386.77</ele>
        <time>2018-06-10T11:12:27Z</time>
      </trkpt>
      <trkpt lat="41.379558" lon="0.394942">
        <ele>386.97</ele>
        <time>2018-06-10T11:12:29Z</time>
      </trkpt>
      <trkpt lat="41.379599" lon="0.394980">
        <ele>387.28</ele>
        <time>2018-06-10T11:12:32Z</time>
      </trkpt>
      <trkpt lat="41.379630" lon="0.395010">
        <ele>387.48</ele>
        <time>2018-06-10T11:12:34Z</time>
      </trkpt>
      <trkpt lat="41.379663" lon="0.395049">
        <ele>387.68</ele>
        <time>2018-06-10T11:12:36Z</time>
      </trkpt>
      <trkpt lat="41.379701" lon="0.395094">
        <ele>387.88</ele>
        <time>2018-06-10T11:12:38Z</time>
      </trkpt>
      <trkpt lat="41.379747" lon="0.395140">
        <ele>388.00</ele>
        <time>2018-06-10T11:12:40Z</time>
      </trkpt>
      <trkpt lat="41.379795" lon="0.395182">
        <ele>388.00</ele>
        <time>2018-06-10T11:12:42Z</time>
      </trkpt>
      <trkpt lat="41.379842" lon="0.395234">
        <ele>388.00</ele>
        <time>2018-06-10T11:12:44Z</time>
      </trkpt>
      <trkpt lat="41.379887" lon="0.395284">
        <ele>388.00</ele>
        <time>2018-06-10T11:12:46Z</time>
      </trkpt>
      <trkpt lat="41.379930" lon="0.395340">
        <ele>388.00</ele>
        <time>2018-06-10T11:12:48Z</time>
      </trkpt>
      <trkpt lat="41.379980" lon="0.395396">
        <ele>388.00</ele>
        <time>2018-06-10T11:12:50Z</time>
      </trkpt>
      <trkpt lat="41.380041" lon="0.395436">
        <ele>388.00</ele>
        <time>2018-06-10T11:12:52Z</time>
      </trkpt>
      <trkpt lat="41.380108" lon="0.395461">
        <ele>388.00</ele>
        <time>2018-06-10T11:12:54Z</time>
      </trkpt>
      <trkpt lat="41.380180" lon="0.395476">
        <ele>388.00</ele>
        <time>2018-06-10T11:12:56Z</time>
      </trkpt>
      <trkpt lat="41.380219" lon="0.395482">
        <ele>388.00</ele>
        <time>2018-06-10T11:12:57Z</time>
      </trkpt>
      <trkpt lat="41.380258" lon="0.395490">
        <ele>388.00</ele>
        <time>2018-06-10T11:12:58Z</time>
      </trkpt>
      <trkpt lat="41.380298" lon="0.395498">
        <ele>388.00</ele>
        <time>2018-06-10T11:12:59Z</time>
      </trkpt>
      <trkpt lat="41.380340" lon="0.395504">
        <ele>387.96</ele>
        <time>2018-06-10T11:13:00Z</time>
      </trkpt>
      <trkpt lat="41.380383" lon="0.395508">
        <ele>387.85</ele>
        <time>2018-06-10T11:13:01Z</time>
      </trkpt>
      <trkpt lat="41.380426" lon="0.395512">
        <ele>387.75</ele>
        <time>2018-06-10T11:13:02Z</time>
      </trkpt>
      <trkpt lat="41.380468" lon="0.395519">
        <ele>387.64</ele>
        <time>2018-06-10T11:13:03Z</time>
      </trkpt>
      <trkpt lat="41.380510" lon="0.395528">
        <ele>387.54</ele>
        <time>2018-06-10T11:13:04Z</time>
      </trkpt>
      <trkpt lat="41.380552" lon="0.395537">
        <ele>387.43</ele>
        <time>2018-06-10T11:13:05Z</time>
      </trkpt>
      <trkpt lat="41.380594" lon="0.395547">
        <ele>387.33</ele>
        <time>2018-06-10T11:13:06Z</time>
      </trkpt>
      <trkpt lat="41.380638" lon="0.395556">
        <ele>387.22</ele>
        <time>2018-06-10T11:13:07Z</time>
      </trkpt>
      <trkpt lat="41.380681" lon="0.395566">
        <ele>387.12</ele>
        <time>2018-06-10T11:13:08Z</time>
      </trkpt>
      <trkpt lat="41.380724" lon="0.395578">
        <ele>387.01</ele>
        <time>2018-06-10T11:13:09Z</time>
      </trkpt>
      <trkpt lat="41.380768" lon="0.395594">
        <ele>386.91</ele>
        <time>2018-06-10T11:13:10Z</time>
      </trkpt>
      <trkpt lat="41.380812" lon="0.395611">
        <ele>386.81</ele>
        <time>2018-06-10T11:13:11Z</time>
      </trkpt>
      <trkpt lat="41.380855" lon="0.395629">
        <ele>386.71</ele>
        <time>2018-06-10T11:13:12Z</time>
      </trkpt>
      <trkpt lat="41.380899" lon="0.395647">
        <ele>386.61</ele>
        <time>2018-06-10T11:13:13Z</time>
      </trkpt>
      <trkpt lat="41.380943" lon="0.395664">
        <ele>386.51</ele>
        <time>2018-06-10T11:13:14Z</time>
      </trkpt>
      <trkpt lat="41.380987" lon="0.395683">
        <ele>386.41</ele>
        <time>2018-06-10T11:13:15Z</time>
      </trkpt>
      <trkpt lat="41.381029" lon="0.395705">
        <ele>386.31</ele>
        <time>2018-06-10T11:13:16Z</time>
      </trkpt>
      <trkpt lat="41.381070" lon="0.395733">
        <ele>386.22</ele>
        <time>2018-06-10T11:13:17Z</time>
      </trkpt>
      <trkpt lat="41.381110" lon="0.395764">
        <ele>386.12</ele>
        <time>2018-06-10T11:13:18Z</time>
      </trkpt>
      <trkpt lat="41.381149" lon="0.395795">
        <ele>386.02</ele>
        <time>2018-06-10T11:13:19Z</time>
      </trkpt>
      <trkpt lat="41.381189" lon="0.395826">
        <ele>386.00</ele>
        <time>2018-06-10T11:13:20Z</time>
      </trkpt>
      <trkpt lat="41.381230" lon="0.395858">
        <ele>386.00</ele>
        <time>2018-06-10T11:13:21Z</time>
      </trkpt>
      <trkpt lat="41.381270" lon="0.395888">
        <ele>386.00</ele>
        <time>2018-06-10T11:13:22Z</time>
      </trkpt>
      <trkpt lat="41.381311" lon="0.395917">
        <ele>386.00</ele>
        <time>2018-06-10T11:13:23Z</time>
      </trkpt>
      <trkpt lat="41.381351" lon="0.395945">
        <ele>386.00</ele>
        <time>2018-06-10T11:13:24Z</time>
      </trkpt>
      <trkpt lat="41.381392" lon="0.395971">
        <ele>386.00</ele>
        <time>2018-06-10T11:13:25Z</time>
      </trkpt>
      <trkpt lat="41.381435" lon="0.395998">
        <ele>386.00</ele>
        <time>2018-06-10T11:13:26Z</time>
      </trkpt>
      <trkpt lat="41.381476" lon="0.396026">
        <ele>386.00</ele>
        <time>2018-06-10T11:13:27Z</time>
      </trkpt>
      <trkpt lat="41.381517" lon="0.396059">
        <ele>386.00</ele>
        <time>2018-06-10T11:13:28Z</time>
      </trkpt>
      <trkpt lat="41.381556" lon="0.396094">
        <ele>386.00</ele>
        <time>2018-06-10T11:13:29Z</time>
      </trkpt>
      <trkpt lat="41.381596" lon="0.396130">
        <ele>386.08</ele>
        <time>2018-06-10T11:13:30Z</time>
      </trkpt>
      <trkpt lat="41.381636" lon="0.396166">
        <ele>386.18</ele>
        <time>2018-06-10T11:13:31Z</time>
      </trkpt>
      <trkpt lat="41.381674" lon="0.396203">
        <ele>386.29</ele>
        <time>2018-06-10T11:13:32Z</time>
      </trkpt>
      <trkpt lat="41.381712" lon="0.396241">
        <ele>386.39</ele>
        <time>2018-06-10T11:13:33Z</time>
      </trkpt>
      <trkpt lat="41.381747" lon="0.396281">
        <ele>386.49</ele>
        <time>2018-06-10T11:13:34Z</time>
      </trkpt>
      <trkpt lat="41.381783" lon="0.396321">
        <ele>386.59</ele>
        <time>2018-06-10T11:13:35Z</time>
      </trkpt>
      <trkpt lat="41.381818" lon="0.396361">
        <ele>386.69</ele>
        <time>2018-06-10T11:13:36Z</time>
      </trkpt>
      <trkpt lat="41.381851" lon="0.396403">
        <ele>386.79</ele>
        <time>2018-06-10T11:13:37Z</time>
      </trkpt>
      <trkpt lat="41.381883" lon="0.396447">
        <ele>386.89</ele>
        <time>2018-06-10T11:13:38Z</time>
      </trkpt>
      <trkpt lat="41.381913" lon="0.396493">
        <ele>386.99</ele>
        <time>2018-06-10T11:13:39Z</time>
      </trkpt>
      <trkpt lat="41.381943" lon="0.396540">
        <ele>387.00</ele>
        <time>2018-06-10T11:13:40Z</time>
      </trkpt>
      <trkpt lat="41.381975" lon="0.396584">
        <ele>387.00</ele>
        <time>2018-06-10T11:13:41Z</time>
      </trkpt>
      <trkpt lat="41.382009" lon="0.396624">
        <ele>387.00</ele>
        <time>2018-06-10T11:13:42Z</time>
      </trkpt>
      <trkpt lat="41.382045" lon="0.396660">
        <ele>387.00</ele>
        <time>2018-06-10T11:13:43Z</time>
      </trkpt>
      <trkpt lat="41.382085" lon="0.396690">
        <ele>387.00</ele>
        <time>2018-06-10T11:13:44Z</time>
      </trkpt>
      <trkpt lat="41.382127" lon="0.396712">
        <ele>387.00</ele>
        <time>2018-06-10T11:13:45Z</time>
      </trkpt>
      <trkpt lat="41.382171" lon="0.396730">
        <ele>387.00</ele>
        <time>2018-06-10T11:13:46Z</time>
      </trkpt>
      <trkpt lat="41.382215" lon="0.396745">
        <ele>387.00</ele>
        <time>2018-06-10T11:13:47Z</time>
      </trkpt>
      <trkpt lat="41.382259" lon="0.396758">
        <ele>387.00</ele>
        <time>2018-06-10T11:13:48Z</time>
      </trkpt>
      <trkpt lat="41.382305" lon="0.396768">
        <ele>387.00</ele>
        <time>2018-06-10T11:13:49Z</time>
      </trkpt>
      <trkpt lat="41.382351" lon="0.396772">
        <ele>386.93</ele>
        <time>2018-06-10T11:13:50Z</time>
      </trkpt>
      <trkpt lat="41.382399" lon="0.396775">
        <ele>386.83</ele>
        <time>2018-06-10T11:13:51Z</time>
      </trkpt>
      <trkpt lat="41.382446" lon="0.396782">
        <ele>386.73</ele>
        <time>2018-06-10T11:13:52Z</time>
      </trkpt>
      <trkpt lat="41.382494" lon="0.396793">
        <ele>386.63</ele>
        <time>2018-06-10T11:13:53Z</time>
      </trkpt>
      <trkpt lat="41.382541" lon="0.396806">
        <ele>386.52</ele>
        <time>2018-06-10T11:13:54Z</time>
      </trkpt>
      <trkpt lat="41.382588" lon="0.396822">
        <ele>386.42</ele>
        <time>2018-06-10T11:13:55Z</time>
      </trkpt>
      <trkpt lat="41.382635" lon="0.396837">
        <ele>386.32</ele>
        <time>2018-06-10T11:13:56Z</time>
      </trkpt>
      <trkpt lat="41.382682" lon="0.396854">
        <ele>386.22</ele>
        <time>2018-06-10T11:13:57Z</time>
      </trkpt>
      <trkpt lat="41.382726" lon="0.396873">
        <ele>386.12</ele>
        <time>2018-06-10T11:13:58Z</time>
      </trkpt>
      <trkpt lat="41.382770" lon="0.396892">
        <ele>386.02</ele>
        <time>2018-06-10T11:13:59Z</time>
      </trkpt>
      <trkpt lat="41.382813" lon="0.396905">
        <ele>386.00</ele>
        <time>2018-06-10T11:14:00Z</time>
      </trkpt>
      <trkpt lat="41.382858" lon="0.396910">
        <ele>386.00</ele>
        <time>2018-06-10T11:14:01Z</time>
      </trkpt>
      <trkpt lat="41.382904" lon="0.396906">
        <ele>386.00</ele>
        <time>2018-06-10T11:14:02Z</time>
      </trkpt>
      <trkpt lat="41.382948" lon="0.396891">
        <ele>386.00</ele>
        <time>2018-06-10T11:14:03Z</time>
      </trkpt>
      <trkpt lat="41.382989" lon="0.396872">
        <ele>386.00</ele>
        <time>2018-06-10T11:14:04Z</time>
      </trkpt>
      <trkpt lat="41.383031" lon="0.396853">
        <ele>386.00</ele>
        <time>2018-06-10T11:14:05Z</time>
      </trkpt>
      <trkpt lat="41.383074" lon="0.396838">
        <ele>386.00</ele>
        <time>2018-06-10T11:14:06Z</time>
      </trkpt>
      <trkpt lat="41.383118" lon="0.396828">
        <ele>386.00</ele>
        <time>2018-06-10T11:14:07Z</time>
      </trkpt>
      <trkpt lat="41.383163" lon="0.396819">
        <ele>386.00</ele>
        <time>2018-06-10T11:14:08Z</time>
      </trkpt>
      <trkpt lat="41.383210" lon="0.396812">
        <ele>386.00</ele>
        <time>2018-06-10T11:14:09Z</time>
      </trkpt>
      <trkpt lat="41.383258" lon="0.396803">
        <ele>385.93</ele>
        <time>2018-06-10T11:14:10Z</time>
      </trkpt>
      <trkpt lat="41.383306" lon="0.396793">
        <ele>385.83</ele>
        <time>2018-06-10T11:14:11Z</time>
      </trkpt>
      <trkpt lat="41.383354" lon="0.396782">
        <ele>385.73</ele>
        <time>2018-06-10T11:14:12Z</time>
      </trkpt>
      <trkpt lat="41.383401" lon="0.396771">
        <ele>385.64</ele>
        <time>2018-06-10T11:14:13Z</time>
      </trkpt>
      <trkpt lat="41.383449" lon="0.396759">
        <ele>385.54</ele>
        <time>2018-06-10T11:14:14Z</time>
      </trkpt>
      <trkpt lat="41.383497" lon="0.396746">
        <ele>385.44</ele>
        <time>2018-06-10T11:14:15Z</time>
      </trkpt>
      <trkpt lat="41.383545" lon="0.396732">
        <ele>385.35</ele>
        <time>2018-06-10T11:14:16Z</time>
      </trkpt>
      <trkpt lat="41.383592" lon="0.396720">
        <ele>385.25</ele>
        <time>2018-06-10T11:14:17Z</time>
      </trkpt>
      <trkpt lat="41.383639" lon="0.396712">
        <ele>385.15</ele>
        <time>2018-06-10T11:14:18Z</time>
      </trkpt>
      <trkpt lat="41.383680" lon="0.396709">
        <ele>385.05</ele>
        <time>2018-06-10T11:14:19Z</time>
      </trkpt>
      <trkpt lat="41.383732" lon="0.396713">
        <ele>385.15</ele>
        <time>2018-06-10T11:14:21Z</time>
      </trkpt>
      <trkpt lat="41.383775" lon="0.396740">
        <ele>385.46</ele>
        <time>2018-06-10T11:14:24Z</time>
      </trkpt>
      <trkpt lat="41.383814" lon="0.396727">
        <ele>385.67</ele>
        <time>2018-06-10T11:14:26Z</time>
      </trkpt>
      <trkpt lat="41.383866" lon="0.396681">
        <ele>385.88</ele>
        <time>2018-06-10T11:14:28Z</time>
      </trkpt>
      <trkpt lat="41.383925" lon="0.396634">
        <ele>386.00</ele>
        <time>2018-06-10T11:14:30Z</time>
      </trkpt>
      <trkpt lat="41.383983" lon="0.396584">
        <ele>386.00</ele>
        <time>2018-06-10T11:14:32Z</time>
      </trkpt>
      <trkpt lat="41.384043" lon="0.396536">
        <ele>386.00</ele>
        <time>2018-06-10T11:14:34Z</time>
      </trkpt>
      <trkpt lat="41.384080" lon="0.396514">
        <ele>386.00</ele>
        <time>2018-06-10T11:14:35Z</time>
      </trkpt>
      <trkpt lat="41.384119" lon="0.396492">
        <ele>386.00</ele>
        <time>2018-06-10T11:14:36Z</time>
      </trkpt>
      <trkpt lat="41.384159" lon="0.396464">
        <ele>386.00</ele>
        <time>2018-06-10T11:14:37Z</time>
      </trkpt>
      <trkpt lat="41.384199" lon="0.396430">
        <ele>386.00</ele>
        <time>2018-06-10T11:14:38Z</time>
      </trkpt>
      <trkpt lat="41.384241" lon="0.396394">
        <ele>386.00</ele>
        <time>2018-06-10T11:14:39Z</time>
      </trkpt>
      <trkpt lat="41.384284" lon="0.396358">
        <ele>385.83</ele>
        <time>2018-06-10T11:14:40Z</time>
      </trkpt>
      <trkpt lat="41.384328" lon="0.396319">
        <ele>385.63</ele>
        <time>2018-06-10T11:14:41Z</time>
      </trkpt>
      <trkpt lat="41.384372" lon="0.396279">
        <ele>385.43</ele>
        <time>2018-06-10T11:14:42Z</time>
      </trkpt>
      <trkpt lat="41.384417" lon="0.396238">
        <ele>385.23</ele>
        <time>2018-06-10T11:14:43Z</time>
      </trkpt>
      <trkpt lat="41.384466" lon="0.396200">
        <ele>385.03</ele>
        <time>2018-06-10T11:14:44Z</time>
      </trkpt>
      <trkpt lat="41.384517" lon="0.396167">
        <ele>384.83</ele>
        <time>2018-06-10T11:14:45Z</time>
      </trkpt>
      <trkpt lat="41.384570" lon="0.396136">
        <ele>384.63</ele>
        <time>2018-06-10T11:14:46Z</time>
      </trkpt>
      <trkpt lat="41.384622" lon="0.396102">
        <ele>384.43</ele>
        <time>2018-06-10T11:14:47Z</time>
      </trkpt>
      <trkpt lat="41.384672" lon="0.396062">
        <ele>384.23</ele>
        <time>2018-06-10T11:14:48Z</time>
      </trkpt>
      <trkpt lat="41.384717" lon="0.396012">
        <ele>384.03</ele>
        <time>2018-06-10T11:14:49Z</time>
      </trkpt>
      <trkpt lat="41.384755" lon="0.395952">
        <ele>384.00</ele>
        <time>2018-06-10T11:14:50Z</time>
      </trkpt>
      <trkpt lat="41.384785" lon="0.395883">
        <ele>384.00</ele>
        <time>2018-06-10T11:14:51Z</time>
      </trkpt>
      <trkpt lat="41.384833" lon="0.395489">
        <ele>383.44</ele>
        <time>2018-06-10T11:14:56Z</time>
      </trkpt>
      <trkpt lat="41.384849" lon="0.395329">
        <ele>383.19</ele>
        <time>2018-06-10T11:14:57.87Z</time>
      </trkpt>
      <trkpt lat="41.385260" lon="0.394119">
        <ele>380.42</ele>
        <time>2018-06-10T11:15:15Z</time>
      </trkpt>
      <trkpt lat="41.385636" lon="0.394056">
        <ele>379.82</ele>
        <time>2018-06-10T11:15:21Z</time>
      </trkpt>
      <trkpt lat="41.385871" lon="0.393406">
        <ele>380.38</ele>
        <time>2018-06-10T11:15:34Z</time>
      </trkpt>
      <trkpt lat="41.385892" lon="0.393352">
        <ele>380.99</ele>
        <time>2018-06-10T11:15:36Z</time>
      </trkpt>
      <trkpt lat="41.385912" lon="0.393185">
        <ele>381.61</ele>
        <time>2018-06-10T11:15:38Z</time>
      </trkpt>
      <trkpt lat="41.385972" lon="0.393241">
        <ele>382.07</ele>
        <time>2018-06-10T11:15:40Z</time>
      </trkpt>
      <trkpt lat="41.386010" lon="0.393318">
        <ele>382.48</ele>
        <time>2018-06-10T11:15:44Z</time>
      </trkpt>
      <trkpt lat="41.385931" lon="0.393552">
        <ele>384.00</ele>
        <time>2018-06-10T11:22:50Z</time>
      </trkpt>
      <trkpt lat="41.385915" lon="0.393624">
        <ele>384.00</ele>
        <time>2018-06-10T11:22:52Z</time>
      </trkpt>
      <trkpt lat="41.385911" lon="0.393708">
        <ele>384.00</ele>
        <time>2018-06-10T11:22:54Z</time>
      </trkpt>
      <trkpt lat="41.385921" lon="0.393796">
        <ele>384.00</ele>
        <time>2018-06-10T11:22:56Z</time>
      </trkpt>
      <trkpt lat="41.385954" lon="0.393867">
        <ele>384.00</ele>
        <time>2018-06-10T11:22:58Z</time>
      </trkpt>
      <trkpt lat="41.386002" lon="0.393922">
        <ele>384.16</ele>
        <time>2018-06-10T11:23:00Z</time>
      </trkpt>
      <trkpt lat="41.386047" lon="0.393964">
        <ele>384.56</ele>
        <time>2018-06-10T11:23:02Z</time>
      </trkpt>
      <trkpt lat="41.386090" lon="0.394003">
        <ele>384.96</ele>
        <time>2018-06-10T11:23:04Z</time>
      </trkpt>
      <trkpt lat="41.386127" lon="0.394034">
        <ele>385.36</ele>
        <time>2018-06-10T11:23:06Z</time>
      </trkpt>
      <trkpt lat="41.386169" lon="0.394057">
        <ele>385.76</ele>
        <time>2018-06-10T11:23:08Z</time>
      </trkpt>
      <trkpt lat="41.386214" lon="0.394074">
        <ele>386.16</ele>
        <time>2018-06-10T11:23:10Z</time>
      </trkpt>
      <trkpt lat="41.386266" lon="0.394093">
        <ele>386.56</ele>
        <time>2018-06-10T11:23:12Z</time>
      </trkpt>
      <trkpt lat="41.386323" lon="0.394113">
        <ele>386.95</ele>
        <time>2018-06-10T11:23:14Z</time>
      </trkpt>
      <trkpt lat="41.386377" lon="0.394131">
        <ele>387.35</ele>
        <time>2018-06-10T11:23:16Z</time>
      </trkpt>
      <trkpt lat="41.386428" lon="0.394144">
        <ele>387.75</ele>
        <time>2018-06-10T11:23:18Z</time>
      </trkpt>
      <trkpt lat="41.386478" lon="0.394161">
        <ele>388.15</ele>
        <time>2018-06-10T11:23:20Z</time>
      </trkpt>
      <trkpt lat="41.386526" lon="0.394191">
        <ele>388.54</ele>
        <time>2018-06-10T11:23:22Z</time>
      </trkpt>
      <trkpt lat="41.386573" lon="0.394225">
        <ele>388.94</ele>
        <time>2018-06-10T11:23:24Z</time>
      </trkpt>
      <trkpt lat="41.386621" lon="0.394259">
        <ele>389.34</ele>
        <time>2018-06-10T11:23:26Z</time>
      </trkpt>
      <trkpt lat="41.386670" lon="0.394287">
        <ele>389.74</ele>
        <time>2018-06-10T11:23:28Z</time>
      </trkpt>
      <trkpt lat="41.386714" lon="0.394316">
        <ele>390.21</ele>
        <time>2018-06-10T11:23:30Z</time>
      </trkpt>
      <trkpt lat="41.386752" lon="0.394344">
        <ele>390.82</ele>
        <time>2018-06-10T11:23:32Z</time>
      </trkpt>
      <trkpt lat="41.386789" lon="0.394374">
        <ele>391.42</ele>
        <time>2018-06-10T11:23:34Z</time>
      </trkpt>
      <trkpt lat="41.386824" lon="0.394414">
        <ele>392.03</ele>
        <time>2018-06-10T11:23:36Z</time>
      </trkpt>
      <trkpt lat="41.386860" lon="0.394455">
        <ele>392.64</ele>
        <time>2018-06-10T11:23:38Z</time>
      </trkpt>
      <trkpt lat="41.386899" lon="0.394496">
        <ele>393.23</ele>
        <time>2018-06-10T11:23:40Z</time>
      </trkpt>
      <trkpt lat="41.386939" lon="0.394530">
        <ele>393.81</ele>
        <time>2018-06-10T11:23:42Z</time>
      </trkpt>
      <trkpt lat="41.386970" lon="0.394566">
        <ele>394.39</ele>
        <time>2018-06-10T11:23:44Z</time>
      </trkpt>
      <trkpt lat="41.387004" lon="0.394607">
        <ele>394.97</ele>
        <time>2018-06-10T11:23:46Z</time>
      </trkpt>
      <trkpt lat="41.387039" lon="0.394649">
        <ele>395.55</ele>
        <time>2018-06-10T11:23:48Z</time>
      </trkpt>
      <trkpt lat="41.387075" lon="0.394691">
        <ele>396.05</ele>
        <time>2018-06-10T11:23:50Z</time>
      </trkpt>
      <trkpt lat="41.387109" lon="0.394734">
        <ele>396.25</ele>
        <time>2018-06-10T11:23:52Z</time>
      </trkpt>
      <trkpt lat="41.387138" lon="0.394779">
        <ele>396.46</ele>
        <time>2018-06-10T11:23:54Z</time>
      </trkpt>
      <trkpt lat="41.387168" lon="0.394826">
        <ele>396.66</ele>
        <time>2018-06-10T11:23:56Z</time>
      </trkpt>
      <trkpt lat="41.387202" lon="0.394867">
        <ele>396.87</ele>
        <time>2018-06-10T11:23:58Z</time>
      </trkpt>
      <trkpt lat="41.387233" lon="0.394904">
        <ele>397.14</ele>
        <time>2018-06-10T11:24:00Z</time>
      </trkpt>
      <trkpt lat="41.387261" lon="0.394946">
        <ele>397.54</ele>
        <time>2018-06-10T11:24:02Z</time>
      </trkpt>
      <trkpt lat="41.387289" lon="0.394985">
        <ele>397.94</ele>
        <time>2018-06-10T11:24:04Z</time>
      </trkpt>
      <trkpt lat="41.387323" lon="0.395020">
        <ele>398.35</ele>
        <time>2018-06-10T11:24:06Z</time>
      </trkpt>
      <trkpt lat="41.387353" lon="0.395054">
        <ele>398.75</ele>
        <time>2018-06-10T11:24:08Z</time>
      </trkpt>
      <trkpt lat="41.387379" lon="0.395087">
        <ele>399.15</ele>
        <time>2018-06-10T11:24:10Z</time>
      </trkpt>
      <trkpt lat="41.387412" lon="0.395142">
        <ele>399.76</ele>
        <time>2018-06-10T11:24:13Z</time>
      </trkpt>
      <trkpt lat="41.387428" lon="0.395185">
        <ele>400.16</ele>
        <time>2018-06-10T11:24:15Z</time>
      </trkpt>
      <trkpt lat="41.387448" lon="0.395227">
        <ele>400.56</ele>
        <time>2018-06-10T11:24:17Z</time>
      </trkpt>
      <trkpt lat="41.387468" lon="0.395270">
        <ele>400.97</ele>
        <time>2018-06-10T11:24:19Z</time>
      </trkpt>
      <trkpt lat="41.387492" lon="0.395311">
        <ele>401.37</ele>
        <time>2018-06-10T11:24:21Z</time>
      </trkpt>
      <trkpt lat="41.387518" lon="0.395346">
        <ele>401.77</ele>
        <time>2018-06-10T11:24:23Z</time>
      </trkpt>
      <trkpt lat="41.387545" lon="0.395382">
        <ele>402.17</ele>
        <time>2018-06-10T11:24:25Z</time>
      </trkpt>
      <trkpt lat="41.387571" lon="0.395416">
        <ele>402.57</ele>
        <time>2018-06-10T11:24:27Z</time>
      </trkpt>
      <trkpt lat="41.387608" lon="0.395466">
        <ele>403.26</ele>
        <time>2018-06-10T11:24:30Z</time>
      </trkpt>
      <trkpt lat="41.387639" lon="0.395518">
        <ele>404.16</ele>
        <time>2018-06-10T11:24:33Z</time>
      </trkpt>
      <trkpt lat="41.387658" lon="0.395560">
        <ele>404.76</ele>
        <time>2018-06-10T11:24:35Z</time>
      </trkpt>
      <trkpt lat="41.387678" lon="0.395624">
        <ele>405.66</ele>
        <time>2018-06-10T11:24:38Z</time>
      </trkpt>
      <trkpt lat="41.387693" lon="0.395692">
        <ele>406.37</ele>
        <time>2018-06-10T11:24:41Z</time>
      </trkpt>
      <trkpt lat="41.387700" lon="0.395762">
        <ele>406.95</ele>
        <time>2018-06-10T11:24:44Z</time>
      </trkpt>
      <trkpt lat="41.387701" lon="0.395808">
        <ele>407.34</ele>
        <time>2018-06-10T11:24:46Z</time>
      </trkpt>
      <trkpt lat="41.387702" lon="0.395874">
        <ele>407.93</ele>
        <time>2018-06-10T11:24:49Z</time>
      </trkpt>
      <trkpt lat="41.387699" lon="0.395931">
        <ele>408.54</ele>
        <time>2018-06-10T11:24:52Z</time>
      </trkpt>
      <trkpt lat="41.387707" lon="0.395982">
        <ele>409.15</ele>
        <time>2018-06-10T11:24:55Z</time>
      </trkpt>
      <trkpt lat="41.387720" lon="0.396030">
        <ele>409.76</ele>
        <time>2018-06-10T11:24:58Z</time>
      </trkpt>
      <trkpt lat="41.387739" lon="0.396087">
        <ele>410.55</ele>
        <time>2018-06-10T11:25:01Z</time>
      </trkpt>
      <trkpt lat="41.387760" lon="0.396122">
        <ele>411.15</ele>
        <time>2018-06-10T11:25:03Z</time>
      </trkpt>
      <trkpt lat="41.387785" lon="0.396163">
        <ele>411.75</ele>
        <time>2018-06-10T11:25:05Z</time>
      </trkpt>
      <trkpt lat="41.387811" lon="0.396207">
        <ele>412.35</ele>
        <time>2018-06-10T11:25:07Z</time>
      </trkpt>
      <trkpt lat="41.387843" lon="0.396253">
        <ele>412.95</ele>
        <time>2018-06-10T11:25:09Z</time>
      </trkpt>
      <trkpt lat="41.387882" lon="0.396300">
        <ele>413.00</ele>
        <time>2018-06-10T11:25:11Z</time>
      </trkpt>
      <trkpt lat="41.387927" lon="0.396351">
        <ele>413.00</ele>
        <time>2018-06-10T11:25:13Z</time>
      </trkpt>
      <trkpt lat="41.387979" lon="0.396400">
        <ele>413.00</ele>
        <time>2018-06-10T11:25:15Z</time>
      </trkpt>
      <trkpt lat="41.388044" lon="0.396428">
        <ele>413.00</ele>
        <time>2018-06-10T11:25:17Z</time>
      </trkpt>
      <trkpt lat="41.388114" lon="0.396450">
        <ele>413.00</ele>
        <time>2018-06-10T11:25:19Z</time>
      </trkpt>
      <trkpt lat="41.388150" lon="0.396464">
        <ele>413.00</ele>
        <time>2018-06-10T11:25:20Z</time>
      </trkpt>
      <trkpt lat="41.388186" lon="0.396482">
        <ele>413.00</ele>
        <time>2018-06-10T11:25:21Z</time>
      </trkpt>
      <trkpt lat="41.388223" lon="0.396502">
        <ele>413.00</ele>
        <time>2018-06-10T11:25:22Z</time>
      </trkpt>
      <trkpt lat="41.388258" lon="0.396526">
        <ele>413.00</ele>
        <time>2018-06-10T11:25:23Z</time>
      </trkpt>
      <trkpt lat="41.388289" lon="0.396558">
        <ele>413.00</ele>
        <time>2018-06-10T11:25:24Z</time>
      </trkpt>
      <trkpt lat="41.388315" lon="0.396596">
        <ele>413.00</ele>
        <time>2018-06-10T11:25:25Z</time>
      </trkpt>
      <trkpt lat="41.388338" lon="0.396633">
        <ele>413.00</ele>
        <time>2018-06-10T11:25:26Z</time>
      </trkpt>
      <trkpt lat="41.388372" lon="0.396701">
        <ele>413.00</ele>
        <time>2018-06-10T11:25:28Z</time>
      </trkpt>
      <trkpt lat="41.388401" lon="0.396764">
        <ele>413.07</ele>
        <time>2018-06-10T11:25:30Z</time>
      </trkpt>
      <trkpt lat="41.388425" lon="0.396831">
        <ele>413.28</ele>
        <time>2018-06-10T11:25:32Z</time>
      </trkpt>
      <trkpt lat="41.388452" lon="0.396909">
        <ele>413.48</ele>
        <time>2018-06-10T11:25:34Z</time>
      </trkpt>
      <trkpt lat="41.388467" lon="0.397000">
        <ele>413.68</ele>
        <time>2018-06-10T11:25:36Z</time>
      </trkpt>
      <trkpt lat="41.388474" lon="0.397048">
        <ele>413.78</ele>
        <time>2018-06-10T11:25:37Z</time>
      </trkpt>
      <trkpt lat="41.388480" lon="0.397096">
        <ele>413.88</ele>
        <time>2018-06-10T11:25:38Z</time>
      </trkpt>
      <trkpt lat="41.388489" lon="0.397188">
        <ele>414.00</ele>
        <time>2018-06-10T11:25:40Z</time>
      </trkpt>
      <trkpt lat="41.388495" lon="0.397269">
        <ele>414.00</ele>
        <time>2018-06-10T11:25:42Z</time>
      </trkpt>
      <trkpt lat="41.388493" lon="0.397330">
        <ele>414.00</ele>
        <time>2018-06-10T11:25:44Z</time>
      </trkpt>
      <trkpt lat="41.388487" lon="0.397400">
        <ele>414.00</ele>
        <time>2018-06-10T11:25:46Z</time>
      </trkpt>
      <trkpt lat="41.388486" lon="0.397483">
        <ele>414.00</ele>
        <time>2018-06-10T11:25:48Z</time>
      </trkpt>
      <trkpt lat="41.388484" lon="0.397576">
        <ele>414.00</ele>
        <time>2018-06-10T11:25:50Z</time>
      </trkpt>
      <trkpt lat="41.388483" lon="0.397671">
        <ele>414.00</ele>
        <time>2018-06-10T11:25:52Z</time>
      </trkpt>
      <trkpt lat="41.388483" lon="0.397719">
        <ele>414.00</ele>
        <time>2018-06-10T11:25:53Z</time>
      </trkpt>
      <trkpt lat="41.388483" lon="0.397768">
        <ele>414.00</ele>
        <time>2018-06-10T11:25:54Z</time>
      </trkpt>
      <trkpt lat="41.388494" lon="0.397861">
        <ele>414.00</ele>
        <time>2018-06-10T11:25:56Z</time>
      </trkpt>
      <trkpt lat="41.388519" lon="0.397947">
        <ele>414.00</ele>
        <time>2018-06-10T11:25:58Z</time>
      </trkpt>
      <trkpt lat="41.388548" lon="0.398034">
        <ele>414.00</ele>
        <time>2018-06-10T11:26:00Z</time>
      </trkpt>
      <trkpt lat="41.388561" lon="0.398080">
        <ele>414.00</ele>
        <time>2018-06-10T11:26:01Z</time>
      </trkpt>
      <trkpt lat="41.388573" lon="0.398126">
        <ele>414.00</ele>
        <time>2018-06-10T11:26:02Z</time>
      </trkpt>
      <trkpt lat="41.388583" lon="0.398172">
        <ele>414.00</ele>
        <time>2018-06-10T11:26:03Z</time>
      </trkpt>
      <trkpt lat="41.388591" lon="0.398220">
        <ele>414.00</ele>
        <time>2018-06-10T11:26:04Z</time>
      </trkpt>
      <trkpt lat="41.388595" lon="0.398268">
        <ele>414.00</ele>
        <time>2018-06-10T11:26:05Z</time>
      </trkpt>
      <trkpt lat="41.388598" lon="0.398316">
        <ele>414.00</ele>
        <time>2018-06-10T11:26:06Z</time>
      </trkpt>
      <trkpt lat="41.388604" lon="0.398408">
        <ele>414.00</ele>
        <time>2018-06-10T11:26:08Z</time>
      </trkpt>
      <trkpt lat="41.388635" lon="0.398492">
        <ele>414.14</ele>
        <time>2018-06-10T11:26:10Z</time>
      </trkpt>
      <trkpt lat="41.388660" lon="0.398528">
        <ele>414.34</ele>
        <time>2018-06-10T11:26:11Z</time>
      </trkpt>
      <trkpt lat="41.388691" lon="0.398560">
        <ele>414.53</ele>
        <time>2018-06-10T11:26:12Z</time>
      </trkpt>
      <trkpt lat="41.388757" lon="0.398596">
        <ele>414.93</ele>
        <time>2018-06-10T11:26:14Z</time>
      </trkpt>
      <trkpt lat="41.388794" lon="0.398604">
        <ele>415.12</ele>
        <time>2018-06-10T11:26:15Z</time>
      </trkpt>
      <trkpt lat="41.388864" lon="0.398614">
        <ele>415.52</ele>
        <time>2018-06-10T11:26:17Z</time>
      </trkpt>
      <trkpt lat="41.388929" lon="0.398630">
        <ele>415.91</ele>
        <time>2018-06-10T11:26:19Z</time>
      </trkpt>
      <trkpt lat="41.388995" lon="0.398654">
        <ele>416.32</ele>
        <time>2018-06-10T11:26:21Z</time>
      </trkpt>
      <trkpt lat="41.389051" lon="0.398688">
        <ele>416.73</ele>
        <time>2018-06-10T11:26:23Z</time>
      </trkpt>
      <trkpt lat="41.389091" lon="0.398735">
        <ele>417.14</ele>
        <time>2018-06-10T11:26:25Z</time>
      </trkpt>
      <trkpt lat="41.389131" lon="0.398812">
        <ele>417.56</ele>
        <time>2018-06-10T11:26:27Z</time>
      </trkpt>
      <trkpt lat="41.389146" lon="0.398860">
        <ele>417.76</ele>
        <time>2018-06-10T11:26:28Z</time>
      </trkpt>
      <trkpt lat="41.389162" lon="0.398904">
        <ele>417.97</ele>
        <time>2018-06-10T11:26:29Z</time>
      </trkpt>
      <trkpt lat="41.389202" lon="0.398980">
        <ele>418.00</ele>
        <time>2018-06-10T11:26:31Z</time>
      </trkpt>
      <trkpt lat="41.389256" lon="0.399035">
        <ele>418.00</ele>
        <time>2018-06-10T11:26:33Z</time>
      </trkpt>
      <trkpt lat="41.389288" lon="0.399060">
        <ele>418.00</ele>
        <time>2018-06-10T11:26:34Z</time>
      </trkpt>
      <trkpt lat="41.389322" lon="0.399080">
        <ele>418.00</ele>
        <time>2018-06-10T11:26:35Z</time>
      </trkpt>
      <trkpt lat="41.389357" lon="0.399098">
        <ele>418.00</ele>
        <time>2018-06-10T11:26:36Z</time>
      </trkpt>
      <trkpt lat="41.389397" lon="0.399108">
        <ele>418.00</ele>
        <time>2018-06-10T11:26:37Z</time>
      </trkpt>
      <trkpt lat="41.389440" lon="0.399120">
        <ele>418.00</ele>
        <time>2018-06-10T11:26:38Z</time>
      </trkpt>
      <trkpt lat="41.389481" lon="0.399140">
        <ele>418.00</ele>
        <time>2018-06-10T11:26:39Z</time>
      </trkpt>
      <trkpt lat="41.389511" lon="0.399166">
        <ele>417.93</ele>
        <time>2018-06-10T11:26:40Z</time>
      </trkpt>
      <trkpt lat="41.389561" lon="0.399228">
        <ele>417.72</ele>
        <time>2018-06-10T11:26:42Z</time>
      </trkpt>
      <trkpt lat="41.389579" lon="0.399272">
        <ele>417.62</ele>
        <time>2018-06-10T11:26:43Z</time>
      </trkpt>
      <trkpt lat="41.389597" lon="0.399314">
        <ele>417.52</ele>
        <time>2018-06-10T11:26:44Z</time>
      </trkpt>
      <trkpt lat="41.389619" lon="0.399356">
        <ele>417.42</ele>
        <time>2018-06-10T11:26:45Z</time>
      </trkpt>
      <trkpt lat="41.389642" lon="0.399394">
        <ele>417.32</ele>
        <time>2018-06-10T11:26:46Z</time>
      </trkpt>
      <trkpt lat="41.389667" lon="0.399430">
        <ele>417.22</ele>
        <time>2018-06-10T11:26:47Z</time>
      </trkpt>
      <trkpt lat="41.389716" lon="0.399500">
        <ele>417.02</ele>
        <time>2018-06-10T11:26:49Z</time>
      </trkpt>
      <trkpt lat="41.389742" lon="0.399534">
        <ele>417.08</ele>
        <time>2018-06-10T11:26:50Z</time>
      </trkpt>
      <trkpt lat="41.389768" lon="0.399568">
        <ele>417.18</ele>
        <time>2018-06-10T11:26:51Z</time>
      </trkpt>
      <trkpt lat="41.389798" lon="0.399598">
        <ele>417.28</ele>
        <time>2018-06-10T11:26:52Z</time>
      </trkpt>
      <trkpt lat="41.389830" lon="0.399628">
        <ele>417.38</ele>
        <time>2018-06-10T11:26:53Z</time>
      </trkpt>
      <trkpt lat="41.389871" lon="0.399656">
        <ele>417.47</ele>
        <time>2018-06-10T11:26:54Z</time>
      </trkpt>
      <trkpt lat="41.389917" lon="0.399681">
        <ele>417.57</ele>
        <time>2018-06-10T11:26:55Z</time>
      </trkpt>
      <trkpt lat="41.389961" lon="0.399702">
        <ele>417.67</ele>
        <time>2018-06-10T11:26:56Z</time>
      </trkpt>
      <trkpt lat="41.390006" lon="0.399722">
        <ele>417.77</ele>
        <time>2018-06-10T11:26:57Z</time>
      </trkpt>
      <trkpt lat="41.390052" lon="0.399742">
        <ele>417.86</ele>
        <time>2018-06-10T11:26:58Z</time>
      </trkpt>
      <trkpt lat="41.390094" lon="0.399760">
        <ele>417.96</ele>
        <time>2018-06-10T11:26:59Z</time>
      </trkpt>
      <trkpt lat="41.390130" lon="0.399774">
        <ele>417.94</ele>
        <time>2018-06-10T11:27:00Z</time>
      </trkpt>
      <trkpt lat="41.390194" lon="0.399785">
        <ele>417.73</ele>
        <time>2018-06-10T11:27:02Z</time>
      </trkpt>
      <trkpt lat="41.390254" lon="0.399779">
        <ele>417.53</ele>
        <time>2018-06-10T11:27:04Z</time>
      </trkpt>
      <trkpt lat="41.390305" lon="0.399766">
        <ele>417.32</ele>
        <time>2018-06-10T11:27:06Z</time>
      </trkpt>
      <trkpt lat="41.390345" lon="0.399758">
        <ele>417.12</ele>
        <time>2018-06-10T11:27:08Z</time>
      </trkpt>
      <trkpt lat="41.390390" lon="0.399775">
        <ele>416.58</ele>
        <time>2018-06-10T11:27:10Z</time>
      </trkpt>
      <trkpt lat="41.390452" lon="0.399805">
        <ele>415.59</ele>
        <time>2018-06-10T11:27:12Z</time>
      </trkpt>
      <trkpt lat="41.390496" lon="0.399826">
        <ele>415.09</ele>
        <time>2018-06-10T11:27:13Z</time>
      </trkpt>
      <trkpt lat="41.390544" lon="0.399854">
        <ele>414.60</ele>
        <time>2018-06-10T11:27:14Z</time>
      </trkpt>
      <trkpt lat="41.390590" lon="0.399876">
        <ele>414.10</ele>
        <time>2018-06-10T11:27:15Z</time>
      </trkpt>
      <trkpt lat="41.390637" lon="0.399885">
        <ele>413.60</ele>
        <time>2018-06-10T11:27:16Z</time>
      </trkpt>
      <trkpt lat="41.390682" lon="0.399881">
        <ele>413.11</ele>
        <time>2018-06-10T11:27:17Z</time>
      </trkpt>
      <trkpt lat="41.390723" lon="0.399876">
        <ele>412.61</ele>
        <time>2018-06-10T11:27:18Z</time>
      </trkpt>
      <trkpt lat="41.390760" lon="0.399878">
        <ele>412.11</ele>
        <time>2018-06-10T11:27:19Z</time>
      </trkpt>
      <trkpt lat="41.390809" lon="0.399913">
        <ele>410.34</ele>
        <time>2018-06-10T11:27:21Z</time>
      </trkpt>
      <trkpt lat="41.390812" lon="0.399958">
        <ele>408.46</ele>
        <time>2018-06-10T11:27:23Z</time>
      </trkpt>
      <trkpt lat="41.390773" lon="0.400000">
        <ele>406.58</ele>
        <time>2018-06-10T11:27:25Z</time>
      </trkpt>
      <trkpt lat="41.390707" lon="0.400053">
        <ele>404.70</ele>
        <time>2018-06-10T11:27:27Z</time>
      </trkpt>
      <trkpt lat="41.390437" lon="0.400264">
        <ele>401.38</ele>
        <time>2018-06-10T11:27:33Z</time>
      </trkpt>
      <trkpt lat="41.390489" lon="0.400826">
        <ele>393.07</ele>
        <time>2018-06-10T11:27:49Z</time>
      </trkpt>
      <trkpt lat="41.390532" lon="0.400878">
        <ele>392.82</ele>
        <time>2018-06-10T11:27:51Z</time>
      </trkpt>
      <trkpt lat="41.390552" lon="0.400944">
        <ele>392.63</ele>
        <time>2018-06-10T11:27:53Z</time>
      </trkpt>
      <trkpt lat="41.390554" lon="0.401026">
        <ele>392.43</ele>
        <time>2018-06-10T11:27:55Z</time>
      </trkpt>
      <trkpt lat="41.390528" lon="0.401089">
        <ele>392.23</ele>
        <time>2018-06-10T11:27:57Z</time>
      </trkpt>
      <trkpt lat="41.390507" lon="0.401142">
        <ele>392.04</ele>
        <time>2018-06-10T11:27:59Z</time>
      </trkpt>
      <trkpt lat="41.390490" lon="0.401197">
        <ele>392.33</ele>
        <time>2018-06-10T11:28:01Z</time>
      </trkpt>
      <trkpt lat="41.390476" lon="0.401255">
        <ele>392.74</ele>
        <time>2018-06-10T11:28:03Z</time>
      </trkpt>
      <trkpt lat="41.390458" lon="0.401335">
        <ele>393.15</ele>
        <time>2018-06-10T11:28:05Z</time>
      </trkpt>
      <trkpt lat="41.390449" lon="0.401384">
        <ele>393.36</ele>
        <time>2018-06-10T11:28:06Z</time>
      </trkpt>
      <trkpt lat="41.390439" lon="0.401434">
        <ele>393.56</ele>
        <time>2018-06-10T11:28:07Z</time>
      </trkpt>
      <trkpt lat="41.390424" lon="0.401481">
        <ele>393.77</ele>
        <time>2018-06-10T11:28:08Z</time>
      </trkpt>
      <trkpt lat="41.390393" lon="0.401547">
        <ele>394.00</ele>
        <time>2018-06-10T11:28:10Z</time>
      </trkpt>
      <trkpt lat="41.390358" lon="0.401595">
        <ele>394.00</ele>
        <time>2018-06-10T11:28:12Z</time>
      </trkpt>
      <trkpt lat="41.390313" lon="0.401638">
        <ele>394.00</ele>
        <time>2018-06-10T11:28:14Z</time>
      </trkpt>
      <trkpt lat="41.390267" lon="0.401678">
        <ele>394.00</ele>
        <time>2018-06-10T11:28:16Z</time>
      </trkpt>
      <trkpt lat="41.390228" lon="0.401743">
        <ele>394.00</ele>
        <time>2018-06-10T11:28:18Z</time>
      </trkpt>
      <trkpt lat="41.390219" lon="0.401830">
        <ele>393.92</ele>
        <time>2018-06-10T11:28:20Z</time>
      </trkpt>
      <trkpt lat="41.390218" lon="0.401905">
        <ele>393.72</ele>
        <time>2018-06-10T11:28:22Z</time>
      </trkpt>
      <trkpt lat="41.390216" lon="0.401984">
        <ele>393.52</ele>
        <time>2018-06-10T11:28:24Z</time>
      </trkpt>
      <trkpt lat="41.390209" lon="0.402065">
        <ele>393.32</ele>
        <time>2018-06-10T11:28:26Z</time>
      </trkpt>
      <trkpt lat="41.390202" lon="0.402136">
        <ele>393.12</ele>
        <time>2018-06-10T11:28:28Z</time>
      </trkpt>
      <trkpt lat="41.390209" lon="0.402190">
        <ele>393.00</ele>
        <time>2018-06-10T11:28:30Z</time>
      </trkpt>
      <trkpt lat="41.390245" lon="0.402211">
        <ele>393.00</ele>
        <time>2018-06-10T11:28:32Z</time>
      </trkpt>
      <trkpt lat="41.390289" lon="0.402211">
        <ele>393.00</ele>
        <time>2018-06-10T11:28:34Z</time>
      </trkpt>
      <trkpt lat="41.390325" lon="0.402254">
        <ele>393.00</ele>
        <time>2018-06-10T11:28:37Z</time>
      </trkpt>
      <trkpt lat="41.390312" lon="0.402325">
        <ele>392.79</ele>
        <time>2018-06-10T11:28:40Z</time>
      </trkpt>
      <trkpt lat="41.390271" lon="0.402387">
        <ele>392.20</ele>
        <time>2018-06-10T11:28:42Z</time>
      </trkpt>
      <trkpt lat="41.390240" lon="0.402434">
        <ele>391.91</ele>
        <time>2018-06-10T11:28:43Z</time>
      </trkpt>
      <trkpt lat="41.390203" lon="0.402495">
        <ele>391.62</ele>
        <time>2018-06-10T11:28:44Z</time>
      </trkpt>
      <trkpt lat="41.390172" lon="0.402561">
        <ele>391.33</ele>
        <time>2018-06-10T11:28:45Z</time>
      </trkpt>
      <trkpt lat="41.390148" lon="0.402623">
        <ele>391.04</ele>
        <time>2018-06-10T11:28:46Z</time>
      </trkpt>
      <trkpt lat="41.390123" lon="0.402679">
        <ele>390.75</ele>
        <time>2018-06-10T11:28:47Z</time>
      </trkpt>
      <trkpt lat="41.390092" lon="0.402738">
        <ele>390.45</ele>
        <time>2018-06-10T11:28:48Z</time>
      </trkpt>
      <trkpt lat="41.390059" lon="0.402806">
        <ele>390.16</ele>
        <time>2018-06-10T11:28:49Z</time>
      </trkpt>
      <trkpt lat="41.390047" lon="0.402877">
        <ele>389.86</ele>
        <time>2018-06-10T11:28:50Z</time>
      </trkpt>
      <trkpt lat="41.390056" lon="0.402938">
        <ele>389.56</ele>
        <time>2018-06-10T11:28:51Z</time>
      </trkpt>
      <trkpt lat="41.390074" lon="0.402984">
        <ele>389.25</ele>
        <time>2018-06-10T11:28:52Z</time>
      </trkpt>
      <trkpt lat="41.390096" lon="0.403024">
        <ele>388.94</ele>
        <time>2018-06-10T11:28:53Z</time>
      </trkpt>
      <trkpt lat="41.390117" lon="0.403064">
        <ele>388.63</ele>
        <time>2018-06-10T11:28:54Z</time>
      </trkpt>
      <trkpt lat="41.390140" lon="0.403104">
        <ele>388.32</ele>
        <time>2018-06-10T11:28:55Z</time>
      </trkpt>
      <trkpt lat="41.390165" lon="0.403141">
        <ele>388.01</ele>
        <time>2018-06-10T11:28:56Z</time>
      </trkpt>
      <trkpt lat="41.390192" lon="0.403176">
        <ele>387.70</ele>
        <time>2018-06-10T11:28:57Z</time>
      </trkpt>
      <trkpt lat="41.390231" lon="0.403241">
        <ele>387.09</ele>
        <time>2018-06-10T11:28:59Z</time>
      </trkpt>
      <trkpt lat="41.390240" lon="0.403293">
        <ele>386.83</ele>
        <time>2018-06-10T11:29:01Z</time>
      </trkpt>
      <trkpt lat="41.390233" lon="0.403347">
        <ele>385.93</ele>
        <time>2018-06-10T11:29:10Z</time>
      </trkpt>
      <trkpt lat="41.390265" lon="0.403372">
        <ele>384.42</ele>
        <time>2018-06-10T11:29:35Z</time>
      </trkpt>
      <trkpt lat="41.390299" lon="0.403397">
        <ele>383.91</ele>
        <time>2018-06-10T11:29:40Z</time>
      </trkpt>
      <trkpt lat="41.390334" lon="0.403395">
        <ele>383.02</ele>
        <time>2018-06-10T11:29:49Z</time>
      </trkpt>
      <trkpt lat="41.390383" lon="0.403397">
        <ele>381.87</ele>
        <time>2018-06-10T11:29:52Z</time>
      </trkpt>
      <trkpt lat="41.390431" lon="0.403412">
        <ele>381.07</ele>
        <time>2018-06-10T11:29:54Z</time>
      </trkpt>
      <trkpt lat="41.390475" lon="0.403431">
        <ele>380.67</ele>
        <time>2018-06-10T11:29:55Z</time>
      </trkpt>
      <trkpt lat="41.390528" lon="0.403442">
        <ele>380.27</ele>
        <time>2018-06-10T11:29:56Z</time>
      </trkpt>
      <trkpt lat="41.390575" lon="0.403438">
        <ele>379.87</ele>
        <time>2018-06-10T11:29:57Z</time>
      </trkpt>
      <trkpt lat="41.390616" lon="0.403430">
        <ele>379.47</ele>
        <time>2018-06-10T11:29:58Z</time>
      </trkpt>
      <trkpt lat="41.390676" lon="0.403399">
        <ele>378.61</ele>
        <time>2018-06-10T11:30:00Z</time>
      </trkpt>
      <trkpt lat="41.390711" lon="0.403384">
        <ele>378.13</ele>
        <time>2018-06-10T11:30:01Z</time>
      </trkpt>
      <trkpt lat="41.390778" lon="0.403366">
        <ele>377.16</ele>
        <time>2018-06-10T11:30:03Z</time>
      </trkpt>
      <trkpt lat="41.390820" lon="0.403371">
        <ele>376.68</ele>
        <time>2018-06-10T11:30:04Z</time>
      </trkpt>
      <trkpt lat="41.390863" lon="0.403387">
        <ele>376.20</ele>
        <time>2018-06-10T11:30:05Z</time>
      </trkpt>
      <trkpt lat="41.390900" lon="0.403412">
        <ele>375.72</ele>
        <time>2018-06-10T11:30:06Z</time>
      </trkpt>
      <trkpt lat="41.390956" lon="0.403440">
        <ele>374.76</ele>
        <time>2018-06-10T11:30:08Z</time>
      </trkpt>
      <trkpt lat="41.390990" lon="0.403436">
        <ele>372.87</ele>
        <time>2018-06-10T11:30:15Z</time>
      </trkpt>
      <trkpt lat="41.391035" lon="0.403429">
        <ele>372.25</ele>
        <time>2018-06-10T11:30:18Z</time>
      </trkpt>
      <trkpt lat="41.391082" lon="0.403429">
        <ele>371.12</ele>
        <time>2018-06-10T11:30:21Z</time>
      </trkpt>
      <trkpt lat="41.391110" lon="0.403433">
        <ele>370.16</ele>
        <time>2018-06-10T11:30:23Z</time>
      </trkpt>
      <trkpt lat="41.391151" lon="0.403446">
        <ele>368.71</ele>
        <time>2018-06-10T11:30:26Z</time>
      </trkpt>
      <trkpt lat="41.391192" lon="0.403485">
        <ele>366.23</ele>
        <time>2018-06-10T11:30:32Z</time>
      </trkpt>
      <trkpt lat="41.391220" lon="0.403541">
        <ele>365.61</ele>
        <time>2018-06-10T11:30:34Z</time>
      </trkpt>
      <trkpt lat="41.391228" lon="0.403587">
        <ele>365.30</ele>
        <time>2018-06-10T11:30:35Z</time>
      </trkpt>
      <trkpt lat="41.391228" lon="0.403637">
        <ele>364.99</ele>
        <time>2018-06-10T11:30:36Z</time>
      </trkpt>
      <trkpt lat="41.391219" lon="0.403719">
        <ele>364.36</ele>
        <time>2018-06-10T11:30:38Z</time>
      </trkpt>
      <trkpt lat="41.391187" lon="0.403788">
        <ele>363.75</ele>
        <time>2018-06-10T11:30:40Z</time>
      </trkpt>
      <trkpt lat="41.391147" lon="0.403809">
        <ele>363.46</ele>
        <time>2018-06-10T11:30:41Z</time>
      </trkpt>
      <trkpt lat="41.391110" lon="0.403829">
        <ele>363.16</ele>
        <time>2018-06-10T11:30:42Z</time>
      </trkpt>
      <trkpt lat="41.391071" lon="0.403850">
        <ele>362.86</ele>
        <time>2018-06-10T11:30:43Z</time>
      </trkpt>
      <trkpt lat="41.391028" lon="0.403863">
        <ele>362.57</ele>
        <time>2018-06-10T11:30:44Z</time>
      </trkpt>
      <trkpt lat="41.390984" lon="0.403861">
        <ele>362.27</ele>
        <time>2018-06-10T11:30:45Z</time>
      </trkpt>
      <trkpt lat="41.390945" lon="0.403850">
        <ele>361.97</ele>
        <time>2018-06-10T11:30:46Z</time>
      </trkpt>
      <trkpt lat="41.390910" lon="0.403835">
        <ele>361.68</ele>
        <time>2018-06-10T11:30:47Z</time>
      </trkpt>
      <trkpt lat="41.390871" lon="0.403810">
        <ele>361.08</ele>
        <time>2018-06-10T11:30:49Z</time>
      </trkpt>
      <trkpt lat="41.390828" lon="0.403795">
        <ele>360.72</ele>
        <time>2018-06-10T11:30:52Z</time>
      </trkpt>
      <trkpt lat="41.390791" lon="0.403782">
        <ele>360.52</ele>
        <time>2018-06-10T11:30:54Z</time>
      </trkpt>
      <trkpt lat="41.390749" lon="0.403780">
        <ele>360.32</ele>
        <time>2018-06-10T11:30:56Z</time>
      </trkpt>
      <trkpt lat="41.390705" lon="0.403795">
        <ele>360.11</ele>
        <time>2018-06-10T11:30:58Z</time>
      </trkpt>
      <trkpt lat="41.390668" lon="0.403823">
        <ele>360.09</ele>
        <time>2018-06-10T11:31:00Z</time>
      </trkpt>
      <trkpt lat="41.390649" lon="0.403873">
        <ele>360.29</ele>
        <time>2018-06-10T11:31:02Z</time>
      </trkpt>
      <trkpt lat="41.390653" lon="0.403931">
        <ele>360.49</ele>
        <time>2018-06-10T11:31:04Z</time>
      </trkpt>
      <trkpt lat="41.390664" lon="0.403997">
        <ele>360.69</ele>
        <time>2018-06-10T11:31:06Z</time>
      </trkpt>
      <trkpt lat="41.390674" lon="0.404068">
        <ele>360.89</ele>
        <time>2018-06-10T11:31:08Z</time>
      </trkpt>
      <trkpt lat="41.390679" lon="0.404143">
        <ele>361.09</ele>
        <time>2018-06-10T11:31:10Z</time>
      </trkpt>
      <trkpt lat="41.390668" lon="0.404214">
        <ele>361.28</ele>
        <time>2018-06-10T11:31:12Z</time>
      </trkpt>
      <trkpt lat="41.390660" lon="0.404286">
        <ele>361.48</ele>
        <time>2018-06-10T11:31:14Z</time>
      </trkpt>
      <trkpt lat="41.390646" lon="0.404364">
        <ele>361.68</ele>
        <time>2018-06-10T11:31:16Z</time>
      </trkpt>
      <trkpt lat="41.390624" lon="0.404434">
        <ele>361.87</ele>
        <time>2018-06-10T11:31:18Z</time>
      </trkpt>
      <trkpt lat="41.390604" lon="0.404498">
        <ele>362.07</ele>
        <time>2018-06-10T11:31:20Z</time>
      </trkpt>
      <trkpt lat="41.390578" lon="0.404564">
        <ele>362.27</ele>
        <time>2018-06-10T11:31:22Z</time>
      </trkpt>
      <trkpt lat="41.390561" lon="0.404643">
        <ele>362.47</ele>
        <time>2018-06-10T11:31:24Z</time>
      </trkpt>
      <trkpt lat="41.390571" lon="0.404723">
        <ele>362.67</ele>
        <time>2018-06-10T11:31:26Z</time>
      </trkpt>
      <trkpt lat="41.390556" lon="0.404805">
        <ele>362.87</ele>
        <time>2018-06-10T11:31:28Z</time>
      </trkpt>
      <trkpt lat="41.390523" lon="0.404870">
        <ele>363.00</ele>
        <time>2018-06-10T11:31:30Z</time>
      </trkpt>
      <trkpt lat="41.390475" lon="0.404948">
        <ele>363.00</ele>
        <time>2018-06-10T11:31:32Z</time>
      </trkpt>
      <trkpt lat="41.390445" lon="0.404982">
        <ele>363.00</ele>
        <time>2018-06-10T11:31:33Z</time>
      </trkpt>
      <trkpt lat="41.390408" lon="0.405009">
        <ele>363.00</ele>
        <time>2018-06-10T11:31:34Z</time>
      </trkpt>
      <trkpt lat="41.390364" lon="0.405025">
        <ele>363.00</ele>
        <time>2018-06-10T11:31:35Z</time>
      </trkpt>
      <trkpt lat="41.390322" lon="0.405036">
        <ele>363.00</ele>
        <time>2018-06-10T11:31:36Z</time>
      </trkpt>
      <trkpt lat="41.390286" lon="0.405042">
        <ele>363.00</ele>
        <time>2018-06-10T11:31:37Z</time>
      </trkpt>
      <trkpt lat="41.390221" lon="0.405069">
        <ele>363.00</ele>
        <time>2018-06-10T11:31:39Z</time>
      </trkpt>
      <trkpt lat="41.390182" lon="0.405087">
        <ele>362.75</ele>
        <time>2018-06-10T11:31:40Z</time>
      </trkpt>
      <trkpt lat="41.390142" lon="0.405110">
        <ele>362.45</ele>
        <time>2018-06-10T11:31:41Z</time>
      </trkpt>
      <trkpt lat="41.390103" lon="0.405135">
        <ele>362.15</ele>
        <time>2018-06-10T11:31:42Z</time>
      </trkpt>
      <trkpt lat="41.390049" lon="0.405160">
        <ele>361.55</ele>
        <time>2018-06-10T11:31:44Z</time>
      </trkpt>
      <trkpt lat="41.390008" lon="0.405159">
        <ele>360.65</ele>
        <time>2018-06-10T11:31:47Z</time>
      </trkpt>
      <trkpt lat="41.389972" lon="0.405141">
        <ele>360.08</ele>
        <time>2018-06-10T11:31:50Z</time>
      </trkpt>
      <trkpt lat="41.389927" lon="0.405125">
        <ele>360.38</ele>
        <time>2018-06-10T11:31:53Z</time>
      </trkpt>
      <trkpt lat="41.389883" lon="0.405083">
        <ele>360.58</ele>
        <time>2018-06-10T11:31:55Z</time>
      </trkpt>
      <trkpt lat="41.389840" lon="0.405029">
        <ele>360.78</ele>
        <time>2018-06-10T11:31:57Z</time>
      </trkpt>
      <trkpt lat="41.389811" lon="0.404974">
        <ele>360.98</ele>
        <time>2018-06-10T11:31:59Z</time>
      </trkpt>
      <trkpt lat="41.389788" lon="0.404927">
        <ele>360.82</ele>
        <time>2018-06-10T11:32:01Z</time>
      </trkpt>
      <trkpt lat="41.389759" lon="0.404880">
        <ele>360.61</ele>
        <time>2018-06-10T11:32:03Z</time>
      </trkpt>
      <trkpt lat="41.389729" lon="0.404830">
        <ele>360.41</ele>
        <time>2018-06-10T11:32:05Z</time>
      </trkpt>
      <trkpt lat="41.389700" lon="0.404792">
        <ele>360.21</ele>
        <time>2018-06-10T11:32:07Z</time>
      </trkpt>
      <trkpt lat="41.389649" lon="0.404756">
        <ele>360.01</ele>
        <time>2018-06-10T11:32:09Z</time>
      </trkpt>
      <trkpt lat="41.389609" lon="0.404729">
        <ele>359.91</ele>
        <time>2018-06-10T11:32:10Z</time>
      </trkpt>
      <trkpt lat="41.389563" lon="0.404700">
        <ele>359.81</ele>
        <time>2018-06-10T11:32:11Z</time>
      </trkpt>
      <trkpt lat="41.389522" lon="0.404679">
        <ele>359.71</ele>
        <time>2018-06-10T11:32:12Z</time>
      </trkpt>
      <trkpt lat="41.389464" lon="0.404668">
        <ele>359.51</ele>
        <time>2018-06-10T11:32:14Z</time>
      </trkpt>
      <trkpt lat="41.389413" lon="0.404661">
        <ele>359.31</ele>
        <time>2018-06-10T11:32:16Z</time>
      </trkpt>
      <trkpt lat="41.389367" lon="0.404659">
        <ele>359.11</ele>
        <time>2018-06-10T11:32:18Z</time>
      </trkpt>
      <trkpt lat="41.389319" lon="0.404649">
        <ele>359.00</ele>
        <time>2018-06-10T11:32:20Z</time>
      </trkpt>
      <trkpt lat="41.389279" lon="0.404631">
        <ele>359.00</ele>
        <time>2018-06-10T11:32:22Z</time>
      </trkpt>
      <trkpt lat="41.389247" lon="0.404611">
        <ele>359.00</ele>
        <time>2018-06-10T11:32:24Z</time>
      </trkpt>
      <trkpt lat="41.389210" lon="0.404579">
        <ele>359.00</ele>
        <time>2018-06-10T11:32:26Z</time>
      </trkpt>
      <trkpt lat="41.389159" lon="0.404547">
        <ele>359.00</ele>
        <time>2018-06-10T11:32:28Z</time>
      </trkpt>
      <trkpt lat="41.389111" lon="0.404522">
        <ele>358.92</ele>
        <time>2018-06-10T11:32:30Z</time>
      </trkpt>
      <trkpt lat="41.389069" lon="0.404533">
        <ele>358.72</ele>
        <time>2018-06-10T11:32:32Z</time>
      </trkpt>
      <trkpt lat="41.389028" lon="0.404560">
        <ele>358.52</ele>
        <time>2018-06-10T11:32:34Z</time>
      </trkpt>
      <trkpt lat="41.389020" lon="0.404618">
        <ele>358.22</ele>
        <time>2018-06-10T11:32:37Z</time>
      </trkpt>
      <trkpt lat="41.389034" lon="0.404666">
        <ele>358.08</ele>
        <time>2018-06-10T11:32:40Z</time>
      </trkpt>
      <trkpt lat="41.389024" lon="0.404715">
        <ele>358.78</ele>
        <time>2018-06-10T11:32:47Z</time>
      </trkpt>
      <trkpt lat="41.389031" lon="0.404769">
        <ele>359.58</ele>
        <time>2018-06-10T11:32:55Z</time>
      </trkpt>
      <trkpt lat="41.389046" lon="0.404833">
        <ele>359.88</ele>
        <time>2018-06-10T11:32:58Z</time>
      </trkpt>
      <trkpt lat="41.389045" lon="0.404885">
        <ele>360.08</ele>
        <time>2018-06-10T11:33:00Z</time>
      </trkpt>
      <trkpt lat="41.389050" lon="0.404959">
        <ele>360.38</ele>
        <time>2018-06-10T11:33:03Z</time>
      </trkpt>
      <trkpt lat="41.389051" lon="0.405022">
        <ele>360.69</ele>
        <time>2018-06-10T11:33:06Z</time>
      </trkpt>
      <trkpt lat="41.389045" lon="0.405078">
        <ele>360.89</ele>
        <time>2018-06-10T11:33:08Z</time>
      </trkpt>
      <trkpt lat="41.389040" lon="0.405136">
        <ele>361.00</ele>
        <time>2018-06-10T11:33:10Z</time>
      </trkpt>
      <trkpt lat="41.389042" lon="0.405207">
        <ele>361.00</ele>
        <time>2018-06-10T11:33:12Z</time>
      </trkpt>
      <trkpt lat="41.389035" lon="0.405264">
        <ele>361.00</ele>
        <time>2018-06-10T11:33:14Z</time>
      </trkpt>
      <trkpt lat="41.389029" lon="0.405326">
        <ele>361.00</ele>
        <time>2018-06-10T11:33:17Z</time>
      </trkpt>
      <trkpt lat="41.389028" lon="0.405376">
        <ele>361.00</ele>
        <time>2018-06-10T11:33:19Z</time>
      </trkpt>
      <trkpt lat="41.389023" lon="0.405432">
        <ele>361.31</ele>
        <time>2018-06-10T11:33:21Z</time>
      </trkpt>
      <trkpt lat="41.389016" lon="0.405492">
        <ele>361.73</ele>
        <time>2018-06-10T11:33:23Z</time>
      </trkpt>
      <trkpt lat="41.389001" lon="0.405552">
        <ele>362.14</ele>
        <time>2018-06-10T11:33:25Z</time>
      </trkpt>
      <trkpt lat="41.388985" lon="0.405608">
        <ele>362.56</ele>
        <time>2018-06-10T11:33:27Z</time>
      </trkpt>
      <trkpt lat="41.388955" lon="0.405655">
        <ele>362.97</ele>
        <time>2018-06-10T11:33:29Z</time>
      </trkpt>
      <trkpt lat="41.388926" lon="0.405701">
        <ele>363.19</ele>
        <time>2018-06-10T11:33:31Z</time>
      </trkpt>
      <trkpt lat="41.388899" lon="0.405757">
        <ele>363.39</ele>
        <time>2018-06-10T11:33:33Z</time>
      </trkpt>
      <trkpt lat="41.388875" lon="0.405835">
        <ele>363.59</ele>
        <time>2018-06-10T11:33:35Z</time>
      </trkpt>
      <trkpt lat="41.388893" lon="0.405919">
        <ele>363.79</ele>
        <time>2018-06-10T11:33:37Z</time>
      </trkpt>
      <trkpt lat="41.388942" lon="0.405972">
        <ele>363.99</ele>
        <time>2018-06-10T11:33:39Z</time>
      </trkpt>
      <trkpt lat="41.388969" lon="0.406004">
        <ele>363.82</ele>
        <time>2018-06-10T11:33:40Z</time>
      </trkpt>
      <trkpt lat="41.388992" lon="0.406041">
        <ele>363.60</ele>
        <time>2018-06-10T11:33:41Z</time>
      </trkpt>
      <trkpt lat="41.389017" lon="0.406079">
        <ele>363.39</ele>
        <time>2018-06-10T11:33:42Z</time>
      </trkpt>
      <trkpt lat="41.389042" lon="0.406121">
        <ele>363.18</ele>
        <time>2018-06-10T11:33:43Z</time>
      </trkpt>
      <trkpt lat="41.389068" lon="0.406169">
        <ele>362.96</ele>
        <time>2018-06-10T11:33:44Z</time>
      </trkpt>
      <trkpt lat="41.389096" lon="0.406221">
        <ele>362.75</ele>
        <time>2018-06-10T11:33:45Z</time>
      </trkpt>
      <trkpt lat="41.389126" lon="0.406275">
        <ele>362.54</ele>
        <time>2018-06-10T11:33:46Z</time>
      </trkpt>
      <trkpt lat="41.389156" lon="0.406323">
        <ele>362.32</ele>
        <time>2018-06-10T11:33:47Z</time>
      </trkpt>
      <trkpt lat="41.389188" lon="0.406362">
        <ele>362.11</ele>
        <time>2018-06-10T11:33:48Z</time>
      </trkpt>
      <trkpt lat="41.389354" lon="0.406571">
        <ele>360.58</ele>
        <time>2018-06-10T11:33:54Z</time>
      </trkpt>
      <trkpt lat="41.389586" lon="0.406926">
        <ele>359.00</ele>
        <time>2018-06-10T11:34:09Z</time>
      </trkpt>
      <trkpt lat="41.389636" lon="0.406948">
        <ele>358.16</ele>
        <time>2018-06-10T11:34:11Z</time>
      </trkpt>
      <trkpt lat="41.389690" lon="0.406966">
        <ele>356.89</ele>
        <time>2018-06-10T11:34:13Z</time>
      </trkpt>
      <trkpt lat="41.389740" lon="0.406978">
        <ele>355.62</ele>
        <time>2018-06-10T11:34:15Z</time>
      </trkpt>
      <trkpt lat="41.389770" lon="0.407004">
        <ele>354.35</ele>
        <time>2018-06-10T11:34:17Z</time>
      </trkpt>
      <trkpt lat="41.389802" lon="0.407036">
        <ele>352.74</ele>
        <time>2018-06-10T11:34:20Z</time>
      </trkpt>
      <trkpt lat="41.389823" lon="0.407061">
        <ele>351.25</ele>
        <time>2018-06-10T11:34:25Z</time>
      </trkpt>
      <trkpt lat="41.389891" lon="0.407117">
        <ele>350.65</ele>
        <time>2018-06-10T11:34:27Z</time>
      </trkpt>
      <trkpt lat="41.389932" lon="0.407165">
        <ele>350.35</ele>
        <time>2018-06-10T11:34:28Z</time>
      </trkpt>
      <trkpt lat="41.389968" lon="0.407223">
        <ele>350.06</ele>
        <time>2018-06-10T11:34:29Z</time>
      </trkpt>
      <trkpt lat="41.389996" lon="0.407284">
        <ele>349.76</ele>
        <time>2018-06-10T11:34:30Z</time>
      </trkpt>
      <trkpt lat="41.390014" lon="0.407348">
        <ele>349.47</ele>
        <time>2018-06-10T11:34:31Z</time>
      </trkpt>
      <trkpt lat="41.390024" lon="0.407409">
        <ele>349.18</ele>
        <time>2018-06-10T11:34:32Z</time>
      </trkpt>
      <trkpt lat="41.390026" lon="0.407468">
        <ele>348.88</ele>
        <time>2018-06-10T11:34:33Z</time>
      </trkpt>
      <trkpt lat="41.390028" lon="0.407523">
        <ele>348.59</ele>
        <time>2018-06-10T11:34:34Z</time>
      </trkpt>
      <trkpt lat="41.390030" lon="0.407577">
        <ele>348.29</ele>
        <time>2018-06-10T11:34:35Z</time>
      </trkpt>
      <trkpt lat="41.390036" lon="0.407628">
        <ele>348.00</ele>
        <time>2018-06-10T11:34:36Z</time>
      </trkpt>
      <trkpt lat="41.390046" lon="0.407674">
        <ele>347.71</ele>
        <time>2018-06-10T11:34:37Z</time>
      </trkpt>
      <trkpt lat="41.390058" lon="0.407722">
        <ele>347.41</ele>
        <time>2018-06-10T11:34:38Z</time>
      </trkpt>
      <trkpt lat="41.390070" lon="0.407769">
        <ele>347.12</ele>
        <time>2018-06-10T11:34:39Z</time>
      </trkpt>
      <trkpt lat="41.390082" lon="0.407815">
        <ele>346.82</ele>
        <time>2018-06-10T11:34:40Z</time>
      </trkpt>
      <trkpt lat="41.390098" lon="0.407865">
        <ele>346.52</ele>
        <time>2018-06-10T11:34:41Z</time>
      </trkpt>
      <trkpt lat="41.390116" lon="0.407916">
        <ele>346.21</ele>
        <time>2018-06-10T11:34:42Z</time>
      </trkpt>
      <trkpt lat="41.390134" lon="0.407962">
        <ele>345.91</ele>
        <time>2018-06-10T11:34:43Z</time>
      </trkpt>
      <trkpt lat="41.390154" lon="0.408004">
        <ele>345.60</ele>
        <time>2018-06-10T11:34:44Z</time>
      </trkpt>
      <trkpt lat="41.390174" lon="0.408047">
        <ele>345.30</ele>
        <time>2018-06-10T11:34:45Z</time>
      </trkpt>
      <trkpt lat="41.390198" lon="0.408090">
        <ele>345.00</ele>
        <time>2018-06-10T11:34:46Z</time>
      </trkpt>
      <trkpt lat="41.390218" lon="0.408136">
        <ele>344.69</ele>
        <time>2018-06-10T11:34:47Z</time>
      </trkpt>
      <trkpt lat="41.390238" lon="0.408183">
        <ele>344.39</ele>
        <time>2018-06-10T11:34:48Z</time>
      </trkpt>
      <trkpt lat="41.390256" lon="0.408230">
        <ele>344.09</ele>
        <time>2018-06-10T11:34:49Z</time>
      </trkpt>
      <trkpt lat="41.390284" lon="0.408297">
        <ele>343.14</ele>
        <time>2018-06-10T11:34:51Z</time>
      </trkpt>
      <trkpt lat="41.390302" lon="0.408363">
        <ele>342.13</ele>
        <time>2018-06-10T11:34:53Z</time>
      </trkpt>
      <trkpt lat="41.390316" lon="0.408398">
        <ele>341.63</ele>
        <time>2018-06-10T11:34:54Z</time>
      </trkpt>
      <trkpt lat="41.390346" lon="0.408462">
        <ele>340.62</ele>
        <time>2018-06-10T11:34:56Z</time>
      </trkpt>
      <trkpt lat="41.390382" lon="0.408518">
        <ele>339.62</ele>
        <time>2018-06-10T11:34:58Z</time>
      </trkpt>
      <trkpt lat="41.390418" lon="0.408573">
        <ele>338.69</ele>
        <time>2018-06-10T11:35:00Z</time>
      </trkpt>
      <trkpt lat="41.390456" lon="0.408655">
        <ele>337.90</ele>
        <time>2018-06-10T11:35:02Z</time>
      </trkpt>
      <trkpt lat="41.390477" lon="0.408702">
        <ele>337.50</ele>
        <time>2018-06-10T11:35:03Z</time>
      </trkpt>
      <trkpt lat="41.390495" lon="0.408748">
        <ele>337.11</ele>
        <time>2018-06-10T11:35:04Z</time>
      </trkpt>
      <trkpt lat="41.390516" lon="0.408821">
        <ele>336.31</ele>
        <time>2018-06-10T11:35:06Z</time>
      </trkpt>
      <trkpt lat="41.390541" lon="0.408901">
        <ele>335.52</ele>
        <time>2018-06-10T11:35:08Z</time>
      </trkpt>
      <trkpt lat="41.390556" lon="0.408946">
        <ele>335.12</ele>
        <time>2018-06-10T11:35:09Z</time>
      </trkpt>
      <trkpt lat="41.390568" lon="0.408993">
        <ele>334.58</ele>
        <time>2018-06-10T11:35:10Z</time>
      </trkpt>
      <trkpt lat="41.390582" lon="0.409041">
        <ele>333.97</ele>
        <time>2018-06-10T11:35:11Z</time>
      </trkpt>
      <trkpt lat="41.390598" lon="0.409088">
        <ele>333.36</ele>
        <time>2018-06-10T11:35:12Z</time>
      </trkpt>
      <trkpt lat="41.390615" lon="0.409134">
        <ele>332.76</ele>
        <time>2018-06-10T11:35:13Z</time>
      </trkpt>
      <trkpt lat="41.390638" lon="0.409185">
        <ele>332.15</ele>
        <time>2018-06-10T11:35:14Z</time>
      </trkpt>
      <trkpt lat="41.390660" lon="0.409242">
        <ele>331.55</ele>
        <time>2018-06-10T11:35:15Z</time>
      </trkpt>
      <trkpt lat="41.390674" lon="0.409298">
        <ele>330.94</ele>
        <time>2018-06-10T11:35:16Z</time>
      </trkpt>
      <trkpt lat="41.390681" lon="0.409349">
        <ele>330.33</ele>
        <time>2018-06-10T11:35:17Z</time>
      </trkpt>
      <trkpt lat="41.390671" lon="0.409433">
        <ele>329.12</ele>
        <time>2018-06-10T11:35:19Z</time>
      </trkpt>
      <trkpt lat="41.390671" lon="0.409525">
        <ele>327.75</ele>
        <time>2018-06-10T11:35:21Z</time>
      </trkpt>
      <trkpt lat="41.390683" lon="0.409573">
        <ele>327.06</ele>
        <time>2018-06-10T11:35:22Z</time>
      </trkpt>
      <trkpt lat="41.390704" lon="0.409621">
        <ele>326.37</ele>
        <time>2018-06-10T11:35:23Z</time>
      </trkpt>
      <trkpt lat="41.390729" lon="0.409667">
        <ele>325.67</ele>
        <time>2018-06-10T11:35:24Z</time>
      </trkpt>
      <trkpt lat="41.390764" lon="0.409705">
        <ele>324.98</ele>
        <time>2018-06-10T11:35:25Z</time>
      </trkpt>
      <trkpt lat="41.390812" lon="0.409734">
        <ele>324.29</ele>
        <time>2018-06-10T11:35:26Z</time>
      </trkpt>
      <trkpt lat="41.390865" lon="0.409762">
        <ele>323.59</ele>
        <time>2018-06-10T11:35:27Z</time>
      </trkpt>
      <trkpt lat="41.390919" lon="0.409792">
        <ele>322.90</ele>
        <time>2018-06-10T11:35:28Z</time>
      </trkpt>
      <trkpt lat="41.390969" lon="0.409828">
        <ele>322.21</ele>
        <time>2018-06-10T11:35:29Z</time>
      </trkpt>
      <trkpt lat="41.391007" lon="0.409880">
        <ele>321.93</ele>
        <time>2018-06-10T11:35:30Z</time>
      </trkpt>
      <trkpt lat="41.391028" lon="0.409946">
        <ele>321.83</ele>
        <time>2018-06-10T11:35:31Z</time>
      </trkpt>
      <trkpt lat="41.391017" lon="0.410015">
        <ele>321.73</ele>
        <time>2018-06-10T11:35:32Z</time>
      </trkpt>
      <trkpt lat="41.391010" lon="0.410079">
        <ele>321.62</ele>
        <time>2018-06-10T11:35:33Z</time>
      </trkpt>
      <trkpt lat="41.391008" lon="0.410140">
        <ele>321.52</ele>
        <time>2018-06-10T11:35:34Z</time>
      </trkpt>
      <trkpt lat="41.391015" lon="0.410195">
        <ele>321.42</ele>
        <time>2018-06-10T11:35:35Z</time>
      </trkpt>
      <trkpt lat="41.391030" lon="0.410242">
        <ele>321.32</ele>
        <time>2018-06-10T11:35:36Z</time>
      </trkpt>
      <trkpt lat="41.391047" lon="0.410286">
        <ele>321.22</ele>
        <time>2018-06-10T11:35:37Z</time>
      </trkpt>
      <trkpt lat="41.391069" lon="0.410331">
        <ele>321.11</ele>
        <time>2018-06-10T11:35:38Z</time>
      </trkpt>
      <trkpt lat="41.391098" lon="0.410379">
        <ele>321.01</ele>
        <time>2018-06-10T11:35:39Z</time>
      </trkpt>
      <trkpt lat="41.391131" lon="0.410434">
        <ele>320.57</ele>
        <time>2018-06-10T11:35:40Z</time>
      </trkpt>
      <trkpt lat="41.391170" lon="0.410501">
        <ele>320.08</ele>
        <time>2018-06-10T11:35:41Z</time>
      </trkpt>
      <trkpt lat="41.391208" lon="0.410574">
        <ele>319.59</ele>
        <time>2018-06-10T11:35:42Z</time>
      </trkpt>
      <trkpt lat="41.391244" lon="0.410646">
        <ele>319.11</ele>
        <time>2018-06-10T11:35:43Z</time>
      </trkpt>
      <trkpt lat="41.391276" lon="0.410718">
        <ele>318.62</ele>
        <time>2018-06-10T11:35:44Z</time>
      </trkpt>
      <trkpt lat="41.391302" lon="0.410790">
        <ele>318.13</ele>
        <time>2018-06-10T11:35:45Z</time>
      </trkpt>
      <trkpt lat="41.391324" lon="0.410863">
        <ele>317.64</ele>
        <time>2018-06-10T11:35:46Z</time>
      </trkpt>
      <trkpt lat="41.391344" lon="0.410937">
        <ele>317.15</ele>
        <time>2018-06-10T11:35:47Z</time>
      </trkpt>
      <trkpt lat="41.391366" lon="0.411010">
        <ele>316.66</ele>
        <time>2018-06-10T11:35:48Z</time>
      </trkpt>
      <trkpt lat="41.391389" lon="0.411079">
        <ele>316.18</ele>
        <time>2018-06-10T11:35:49Z</time>
      </trkpt>
      <trkpt lat="41.391410" lon="0.411136">
        <ele>316.00</ele>
        <time>2018-06-10T11:35:50Z</time>
      </trkpt>
      <trkpt lat="41.391426" lon="0.411187">
        <ele>316.00</ele>
        <time>2018-06-10T11:35:51Z</time>
      </trkpt>
      <trkpt lat="41.391443" lon="0.411236">
        <ele>316.00</ele>
        <time>2018-06-10T11:35:52Z</time>
      </trkpt>
      <trkpt lat="41.391459" lon="0.411283">
        <ele>316.00</ele>
        <time>2018-06-10T11:35:53Z</time>
      </trkpt>
      <trkpt lat="41.391473" lon="0.411329">
        <ele>316.00</ele>
        <time>2018-06-10T11:35:54Z</time>
      </trkpt>
      <trkpt lat="41.391488" lon="0.411379">
        <ele>316.00</ele>
        <time>2018-06-10T11:35:55Z</time>
      </trkpt>
      <trkpt lat="41.391504" lon="0.411433">
        <ele>316.00</ele>
        <time>2018-06-10T11:35:56Z</time>
      </trkpt>
      <trkpt lat="41.391519" lon="0.411491">
        <ele>316.00</ele>
        <time>2018-06-10T11:35:57Z</time>
      </trkpt>
      <trkpt lat="41.391533" lon="0.411552">
        <ele>316.00</ele>
        <time>2018-06-10T11:35:58Z</time>
      </trkpt>
      <trkpt lat="41.391545" lon="0.411616">
        <ele>316.00</ele>
        <time>2018-06-10T11:35:59Z</time>
      </trkpt>
      <trkpt lat="41.391554" lon="0.411681">
        <ele>316.08</ele>
        <time>2018-06-10T11:36:00Z</time>
      </trkpt>
      <trkpt lat="41.391563" lon="0.411747">
        <ele>316.18</ele>
        <time>2018-06-10T11:36:01Z</time>
      </trkpt>
      <trkpt lat="41.391571" lon="0.411814">
        <ele>316.28</ele>
        <time>2018-06-10T11:36:02Z</time>
      </trkpt>
      <trkpt lat="41.391578" lon="0.411882">
        <ele>316.38</ele>
        <time>2018-06-10T11:36:03Z</time>
      </trkpt>
      <trkpt lat="41.391586" lon="0.411947">
        <ele>316.48</ele>
        <time>2018-06-10T11:36:04Z</time>
      </trkpt>
      <trkpt lat="41.391596" lon="0.412009">
        <ele>316.59</ele>
        <time>2018-06-10T11:36:05Z</time>
      </trkpt>
      <trkpt lat="41.391606" lon="0.412068">
        <ele>316.69</ele>
        <time>2018-06-10T11:36:06Z</time>
      </trkpt>
      <trkpt lat="41.391615" lon="0.412126">
        <ele>316.79</ele>
        <time>2018-06-10T11:36:07Z</time>
      </trkpt>
      <trkpt lat="41.391623" lon="0.412183">
        <ele>316.89</ele>
        <time>2018-06-10T11:36:08Z</time>
      </trkpt>
      <trkpt lat="41.391629" lon="0.412238">
        <ele>316.99</ele>
        <time>2018-06-10T11:36:09Z</time>
      </trkpt>
      <trkpt lat="41.391635" lon="0.412293">
        <ele>317.00</ele>
        <time>2018-06-10T11:36:10Z</time>
      </trkpt>
      <trkpt lat="41.391644" lon="0.412347">
        <ele>317.00</ele>
        <time>2018-06-10T11:36:11Z</time>
      </trkpt>
      <trkpt lat="41.391654" lon="0.412399">
        <ele>317.00</ele>
        <time>2018-06-10T11:36:12Z</time>
      </trkpt>
      <trkpt lat="41.391666" lon="0.412475">
        <ele>317.00</ele>
        <time>2018-06-10T11:36:14Z</time>
      </trkpt>
      <trkpt lat="41.391611" lon="0.412477">
        <ele>317.00</ele>
        <time>2018-06-10T11:36:17Z</time>
      </trkpt>
      <trkpt lat="41.391556" lon="0.412438">
        <ele>317.00</ele>
        <time>2018-06-10T11:36:19Z</time>
      </trkpt>
      <trkpt lat="41.391495" lon="0.412397">
        <ele>317.00</ele>
        <time>2018-06-10T11:36:21Z</time>
      </trkpt>
      <trkpt lat="41.391463" lon="0.412370">
        <ele>317.00</ele>
        <time>2018-06-10T11:36:22Z</time>
      </trkpt>
      <trkpt lat="41.391425" lon="0.412343">
        <ele>317.00</ele>
        <time>2018-06-10T11:36:23Z</time>
      </trkpt>
      <trkpt lat="41.391377" lon="0.412318">
        <ele>317.00</ele>
        <time>2018-06-10T11:36:24Z</time>
      </trkpt>
      <trkpt lat="41.391323" lon="0.412295">
        <ele>317.00</ele>
        <time>2018-06-10T11:36:25Z</time>
      </trkpt>
      <trkpt lat="41.391269" lon="0.412278">
        <ele>317.00</ele>
        <time>2018-06-10T11:36:26Z</time>
      </trkpt>
      <trkpt lat="41.391223" lon="0.412270">
        <ele>317.00</ele>
        <time>2018-06-10T11:36:27Z</time>
      </trkpt>
      <trkpt lat="41.391186" lon="0.412273">
        <ele>317.00</ele>
        <time>2018-06-10T11:36:28Z</time>
      </trkpt>
      <trkpt lat="41.391147" lon="0.412298">
        <ele>316.90</ele>
        <time>2018-06-10T11:36:30Z</time>
      </trkpt>
      <trkpt lat="41.391125" lon="0.412324">
        <ele>314.80</ele>
        <time>2018-06-10T11:36:40Z</time>
      </trkpt>
      <trkpt lat="41.391110" lon="0.412369">
        <ele>313.62</ele>
        <time>2018-06-10T11:36:44Z</time>
      </trkpt>
      <trkpt lat="41.391118" lon="0.412418">
        <ele>312.14</ele>
        <time>2018-06-10T11:36:49Z</time>
      </trkpt>
      <trkpt lat="41.391127" lon="0.412477">
        <ele>311.00</ele>
        <time>2018-06-10T11:37:04Z</time>
      </trkpt>
      <trkpt lat="41.391128" lon="0.412547">
        <ele>311.00</ele>
        <time>2018-06-10T11:37:07Z</time>
      </trkpt>
      <trkpt lat="41.391134" lon="0.412617">
        <ele>311.00</ele>
        <time>2018-06-10T11:37:09Z</time>
      </trkpt>
      <trkpt lat="41.391132" lon="0.412687">
        <ele>310.46</ele>
        <time>2018-06-10T11:37:11Z</time>
      </trkpt>
      <trkpt lat="41.391120" lon="0.412745">
        <ele>309.86</ele>
        <time>2018-06-10T11:37:13Z</time>
      </trkpt>
      <trkpt lat="41.391122" lon="0.412823">
        <ele>309.27</ele>
        <time>2018-06-10T11:37:15Z</time>
      </trkpt>
      <trkpt lat="41.391153" lon="0.412895">
        <ele>308.67</ele>
        <time>2018-06-10T11:37:17Z</time>
      </trkpt>
      <trkpt lat="41.391180" lon="0.412958">
        <ele>308.08</ele>
        <time>2018-06-10T11:37:19Z</time>
      </trkpt>
      <trkpt lat="41.391206" lon="0.413024">
        <ele>307.65</ele>
        <time>2018-06-10T11:37:21Z</time>
      </trkpt>
      <trkpt lat="41.391235" lon="0.413091">
        <ele>307.24</ele>
        <time>2018-06-10T11:37:23Z</time>
      </trkpt>
      <trkpt lat="41.391268" lon="0.413165">
        <ele>306.84</ele>
        <time>2018-06-10T11:37:25Z</time>
      </trkpt>
      <trkpt lat="41.391291" lon="0.413209">
        <ele>306.63</ele>
        <time>2018-06-10T11:37:26Z</time>
      </trkpt>
      <trkpt lat="41.391311" lon="0.413250">
        <ele>306.43</ele>
        <time>2018-06-10T11:37:27Z</time>
      </trkpt>
      <trkpt lat="41.391346" lon="0.413327">
        <ele>306.02</ele>
        <time>2018-06-10T11:37:29Z</time>
      </trkpt>
      <trkpt lat="41.391376" lon="0.413404">
        <ele>305.81</ele>
        <time>2018-06-10T11:37:31Z</time>
      </trkpt>
      <trkpt lat="41.391388" lon="0.413488">
        <ele>305.62</ele>
        <time>2018-06-10T11:37:33Z</time>
      </trkpt>
      <trkpt lat="41.391400" lon="0.413538">
        <ele>305.52</ele>
        <time>2018-06-10T11:37:34Z</time>
      </trkpt>
      <trkpt lat="41.391416" lon="0.413590">
        <ele>305.42</ele>
        <time>2018-06-10T11:37:35Z</time>
      </trkpt>
      <trkpt lat="41.391433" lon="0.413638">
        <ele>305.32</ele>
        <time>2018-06-10T11:37:36Z</time>
      </trkpt>
      <trkpt lat="41.391454" lon="0.413716">
        <ele>305.12</ele>
        <time>2018-06-10T11:37:38Z</time>
      </trkpt>
      <trkpt lat="41.391488" lon="0.413747">
        <ele>305.00</ele>
        <time>2018-06-10T11:37:40Z</time>
      </trkpt>
      <trkpt lat="41.391536" lon="0.413749">
        <ele>305.00</ele>
        <time>2018-06-10T11:37:45Z</time>
      </trkpt>
      <trkpt lat="41.391571" lon="0.413790">
        <ele>305.00</ele>
        <time>2018-06-10T11:37:49Z</time>
      </trkpt>
      <trkpt lat="41.391591" lon="0.413857">
        <ele>305.26</ele>
        <time>2018-06-10T11:37:52Z</time>
      </trkpt>
      <trkpt lat="41.391594" lon="0.413916">
        <ele>305.47</ele>
        <time>2018-06-10T11:37:54Z</time>
      </trkpt>
      <trkpt lat="41.391591" lon="0.413972">
        <ele>305.67</ele>
        <time>2018-06-10T11:37:56Z</time>
      </trkpt>
      <trkpt lat="41.391591" lon="0.414020">
        <ele>305.87</ele>
        <time>2018-06-10T11:37:58Z</time>
      </trkpt>
      <trkpt lat="41.391584" lon="0.414080">
        <ele>306.35</ele>
        <time>2018-06-10T11:38:01Z</time>
      </trkpt>
      <trkpt lat="41.391579" lon="0.414135">
        <ele>306.76</ele>
        <time>2018-06-10T11:38:03Z</time>
      </trkpt>
      <trkpt lat="41.391582" lon="0.414191">
        <ele>307.16</ele>
        <time>2018-06-10T11:38:05Z</time>
      </trkpt>
      <trkpt lat="41.391583" lon="0.414245">
        <ele>307.57</ele>
        <time>2018-06-10T11:38:07Z</time>
      </trkpt>
      <trkpt lat="41.391589" lon="0.414303">
        <ele>307.98</ele>
        <time>2018-06-10T11:38:09Z</time>
      </trkpt>
      <trkpt lat="41.391615" lon="0.414348">
        <ele>308.56</ele>
        <time>2018-06-10T11:38:11Z</time>
      </trkpt>
      <trkpt lat="41.391654" lon="0.414387">
        <ele>309.46</ele>
        <time>2018-06-10T11:38:14Z</time>
      </trkpt>
      <trkpt lat="41.391685" lon="0.414417">
        <ele>310.06</ele>
        <time>2018-06-10T11:38:16Z</time>
      </trkpt>
      <trkpt lat="41.391722" lon="0.414450">
        <ele>310.66</ele>
        <time>2018-06-10T11:38:18Z</time>
      </trkpt>
      <trkpt lat="41.391764" lon="0.414487">
        <ele>311.09</ele>
        <time>2018-06-10T11:38:20Z</time>
      </trkpt>
      <trkpt lat="41.391816" lon="0.414529">
        <ele>311.29</ele>
        <time>2018-06-10T11:38:22Z</time>
      </trkpt>
      <trkpt lat="41.391870" lon="0.414573">
        <ele>311.48</ele>
        <time>2018-06-10T11:38:24Z</time>
      </trkpt>
      <trkpt lat="41.391925" lon="0.414587">
        <ele>311.68</ele>
        <time>2018-06-10T11:38:26Z</time>
      </trkpt>
      <trkpt lat="41.391969" lon="0.414605">
        <ele>311.88</ele>
        <time>2018-06-10T11:38:28Z</time>
      </trkpt>
      <trkpt lat="41.392000" lon="0.414659">
        <ele>312.08</ele>
        <time>2018-06-10T11:38:30Z</time>
      </trkpt>
      <trkpt lat="41.392030" lon="0.414713">
        <ele>312.28</ele>
        <time>2018-06-10T11:38:32Z</time>
      </trkpt>
      <trkpt lat="41.392057" lon="0.414761">
        <ele>312.48</ele>
        <time>2018-06-10T11:38:34Z</time>
      </trkpt>
      <trkpt lat="41.392080" lon="0.414820">
        <ele>312.68</ele>
        <time>2018-06-10T11:38:36Z</time>
      </trkpt>
      <trkpt lat="41.392103" lon="0.414892">
        <ele>312.88</ele>
        <time>2018-06-10T11:38:38Z</time>
      </trkpt>
      <trkpt lat="41.392126" lon="0.414955">
        <ele>313.00</ele>
        <time>2018-06-10T11:38:40Z</time>
      </trkpt>
      <trkpt lat="41.392151" lon="0.415008">
        <ele>313.00</ele>
        <time>2018-06-10T11:38:42Z</time>
      </trkpt>
      <trkpt lat="41.392186" lon="0.415065">
        <ele>313.00</ele>
        <time>2018-06-10T11:38:44Z</time>
      </trkpt>
      <trkpt lat="41.392228" lon="0.415122">
        <ele>313.00</ele>
        <time>2018-06-10T11:38:46Z</time>
      </trkpt>
      <trkpt lat="41.392282" lon="0.415172">
        <ele>313.00</ele>
        <time>2018-06-10T11:38:48Z</time>
      </trkpt>
      <trkpt lat="41.392334" lon="0.415211">
        <ele>313.00</ele>
        <time>2018-06-10T11:38:50Z</time>
      </trkpt>
      <trkpt lat="41.392379" lon="0.415243">
        <ele>313.00</ele>
        <time>2018-06-10T11:38:52Z</time>
      </trkpt>
      <trkpt lat="41.392490" lon="0.415305">
        <ele>313.00</ele>
        <time>2018-06-10T11:38:58Z</time>
      </trkpt>
      <trkpt lat="41.392852" lon="0.415376">
        <ele>308.00</ele>
        <time>2018-06-10T11:39:11Z</time>
      </trkpt>
      <trkpt lat="41.392889" lon="0.415409">
        <ele>308.00</ele>
        <time>2018-06-10T11:39:13Z</time>
      </trkpt>
      <trkpt lat="41.392937" lon="0.415446">
        <ele>308.00</ele>
        <time>2018-06-10T11:39:15Z</time>
      </trkpt>
      <trkpt lat="41.392974" lon="0.415502">
        <ele>308.00</ele>
        <time>2018-06-10T11:39:17Z</time>
      </trkpt>
      <trkpt lat="41.393015" lon="0.415575">
        <ele>308.00</ele>
        <time>2018-06-10T11:39:19Z</time>
      </trkpt>
      <trkpt lat="41.393047" lon="0.415640">
        <ele>308.00</ele>
        <time>2018-06-10T11:39:21Z</time>
      </trkpt>
      <trkpt lat="41.393086" lon="0.415693">
        <ele>308.00</ele>
        <time>2018-06-10T11:39:23Z</time>
      </trkpt>
      <trkpt lat="41.393137" lon="0.415756">
        <ele>308.00</ele>
        <time>2018-06-10T11:39:25Z</time>
      </trkpt>
      <trkpt lat="41.393170" lon="0.415783">
        <ele>308.00</ele>
        <time>2018-06-10T11:39:26Z</time>
      </trkpt>
      <trkpt lat="41.393227" lon="0.415793">
        <ele>308.00</ele>
        <time>2018-06-10T11:39:28Z</time>
      </trkpt>
      <trkpt lat="41.393265" lon="0.415786">
        <ele>308.00</ele>
        <time>2018-06-10T11:39:33Z</time>
      </trkpt>
      <trkpt lat="41.393310" lon="0.415788">
        <ele>308.00</ele>
        <time>2018-06-10T11:39:36Z</time>
      </trkpt>
      <trkpt lat="41.393343" lon="0.415824">
        <ele>308.00</ele>
        <time>2018-06-10T11:39:39Z</time>
      </trkpt>
      <trkpt lat="41.393368" lon="0.415866">
        <ele>308.51</ele>
        <time>2018-06-10T11:39:42Z</time>
      </trkpt>
      <trkpt lat="41.393386" lon="0.415917">
        <ele>309.14</ele>
        <time>2018-06-10T11:39:45Z</time>
      </trkpt>
      <trkpt lat="41.393403" lon="0.415977">
        <ele>309.77</ele>
        <time>2018-06-10T11:39:48Z</time>
      </trkpt>
      <trkpt lat="41.393423" lon="0.416034">
        <ele>310.37</ele>
        <time>2018-06-10T11:39:51Z</time>
      </trkpt>
      <trkpt lat="41.393447" lon="0.416081">
        <ele>310.97</ele>
        <time>2018-06-10T11:39:54Z</time>
      </trkpt>
      <trkpt lat="41.393484" lon="0.416093">
        <ele>311.56</ele>
        <time>2018-06-10T11:39:57Z</time>
      </trkpt>
      <trkpt lat="41.393524" lon="0.416099">
        <ele>312.31</ele>
        <time>2018-06-10T11:40:00Z</time>
      </trkpt>
      <trkpt lat="41.393562" lon="0.416127">
        <ele>313.89</ele>
        <time>2018-06-10T11:40:04Z</time>
      </trkpt>
      <trkpt lat="41.393588" lon="0.416167">
        <ele>315.87</ele>
        <time>2018-06-10T11:40:09Z</time>
      </trkpt>
      <trkpt lat="41.393604" lon="0.416233">
        <ele>316.96</ele>
        <time>2018-06-10T11:40:19Z</time>
      </trkpt>
      <trkpt lat="41.393618" lon="0.416285">
        <ele>317.17</ele>
        <time>2018-06-10T11:40:21Z</time>
      </trkpt>
      <trkpt lat="41.393632" lon="0.416343">
        <ele>317.37</ele>
        <time>2018-06-10T11:40:23Z</time>
      </trkpt>
      <trkpt lat="41.393651" lon="0.416408">
        <ele>317.57</ele>
        <time>2018-06-10T11:40:25Z</time>
      </trkpt>
      <trkpt lat="41.393668" lon="0.416476">
        <ele>317.78</ele>
        <time>2018-06-10T11:40:27Z</time>
      </trkpt>
      <trkpt lat="41.393688" lon="0.416551">
        <ele>317.98</ele>
        <time>2018-06-10T11:40:29Z</time>
      </trkpt>
      <trkpt lat="41.393714" lon="0.416614">
        <ele>318.18</ele>
        <time>2018-06-10T11:40:31Z</time>
      </trkpt>
      <trkpt lat="41.393737" lon="0.416665">
        <ele>318.38</ele>
        <time>2018-06-10T11:40:33Z</time>
      </trkpt>
      <trkpt lat="41.393777" lon="0.416717">
        <ele>318.58</ele>
        <time>2018-06-10T11:40:35Z</time>
      </trkpt>
      <trkpt lat="41.393817" lon="0.416763">
        <ele>318.78</ele>
        <time>2018-06-10T11:40:37Z</time>
      </trkpt>
      <trkpt lat="41.393863" lon="0.416807">
        <ele>318.98</ele>
        <time>2018-06-10T11:40:39Z</time>
      </trkpt>
      <trkpt lat="41.393906" lon="0.416859">
        <ele>319.00</ele>
        <time>2018-06-10T11:40:41Z</time>
      </trkpt>
      <trkpt lat="41.393947" lon="0.416915">
        <ele>319.00</ele>
        <time>2018-06-10T11:40:43Z</time>
      </trkpt>
      <trkpt lat="41.393982" lon="0.416986">
        <ele>319.00</ele>
        <time>2018-06-10T11:40:45Z</time>
      </trkpt>
      <trkpt lat="41.394009" lon="0.417064">
        <ele>319.00</ele>
        <time>2018-06-10T11:40:47Z</time>
      </trkpt>
      <trkpt lat="41.394026" lon="0.417144">
        <ele>319.00</ele>
        <time>2018-06-10T11:40:49Z</time>
      </trkpt>
      <trkpt lat="41.394046" lon="0.417226">
        <ele>318.81</ele>
        <time>2018-06-10T11:40:51Z</time>
      </trkpt>
      <trkpt lat="41.394061" lon="0.417289">
        <ele>318.62</ele>
        <time>2018-06-10T11:40:53Z</time>
      </trkpt>
      <trkpt lat="41.394065" lon="0.417337">
        <ele>318.42</ele>
        <time>2018-06-10T11:40:55Z</time>
      </trkpt>
      <trkpt lat="41.394066" lon="0.417388">
        <ele>318.22</ele>
        <time>2018-06-10T11:40:57Z</time>
      </trkpt>
      <trkpt lat="41.394085" lon="0.417454">
        <ele>318.07</ele>
        <time>2018-06-10T11:41:00Z</time>
      </trkpt>
      <trkpt lat="41.394103" lon="0.417502">
        <ele>318.27</ele>
        <time>2018-06-10T11:41:02Z</time>
      </trkpt>
      <trkpt lat="41.394121" lon="0.417557">
        <ele>318.48</ele>
        <time>2018-06-10T11:41:04Z</time>
      </trkpt>
      <trkpt lat="41.394146" lon="0.417613">
        <ele>318.78</ele>
        <time>2018-06-10T11:41:07Z</time>
      </trkpt>
      <trkpt lat="41.394168" lon="0.417626">
        <ele>322.68</ele>
        <time>2018-06-10T11:41:26Z</time>
      </trkpt>
      <trkpt lat="41.394179" lon="0.417673">
        <ele>323.00</ele>
        <time>2018-06-10T11:41:30Z</time>
      </trkpt>
      <trkpt lat="41.394192" lon="0.417723">
        <ele>323.00</ele>
        <time>2018-06-10T11:41:34Z</time>
      </trkpt>
      <trkpt lat="41.394234" lon="0.417763">
        <ele>323.00</ele>
        <time>2018-06-10T11:41:37Z</time>
      </trkpt>
      <trkpt lat="41.394261" lon="0.417810">
        <ele>323.00</ele>
        <time>2018-06-10T11:41:40Z</time>
      </trkpt>
      <trkpt lat="41.394284" lon="0.417859">
        <ele>323.00</ele>
        <time>2018-06-10T11:41:43Z</time>
      </trkpt>
      <trkpt lat="41.394309" lon="0.417901">
        <ele>323.00</ele>
        <time>2018-06-10T11:41:45Z</time>
      </trkpt>
      <trkpt lat="41.394318" lon="0.417952">
        <ele>323.00</ele>
        <time>2018-06-10T11:41:47Z</time>
      </trkpt>
      <trkpt lat="41.394311" lon="0.418005">
        <ele>323.00</ele>
        <time>2018-06-10T11:41:49Z</time>
      </trkpt>
      <trkpt lat="41.394299" lon="0.418056">
        <ele>323.00</ele>
        <time>2018-06-10T11:41:51Z</time>
      </trkpt>
      <trkpt lat="41.394288" lon="0.418126">
        <ele>323.00</ele>
        <time>2018-06-10T11:41:54Z</time>
      </trkpt>
      <trkpt lat="41.394280" lon="0.418173">
        <ele>323.00</ele>
        <time>2018-06-10T11:41:56Z</time>
      </trkpt>
      <trkpt lat="41.394265" lon="0.418222">
        <ele>323.00</ele>
        <time>2018-06-10T11:41:58Z</time>
      </trkpt>
      <trkpt lat="41.394249" lon="0.418267">
        <ele>323.07</ele>
        <time>2018-06-10T11:42:00Z</time>
      </trkpt>
      <trkpt lat="41.394228" lon="0.418327">
        <ele>323.37</ele>
        <time>2018-06-10T11:42:03Z</time>
      </trkpt>
      <trkpt lat="41.394235" lon="0.418395">
        <ele>323.67</ele>
        <time>2018-06-10T11:42:06Z</time>
      </trkpt>
      <trkpt lat="41.394265" lon="0.418429">
        <ele>323.87</ele>
        <time>2018-06-10T11:42:08Z</time>
      </trkpt>
      <trkpt lat="41.394300" lon="0.418477">
        <ele>324.17</ele>
        <time>2018-06-10T11:42:11Z</time>
      </trkpt>
      <trkpt lat="41.394334" lon="0.418532">
        <ele>324.48</ele>
        <time>2018-06-10T11:42:14Z</time>
      </trkpt>
      <trkpt lat="41.394362" lon="0.418566">
        <ele>324.78</ele>
        <time>2018-06-10T11:42:17Z</time>
      </trkpt>
      <trkpt lat="41.394367" lon="0.418626">
        <ele>325.00</ele>
        <time>2018-06-10T11:42:52Z</time>
      </trkpt>
      <trkpt lat="41.394383" lon="0.418689">
        <ele>325.00</ele>
        <time>2018-06-10T11:42:55Z</time>
      </trkpt>
      <trkpt lat="41.394424" lon="0.418733">
        <ele>325.00</ele>
        <time>2018-06-10T11:42:58Z</time>
      </trkpt>
      <trkpt lat="41.394468" lon="0.418744">
        <ele>325.00</ele>
        <time>2018-06-10T11:43:01Z</time>
      </trkpt>
      <trkpt lat="41.394504" lon="0.418730">
        <ele>325.00</ele>
        <time>2018-06-10T11:43:08Z</time>
      </trkpt>
      <trkpt lat="41.394538" lon="0.418753">
        <ele>324.82</ele>
        <time>2018-06-10T11:43:11Z</time>
      </trkpt>
      <trkpt lat="41.394541" lon="0.418801">
        <ele>324.43</ele>
        <time>2018-06-10T11:43:15Z</time>
      </trkpt>
      <trkpt lat="41.394511" lon="0.418862">
        <ele>324.13</ele>
        <time>2018-06-10T11:43:18Z</time>
      </trkpt>
      <trkpt lat="41.394474" lon="0.418902">
        <ele>323.87</ele>
        <time>2018-06-10T11:43:20Z</time>
      </trkpt>
      <trkpt lat="41.394455" lon="0.418945">
        <ele>323.47</ele>
        <time>2018-06-10T11:43:22Z</time>
      </trkpt>
      <trkpt lat="41.394445" lon="0.418998">
        <ele>322.10</ele>
        <time>2018-06-10T11:43:29Z</time>
      </trkpt>
      <trkpt lat="41.394434" lon="0.419049">
        <ele>321.48</ele>
        <time>2018-06-10T11:43:32Z</time>
      </trkpt>
      <trkpt lat="41.394411" lon="0.419086">
        <ele>320.87</ele>
        <time>2018-06-10T11:43:35Z</time>
      </trkpt>
      <trkpt lat="41.394375" lon="0.419112">
        <ele>320.25</ele>
        <time>2018-06-10T11:43:38Z</time>
      </trkpt>
      <trkpt lat="41.394339" lon="0.419094">
        <ele>319.64</ele>
        <time>2018-06-10T11:43:41Z</time>
      </trkpt>
      <trkpt lat="41.394300" lon="0.419056">
        <ele>319.04</ele>
        <time>2018-06-10T11:43:44Z</time>
      </trkpt>
      <trkpt lat="41.394265" lon="0.419050">
        <ele>318.44</ele>
        <time>2018-06-10T11:43:47Z</time>
      </trkpt>
      <trkpt lat="41.394228" lon="0.419077">
        <ele>317.46</ele>
        <time>2018-06-10T11:43:51Z</time>
      </trkpt>
      <trkpt lat="41.394218" lon="0.419127">
        <ele>316.86</ele>
        <time>2018-06-10T11:43:53Z</time>
      </trkpt>
      <trkpt lat="41.394248" lon="0.419176">
        <ele>316.27</ele>
        <time>2018-06-10T11:43:55Z</time>
      </trkpt>
      <trkpt lat="41.394289" lon="0.419207">
        <ele>315.67</ele>
        <time>2018-06-10T11:43:57Z</time>
      </trkpt>
      <trkpt lat="41.394328" lon="0.419221">
        <ele>315.07</ele>
        <time>2018-06-10T11:43:59Z</time>
      </trkpt>
      <trkpt lat="41.394362" lon="0.419281">
        <ele>314.72</ele>
        <time>2018-06-10T11:44:02Z</time>
      </trkpt>
      <trkpt lat="41.394378" lon="0.419359">
        <ele>314.53</ele>
        <time>2018-06-10T11:44:04Z</time>
      </trkpt>
      <trkpt lat="41.394422" lon="0.419437">
        <ele>314.33</ele>
        <time>2018-06-10T11:44:06Z</time>
      </trkpt>
      <trkpt lat="41.394463" lon="0.419461">
        <ele>314.23</ele>
        <time>2018-06-10T11:44:07Z</time>
      </trkpt>
      <trkpt lat="41.394498" lon="0.419493">
        <ele>314.13</ele>
        <time>2018-06-10T11:44:08Z</time>
      </trkpt>
      <trkpt lat="41.394523" lon="0.419534">
        <ele>314.03</ele>
        <time>2018-06-10T11:44:09Z</time>
      </trkpt>
      <trkpt lat="41.394535" lon="0.419622">
        <ele>313.66</ele>
        <time>2018-06-10T11:44:11Z</time>
      </trkpt>
      <trkpt lat="41.394546" lon="0.419689">
        <ele>313.26</ele>
        <time>2018-06-10T11:44:13Z</time>
      </trkpt>
      <trkpt lat="41.394561" lon="0.419736">
        <ele>312.86</ele>
        <time>2018-06-10T11:44:15Z</time>
      </trkpt>
      <trkpt lat="41.394580" lon="0.419799">
        <ele>312.26</ele>
        <time>2018-06-10T11:44:18Z</time>
      </trkpt>
      <trkpt lat="41.394603" lon="0.419844">
        <ele>311.93</ele>
        <time>2018-06-10T11:44:20Z</time>
      </trkpt>
      <trkpt lat="41.394610" lon="0.419900">
        <ele>311.73</ele>
        <time>2018-06-10T11:44:22Z</time>
      </trkpt>
      <trkpt lat="41.394605" lon="0.419965">
        <ele>311.53</ele>
        <time>2018-06-10T11:44:24Z</time>
      </trkpt>
      <trkpt lat="41.394602" lon="0.420024">
        <ele>311.32</ele>
        <time>2018-06-10T11:44:26Z</time>
      </trkpt>
      <trkpt lat="41.394600" lon="0.420077">
        <ele>311.12</ele>
        <time>2018-06-10T11:44:28Z</time>
      </trkpt>
      <trkpt lat="41.394595" lon="0.420128">
        <ele>311.08</ele>
        <time>2018-06-10T11:44:30Z</time>
      </trkpt>
      <trkpt lat="41.394619" lon="0.420186">
        <ele>311.38</ele>
        <time>2018-06-10T11:44:33Z</time>
      </trkpt>
      <trkpt lat="41.394652" lon="0.420209">
        <ele>311.58</ele>
        <time>2018-06-10T11:44:35Z</time>
      </trkpt>
      <trkpt lat="41.394677" lon="0.420255">
        <ele>311.89</ele>
        <time>2018-06-10T11:44:38Z</time>
      </trkpt>
      <trkpt lat="41.394674" lon="0.420320">
        <ele>312.00</ele>
        <time>2018-06-10T11:44:45Z</time>
      </trkpt>
      <trkpt lat="41.394681" lon="0.420373">
        <ele>312.00</ele>
        <time>2018-06-10T11:44:47Z</time>
      </trkpt>
      <trkpt lat="41.394702" lon="0.420438">
        <ele>312.00</ele>
        <time>2018-06-10T11:44:49Z</time>
      </trkpt>
      <trkpt lat="41.394732" lon="0.420501">
        <ele>311.31</ele>
        <time>2018-06-10T11:44:51Z</time>
      </trkpt>
      <trkpt lat="41.394749" lon="0.420579">
        <ele>310.49</ele>
        <time>2018-06-10T11:44:53Z</time>
      </trkpt>
      <trkpt lat="41.394752" lon="0.420623">
        <ele>310.09</ele>
        <time>2018-06-10T11:44:54Z</time>
      </trkpt>
      <trkpt lat="41.394773" lon="0.420703">
        <ele>309.27</ele>
        <time>2018-06-10T11:44:56Z</time>
      </trkpt>
      <trkpt lat="41.394819" lon="0.420742">
        <ele>308.46</ele>
        <time>2018-06-10T11:44:58Z</time>
      </trkpt>
      <trkpt lat="41.394867" lon="0.420716">
        <ele>307.44</ele>
        <time>2018-06-10T11:45:01Z</time>
      </trkpt>
      <trkpt lat="41.394901" lon="0.420683">
        <ele>306.85</ele>
        <time>2018-06-10T11:45:03Z</time>
      </trkpt>
      <trkpt lat="41.394923" lon="0.420643">
        <ele>306.25</ele>
        <time>2018-06-10T11:45:05Z</time>
      </trkpt>
      <trkpt lat="41.394946" lon="0.420601">
        <ele>305.65</ele>
        <time>2018-06-10T11:45:07Z</time>
      </trkpt>
      <trkpt lat="41.394978" lon="0.420551">
        <ele>305.06</ele>
        <time>2018-06-10T11:45:09Z</time>
      </trkpt>
      <trkpt lat="41.395004" lon="0.420496">
        <ele>304.47</ele>
        <time>2018-06-10T11:45:11Z</time>
      </trkpt>
      <trkpt lat="41.395030" lon="0.420447">
        <ele>303.87</ele>
        <time>2018-06-10T11:45:13Z</time>
      </trkpt>
      <trkpt lat="41.395059" lon="0.420420">
        <ele>303.28</ele>
        <time>2018-06-10T11:45:15Z</time>
      </trkpt>
      <trkpt lat="41.395097" lon="0.420459">
        <ele>302.68</ele>
        <time>2018-06-10T11:45:17Z</time>
      </trkpt>
      <trkpt lat="41.395112" lon="0.420533">
        <ele>302.09</ele>
        <time>2018-06-10T11:45:19Z</time>
      </trkpt>
      <trkpt lat="41.395106" lon="0.420614">
        <ele>301.14</ele>
        <time>2018-06-10T11:45:21Z</time>
      </trkpt>
      <trkpt lat="41.395086" lon="0.420719">
        <ele>300.12</ele>
        <time>2018-06-10T11:45:23Z</time>
      </trkpt>
      <trkpt lat="41.395064" lon="0.420775">
        <ele>299.61</ele>
        <time>2018-06-10T11:45:24Z</time>
      </trkpt>
      <trkpt lat="41.395040" lon="0.420824">
        <ele>299.10</ele>
        <time>2018-06-10T11:45:25Z</time>
      </trkpt>
      <trkpt lat="41.395017" lon="0.420868">
        <ele>298.60</ele>
        <time>2018-06-10T11:45:26Z</time>
      </trkpt>
      <trkpt lat="41.394992" lon="0.420907">
        <ele>298.09</ele>
        <time>2018-06-10T11:45:27Z</time>
      </trkpt>
      <trkpt lat="41.394957" lon="0.420946">
        <ele>297.58</ele>
        <time>2018-06-10T11:45:28Z</time>
      </trkpt>
      <trkpt lat="41.394912" lon="0.420991">
        <ele>297.07</ele>
        <time>2018-06-10T11:45:29Z</time>
      </trkpt>
      <trkpt lat="41.394866" lon="0.421029">
        <ele>296.67</ele>
        <time>2018-06-10T11:45:30Z</time>
      </trkpt>
      <trkpt lat="41.394823" lon="0.421058">
        <ele>296.28</ele>
        <time>2018-06-10T11:45:31Z</time>
      </trkpt>
      <trkpt lat="41.394776" lon="0.421079">
        <ele>295.89</ele>
        <time>2018-06-10T11:45:32Z</time>
      </trkpt>
      <trkpt lat="41.394729" lon="0.421095">
        <ele>295.51</ele>
        <time>2018-06-10T11:45:33Z</time>
      </trkpt>
      <trkpt lat="41.394688" lon="0.421105">
        <ele>295.12</ele>
        <time>2018-06-10T11:45:34Z</time>
      </trkpt>
      <trkpt lat="41.394649" lon="0.421112">
        <ele>294.35</ele>
        <time>2018-06-10T11:45:36Z</time>
      </trkpt>
      <trkpt lat="41.394610" lon="0.421115">
        <ele>292.23</ele>
        <time>2018-06-10T11:45:47Z</time>
      </trkpt>
      <trkpt lat="41.394567" lon="0.421143">
        <ele>291.73</ele>
        <time>2018-06-10T11:45:52Z</time>
      </trkpt>
      <trkpt lat="41.394589" lon="0.421189">
        <ele>291.44</ele>
        <time>2018-06-10T11:45:55Z</time>
      </trkpt>
      <trkpt lat="41.394628" lon="0.421224">
        <ele>291.14</ele>
        <time>2018-06-10T11:45:58Z</time>
      </trkpt>
      <trkpt lat="41.394684" lon="0.421271">
        <ele>290.76</ele>
        <time>2018-06-10T11:46:00Z</time>
      </trkpt>
      <trkpt lat="41.394714" lon="0.421300">
        <ele>290.35</ele>
        <time>2018-06-10T11:46:01Z</time>
      </trkpt>
      <trkpt lat="41.394749" lon="0.421320">
        <ele>289.94</ele>
        <time>2018-06-10T11:46:02Z</time>
      </trkpt>
      <trkpt lat="41.394785" lon="0.421324">
        <ele>289.53</ele>
        <time>2018-06-10T11:46:03Z</time>
      </trkpt>
      <trkpt lat="41.394821" lon="0.421321">
        <ele>289.12</ele>
        <time>2018-06-10T11:46:04Z</time>
      </trkpt>
      <trkpt lat="41.394891" lon="0.421304">
        <ele>288.31</ele>
        <time>2018-06-10T11:46:06Z</time>
      </trkpt>
      <trkpt lat="41.394927" lon="0.421288">
        <ele>287.90</ele>
        <time>2018-06-10T11:46:07Z</time>
      </trkpt>
      <trkpt lat="41.394994" lon="0.421239">
        <ele>287.08</ele>
        <time>2018-06-10T11:46:09Z</time>
      </trkpt>
      <trkpt lat="41.395033" lon="0.421216">
        <ele>286.76</ele>
        <time>2018-06-10T11:46:10Z</time>
      </trkpt>
      <trkpt lat="41.395073" lon="0.421186">
        <ele>286.45</ele>
        <time>2018-06-10T11:46:11Z</time>
      </trkpt>
      <trkpt lat="41.395110" lon="0.421143">
        <ele>286.15</ele>
        <time>2018-06-10T11:46:12Z</time>
      </trkpt>
      <trkpt lat="41.395150" lon="0.421101">
        <ele>285.85</ele>
        <time>2018-06-10T11:46:13Z</time>
      </trkpt>
      <trkpt lat="41.395191" lon="0.421058">
        <ele>285.55</ele>
        <time>2018-06-10T11:46:14Z</time>
      </trkpt>
      <trkpt lat="41.395225" lon="0.421017">
        <ele>285.25</ele>
        <time>2018-06-10T11:46:15Z</time>
      </trkpt>
      <trkpt lat="41.395260" lon="0.420985">
        <ele>284.95</ele>
        <time>2018-06-10T11:46:16Z</time>
      </trkpt>
      <trkpt lat="41.395327" lon="0.420967">
        <ele>284.35</ele>
        <time>2018-06-10T11:46:18Z</time>
      </trkpt>
      <trkpt lat="41.395397" lon="0.420981">
        <ele>283.58</ele>
        <time>2018-06-10T11:46:20Z</time>
      </trkpt>
      <trkpt lat="41.395450" lon="0.421007">
        <ele>283.08</ele>
        <time>2018-06-10T11:46:21Z</time>
      </trkpt>
      <trkpt lat="41.395500" lon="0.421036">
        <ele>282.58</ele>
        <time>2018-06-10T11:46:22Z</time>
      </trkpt>
      <trkpt lat="41.395536" lon="0.421062">
        <ele>282.08</ele>
        <time>2018-06-10T11:46:23Z</time>
      </trkpt>
      <trkpt lat="41.395571" lon="0.421103">
        <ele>281.08</ele>
        <time>2018-06-10T11:46:25Z</time>
      </trkpt>
      <trkpt lat="41.395585" lon="0.421153">
        <ele>278.03</ele>
        <time>2018-06-10T11:46:34Z</time>
      </trkpt>
      <trkpt lat="41.395614" lon="0.421186">
        <ele>277.63</ele>
        <time>2018-06-10T11:46:36Z</time>
      </trkpt>
      <trkpt lat="41.395651" lon="0.421250">
        <ele>277.23</ele>
        <time>2018-06-10T11:46:38Z</time>
      </trkpt>
      <trkpt lat="41.395676" lon="0.421317">
        <ele>276.84</ele>
        <time>2018-06-10T11:46:40Z</time>
      </trkpt>
      <trkpt lat="41.395714" lon="0.421376">
        <ele>276.44</ele>
        <time>2018-06-10T11:46:42Z</time>
      </trkpt>
      <trkpt lat="41.395741" lon="0.421461">
        <ele>276.04</ele>
        <time>2018-06-10T11:46:44Z</time>
      </trkpt>
      <trkpt lat="41.395759" lon="0.421504">
        <ele>275.85</ele>
        <time>2018-06-10T11:46:45Z</time>
      </trkpt>
      <trkpt lat="41.395807" lon="0.421568">
        <ele>275.45</ele>
        <time>2018-06-10T11:46:47Z</time>
      </trkpt>
      <trkpt lat="41.395852" lon="0.421597">
        <ele>275.25</ele>
        <time>2018-06-10T11:46:48Z</time>
      </trkpt>
      <trkpt lat="41.395884" lon="0.421625">
        <ele>275.06</ele>
        <time>2018-06-10T11:46:49Z</time>
      </trkpt>
      <trkpt lat="41.395931" lon="0.421682">
        <ele>275.00</ele>
        <time>2018-06-10T11:46:51Z</time>
      </trkpt>
      <trkpt lat="41.396008" lon="0.421857">
        <ele>273.28</ele>
        <time>2018-06-10T11:46:56Z</time>
      </trkpt>
      <trkpt lat="41.396035" lon="0.421987">
        <ele>272.13</ele>
        <time>2018-06-10T11:46:59Z</time>
      </trkpt>
      <trkpt lat="41.395982" lon="0.422445">
        <ele>269.82</ele>
        <time>2018-06-10T11:47:11Z</time>
      </trkpt>
      <trkpt lat="41.395957" lon="0.422483">
        <ele>269.62</ele>
        <time>2018-06-10T11:47:13Z</time>
      </trkpt>
      <trkpt lat="41.395924" lon="0.422529">
        <ele>269.32</ele>
        <time>2018-06-10T11:47:16Z</time>
      </trkpt>
      <trkpt lat="41.395885" lon="0.422604">
        <ele>269.11</ele>
        <time>2018-06-10T11:47:18Z</time>
      </trkpt>
      <trkpt lat="41.395851" lon="0.422640">
        <ele>269.01</ele>
        <time>2018-06-10T11:47:19Z</time>
      </trkpt>
      <trkpt lat="41.395794" lon="0.422673">
        <ele>269.19</ele>
        <time>2018-06-10T11:47:21Z</time>
      </trkpt>
      <trkpt lat="41.395754" lon="0.422695">
        <ele>269.38</ele>
        <time>2018-06-10T11:47:23Z</time>
      </trkpt>
      <trkpt lat="41.395714" lon="0.422721">
        <ele>269.58</ele>
        <time>2018-06-10T11:47:25Z</time>
      </trkpt>
      <trkpt lat="41.395673" lon="0.422752">
        <ele>269.78</ele>
        <time>2018-06-10T11:47:27Z</time>
      </trkpt>
      <trkpt lat="41.395632" lon="0.422792">
        <ele>269.98</ele>
        <time>2018-06-10T11:47:29Z</time>
      </trkpt>
      <trkpt lat="41.395590" lon="0.422833">
        <ele>270.00</ele>
        <time>2018-06-10T11:47:31Z</time>
      </trkpt>
      <trkpt lat="41.395555" lon="0.422859">
        <ele>270.00</ele>
        <time>2018-06-10T11:47:33Z</time>
      </trkpt>
      <trkpt lat="41.395522" lon="0.422881">
        <ele>270.00</ele>
        <time>2018-06-10T11:47:35Z</time>
      </trkpt>
      <trkpt lat="41.395486" lon="0.422904">
        <ele>270.00</ele>
        <time>2018-06-10T11:47:37Z</time>
      </trkpt>
      <trkpt lat="41.395451" lon="0.422930">
        <ele>270.00</ele>
        <time>2018-06-10T11:47:39Z</time>
      </trkpt>
      <trkpt lat="41.395418" lon="0.422951">
        <ele>270.18</ele>
        <time>2018-06-10T11:47:41Z</time>
      </trkpt>
      <trkpt lat="41.395385" lon="0.422931">
        <ele>270.38</ele>
        <time>2018-06-10T11:47:43Z</time>
      </trkpt>
      <trkpt lat="41.395353" lon="0.422895">
        <ele>270.58</ele>
        <time>2018-06-10T11:47:45Z</time>
      </trkpt>
      <trkpt lat="41.395323" lon="0.422862">
        <ele>270.79</ele>
        <time>2018-06-10T11:47:47Z</time>
      </trkpt>
      <trkpt lat="41.395289" lon="0.422809">
        <ele>271.09</ele>
        <time>2018-06-10T11:47:50Z</time>
      </trkpt>
      <trkpt lat="41.395262" lon="0.422748">
        <ele>271.38</ele>
        <time>2018-06-10T11:47:53Z</time>
      </trkpt>
      <trkpt lat="41.395244" lon="0.422708">
        <ele>271.58</ele>
        <time>2018-06-10T11:47:55Z</time>
      </trkpt>
      <trkpt lat="41.395219" lon="0.422658">
        <ele>271.87</ele>
        <time>2018-06-10T11:47:58Z</time>
      </trkpt>
      <trkpt lat="41.395189" lon="0.422606">
        <ele>272.34</ele>
        <time>2018-06-10T11:48:01Z</time>
      </trkpt>
      <trkpt lat="41.395157" lon="0.422559">
        <ele>272.95</ele>
        <time>2018-06-10T11:48:04Z</time>
      </trkpt>
      <trkpt lat="41.395118" lon="0.422519">
        <ele>273.56</ele>
        <time>2018-06-10T11:48:07Z</time>
      </trkpt>
      <trkpt lat="41.395076" lon="0.422482">
        <ele>274.16</ele>
        <time>2018-06-10T11:48:10Z</time>
      </trkpt>
      <trkpt lat="41.395026" lon="0.422460">
        <ele>274.74</ele>
        <time>2018-06-10T11:48:13Z</time>
      </trkpt>
      <trkpt lat="41.394989" lon="0.422455">
        <ele>275.12</ele>
        <time>2018-06-10T11:48:15Z</time>
      </trkpt>
      <trkpt lat="41.394950" lon="0.422451">
        <ele>275.51</ele>
        <time>2018-06-10T11:48:17Z</time>
      </trkpt>
      <trkpt lat="41.394913" lon="0.422458">
        <ele>275.89</ele>
        <time>2018-06-10T11:48:19Z</time>
      </trkpt>
      <trkpt lat="41.394876" lon="0.422475">
        <ele>276.15</ele>
        <time>2018-06-10T11:48:21Z</time>
      </trkpt>
      <trkpt lat="41.394839" lon="0.422503">
        <ele>276.36</ele>
        <time>2018-06-10T11:48:23Z</time>
      </trkpt>
      <trkpt lat="41.394804" lon="0.422527">
        <ele>276.57</ele>
        <time>2018-06-10T11:48:25Z</time>
      </trkpt>
      <trkpt lat="41.394764" lon="0.422528">
        <ele>276.78</ele>
        <time>2018-06-10T11:48:27Z</time>
      </trkpt>
      <trkpt lat="41.394729" lon="0.422514">
        <ele>276.99</ele>
        <time>2018-06-10T11:48:29Z</time>
      </trkpt>
      <trkpt lat="41.394693" lon="0.422473">
        <ele>277.57</ele>
        <time>2018-06-10T11:48:32Z</time>
      </trkpt>
      <trkpt lat="41.394667" lon="0.422413">
        <ele>278.17</ele>
        <time>2018-06-10T11:48:35Z</time>
      </trkpt>
      <trkpt lat="41.394646" lon="0.422367">
        <ele>278.57</ele>
        <time>2018-06-10T11:48:37Z</time>
      </trkpt>
      <trkpt lat="41.394628" lon="0.422319">
        <ele>278.96</ele>
        <time>2018-06-10T11:48:39Z</time>
      </trkpt>
      <trkpt lat="41.394607" lon="0.422275">
        <ele>279.00</ele>
        <time>2018-06-10T11:48:41Z</time>
      </trkpt>
      <trkpt lat="41.394579" lon="0.422223">
        <ele>279.00</ele>
        <time>2018-06-10T11:48:43Z</time>
      </trkpt>
      <trkpt lat="41.394548" lon="0.422156">
        <ele>279.00</ele>
        <time>2018-06-10T11:48:45Z</time>
      </trkpt>
      <trkpt lat="41.394513" lon="0.422078">
        <ele>279.00</ele>
        <time>2018-06-10T11:48:47Z</time>
      </trkpt>
      <trkpt lat="41.394494" lon="0.422035">
        <ele>279.00</ele>
        <time>2018-06-10T11:48:48Z</time>
      </trkpt>
      <trkpt lat="41.394476" lon="0.421991">
        <ele>279.00</ele>
        <time>2018-06-10T11:48:49Z</time>
      </trkpt>
      <trkpt lat="41.394456" lon="0.421948">
        <ele>279.00</ele>
        <time>2018-06-10T11:48:50Z</time>
      </trkpt>
      <trkpt lat="41.394432" lon="0.421908">
        <ele>279.00</ele>
        <time>2018-06-10T11:48:51Z</time>
      </trkpt>
      <trkpt lat="41.394403" lon="0.421870">
        <ele>279.00</ele>
        <time>2018-06-10T11:48:52Z</time>
      </trkpt>
      <trkpt lat="41.394371" lon="0.421834">
        <ele>279.00</ele>
        <time>2018-06-10T11:48:53Z</time>
      </trkpt>
      <trkpt lat="41.394337" lon="0.421800">
        <ele>279.00</ele>
        <time>2018-06-10T11:48:54Z</time>
      </trkpt>
      <trkpt lat="41.394302" lon="0.421764">
        <ele>279.00</ele>
        <time>2018-06-10T11:48:55Z</time>
      </trkpt>
      <trkpt lat="41.394270" lon="0.421725">
        <ele>279.00</ele>
        <time>2018-06-10T11:48:56Z</time>
      </trkpt>
      <trkpt lat="41.394240" lon="0.421683">
        <ele>279.00</ele>
        <time>2018-06-10T11:48:57Z</time>
      </trkpt>
      <trkpt lat="41.394211" lon="0.421640">
        <ele>279.00</ele>
        <time>2018-06-10T11:48:58Z</time>
      </trkpt>
      <trkpt lat="41.394182" lon="0.421600">
        <ele>279.00</ele>
        <time>2018-06-10T11:48:59Z</time>
      </trkpt>
      <trkpt lat="41.394152" lon="0.421563">
        <ele>278.92</ele>
        <time>2018-06-10T11:49:00Z</time>
      </trkpt>
      <trkpt lat="41.394121" lon="0.421530">
        <ele>278.82</ele>
        <time>2018-06-10T11:49:01Z</time>
      </trkpt>
      <trkpt lat="41.394089" lon="0.421497">
        <ele>278.73</ele>
        <time>2018-06-10T11:49:02Z</time>
      </trkpt>
      <trkpt lat="41.394058" lon="0.421465">
        <ele>278.64</ele>
        <time>2018-06-10T11:49:03Z</time>
      </trkpt>
      <trkpt lat="41.394028" lon="0.421431">
        <ele>278.54</ele>
        <time>2018-06-10T11:49:04Z</time>
      </trkpt>
      <trkpt lat="41.393998" lon="0.421397">
        <ele>278.45</ele>
        <time>2018-06-10T11:49:05Z</time>
      </trkpt>
      <trkpt lat="41.393968" lon="0.421362">
        <ele>278.35</ele>
        <time>2018-06-10T11:49:06Z</time>
      </trkpt>
      <trkpt lat="41.393941" lon="0.421325">
        <ele>278.26</ele>
        <time>2018-06-10T11:49:07Z</time>
      </trkpt>
      <trkpt lat="41.393915" lon="0.421291">
        <ele>278.17</ele>
        <time>2018-06-10T11:49:08Z</time>
      </trkpt>
      <trkpt lat="41.393887" lon="0.421260">
        <ele>278.07</ele>
        <time>2018-06-10T11:49:09Z</time>
      </trkpt>
      <trkpt lat="41.393833" lon="0.421204">
        <ele>277.87</ele>
        <time>2018-06-10T11:49:11Z</time>
      </trkpt>
      <trkpt lat="41.393782" lon="0.421159">
        <ele>277.66</ele>
        <time>2018-06-10T11:49:13Z</time>
      </trkpt>
      <trkpt lat="41.393730" lon="0.421106">
        <ele>277.45</ele>
        <time>2018-06-10T11:49:15Z</time>
      </trkpt>
      <trkpt lat="41.393703" lon="0.421070">
        <ele>277.34</ele>
        <time>2018-06-10T11:49:16Z</time>
      </trkpt>
      <trkpt lat="41.393676" lon="0.421029">
        <ele>277.24</ele>
        <time>2018-06-10T11:49:17Z</time>
      </trkpt>
      <trkpt lat="41.393650" lon="0.420983">
        <ele>277.13</ele>
        <time>2018-06-10T11:49:18Z</time>
      </trkpt>
      <trkpt lat="41.393621" lon="0.420936">
        <ele>277.03</ele>
        <time>2018-06-10T11:49:19Z</time>
      </trkpt>
      <trkpt lat="41.393588" lon="0.420889">
        <ele>277.00</ele>
        <time>2018-06-10T11:49:20Z</time>
      </trkpt>
      <trkpt lat="41.393552" lon="0.420844">
        <ele>277.00</ele>
        <time>2018-06-10T11:49:21Z</time>
      </trkpt>
      <trkpt lat="41.393515" lon="0.420799">
        <ele>277.00</ele>
        <time>2018-06-10T11:49:22Z</time>
      </trkpt>
      <trkpt lat="41.393477" lon="0.420753">
        <ele>277.00</ele>
        <time>2018-06-10T11:49:23Z</time>
      </trkpt>
      <trkpt lat="41.393438" lon="0.420706">
        <ele>277.00</ele>
        <time>2018-06-10T11:49:24Z</time>
      </trkpt>
      <trkpt lat="41.393400" lon="0.420657">
        <ele>277.00</ele>
        <time>2018-06-10T11:49:25Z</time>
      </trkpt>
      <trkpt lat="41.393362" lon="0.420606">
        <ele>277.00</ele>
        <time>2018-06-10T11:49:26Z</time>
      </trkpt>
      <trkpt lat="41.393326" lon="0.420552">
        <ele>277.00</ele>
        <time>2018-06-10T11:49:27Z</time>
      </trkpt>
      <trkpt lat="41.393293" lon="0.420495">
        <ele>277.00</ele>
        <time>2018-06-10T11:49:28Z</time>
      </trkpt>
      <trkpt lat="41.393261" lon="0.420437">
        <ele>277.00</ele>
        <time>2018-06-10T11:49:29Z</time>
      </trkpt>
      <trkpt lat="41.393234" lon="0.420376">
        <ele>276.93</ele>
        <time>2018-06-10T11:49:30Z</time>
      </trkpt>
      <trkpt lat="41.393208" lon="0.420313">
        <ele>276.83</ele>
        <time>2018-06-10T11:49:31Z</time>
      </trkpt>
      <trkpt lat="41.393180" lon="0.420251">
        <ele>276.73</ele>
        <time>2018-06-10T11:49:32Z</time>
      </trkpt>
      <trkpt lat="41.393152" lon="0.420190">
        <ele>276.63</ele>
        <time>2018-06-10T11:49:33Z</time>
      </trkpt>
      <trkpt lat="41.393122" lon="0.420130">
        <ele>276.53</ele>
        <time>2018-06-10T11:49:34Z</time>
      </trkpt>
      <trkpt lat="41.393091" lon="0.420071">
        <ele>276.43</ele>
        <time>2018-06-10T11:49:35Z</time>
      </trkpt>
      <trkpt lat="41.393060" lon="0.420012">
        <ele>276.32</ele>
        <time>2018-06-10T11:49:36Z</time>
      </trkpt>
      <trkpt lat="41.393031" lon="0.419953">
        <ele>276.22</ele>
        <time>2018-06-10T11:49:37Z</time>
      </trkpt>
      <trkpt lat="41.393000" lon="0.419895">
        <ele>276.12</ele>
        <time>2018-06-10T11:49:38Z</time>
      </trkpt>
      <trkpt lat="41.392969" lon="0.419839">
        <ele>276.02</ele>
        <time>2018-06-10T11:49:39Z</time>
      </trkpt>
      <trkpt lat="41.392937" lon="0.419783">
        <ele>276.00</ele>
        <time>2018-06-10T11:49:40Z</time>
      </trkpt>
      <trkpt lat="41.392906" lon="0.419728">
        <ele>276.00</ele>
        <time>2018-06-10T11:49:41Z</time>
      </trkpt>
      <trkpt lat="41.392877" lon="0.419673">
        <ele>276.00</ele>
        <time>2018-06-10T11:49:42Z</time>
      </trkpt>
      <trkpt lat="41.392849" lon="0.419618">
        <ele>276.00</ele>
        <time>2018-06-10T11:49:43Z</time>
      </trkpt>
      <trkpt lat="41.392821" lon="0.419564">
        <ele>276.00</ele>
        <time>2018-06-10T11:49:44Z</time>
      </trkpt>
      <trkpt lat="41.392793" lon="0.419511">
        <ele>276.00</ele>
        <time>2018-06-10T11:49:45Z</time>
      </trkpt>
      <trkpt lat="41.392767" lon="0.419458">
        <ele>276.00</ele>
        <time>2018-06-10T11:49:46Z</time>
      </trkpt>
      <trkpt lat="41.392742" lon="0.419406">
        <ele>276.00</ele>
        <time>2018-06-10T11:49:47Z</time>
      </trkpt>
      <trkpt lat="41.392719" lon="0.419356">
        <ele>276.00</ele>
        <time>2018-06-10T11:49:48Z</time>
      </trkpt>
      <trkpt lat="41.392699" lon="0.419308">
        <ele>276.00</ele>
        <time>2018-06-10T11:49:49Z</time>
      </trkpt>
      <trkpt lat="41.392680" lon="0.419261">
        <ele>276.16</ele>
        <time>2018-06-10T11:49:50Z</time>
      </trkpt>
      <trkpt lat="41.392663" lon="0.419214">
        <ele>276.36</ele>
        <time>2018-06-10T11:49:51Z</time>
      </trkpt>
      <trkpt lat="41.392648" lon="0.419168">
        <ele>276.56</ele>
        <time>2018-06-10T11:49:52Z</time>
      </trkpt>
      <trkpt lat="41.392634" lon="0.419123">
        <ele>276.76</ele>
        <time>2018-06-10T11:49:53Z</time>
      </trkpt>
      <trkpt lat="41.392621" lon="0.419080">
        <ele>276.96</ele>
        <time>2018-06-10T11:49:54Z</time>
      </trkpt>
      <trkpt lat="41.392582" lon="0.419021">
        <ele>277.36</ele>
        <time>2018-06-10T11:49:56Z</time>
      </trkpt>
      <trkpt lat="41.392530" lon="0.419029">
        <ele>277.76</ele>
        <time>2018-06-10T11:49:58Z</time>
      </trkpt>
      <trkpt lat="41.392475" lon="0.419070">
        <ele>278.08</ele>
        <time>2018-06-10T11:50:00Z</time>
      </trkpt>
      <trkpt lat="41.392410" lon="0.419118">
        <ele>278.28</ele>
        <time>2018-06-10T11:50:02Z</time>
      </trkpt>
      <trkpt lat="41.392374" lon="0.419144">
        <ele>278.38</ele>
        <time>2018-06-10T11:50:03Z</time>
      </trkpt>
      <trkpt lat="41.392338" lon="0.419170">
        <ele>278.48</ele>
        <time>2018-06-10T11:50:04Z</time>
      </trkpt>
      <trkpt lat="41.392300" lon="0.419196">
        <ele>278.58</ele>
        <time>2018-06-10T11:50:05Z</time>
      </trkpt>
      <trkpt lat="41.392262" lon="0.419220">
        <ele>278.68</ele>
        <time>2018-06-10T11:50:06Z</time>
      </trkpt>
      <trkpt lat="41.392223" lon="0.419246">
        <ele>278.78</ele>
        <time>2018-06-10T11:50:07Z</time>
      </trkpt>
      <trkpt lat="41.392183" lon="0.419270">
        <ele>278.88</ele>
        <time>2018-06-10T11:50:08Z</time>
      </trkpt>
      <trkpt lat="41.392142" lon="0.419296">
        <ele>278.98</ele>
        <time>2018-06-10T11:50:09Z</time>
      </trkpt>
      <trkpt lat="41.392101" lon="0.419324">
        <ele>278.92</ele>
        <time>2018-06-10T11:50:10Z</time>
      </trkpt>
      <trkpt lat="41.392060" lon="0.419352">
        <ele>278.82</ele>
        <time>2018-06-10T11:50:11Z</time>
      </trkpt>
      <trkpt lat="41.392019" lon="0.419382">
        <ele>278.72</ele>
        <time>2018-06-10T11:50:12Z</time>
      </trkpt>
      <trkpt lat="41.391979" lon="0.419410">
        <ele>278.62</ele>
        <time>2018-06-10T11:50:13Z</time>
      </trkpt>
      <trkpt lat="41.391940" lon="0.419438">
        <ele>278.52</ele>
        <time>2018-06-10T11:50:14Z</time>
      </trkpt>
      <trkpt lat="41.391902" lon="0.419466">
        <ele>278.42</ele>
        <time>2018-06-10T11:50:15Z</time>
      </trkpt>
      <trkpt lat="41.391867" lon="0.419496">
        <ele>278.32</ele>
        <time>2018-06-10T11:50:16Z</time>
      </trkpt>
      <trkpt lat="41.391831" lon="0.419526">
        <ele>278.22</ele>
        <time>2018-06-10T11:50:17Z</time>
      </trkpt>
      <trkpt lat="41.391795" lon="0.419552">
        <ele>278.12</ele>
        <time>2018-06-10T11:50:18Z</time>
      </trkpt>
      <trkpt lat="41.391762" lon="0.419584">
        <ele>278.02</ele>
        <time>2018-06-10T11:50:19Z</time>
      </trkpt>
      <trkpt lat="41.391733" lon="0.419616">
        <ele>278.08</ele>
        <time>2018-06-10T11:50:20Z</time>
      </trkpt>
      <trkpt lat="41.391671" lon="0.419648">
        <ele>278.28</ele>
        <time>2018-06-10T11:50:22Z</time>
      </trkpt>
      <trkpt lat="41.391616" lon="0.419642">
        <ele>278.48</ele>
        <time>2018-06-10T11:50:24Z</time>
      </trkpt>
      <trkpt lat="41.391570" lon="0.419614">
        <ele>278.68</ele>
        <time>2018-06-10T11:50:26Z</time>
      </trkpt>
      <trkpt lat="41.391525" lon="0.419578">
        <ele>278.88</ele>
        <time>2018-06-10T11:50:28Z</time>
      </trkpt>
      <trkpt lat="41.391479" lon="0.419545">
        <ele>279.00</ele>
        <time>2018-06-10T11:50:30Z</time>
      </trkpt>
      <trkpt lat="41.391429" lon="0.419524">
        <ele>279.00</ele>
        <time>2018-06-10T11:50:32Z</time>
      </trkpt>
      <trkpt lat="41.391377" lon="0.419508">
        <ele>279.00</ele>
        <time>2018-06-10T11:50:34Z</time>
      </trkpt>
      <trkpt lat="41.391325" lon="0.419496">
        <ele>279.00</ele>
        <time>2018-06-10T11:50:36Z</time>
      </trkpt>
      <trkpt lat="41.391272" lon="0.419490">
        <ele>279.00</ele>
        <time>2018-06-10T11:50:38Z</time>
      </trkpt>
      <trkpt lat="41.391219" lon="0.419490">
        <ele>279.17</ele>
        <time>2018-06-10T11:50:40Z</time>
      </trkpt>
      <trkpt lat="41.391163" lon="0.419498">
        <ele>279.57</ele>
        <time>2018-06-10T11:50:42Z</time>
      </trkpt>
      <trkpt lat="41.391110" lon="0.419506">
        <ele>279.96</ele>
        <time>2018-06-10T11:50:44Z</time>
      </trkpt>
      <trkpt lat="41.391064" lon="0.419520">
        <ele>280.36</ele>
        <time>2018-06-10T11:50:46Z</time>
      </trkpt>
      <trkpt lat="41.391025" lon="0.419534">
        <ele>280.75</ele>
        <time>2018-06-10T11:50:48Z</time>
      </trkpt>
      <trkpt lat="41.390987" lon="0.419545">
        <ele>281.15</ele>
        <time>2018-06-10T11:50:50Z</time>
      </trkpt>
      <trkpt lat="41.390950" lon="0.419558">
        <ele>281.54</ele>
        <time>2018-06-10T11:50:52Z</time>
      </trkpt>
      <trkpt lat="41.390915" lon="0.419572">
        <ele>281.94</ele>
        <time>2018-06-10T11:50:54Z</time>
      </trkpt>
      <trkpt lat="41.390878" lon="0.419582">
        <ele>282.34</ele>
        <time>2018-06-10T11:50:56Z</time>
      </trkpt>
      <trkpt lat="41.390841" lon="0.419594">
        <ele>282.74</ele>
        <time>2018-06-10T11:50:58Z</time>
      </trkpt>
      <trkpt lat="41.390800" lon="0.419608">
        <ele>283.00</ele>
        <time>2018-06-10T11:51:00Z</time>
      </trkpt>
      <trkpt lat="41.390759" lon="0.419620">
        <ele>283.00</ele>
        <time>2018-06-10T11:51:02Z</time>
      </trkpt>
      <trkpt lat="41.390720" lon="0.419631">
        <ele>283.00</ele>
        <time>2018-06-10T11:51:04Z</time>
      </trkpt>
      <trkpt lat="41.390684" lon="0.419639">
        <ele>283.00</ele>
        <time>2018-06-10T11:51:06Z</time>
      </trkpt>
      <trkpt lat="41.390632" lon="0.419650">
        <ele>283.00</ele>
        <time>2018-06-10T11:51:09Z</time>
      </trkpt>
      <trkpt lat="41.390595" lon="0.419659">
        <ele>283.34</ele>
        <time>2018-06-10T11:51:11Z</time>
      </trkpt>
      <trkpt lat="41.390557" lon="0.419671">
        <ele>283.74</ele>
        <time>2018-06-10T11:51:13Z</time>
      </trkpt>
      <trkpt lat="41.390518" lon="0.419685">
        <ele>284.14</ele>
        <time>2018-06-10T11:51:15Z</time>
      </trkpt>
      <trkpt lat="41.390483" lon="0.419701">
        <ele>284.55</ele>
        <time>2018-06-10T11:51:17Z</time>
      </trkpt>
      <trkpt lat="41.390438" lon="0.419736">
        <ele>285.15</ele>
        <time>2018-06-10T11:51:20Z</time>
      </trkpt>
      <trkpt lat="41.390412" lon="0.419772">
        <ele>285.56</ele>
        <time>2018-06-10T11:51:22Z</time>
      </trkpt>
      <trkpt lat="41.390384" lon="0.419803">
        <ele>285.96</ele>
        <time>2018-06-10T11:51:24Z</time>
      </trkpt>
      <trkpt lat="41.390356" lon="0.419834">
        <ele>286.37</ele>
        <time>2018-06-10T11:51:26Z</time>
      </trkpt>
      <trkpt lat="41.390328" lon="0.419864">
        <ele>286.77</ele>
        <time>2018-06-10T11:51:28Z</time>
      </trkpt>
      <trkpt lat="41.390297" lon="0.419892">
        <ele>287.09</ele>
        <time>2018-06-10T11:51:30Z</time>
      </trkpt>
      <trkpt lat="41.390262" lon="0.419925">
        <ele>287.29</ele>
        <time>2018-06-10T11:51:32Z</time>
      </trkpt>
      <trkpt lat="41.390225" lon="0.419955">
        <ele>287.48</ele>
        <time>2018-06-10T11:51:34Z</time>
      </trkpt>
      <trkpt lat="41.390187" lon="0.419985">
        <ele>287.68</ele>
        <time>2018-06-10T11:51:36Z</time>
      </trkpt>
      <trkpt lat="41.390144" lon="0.420013">
        <ele>287.88</ele>
        <time>2018-06-10T11:51:38Z</time>
      </trkpt>
      <trkpt lat="41.390098" lon="0.420045">
        <ele>288.00</ele>
        <time>2018-06-10T11:51:40Z</time>
      </trkpt>
      <trkpt lat="41.390051" lon="0.420077">
        <ele>288.00</ele>
        <time>2018-06-10T11:51:42Z</time>
      </trkpt>
      <trkpt lat="41.390005" lon="0.420107">
        <ele>288.00</ele>
        <time>2018-06-10T11:51:44Z</time>
      </trkpt>
      <trkpt lat="41.389962" lon="0.420133">
        <ele>288.00</ele>
        <time>2018-06-10T11:51:46Z</time>
      </trkpt>
      <trkpt lat="41.389919" lon="0.420158">
        <ele>288.00</ele>
        <time>2018-06-10T11:51:48Z</time>
      </trkpt>
      <trkpt lat="41.389875" lon="0.420181">
        <ele>288.00</ele>
        <time>2018-06-10T11:51:50Z</time>
      </trkpt>
      <trkpt lat="41.389826" lon="0.420188">
        <ele>288.00</ele>
        <time>2018-06-10T11:51:52Z</time>
      </trkpt>
      <trkpt lat="41.389779" lon="0.420195">
        <ele>288.00</ele>
        <time>2018-06-10T11:51:54Z</time>
      </trkpt>
      <trkpt lat="41.389737" lon="0.420216">
        <ele>288.00</ele>
        <time>2018-06-10T11:51:56Z</time>
      </trkpt>
      <trkpt lat="41.389700" lon="0.420249">
        <ele>288.00</ele>
        <time>2018-06-10T11:51:58Z</time>
      </trkpt>
      <trkpt lat="41.389671" lon="0.420281">
        <ele>288.07</ele>
        <time>2018-06-10T11:52:00Z</time>
      </trkpt>
      <trkpt lat="41.389639" lon="0.420327">
        <ele>288.36</ele>
        <time>2018-06-10T11:52:03Z</time>
      </trkpt>
      <trkpt lat="41.389613" lon="0.420363">
        <ele>288.64</ele>
        <time>2018-06-10T11:52:06Z</time>
      </trkpt>
      <trkpt lat="41.389593" lon="0.420421">
        <ele>288.93</ele>
        <time>2018-06-10T11:52:09Z</time>
      </trkpt>
      <trkpt lat="41.389520" lon="0.420519">
        <ele>289.53</ele>
        <time>2018-06-10T11:52:15Z</time>
      </trkpt>
      <trkpt lat="41.389281" lon="0.420727">
        <ele>292.15</ele>
        <time>2018-06-10T11:52:30Z</time>
      </trkpt>
      <trkpt lat="41.389240" lon="0.420765">
        <ele>292.75</ele>
        <time>2018-06-10T11:52:33Z</time>
      </trkpt>
      <trkpt lat="41.389213" lon="0.420791">
        <ele>293.15</ele>
        <time>2018-06-10T11:52:35Z</time>
      </trkpt>
      <trkpt lat="41.389177" lon="0.420824">
        <ele>293.75</ele>
        <time>2018-06-10T11:52:38Z</time>
      </trkpt>
      <trkpt lat="41.389130" lon="0.420855">
        <ele>294.18</ele>
        <time>2018-06-10T11:52:41Z</time>
      </trkpt>
      <trkpt lat="41.389084" lon="0.420880">
        <ele>294.48</ele>
        <time>2018-06-10T11:52:44Z</time>
      </trkpt>
      <trkpt lat="41.389038" lon="0.420903">
        <ele>294.78</ele>
        <time>2018-06-10T11:52:47Z</time>
      </trkpt>
      <trkpt lat="41.388992" lon="0.420935">
        <ele>295.32</ele>
        <time>2018-06-10T11:52:50Z</time>
      </trkpt>
      <trkpt lat="41.388950" lon="0.420965">
        <ele>296.51</ele>
        <time>2018-06-10T11:52:53Z</time>
      </trkpt>
      <trkpt lat="41.388919" lon="0.420975">
        <ele>297.31</ele>
        <time>2018-06-10T11:52:55Z</time>
      </trkpt>
      <trkpt lat="41.388872" lon="0.420980">
        <ele>298.51</ele>
        <time>2018-06-10T11:52:58Z</time>
      </trkpt>
      <trkpt lat="41.388824" lon="0.420983">
        <ele>299.34</ele>
        <time>2018-06-10T11:53:01Z</time>
      </trkpt>
      <trkpt lat="41.388790" lon="0.420979">
        <ele>299.74</ele>
        <time>2018-06-10T11:53:03Z</time>
      </trkpt>
      <trkpt lat="41.388742" lon="0.420982">
        <ele>300.32</ele>
        <time>2018-06-10T11:53:06Z</time>
      </trkpt>
      <trkpt lat="41.388697" lon="0.420998">
        <ele>300.91</ele>
        <time>2018-06-10T11:53:09Z</time>
      </trkpt>
      <trkpt lat="41.388648" lon="0.421005">
        <ele>301.26</ele>
        <time>2018-06-10T11:53:12Z</time>
      </trkpt>
      <trkpt lat="41.388600" lon="0.421009">
        <ele>301.57</ele>
        <time>2018-06-10T11:53:15Z</time>
      </trkpt>
      <trkpt lat="41.388549" lon="0.421007">
        <ele>301.88</ele>
        <time>2018-06-10T11:53:18Z</time>
      </trkpt>
      <trkpt lat="41.388498" lon="0.421006">
        <ele>302.37</ele>
        <time>2018-06-10T11:53:21Z</time>
      </trkpt>
      <trkpt lat="41.388449" lon="0.421009">
        <ele>302.97</ele>
        <time>2018-06-10T11:53:24Z</time>
      </trkpt>
      <trkpt lat="41.388400" lon="0.421004">
        <ele>303.56</ele>
        <time>2018-06-10T11:53:27Z</time>
      </trkpt>
      <trkpt lat="41.388354" lon="0.421003">
        <ele>304.24</ele>
        <time>2018-06-10T11:53:30Z</time>
      </trkpt>
      <trkpt lat="41.388306" lon="0.420999">
        <ele>305.14</ele>
        <time>2018-06-10T11:53:33Z</time>
      </trkpt>
      <trkpt lat="41.388274" lon="0.420985">
        <ele>305.74</ele>
        <time>2018-06-10T11:53:35Z</time>
      </trkpt>
      <trkpt lat="41.388230" lon="0.420956">
        <ele>306.65</ele>
        <time>2018-06-10T11:53:38Z</time>
      </trkpt>
      <trkpt lat="41.388188" lon="0.420914">
        <ele>307.00</ele>
        <time>2018-06-10T11:53:41Z</time>
      </trkpt>
      <trkpt lat="41.388150" lon="0.420864">
        <ele>307.00</ele>
        <time>2018-06-10T11:53:44Z</time>
      </trkpt>
      <trkpt lat="41.388112" lon="0.420818">
        <ele>307.00</ele>
        <time>2018-06-10T11:53:47Z</time>
      </trkpt>
      <trkpt lat="41.388072" lon="0.420784">
        <ele>307.26</ele>
        <time>2018-06-10T11:53:50Z</time>
      </trkpt>
      <trkpt lat="41.388038" lon="0.420766">
        <ele>308.16</ele>
        <time>2018-06-10T11:53:53Z</time>
      </trkpt>
      <trkpt lat="41.388017" lon="0.420804">
        <ele>309.06</ele>
        <time>2018-06-10T11:53:56Z</time>
      </trkpt>
      <trkpt lat="41.388024" lon="0.420857">
        <ele>309.66</ele>
        <time>2018-06-10T11:53:58Z</time>
      </trkpt>
      <trkpt lat="41.388041" lon="0.420906">
        <ele>310.08</ele>
        <time>2018-06-10T11:54:00Z</time>
      </trkpt>
      <trkpt lat="41.388075" lon="0.420941">
        <ele>310.28</ele>
        <time>2018-06-10T11:54:02Z</time>
      </trkpt>
      <trkpt lat="41.388104" lon="0.420983">
        <ele>310.48</ele>
        <time>2018-06-10T11:54:04Z</time>
      </trkpt>
      <trkpt lat="41.388129" lon="0.421031">
        <ele>310.68</ele>
        <time>2018-06-10T11:54:06Z</time>
      </trkpt>
      <trkpt lat="41.388159" lon="0.421079">
        <ele>310.88</ele>
        <time>2018-06-10T11:54:08Z</time>
      </trkpt>
      <trkpt lat="41.388193" lon="0.421129">
        <ele>311.00</ele>
        <time>2018-06-10T11:54:10Z</time>
      </trkpt>
      <trkpt lat="41.388228" lon="0.421183">
        <ele>311.00</ele>
        <time>2018-06-10T11:54:12Z</time>
      </trkpt>
      <trkpt lat="41.388267" lon="0.421232">
        <ele>311.00</ele>
        <time>2018-06-10T11:54:14Z</time>
      </trkpt>
      <trkpt lat="41.388310" lon="0.421275">
        <ele>311.00</ele>
        <time>2018-06-10T11:54:16Z</time>
      </trkpt>
      <trkpt lat="41.388353" lon="0.421325">
        <ele>311.00</ele>
        <time>2018-06-10T11:54:18Z</time>
      </trkpt>
      <trkpt lat="41.388391" lon="0.421376">
        <ele>311.00</ele>
        <time>2018-06-10T11:54:20Z</time>
      </trkpt>
      <trkpt lat="41.388430" lon="0.421425">
        <ele>311.00</ele>
        <time>2018-06-10T11:54:22Z</time>
      </trkpt>
      <trkpt lat="41.388471" lon="0.421475">
        <ele>311.00</ele>
        <time>2018-06-10T11:54:24Z</time>
      </trkpt>
      <trkpt lat="41.388508" lon="0.421519">
        <ele>311.00</ele>
        <time>2018-06-10T11:54:26Z</time>
      </trkpt>
      <trkpt lat="41.388545" lon="0.421560">
        <ele>311.00</ele>
        <time>2018-06-10T11:54:28Z</time>
      </trkpt>
      <trkpt lat="41.388580" lon="0.421610">
        <ele>311.08</ele>
        <time>2018-06-10T11:54:30Z</time>
      </trkpt>
      <trkpt lat="41.388604" lon="0.421667">
        <ele>311.28</ele>
        <time>2018-06-10T11:54:32Z</time>
      </trkpt>
      <trkpt lat="41.388619" lon="0.421728">
        <ele>311.48</ele>
        <time>2018-06-10T11:54:34Z</time>
      </trkpt>
      <trkpt lat="41.388620" lon="0.421802">
        <ele>311.67</ele>
        <time>2018-06-10T11:54:36Z</time>
      </trkpt>
      <trkpt lat="41.388620" lon="0.421881">
        <ele>311.87</ele>
        <time>2018-06-10T11:54:38Z</time>
      </trkpt>
      <trkpt lat="41.388621" lon="0.421962">
        <ele>312.00</ele>
        <time>2018-06-10T11:54:40Z</time>
      </trkpt>
      <trkpt lat="41.388611" lon="0.422043">
        <ele>312.00</ele>
        <time>2018-06-10T11:54:42Z</time>
      </trkpt>
      <trkpt lat="41.388592" lon="0.422125">
        <ele>312.00</ele>
        <time>2018-06-10T11:54:44Z</time>
      </trkpt>
      <trkpt lat="41.388555" lon="0.422201">
        <ele>312.00</ele>
        <time>2018-06-10T11:54:46Z</time>
      </trkpt>
      <trkpt lat="41.388519" lon="0.422278">
        <ele>312.00</ele>
        <time>2018-06-10T11:54:48Z</time>
      </trkpt>
      <trkpt lat="41.388488" lon="0.422362">
        <ele>312.09</ele>
        <time>2018-06-10T11:54:50Z</time>
      </trkpt>
      <trkpt lat="41.388444" lon="0.422438">
        <ele>312.29</ele>
        <time>2018-06-10T11:54:52Z</time>
      </trkpt>
      <trkpt lat="41.388419" lon="0.422476">
        <ele>312.39</ele>
        <time>2018-06-10T11:54:53Z</time>
      </trkpt>
      <trkpt lat="41.388396" lon="0.422514">
        <ele>312.49</ele>
        <time>2018-06-10T11:54:54Z</time>
      </trkpt>
      <trkpt lat="41.388374" lon="0.422555">
        <ele>312.59</ele>
        <time>2018-06-10T11:54:55Z</time>
      </trkpt>
      <trkpt lat="41.388350" lon="0.422596">
        <ele>312.69</ele>
        <time>2018-06-10T11:54:56Z</time>
      </trkpt>
      <trkpt lat="41.388322" lon="0.422630">
        <ele>312.78</ele>
        <time>2018-06-10T11:54:57Z</time>
      </trkpt>
      <trkpt lat="41.388287" lon="0.422655">
        <ele>312.88</ele>
        <time>2018-06-10T11:54:58Z</time>
      </trkpt>
      <trkpt lat="41.388250" lon="0.422675">
        <ele>312.98</ele>
        <time>2018-06-10T11:54:59Z</time>
      </trkpt>
      <trkpt lat="41.388213" lon="0.422698">
        <ele>313.00</ele>
        <time>2018-06-10T11:55:00Z</time>
      </trkpt>
      <trkpt lat="41.388178" lon="0.422723">
        <ele>313.00</ele>
        <time>2018-06-10T11:55:01Z</time>
      </trkpt>
      <trkpt lat="41.388145" lon="0.422751">
        <ele>313.00</ele>
        <time>2018-06-10T11:55:02Z</time>
      </trkpt>
      <trkpt lat="41.388117" lon="0.422786">
        <ele>313.00</ele>
        <time>2018-06-10T11:55:03Z</time>
      </trkpt>
      <trkpt lat="41.388092" lon="0.422825">
        <ele>313.00</ele>
        <time>2018-06-10T11:55:04Z</time>
      </trkpt>
      <trkpt lat="41.388069" lon="0.422867">
        <ele>313.00</ele>
        <time>2018-06-10T11:55:05Z</time>
      </trkpt>
      <trkpt lat="41.388047" lon="0.422910">
        <ele>313.00</ele>
        <time>2018-06-10T11:55:06Z</time>
      </trkpt>
      <trkpt lat="41.388026" lon="0.422955">
        <ele>313.00</ele>
        <time>2018-06-10T11:55:07Z</time>
      </trkpt>
      <trkpt lat="41.388006" lon="0.423000">
        <ele>313.00</ele>
        <time>2018-06-10T11:55:08Z</time>
      </trkpt>
      <trkpt lat="41.387985" lon="0.423044">
        <ele>313.00</ele>
        <time>2018-06-10T11:55:09Z</time>
      </trkpt>
      <trkpt lat="41.387964" lon="0.423090">
        <ele>313.06</ele>
        <time>2018-06-10T11:55:10Z</time>
      </trkpt>
      <trkpt lat="41.387944" lon="0.423136">
        <ele>313.16</ele>
        <time>2018-06-10T11:55:11Z</time>
      </trkpt>
      <trkpt lat="41.387922" lon="0.423181">
        <ele>313.26</ele>
        <time>2018-06-10T11:55:12Z</time>
      </trkpt>
      <trkpt lat="41.387900" lon="0.423227">
        <ele>313.37</ele>
        <time>2018-06-10T11:55:13Z</time>
      </trkpt>
      <trkpt lat="41.387879" lon="0.423276">
        <ele>313.47</ele>
        <time>2018-06-10T11:55:14Z</time>
      </trkpt>
      <trkpt lat="41.387858" lon="0.423328">
        <ele>313.57</ele>
        <time>2018-06-10T11:55:15Z</time>
      </trkpt>
      <trkpt lat="41.387837" lon="0.423380">
        <ele>313.67</ele>
        <time>2018-06-10T11:55:16Z</time>
      </trkpt>
      <trkpt lat="41.387815" lon="0.423433">
        <ele>313.78</ele>
        <time>2018-06-10T11:55:17Z</time>
      </trkpt>
      <trkpt lat="41.387795" lon="0.423483">
        <ele>313.88</ele>
        <time>2018-06-10T11:55:18Z</time>
      </trkpt>
      <trkpt lat="41.387774" lon="0.423531">
        <ele>313.98</ele>
        <time>2018-06-10T11:55:19Z</time>
      </trkpt>
      <trkpt lat="41.387752" lon="0.423579">
        <ele>314.16</ele>
        <time>2018-06-10T11:55:20Z</time>
      </trkpt>
      <trkpt lat="41.387729" lon="0.423625">
        <ele>314.36</ele>
        <time>2018-06-10T11:55:21Z</time>
      </trkpt>
      <trkpt lat="41.387707" lon="0.423668">
        <ele>314.55</ele>
        <time>2018-06-10T11:55:22Z</time>
      </trkpt>
      <trkpt lat="41.387686" lon="0.423711">
        <ele>314.75</ele>
        <time>2018-06-10T11:55:23Z</time>
      </trkpt>
      <trkpt lat="41.387667" lon="0.423753">
        <ele>314.94</ele>
        <time>2018-06-10T11:55:24Z</time>
      </trkpt>
      <trkpt lat="41.387646" lon="0.423793">
        <ele>315.14</ele>
        <time>2018-06-10T11:55:25Z</time>
      </trkpt>
      <trkpt lat="41.387625" lon="0.423834">
        <ele>315.33</ele>
        <time>2018-06-10T11:55:26Z</time>
      </trkpt>
      <trkpt lat="41.387603" lon="0.423874">
        <ele>315.53</ele>
        <time>2018-06-10T11:55:27Z</time>
      </trkpt>
      <trkpt lat="41.387583" lon="0.423914">
        <ele>315.72</ele>
        <time>2018-06-10T11:55:28Z</time>
      </trkpt>
      <trkpt lat="41.387565" lon="0.423956">
        <ele>315.91</ele>
        <time>2018-06-10T11:55:29Z</time>
      </trkpt>
      <trkpt lat="41.387531" lon="0.424040">
        <ele>316.16</ele>
        <time>2018-06-10T11:55:31Z</time>
      </trkpt>
      <trkpt lat="41.387503" lon="0.424129">
        <ele>316.36</ele>
        <time>2018-06-10T11:55:33Z</time>
      </trkpt>
      <trkpt lat="41.387493" lon="0.424176">
        <ele>316.46</ele>
        <time>2018-06-10T11:55:34Z</time>
      </trkpt>
      <trkpt lat="41.387473" lon="0.424267">
        <ele>316.67</ele>
        <time>2018-06-10T11:55:36Z</time>
      </trkpt>
      <trkpt lat="41.387454" lon="0.424355">
        <ele>316.87</ele>
        <time>2018-06-10T11:55:38Z</time>
      </trkpt>
      <trkpt lat="41.387441" lon="0.424445">
        <ele>317.14</ele>
        <time>2018-06-10T11:55:40Z</time>
      </trkpt>
      <trkpt lat="41.387435" lon="0.424492">
        <ele>317.34</ele>
        <time>2018-06-10T11:55:41Z</time>
      </trkpt>
      <trkpt lat="41.387430" lon="0.424543">
        <ele>317.53</ele>
        <time>2018-06-10T11:55:42Z</time>
      </trkpt>
      <trkpt lat="41.387426" lon="0.424596">
        <ele>317.72</ele>
        <time>2018-06-10T11:55:43Z</time>
      </trkpt>
      <trkpt lat="41.387297" lon="0.425311">
        <ele>319.93</ele>
        <time>2018-06-10T11:55:59Z</time>
      </trkpt>
      <trkpt lat="41.387274" lon="0.425383">
        <ele>320.14</ele>
        <time>2018-06-10T11:56:01Z</time>
      </trkpt>
      <trkpt lat="41.387249" lon="0.425446">
        <ele>320.35</ele>
        <time>2018-06-10T11:56:03Z</time>
      </trkpt>
      <trkpt lat="41.387223" lon="0.425509">
        <ele>320.56</ele>
        <time>2018-06-10T11:56:05Z</time>
      </trkpt>
      <trkpt lat="41.387175" lon="0.425744">
        <ele>321.00</ele>
        <time>2018-06-10T11:56:24Z</time>
      </trkpt>
    </trkseg>
  </trk>
</gpx>
